<?xml version='1.0' encoding='UTF-8'?><gpx version="1.1" creator="JPX - https://github.com/jenetics/jpx" xmlns="http://www.topografix.com/GPX/1/1"><trk><trkseg><trkpt lat="42.24907721163726" lon="12.636896616217665"><ele>42.0</ele><time>2026-03-28T11:34:27Z</time></trkpt><trkpt lat="42.249070160594165" lon="12.636811905303938"><ele>42.0</ele><time>2026-03-28T11:34:31Z</time></trkpt><trkpt lat="42.24905798481161" lon="12.63670613025711"><ele>42.0</ele><time>2026-03-28T11:34:42Z</time></trkpt><trkpt lat="42.24904145763086" lon="12.636615497917932"><ele>42.0</ele><time>2026-03-28T11:34:44Z</time></trkpt><trkpt lat="42.2490825184236" lon="12.636526737975785"><ele>42.0</ele><time>2026-03-28T11:34:48Z</time></trkpt><trkpt lat="42.249162986052454" lon="12.636545696701777"><ele>42.0</ele><time>2026-03-28T11:34:50Z</time></trkpt><trkpt lat="42.24923757902228" lon="12.636555241349424"><ele>42.0</ele><time>2026-03-28T11:34:51Z</time></trkpt><trkpt lat="42.24932257549709" lon="12.636563347838795"><ele>42.0</ele><time>2026-03-28T11:34:52Z</time></trkpt><trkpt lat="42.24939606375371" lon="12.63658287350087"><ele>42.0</ele><time>2026-03-28T11:34:53Z</time></trkpt><trkpt lat="42.24946490636792" lon="12.636601067932611"><ele>42.0</ele><time>2026-03-28T11:34:54Z</time></trkpt><trkpt lat="42.24952863569004" lon="12.636603469150124"><ele>42.0</ele><time>2026-03-28T11:34:55Z</time></trkpt><trkpt lat="42.249642470767775" lon="12.636597524638589"><ele>42.0</ele><time>2026-03-28T11:34:57Z</time></trkpt><trkpt lat="42.249732519752" lon="12.636548307648681"><ele>42.0</ele><time>2026-03-28T11:34:59Z</time></trkpt><trkpt lat="42.24978714648536" lon="12.636501009983176"><ele>42.400000000000006</ele><time>2026-03-28T11:35:19.999Z</time></trkpt><trkpt lat="42.24992156293858" lon="12.636515086936678"><ele>42.800000000000004</ele><time>2026-03-28T11:35:21.999Z</time></trkpt><trkpt lat="42.25000525571803" lon="12.63653089028938"><ele>43.2</ele><time>2026-03-28T11:35:22.999Z</time></trkpt><trkpt lat="42.25009510048435" lon="12.636547723767082"><ele>43.6</ele><time>2026-03-28T11:35:23.999Z</time></trkpt><trkpt lat="42.25019534316421" lon="12.636562918577352"><ele>44.0</ele><time>2026-03-28T11:35:24.999Z</time></trkpt><trkpt lat="42.25029626153493" lon="12.636581421237059"><ele>44.0</ele><time>2026-03-28T11:35:25.999Z</time></trkpt><trkpt lat="42.25040604043049" lon="12.63659523127009"><ele>44.0</ele><time>2026-03-28T11:35:26.999Z</time></trkpt><trkpt lat="42.25050413192235" lon="12.636614154591731"><ele>44.0</ele><time>2026-03-28T11:35:27.999Z</time></trkpt><trkpt lat="42.25062695142039" lon="12.636645581604842"><ele>44.0</ele><time>2026-03-28T11:35:28.999Z</time></trkpt><trkpt lat="42.250763064154896" lon="12.636677417112141"><ele>44.5</ele><time>2026-03-28T11:35:29.999Z</time></trkpt><trkpt lat="42.2508837688639" lon="12.63671546229887"><ele>45.0</ele><time>2026-03-28T11:35:30.999Z</time></trkpt><trkpt lat="42.25101478283771" lon="12.636755706496263"><ele>45.5</ele><time>2026-03-28T11:35:31.999Z</time></trkpt><trkpt lat="42.25115069143011" lon="12.63681344659915"><ele>46.0</ele><time>2026-03-28T11:35:32.999Z</time></trkpt><trkpt lat="42.25128055348865" lon="12.636852793366176"><ele>46.0</ele><time>2026-03-28T11:35:33.999Z</time></trkpt><trkpt lat="42.25141821759402" lon="12.636912526435315"><ele>46.0</ele><time>2026-03-28T11:35:34.999Z</time></trkpt><trkpt lat="42.25156988641439" lon="12.636964262010496"><ele>46.0</ele><time>2026-03-28T11:35:35.999Z</time></trkpt><trkpt lat="42.25170902064647" lon="12.637024263082532"><ele>46.0</ele><time>2026-03-28T11:35:36.999Z</time></trkpt><trkpt lat="42.251869792756004" lon="12.637071511954337"><ele>46.333333333333336</ele><time>2026-03-28T11:35:37.999Z</time></trkpt><trkpt lat="42.25202886976014" lon="12.637125262293518"><ele>46.666666666666664</ele><time>2026-03-28T11:35:38.999Z</time></trkpt><trkpt lat="42.25219028724181" lon="12.637178195584175"><ele>47.0</ele><time>2026-03-28T11:35:39.999Z</time></trkpt><trkpt lat="42.25235463831324" lon="12.637233791723096"><ele>48.33333333333333</ele><time>2026-03-28T11:35:40.999Z</time></trkpt><trkpt lat="42.252516265653504" lon="12.637296575462855"><ele>49.666666666666664</ele><time>2026-03-28T11:35:41.999Z</time></trkpt><trkpt lat="42.252686882250025" lon="12.637359849489895"><ele>51.0</ele><time>2026-03-28T11:35:42.999Z</time></trkpt><trkpt lat="42.25286300974449" lon="12.637415812179526"><ele>51.0</ele><time>2026-03-28T11:35:43.999Z</time></trkpt><trkpt lat="42.25304680442181" lon="12.637478975714243"><ele>51.0</ele><time>2026-03-28T11:35:44.999Z</time></trkpt><trkpt lat="42.25324249892159" lon="12.637539426668482"><ele>51.0</ele><time>2026-03-28T11:35:45.999Z</time></trkpt><trkpt lat="42.25343880517688" lon="12.637612598553666"><ele>52.0</ele><time>2026-03-28T11:35:46.999Z</time></trkpt><trkpt lat="42.2536153519026" lon="12.63768742320122"><ele>53.0</ele><time>2026-03-28T11:35:47.999Z</time></trkpt><trkpt lat="42.25379753321879" lon="12.637741808611695"><ele>54.0</ele><time>2026-03-28T11:35:48.999Z</time></trkpt><trkpt lat="42.2539469315972" lon="12.637797006569695"><ele>54.75</ele><time>2026-03-28T11:35:49.999Z</time></trkpt><trkpt lat="42.25410080021562" lon="12.637855508889643"><ele>55.5</ele><time>2026-03-28T11:35:50.999Z</time></trkpt><trkpt lat="42.254247383007566" lon="12.637903085404119"><ele>56.25</ele><time>2026-03-28T11:35:51.999Z</time></trkpt><trkpt lat="42.25436080239094" lon="12.63794939025638"><ele>57.0</ele><time>2026-03-28T11:35:52.999Z</time></trkpt><trkpt lat="42.25447058962658" lon="12.637998047241826"><ele>57.0</ele><time>2026-03-28T11:35:53.999Z</time></trkpt><trkpt lat="42.25457003246161" lon="12.63805071591442"><ele>57.0</ele><time>2026-03-28T11:35:54.999Z</time></trkpt><trkpt lat="42.254637277014275" lon="12.638128474710316"><ele>57.0</ele><time>2026-03-28T11:35:55.999Z</time></trkpt><trkpt lat="42.25468874699498" lon="12.63821587817979"><ele>57.0</ele><time>2026-03-28T11:35:56.999Z</time></trkpt><trkpt lat="42.25473678600319" lon="12.638319961168014"><ele>57.0</ele><time>2026-03-28T11:35:57.999Z</time></trkpt><trkpt lat="42.254793278767174" lon="12.638415428300933"><ele>56.833333333333336</ele><time>2026-03-28T11:35:58.999Z</time></trkpt><trkpt lat="42.254863164635005" lon="12.638459805542338"><ele>56.66666666666667</ele><time>2026-03-28T11:35:59.999Z</time></trkpt><trkpt lat="42.254935093423434" lon="12.638475366762417"><ele>56.5</ele><time>2026-03-28T11:36:00.999Z</time></trkpt><trkpt lat="42.25499853714672" lon="12.638430067870718"><ele>56.333333333333336</ele><time>2026-03-28T11:36:01.999Z</time></trkpt><trkpt lat="42.25507203330563" lon="12.63836649143239"><ele>56.16666666666667</ele><time>2026-03-28T11:36:02.999Z</time></trkpt><trkpt lat="42.25512250976032" lon="12.638278056481221"><ele>56.0</ele><time>2026-03-28T11:36:03.999Z</time></trkpt><trkpt lat="42.255298240515174" lon="12.638349106447285"><ele>56.0</ele><time>2026-03-28T11:36:05.999Z</time></trkpt><trkpt lat="42.255409153508296" lon="12.638391202075834"><ele>56.0</ele><time>2026-03-28T11:36:06.999Z</time></trkpt><trkpt lat="42.25554468210412" lon="12.638484131623114"><ele>56.0</ele><time>2026-03-28T11:36:07.999Z</time></trkpt><trkpt lat="42.255709161871216" lon="12.638577174124999"><ele>56.0</ele><time>2026-03-28T11:36:08.999Z</time></trkpt><trkpt lat="42.25588649185719" lon="12.638675044481298"><ele>55.66666666666667</ele><time>2026-03-28T11:36:09.999Z</time></trkpt><trkpt lat="42.25607680040779" lon="12.638782891048676"><ele>55.33333333333333</ele><time>2026-03-28T11:36:10.999Z</time></trkpt><trkpt lat="42.25626461491393" lon="12.638903644567598"><ele>55.0</ele><time>2026-03-28T11:36:11.999Z</time></trkpt><trkpt lat="42.25643877711838" lon="12.63902980012228"><ele>53.666666666666664</ele><time>2026-03-28T11:36:12.999Z</time></trkpt><trkpt lat="42.25659227201367" lon="12.639153194889849"><ele>52.33333333333333</ele><time>2026-03-28T11:36:13.999Z</time></trkpt><trkpt lat="42.256742788507125" lon="12.639263081817495"><ele>51.0</ele><time>2026-03-28T11:36:14.999Z</time></trkpt><trkpt lat="42.256916397615726" lon="12.639341983726228"><ele>51.0</ele><time>2026-03-28T11:36:15.999Z</time></trkpt><trkpt lat="42.257100974673506" lon="12.639385029146112"><ele>51.0</ele><time>2026-03-28T11:36:16.999Z</time></trkpt><trkpt lat="42.25730996182649" lon="12.63940733459735"><ele>51.0</ele><time>2026-03-28T11:36:17.999Z</time></trkpt><trkpt lat="42.2575103391661" lon="12.639375294393231"><ele>50.0</ele><time>2026-03-28T11:36:18.999Z</time></trkpt><trkpt lat="42.25772611508621" lon="12.639333056909393"><ele>49.0</ele><time>2026-03-28T11:36:19.999Z</time></trkpt><trkpt lat="42.257949035957665" lon="12.639292825123603"><ele>48.0</ele><time>2026-03-28T11:36:20.999Z</time></trkpt><trkpt lat="42.25817148419809" lon="12.639251259681117"><ele>47.0</ele><time>2026-03-28T11:36:21.999Z</time></trkpt><trkpt lat="42.258402898851116" lon="12.63919325697866"><ele>46.0</ele><time>2026-03-28T11:36:22.999Z</time></trkpt><trkpt lat="42.25864198791772" lon="12.639126888841814"><ele>46.0</ele><time>2026-03-28T11:36:23.999Z</time></trkpt><trkpt lat="42.25887888864839" lon="12.639046179189304"><ele>46.0</ele><time>2026-03-28T11:36:24.999Z</time></trkpt><trkpt lat="42.259111618085754" lon="12.638964135925582"><ele>46.5</ele><time>2026-03-28T11:36:25.999Z</time></trkpt><trkpt lat="42.25934460454849" lon="12.63888323345976"><ele>47.0</ele><time>2026-03-28T11:36:26.999Z</time></trkpt><trkpt lat="42.259577172570694" lon="12.638807158218766"><ele>49.0</ele><time>2026-03-28T11:36:27.999Z</time></trkpt><trkpt lat="42.25981752564384" lon="12.638760952183512"><ele>51.0</ele><time>2026-03-28T11:36:28.999Z</time></trkpt><trkpt lat="42.260045666892985" lon="12.638714673877056"><ele>51.0</ele><time>2026-03-28T11:36:29.999Z</time></trkpt><trkpt lat="42.26027138842615" lon="12.638685767826253"><ele>51.0</ele><time>2026-03-28T11:36:31Z</time></trkpt><trkpt lat="42.260497186609165" lon="12.638679020295555"><ele>51.0</ele><time>2026-03-28T11:36:32Z</time></trkpt><trkpt lat="42.26071551452061" lon="12.638684031231131"><ele>51.0</ele><time>2026-03-28T11:36:33Z</time></trkpt><trkpt lat="42.26093737696241" lon="12.638705716291494"><ele>51.0</ele><time>2026-03-28T11:36:34Z</time></trkpt><trkpt lat="42.261152524957325" lon="12.638738867739399"><ele>51.0</ele><time>2026-03-28T11:36:35Z</time></trkpt><trkpt lat="42.261367786667805" lon="12.638758032213627"><ele>51.0</ele><time>2026-03-28T11:36:36Z</time></trkpt><trkpt lat="42.261584995003766" lon="12.638801958562345"><ele>51.0</ele><time>2026-03-28T11:36:37Z</time></trkpt><trkpt lat="42.261792742843724" lon="12.638837277058348"><ele>52.0</ele><time>2026-03-28T11:36:38Z</time></trkpt><trkpt lat="42.262001145187895" lon="12.638872174108734"><ele>53.0</ele><time>2026-03-28T11:36:39Z</time></trkpt><trkpt lat="42.26221220280575" lon="12.63890968803068"><ele>54.0</ele><time>2026-03-28T11:36:40Z</time></trkpt><trkpt lat="42.262418667441096" lon="12.638957770211999"><ele>56.0</ele><time>2026-03-28T11:36:41Z</time></trkpt><trkpt lat="42.26262149582645" lon="12.63901335222078"><ele>58.0</ele><time>2026-03-28T11:36:42Z</time></trkpt><trkpt lat="42.26282467756189" lon="12.639068512846478"><ele>60.0</ele><time>2026-03-28T11:36:43Z</time></trkpt><trkpt lat="42.26302465589601" lon="12.639119004878536"><ele>62.33333333333333</ele><time>2026-03-28T11:36:44Z</time></trkpt><trkpt lat="42.26322260258432" lon="12.639172068330122"><ele>64.66666666666666</ele><time>2026-03-28T11:36:45Z</time></trkpt><trkpt lat="42.263414414194585" lon="12.639229426160085"><ele>67.0</ele><time>2026-03-28T11:36:46Z</time></trkpt><trkpt lat="42.263606654038114" lon="12.639287184505374"><ele>67.0</ele><time>2026-03-28T11:36:47Z</time></trkpt><trkpt lat="42.263788373619" lon="12.639342137712843"><ele>67.0</ele><time>2026-03-28T11:36:48Z</time></trkpt><trkpt lat="42.263977297882356" lon="12.639396521449386"><ele>67.0</ele><time>2026-03-28T11:36:49Z</time></trkpt><trkpt lat="42.26415939426571" lon="12.639447153189556"><ele>68.33333333333333</ele><time>2026-03-28T11:36:50Z</time></trkpt><trkpt lat="42.26434251942401" lon="12.639497635097932"><ele>69.66666666666667</ele><time>2026-03-28T11:36:51Z</time></trkpt><trkpt lat="42.264526443836004" lon="12.639550500330847"><ele>71.0</ele><time>2026-03-28T11:36:52Z</time></trkpt><trkpt lat="42.26471055379566" lon="12.639600001563783"><ele>72.33333333333334</ele><time>2026-03-28T11:36:53Z</time></trkpt><trkpt lat="42.26489603475664" lon="12.63965116534402"><ele>73.66666666666667</ele><time>2026-03-28T11:36:54Z</time></trkpt><trkpt lat="42.26508310164087" lon="12.639694416069913"><ele>75.0</ele><time>2026-03-28T11:36:55Z</time></trkpt><trkpt lat="42.26526749229966" lon="12.639733209025927"><ele>75.0</ele><time>2026-03-28T11:36:56Z</time></trkpt><trkpt lat="42.265457296111585" lon="12.63977889977019"><ele>75.0</ele><time>2026-03-28T11:36:57Z</time></trkpt><trkpt lat="42.26564182632288" lon="12.639836662182564"><ele>75.0</ele><time>2026-03-28T11:36:58Z</time></trkpt><trkpt lat="42.26582390069633" lon="12.63989002629865"><ele>76.0</ele><time>2026-03-28T11:36:59Z</time></trkpt><trkpt lat="42.26601594497358" lon="12.639936861955775"><ele>77.0</ele><time>2026-03-28T11:37:00Z</time></trkpt><trkpt lat="42.266207170291665" lon="12.639988004069332"><ele>78.0</ele><time>2026-03-28T11:37:01Z</time></trkpt><trkpt lat="42.26639937448735" lon="12.640041449455921"><ele>80.33333333333333</ele><time>2026-03-28T11:37:02Z</time></trkpt><trkpt lat="42.26659445772868" lon="12.640092263060268"><ele>82.66666666666666</ele><time>2026-03-28T11:37:03Z</time></trkpt><trkpt lat="42.266786755259524" lon="12.64014232072827"><ele>85.0</ele><time>2026-03-28T11:37:04Z</time></trkpt><trkpt lat="42.26697579382127" lon="12.640195511805706"><ele>85.0</ele><time>2026-03-28T11:37:05Z</time></trkpt><trkpt lat="42.267146342257846" lon="12.640243323047605"><ele>85.0</ele><time>2026-03-28T11:37:06Z</time></trkpt><trkpt lat="42.26733582842751" lon="12.64027313502851"><ele>85.0</ele><time>2026-03-28T11:37:07Z</time></trkpt><trkpt lat="42.26752910744112" lon="12.640307272275084"><ele>89.0</ele><time>2026-03-28T11:37:08Z</time></trkpt><trkpt lat="42.26771466609233" lon="12.640319824480239"><ele>93.0</ele><time>2026-03-28T11:37:09Z</time></trkpt><trkpt lat="42.26789992364474" lon="12.640327673945665"><ele>97.0</ele><time>2026-03-28T11:37:10Z</time></trkpt><trkpt lat="42.2680784459997" lon="12.640333915981783"><ele>97.0</ele><time>2026-03-28T11:37:11Z</time></trkpt><trkpt lat="42.268249069615" lon="12.640335265666485"><ele>97.0</ele><time>2026-03-28T11:37:12Z</time></trkpt><trkpt lat="42.268387248598195" lon="12.640304443519613"><ele>97.0</ele><time>2026-03-28T11:37:13Z</time></trkpt><trkpt lat="42.26854699378555" lon="12.640267639463739"><ele>97.0</ele><time>2026-03-28T11:37:14Z</time></trkpt><trkpt lat="42.268696610883154" lon="12.640260673234291"><ele>97.0</ele><time>2026-03-28T11:37:15Z</time></trkpt><trkpt lat="42.268858454898115" lon="12.640305445984787"><ele>97.0</ele><time>2026-03-28T11:37:16Z</time></trkpt><trkpt lat="42.26901063145359" lon="12.640357668147612"><ele>90.33333333333334</ele><time>2026-03-28T11:37:17Z</time></trkpt><trkpt lat="42.269174845856156" lon="12.640437872354058"><ele>83.66666666666667</ele><time>2026-03-28T11:37:18Z</time></trkpt><trkpt lat="42.26933456094692" lon="12.640505412161641"><ele>77.0</ele><time>2026-03-28T11:37:19Z</time></trkpt><trkpt lat="42.26949120235617" lon="12.640597350630355"><ele>77.0</ele><time>2026-03-28T11:37:20Z</time></trkpt><trkpt lat="42.26964836379753" lon="12.640691446026532"><ele>77.0</ele><time>2026-03-28T11:37:21Z</time></trkpt><trkpt lat="42.26980259421953" lon="12.64078913369859"><ele>77.0</ele><time>2026-03-28T11:37:22Z</time></trkpt><trkpt lat="42.26996111975054" lon="12.64087664520043"><ele>74.0</ele><time>2026-03-28T11:37:23Z</time></trkpt><trkpt lat="42.270118428846274" lon="12.640969630189655"><ele>71.0</ele><time>2026-03-28T11:37:24Z</time></trkpt><trkpt lat="42.270277196338945" lon="12.641062951758332"><ele>68.0</ele><time>2026-03-28T11:37:24.999Z</time></trkpt><trkpt lat="42.27043701032899" lon="12.641161875428663"><ele>68.0</ele><time>2026-03-28T11:37:25.999Z</time></trkpt><trkpt lat="42.27059618588676" lon="12.641256038001032"><ele>68.0</ele><time>2026-03-28T11:37:26.999Z</time></trkpt><trkpt lat="42.27075192386853" lon="12.641340205882186"><ele>68.0</ele><time>2026-03-28T11:37:27.999Z</time></trkpt><trkpt lat="42.27090926333062" lon="12.641423469493265"><ele>67.66666666666667</ele><time>2026-03-28T11:37:29Z</time></trkpt><trkpt lat="42.27107298276076" lon="12.641504254909822"><ele>67.33333333333333</ele><time>2026-03-28T11:37:29.999Z</time></trkpt><trkpt lat="42.271234896019" lon="12.641561185354691"><ele>67.0</ele><time>2026-03-28T11:37:30.999Z</time></trkpt><trkpt lat="42.27140301217675" lon="12.641584387621611"><ele>67.66666666666666</ele><time>2026-03-28T11:37:31.999Z</time></trkpt><trkpt lat="42.27156755115567" lon="12.641580560361716"><ele>68.33333333333333</ele><time>2026-03-28T11:37:32.999Z</time></trkpt><trkpt lat="42.27172066141976" lon="12.641549044589409"><ele>69.0</ele><time>2026-03-28T11:37:33.999Z</time></trkpt><trkpt lat="42.271868079943395" lon="12.641495833302399"><ele>69.0</ele><time>2026-03-28T11:37:34.999Z</time></trkpt><trkpt lat="42.272010828720994" lon="12.641413376365612"><ele>69.0</ele><time>2026-03-28T11:37:35.999Z</time></trkpt><trkpt lat="42.27215858587512" lon="12.641304426836637"><ele>69.0</ele><time>2026-03-28T11:37:36.999Z</time></trkpt><trkpt lat="42.272298737538335" lon="12.64118755153514"><ele>67.0</ele><time>2026-03-28T11:37:37.999Z</time></trkpt><trkpt lat="42.272434344735196" lon="12.641092592586228"><ele>65.0</ele><time>2026-03-28T11:37:38.999Z</time></trkpt><trkpt lat="42.2725546542886" lon="12.641006739800256"><ele>63.0</ele><time>2026-03-28T11:37:39.999Z</time></trkpt><trkpt lat="42.27267931212851" lon="12.640914847282808"><ele>61.0</ele><time>2026-03-28T11:37:40.999Z</time></trkpt><trkpt lat="42.27280440367539" lon="12.64082073755464"><ele>61.0</ele><time>2026-03-28T11:37:41.999Z</time></trkpt><trkpt lat="42.27292582069105" lon="12.640726869805409"><ele>61.0</ele><time>2026-03-28T11:37:42.999Z</time></trkpt><trkpt lat="42.2730429394387" lon="12.640639298777877"><ele>61.0</ele><time>2026-03-28T11:37:43.999Z</time></trkpt><trkpt lat="42.273160565825094" lon="12.640545938080301"><ele>61.0</ele><time>2026-03-28T11:37:44.999Z</time></trkpt><trkpt lat="42.27327960010762" lon="12.64045116687071"><ele>60.75</ele><time>2026-03-28T11:37:45.999Z</time></trkpt><trkpt lat="42.27340185286209" lon="12.640356161302234"><ele>60.5</ele><time>2026-03-28T11:37:46.999Z</time></trkpt><trkpt lat="42.27351890473507" lon="12.640267394925385"><ele>60.25</ele><time>2026-03-28T11:37:47.999Z</time></trkpt><trkpt lat="42.27362521225152" lon="12.640188691472956"><ele>60.0</ele><time>2026-03-28T11:37:48.999Z</time></trkpt><trkpt lat="42.27372878032452" lon="12.640108588512028"><ele>60.5</ele><time>2026-03-28T11:37:49.999Z</time></trkpt><trkpt lat="42.273836769253336" lon="12.640029445426581"><ele>61.0</ele><time>2026-03-28T11:37:50.999Z</time></trkpt><trkpt lat="42.27395637062192" lon="12.639969978444663"><ele>61.5</ele><time>2026-03-28T11:37:51.999Z</time></trkpt><trkpt lat="42.274080104794166" lon="12.639936472309577"><ele>62.0</ele><time>2026-03-28T11:37:52.999Z</time></trkpt><trkpt lat="42.27420476363153" lon="12.63994260692193"><ele>63.5</ele><time>2026-03-28T11:37:53.999Z</time></trkpt><trkpt lat="42.274328751772934" lon="12.639977316619424"><ele>65.0</ele><time>2026-03-28T11:37:54.999Z</time></trkpt><trkpt lat="42.27445120272116" lon="12.64003829616181"><ele>66.5</ele><time>2026-03-28T11:37:55.999Z</time></trkpt><trkpt lat="42.27456687631871" lon="12.640125971318529"><ele>68.0</ele><time>2026-03-28T11:37:56.999Z</time></trkpt><trkpt lat="42.27466986053998" lon="12.640244077665438"><ele>67.75</ele><time>2026-03-28T11:37:57.999Z</time></trkpt><trkpt lat="42.27476592546946" lon="12.640384277562184"><ele>67.5</ele><time>2026-03-28T11:37:58.999Z</time></trkpt><trkpt lat="42.274855537643845" lon="12.640533836678506"><ele>67.25</ele><time>2026-03-28T11:37:59.999Z</time></trkpt><trkpt lat="42.27496000523338" lon="12.640688438185588"><ele>67.0</ele><time>2026-03-28T11:38:00.999Z</time></trkpt><trkpt lat="42.27507367085555" lon="12.640842905691427"><ele>67.0</ele><time>2026-03-28T11:38:01.999Z</time></trkpt><trkpt lat="42.275184890904015" lon="12.641022573314986"><ele>67.0</ele><time>2026-03-28T11:38:02.999Z</time></trkpt><trkpt lat="42.275294205157" lon="12.641194430400134"><ele>67.0</ele><time>2026-03-28T11:38:03.999Z</time></trkpt><trkpt lat="42.27539957082407" lon="12.641364116062624"><ele>68.33333333333333</ele><time>2026-03-28T11:38:04.999Z</time></trkpt><trkpt lat="42.275501451360036" lon="12.641541944740363"><ele>69.66666666666667</ele><time>2026-03-28T11:38:05.999Z</time></trkpt><trkpt lat="42.27559176507676" lon="12.641729119193707"><ele>71.0</ele><time>2026-03-28T11:38:06.999Z</time></trkpt><trkpt lat="42.275657591380174" lon="12.641921537356303"><ele>70.33333333333334</ele><time>2026-03-28T11:38:07.999Z</time></trkpt><trkpt lat="42.275710950418755" lon="12.642119140152515"><ele>69.66666666666667</ele><time>2026-03-28T11:38:08.999Z</time></trkpt><trkpt lat="42.27575376049691" lon="12.642319393897482"><ele>69.0</ele><time>2026-03-28T11:38:09.999Z</time></trkpt><trkpt lat="42.27579761105529" lon="12.642522379810243"><ele>69.0</ele><time>2026-03-28T11:38:10.999Z</time></trkpt><trkpt lat="42.27584837085999" lon="12.64272569827817"><ele>69.0</ele><time>2026-03-28T11:38:11.999Z</time></trkpt><trkpt lat="42.27591431049462" lon="12.642934883852362"><ele>69.0</ele><time>2026-03-28T11:38:12.999Z</time></trkpt><trkpt lat="42.276014488431336" lon="12.643160190629363"><ele>67.66666666666667</ele><time>2026-03-28T11:38:13.999Z</time></trkpt><trkpt lat="42.276130167825066" lon="12.643391317121127"><ele>66.33333333333334</ele><time>2026-03-28T11:38:14.999Z</time></trkpt><trkpt lat="42.27623441624952" lon="12.643660250190027"><ele>65.0</ele><time>2026-03-28T11:38:15.999Z</time></trkpt><trkpt lat="42.276354532734715" lon="12.643928132551517"><ele>69.0</ele><time>2026-03-28T11:38:16.999Z</time></trkpt><trkpt lat="42.27648761870381" lon="12.644187326236537"><ele>73.0</ele><time>2026-03-28T11:38:17.999Z</time></trkpt><trkpt lat="42.27659383303372" lon="12.64444524935961"><ele>71.66666666666666</ele><time>2026-03-28T11:38:18.999Z</time></trkpt><trkpt lat="42.2766919249713" lon="12.644676227307595"><ele>70.33333333333333</ele><time>2026-03-28T11:38:19.999Z</time></trkpt><trkpt lat="42.27678507127118" lon="12.644898090439899"><ele>69.0</ele><time>2026-03-28T11:38:20.999Z</time></trkpt><trkpt lat="42.276879590647525" lon="12.64511885115434"><ele>68.33333333333333</ele><time>2026-03-28T11:38:21.999Z</time></trkpt><trkpt lat="42.27697430057921" lon="12.645329327605412"><ele>67.66666666666666</ele><time>2026-03-28T11:38:22.999Z</time></trkpt><trkpt lat="42.277064553705685" lon="12.645530062208005"><ele>67.0</ele><time>2026-03-28T11:38:23.999Z</time></trkpt><trkpt lat="42.27715045681852" lon="12.64572278431863"><ele>67.0</ele><time>2026-03-28T11:38:24.999Z</time></trkpt><trkpt lat="42.277238060152094" lon="12.645911344734627"><ele>67.0</ele><time>2026-03-28T11:38:25.999Z</time></trkpt><trkpt lat="42.27732834562779" lon="12.646087859656742"><ele>67.0</ele><time>2026-03-28T11:38:26.999Z</time></trkpt><trkpt lat="42.2774179266625" lon="12.64626070459389"><ele>68.66666666666666</ele><time>2026-03-28T11:38:27.999Z</time></trkpt><trkpt lat="42.27751508285168" lon="12.646427298858036"><ele>70.33333333333333</ele><time>2026-03-28T11:38:28.999Z</time></trkpt><trkpt lat="42.2776208437487" lon="12.646586384823776"><ele>72.0</ele><time>2026-03-28T11:38:29.999Z</time></trkpt><trkpt lat="42.27771598894624" lon="12.646731779766249"><ele>72.0</ele><time>2026-03-28T11:38:30.999Z</time></trkpt><trkpt lat="42.277838305026954" lon="12.64687471814805"><ele>72.0</ele><time>2026-03-28T11:38:31.999Z</time></trkpt><trkpt lat="42.27794974911225" lon="12.647018052280913"><ele>72.0</ele><time>2026-03-28T11:38:32.999Z</time></trkpt><trkpt lat="42.27805741084554" lon="12.647157481975391"><ele>72.33333333333333</ele><time>2026-03-28T11:38:33.999Z</time></trkpt><trkpt lat="42.27816691739494" lon="12.64729863968563"><ele>72.66666666666666</ele><time>2026-03-28T11:38:34.999Z</time></trkpt><trkpt lat="42.278281774214925" lon="12.647443144168548"><ele>73.0</ele><time>2026-03-28T11:38:35.999Z</time></trkpt><trkpt lat="42.27839337917362" lon="12.647590575086152"><ele>73.0</ele><time>2026-03-28T11:38:37Z</time></trkpt><trkpt lat="42.27850943373542" lon="12.647731239822843"><ele>73.0</ele><time>2026-03-28T11:38:38Z</time></trkpt><trkpt lat="42.27863147459332" lon="12.64786708553052"><ele>73.0</ele><time>2026-03-28T11:38:39Z</time></trkpt><trkpt lat="42.27873232800719" lon="12.647987851194099"><ele>73.0</ele><time>2026-03-28T11:38:40Z</time></trkpt><trkpt lat="42.27888981111608" lon="12.648128826417265"><ele>73.66666666666666</ele><time>2026-03-28T11:38:41Z</time></trkpt><trkpt lat="42.27903152386573" lon="12.648262600055856"><ele>74.33333333333333</ele><time>2026-03-28T11:38:42Z</time></trkpt><trkpt lat="42.27917396444374" lon="12.648393296868841"><ele>75.0</ele><time>2026-03-28T11:38:43Z</time></trkpt><trkpt lat="42.27931447144428" lon="12.648515643747693"><ele>73.66666666666667</ele><time>2026-03-28T11:38:44Z</time></trkpt><trkpt lat="42.27945236706678" lon="12.648630324416901"><ele>72.33333333333334</ele><time>2026-03-28T11:38:45Z</time></trkpt><trkpt lat="42.27959260787783" lon="12.648746134983064"><ele>71.0</ele><time>2026-03-28T11:38:46Z</time></trkpt><trkpt lat="42.279732453729856" lon="12.64886955015076"><ele>72.66666666666667</ele><time>2026-03-28T11:38:47Z</time></trkpt><trkpt lat="42.27987211521391" lon="12.648992265078522"><ele>74.33333333333333</ele><time>2026-03-28T11:38:48Z</time></trkpt><trkpt lat="42.28001409738019" lon="12.649110849384362"><ele>76.0</ele><time>2026-03-28T11:38:49Z</time></trkpt><trkpt lat="42.280151810321456" lon="12.649222275813067"><ele>76.0</ele><time>2026-03-28T11:38:50Z</time></trkpt><trkpt lat="42.280295070427364" lon="12.64932056959062"><ele>76.0</ele><time>2026-03-28T11:38:51Z</time></trkpt><trkpt lat="42.28046457234318" lon="12.64941393226669"><ele>76.0</ele><time>2026-03-28T11:38:52Z</time></trkpt><trkpt lat="42.280633914474166" lon="12.64952314004144"><ele>75.66666666666666</ele><time>2026-03-28T11:38:53Z</time></trkpt><trkpt lat="42.28082213895397" lon="12.649619874607168"><ele>75.33333333333333</ele><time>2026-03-28T11:38:54Z</time></trkpt><trkpt lat="42.281028849091804" lon="12.649727003732373"><ele>75.0</ele><time>2026-03-28T11:38:55Z</time></trkpt><trkpt lat="42.28124364013213" lon="12.649838736166704"><ele>76.0</ele><time>2026-03-28T11:38:56Z</time></trkpt><trkpt lat="42.28146845758649" lon="12.649953557494964"><ele>77.0</ele><time>2026-03-28T11:38:57Z</time></trkpt><trkpt lat="42.2817014416064" lon="12.65006539235033"><ele>77.0</ele><time>2026-03-28T11:38:58Z</time></trkpt><trkpt lat="42.2819392202114" lon="12.65019568285312"><ele>77.0</ele><time>2026-03-28T11:38:59Z</time></trkpt><trkpt lat="42.282190798844" lon="12.650324624928302"><ele>76.5</ele><time>2026-03-28T11:39:00Z</time></trkpt><trkpt lat="42.282446046667886" lon="12.650453548515669"><ele>76.0</ele><time>2026-03-28T11:39:01Z</time></trkpt><trkpt lat="42.28270091593381" lon="12.65059078974195"><ele>76.0</ele><time>2026-03-28T11:39:02Z</time></trkpt><trkpt lat="42.28294849646832" lon="12.650744082463508"><ele>76.0</ele><time>2026-03-28T11:39:03Z</time></trkpt><trkpt lat="42.28317583535771" lon="12.650897594492465"><ele>77.0</ele><time>2026-03-28T11:39:04Z</time></trkpt><trkpt lat="42.28337829536089" lon="12.651033092545257"><ele>78.0</ele><time>2026-03-28T11:39:05Z</time></trkpt><trkpt lat="42.28356989328118" lon="12.65115941931166"><ele>79.0</ele><time>2026-03-28T11:39:06Z</time></trkpt><trkpt lat="42.283761299359874" lon="12.651276766854425"><ele>80.66666666666666</ele><time>2026-03-28T11:39:07Z</time></trkpt><trkpt lat="42.283954026421426" lon="12.651379516760503"><ele>82.33333333333333</ele><time>2026-03-28T11:39:08Z</time></trkpt><trkpt lat="42.28414292225841" lon="12.651476543646222"><ele>84.0</ele><time>2026-03-28T11:39:09Z</time></trkpt><trkpt lat="42.284333730250665" lon="12.651567737330222"><ele>84.0</ele><time>2026-03-28T11:39:10Z</time></trkpt><trkpt lat="42.28451936877645" lon="12.651684253010249"><ele>84.0</ele><time>2026-03-28T11:39:11Z</time></trkpt><trkpt lat="42.28469746768951" lon="12.651820981932076"><ele>84.0</ele><time>2026-03-28T11:39:12Z</time></trkpt><trkpt lat="42.28486752447707" lon="12.651974426585747"><ele>84.0</ele><time>2026-03-28T11:39:13Z</time></trkpt><trkpt lat="42.285013709625964" lon="12.652143890092546"><ele>84.0</ele><time>2026-03-28T11:39:14Z</time></trkpt><trkpt lat="42.285152218004605" lon="12.652341290736766"><ele>84.0</ele><time>2026-03-28T11:39:15Z</time></trkpt><trkpt lat="42.28527743245828" lon="12.652550385414251"><ele>84.0</ele><time>2026-03-28T11:39:16Z</time></trkpt><trkpt lat="42.2854046226751" lon="12.65275277394563"><ele>84.0</ele><time>2026-03-28T11:39:17Z</time></trkpt><trkpt lat="42.28553243309577" lon="12.652915621570537"><ele>84.0</ele><time>2026-03-28T11:39:17.999Z</time></trkpt><trkpt lat="42.2856576709969" lon="12.653135271428066"><ele>84.33333333333333</ele><time>2026-03-28T11:39:18.999Z</time></trkpt><trkpt lat="42.28577352328912" lon="12.653345597989372"><ele>84.66666666666666</ele><time>2026-03-28T11:39:19.999Z</time></trkpt><trkpt lat="42.285922541834594" lon="12.653524111319108"><ele>85.0</ele><time>2026-03-28T11:39:20.999Z</time></trkpt><trkpt lat="42.286078452107134" lon="12.653675885413824"><ele>85.0</ele><time>2026-03-28T11:39:21.999Z</time></trkpt><trkpt lat="42.28624962437676" lon="12.653817024969998"><ele>85.0</ele><time>2026-03-28T11:39:22.999Z</time></trkpt><trkpt lat="42.28641700039762" lon="12.653947893537628"><ele>85.0</ele><time>2026-03-28T11:39:23.999Z</time></trkpt><trkpt lat="42.28658804424149" lon="12.65403078069955"><ele>89.33333333333333</ele><time>2026-03-28T11:39:24.999Z</time></trkpt><trkpt lat="42.28676791630129" lon="12.654116443302824"><ele>93.66666666666666</ele><time>2026-03-28T11:39:25.999Z</time></trkpt><trkpt lat="42.286978276673004" lon="12.654179813337283"><ele>98.0</ele><time>2026-03-28T11:39:26.999Z</time></trkpt><trkpt lat="42.2871850748897" lon="12.654241220376862"><ele>101.0</ele><time>2026-03-28T11:39:27.999Z</time></trkpt><trkpt lat="42.287410858829325" lon="12.654296285041633"><ele>104.0</ele><time>2026-03-28T11:39:28.999Z</time></trkpt><trkpt lat="42.287580133607015" lon="12.654351024903804"><ele>107.0</ele><time>2026-03-28T11:39:29.999Z</time></trkpt><trkpt lat="42.28777945619096" lon="12.65439447884857"><ele>107.0</ele><time>2026-03-28T11:39:30.999Z</time></trkpt><trkpt lat="42.28798861958538" lon="12.654400721799105"><ele>107.0</ele><time>2026-03-28T11:39:31.999Z</time></trkpt><trkpt lat="42.288209603237185" lon="12.654408596963012"><ele>107.0</ele><time>2026-03-28T11:39:32.999Z</time></trkpt><trkpt lat="42.28843027768825" lon="12.654378508497784"><ele>110.66666666666666</ele><time>2026-03-28T11:39:33.999Z</time></trkpt><trkpt lat="42.28861904713727" lon="12.654345827701194"><ele>114.33333333333334</ele><time>2026-03-28T11:39:34.999Z</time></trkpt><trkpt lat="42.28884335692845" lon="12.654306993969177"><ele>118.0</ele><time>2026-03-28T11:39:35.999Z</time></trkpt><trkpt lat="42.288967901134846" lon="12.654234937598748"><ele>120.0</ele><time>2026-03-28T11:39:36.999Z</time></trkpt><trkpt lat="42.289151279320706" lon="12.654185660317768"><ele>122.0</ele><time>2026-03-28T11:39:37.999Z</time></trkpt><trkpt lat="42.28934541020447" lon="12.65414560054348"><ele>124.0</ele><time>2026-03-28T11:39:38.999Z</time></trkpt><trkpt lat="42.28954042298713" lon="12.654113692815683"><ele>124.0</ele><time>2026-03-28T11:39:39.999Z</time></trkpt><trkpt lat="42.28974134653053" lon="12.654081737379068"><ele>124.0</ele><time>2026-03-28T11:39:40.999Z</time></trkpt><trkpt lat="42.28994074717831" lon="12.65403579573283"><ele>124.0</ele><time>2026-03-28T11:39:41.999Z</time></trkpt><trkpt lat="42.29013481336068" lon="12.653980632256923"><ele>124.66666666666667</ele><time>2026-03-28T11:39:42.999Z</time></trkpt><trkpt lat="42.29030393641378" lon="12.653927694429802"><ele>125.33333333333334</ele><time>2026-03-28T11:39:43.999Z</time></trkpt><trkpt lat="42.29046931148228" lon="12.653855562278213"><ele>126.0</ele><time>2026-03-28T11:39:44.999Z</time></trkpt><trkpt lat="42.29062079126803" lon="12.653755572698753"><ele>126.0</ele><time>2026-03-28T11:39:45.999Z</time></trkpt><trkpt lat="42.29075912928089" lon="12.653629852048928"><ele>126.0</ele><time>2026-03-28T11:39:46.999Z</time></trkpt><trkpt lat="42.29090084652742" lon="12.65347258002436"><ele>126.0</ele><time>2026-03-28T11:39:47.999Z</time></trkpt><trkpt lat="42.291032397016735" lon="12.65328077748947"><ele>130.0</ele><time>2026-03-28T11:39:48.999Z</time></trkpt><trkpt lat="42.29116485663693" lon="12.65308352632844"><ele>134.0</ele><time>2026-03-28T11:39:49.999Z</time></trkpt><trkpt lat="42.291296643061514" lon="12.652871997442492"><ele>138.0</ele><time>2026-03-28T11:39:50.999Z</time></trkpt><trkpt lat="42.29143334874452" lon="12.65265247859276"><ele>140.0</ele><time>2026-03-28T11:39:51.999Z</time></trkpt><trkpt lat="42.29157944476786" lon="12.652435115886957"><ele>142.0</ele><time>2026-03-28T11:39:52.999Z</time></trkpt><trkpt lat="42.29173022787156" lon="12.652222130894996"><ele>144.0</ele><time>2026-03-28T11:39:53.999Z</time></trkpt><trkpt lat="42.29188818750923" lon="12.65202870258988"><ele>141.33333333333334</ele><time>2026-03-28T11:39:54.999Z</time></trkpt><trkpt lat="42.29204351119849" lon="12.651865670423591"><ele>138.66666666666669</ele><time>2026-03-28T11:39:55.999Z</time></trkpt><trkpt lat="42.29220818667901" lon="12.65173837565618"><ele>136.0</ele><time>2026-03-28T11:39:56.999Z</time></trkpt><trkpt lat="42.292384213483935" lon="12.651633839765852"><ele>142.0</ele><time>2026-03-28T11:39:57.999Z</time></trkpt><trkpt lat="42.29256951908475" lon="12.651561771009032"><ele>148.0</ele><time>2026-03-28T11:39:58.999Z</time></trkpt><trkpt lat="42.292758468615645" lon="12.651532287639082"><ele>154.0</ele><time>2026-03-28T11:39:59.999Z</time></trkpt><trkpt lat="42.29295317239406" lon="12.651528948305197"><ele>156.0</ele><time>2026-03-28T11:40:00.999Z</time></trkpt><trkpt lat="42.293156216258524" lon="12.651523712269402"><ele>158.0</ele><time>2026-03-28T11:40:01.999Z</time></trkpt><trkpt lat="42.293364875652834" lon="12.651472083549212"><ele>160.0</ele><time>2026-03-28T11:40:02.999Z</time></trkpt><trkpt lat="42.29356156354066" lon="12.651383826010257"><ele>160.0</ele><time>2026-03-28T11:40:03.999Z</time></trkpt><trkpt lat="42.29374213987075" lon="12.651319977182578"><ele>160.0</ele><time>2026-03-28T11:40:04.999Z</time></trkpt><trkpt lat="42.29388579896875" lon="12.651256301992532"><ele>160.0</ele><time>2026-03-28T11:40:05.999Z</time></trkpt><trkpt lat="42.29408603197298" lon="12.651209360254969"><ele>160.33333333333334</ele><time>2026-03-28T11:40:06.999Z</time></trkpt><trkpt lat="42.294270728861605" lon="12.651184005246183"><ele>160.66666666666666</ele><time>2026-03-28T11:40:07.999Z</time></trkpt><trkpt lat="42.294450692731914" lon="12.651173951136363"><ele>161.0</ele><time>2026-03-28T11:40:08.999Z</time></trkpt><trkpt lat="42.294617973995884" lon="12.651163873836692"><ele>161.66666666666666</ele><time>2026-03-28T11:40:09.999Z</time></trkpt><trkpt lat="42.29478224348882" lon="12.651144443184288"><ele>162.33333333333334</ele><time>2026-03-28T11:40:10.999Z</time></trkpt><trkpt lat="42.29495153812544" lon="12.65109949557992"><ele>163.0</ele><time>2026-03-28T11:40:11.999Z</time></trkpt><trkpt lat="42.295117790293695" lon="12.651019291199669"><ele>163.66666666666669</ele><time>2026-03-28T11:40:12.999Z</time></trkpt><trkpt lat="42.295283721520036" lon="12.650901902384268"><ele>164.33333333333334</ele><time>2026-03-28T11:40:13.999Z</time></trkpt><trkpt lat="42.295449720572336" lon="12.65076794061164"><ele>165.0</ele><time>2026-03-28T11:40:14.999Z</time></trkpt><trkpt lat="42.29562005405164" lon="12.650634247747416"><ele>168.33333333333334</ele><time>2026-03-28T11:40:15.999Z</time></trkpt><trkpt lat="42.29578922478484" lon="12.65049835990776"><ele>171.66666666666669</ele><time>2026-03-28T11:40:16.999Z</time></trkpt><trkpt lat="42.29595675956432" lon="12.650376821100696"><ele>175.0</ele><time>2026-03-28T11:40:17.999Z</time></trkpt><trkpt lat="42.29611827954519" lon="12.650293394299517"><ele>176.0</ele><time>2026-03-28T11:40:18.999Z</time></trkpt><trkpt lat="42.296284289544595" lon="12.650242315105094"><ele>177.0</ele><time>2026-03-28T11:40:19.999Z</time></trkpt><trkpt lat="42.29646058886972" lon="12.650209561479052"><ele>178.0</ele><time>2026-03-28T11:40:20.999Z</time></trkpt><trkpt lat="42.296634555743836" lon="12.650170854774238"><ele>178.0</ele><time>2026-03-28T11:40:21.999Z</time></trkpt><trkpt lat="42.29681628526165" lon="12.650106926923067"><ele>178.0</ele><time>2026-03-28T11:40:22.999Z</time></trkpt><trkpt lat="42.29697824740735" lon="12.650128545656422"><ele>178.0</ele><time>2026-03-28T11:40:23.999Z</time></trkpt><trkpt lat="42.29714441830663" lon="12.650175311841924"><ele>181.0</ele><time>2026-03-28T11:40:24.999Z</time></trkpt><trkpt lat="42.29729518711324" lon="12.650218305396358"><ele>184.0</ele><time>2026-03-28T11:40:25.999Z</time></trkpt><trkpt lat="42.2974275284343" lon="12.65020977971279"><ele>187.0</ele><time>2026-03-28T11:40:26.999Z</time></trkpt><trkpt lat="42.297569692573944" lon="12.65013289351425"><ele>190.0</ele><time>2026-03-28T11:40:27.999Z</time></trkpt><trkpt lat="42.29771222642757" lon="12.649992695979009"><ele>190.0</ele><time>2026-03-28T11:40:28.999Z</time></trkpt><trkpt lat="42.29782503867803" lon="12.64981508453771"><ele>190.0</ele><time>2026-03-28T11:40:29.999Z</time></trkpt><trkpt lat="42.29788676253672" lon="12.64962487235707"><ele>190.0</ele><time>2026-03-28T11:40:30.999Z</time></trkpt><trkpt lat="42.29790470750423" lon="12.649401924554963"><ele>191.66666666666669</ele><time>2026-03-28T11:40:31.999Z</time></trkpt><trkpt lat="42.2978952951439" lon="12.649151869387898"><ele>193.33333333333334</ele><time>2026-03-28T11:40:32.999Z</time></trkpt><trkpt lat="42.29786357788053" lon="12.648881280768203"><ele>195.0</ele><time>2026-03-28T11:40:33.999Z</time></trkpt><trkpt lat="42.297839791070245" lon="12.648640773758013"><ele>193.66666666666666</ele><time>2026-03-28T11:40:34.999Z</time></trkpt><trkpt lat="42.29784400455664" lon="12.648437408774967"><ele>192.33333333333331</ele><time>2026-03-28T11:40:35.999Z</time></trkpt><trkpt lat="42.297883808998016" lon="12.648238623630991"><ele>191.0</ele><time>2026-03-28T11:40:36.999Z</time></trkpt><trkpt lat="42.29794780199111" lon="12.648050680455466"><ele>191.0</ele><time>2026-03-28T11:40:37.999Z</time></trkpt><trkpt lat="42.29803575408211" lon="12.647873732325111"><ele>191.0</ele><time>2026-03-28T11:40:38.999Z</time></trkpt><trkpt lat="42.29812877398383" lon="12.647717784599402"><ele>191.0</ele><time>2026-03-28T11:40:39.999Z</time></trkpt><trkpt lat="42.29829994580019" lon="12.647591990028674"><ele>195.33333333333331</ele><time>2026-03-28T11:40:40.999Z</time></trkpt><trkpt lat="42.29849868484804" lon="12.647495103585678"><ele>199.66666666666666</ele><time>2026-03-28T11:40:41.999Z</time></trkpt><trkpt lat="42.29868239606115" lon="12.64736967520122"><ele>204.0</ele><time>2026-03-28T11:40:43Z</time></trkpt><trkpt lat="42.29887376998058" lon="12.647236656284116"><ele>206.33333333333331</ele><time>2026-03-28T11:40:44Z</time></trkpt><trkpt lat="42.29906298183928" lon="12.647101467482967"><ele>208.66666666666666</ele><time>2026-03-28T11:40:45Z</time></trkpt><trkpt lat="42.29925622685165" lon="12.646994556391125"><ele>211.0</ele><time>2026-03-28T11:40:46Z</time></trkpt><trkpt lat="42.29941984966803" lon="12.646905369628934"><ele>212.66666666666666</ele><time>2026-03-28T11:40:47Z</time></trkpt><trkpt lat="42.29957808098918" lon="12.646834838670664"><ele>214.33333333333331</ele><time>2026-03-28T11:40:48Z</time></trkpt><trkpt lat="42.29975628767741" lon="12.646783094732704"><ele>216.0</ele><time>2026-03-28T11:40:49Z</time></trkpt><trkpt lat="42.29995178843537" lon="12.646737792030907"><ele>220.0</ele><time>2026-03-28T11:40:50Z</time></trkpt><trkpt lat="42.30014844992727" lon="12.646731000387737"><ele>224.0</ele><time>2026-03-28T11:40:51Z</time></trkpt><trkpt lat="42.300305396951146" lon="12.646713489286038"><ele>228.0</ele><time>2026-03-28T11:40:52Z</time></trkpt><trkpt lat="42.30046871283898" lon="12.646715424512733"><ele>229.0</ele><time>2026-03-28T11:40:53Z</time></trkpt><trkpt lat="42.30065379588541" lon="12.646686262949396"><ele>230.0</ele><time>2026-03-28T11:40:54Z</time></trkpt><trkpt lat="42.30082493381463" lon="12.646671246030598"><ele>231.0</ele><time>2026-03-28T11:40:55Z</time></trkpt><trkpt lat="42.30095211660243" lon="12.646668574540449"><ele>231.0</ele><time>2026-03-28T11:40:56Z</time></trkpt><trkpt lat="42.30111392794001" lon="12.64663336184375"><ele>231.0</ele><time>2026-03-28T11:40:57Z</time></trkpt><trkpt lat="42.30125572709865" lon="12.646586196508043"><ele>231.0</ele><time>2026-03-28T11:40:58Z</time></trkpt><trkpt lat="42.301363358845215" lon="12.646592923015927"><ele>231.0</ele><time>2026-03-28T11:40:59Z</time></trkpt><trkpt lat="42.30146925635016" lon="12.646589999938175"><ele>232.0</ele><time>2026-03-28T11:41:00Z</time></trkpt><trkpt lat="42.301558433136336" lon="12.64658857744071"><ele>233.00000000000003</ele><time>2026-03-28T11:41:01Z</time></trkpt><trkpt lat="42.301629207200946" lon="12.646597472983157"><ele>234.00000000000003</ele><time>2026-03-28T11:41:02Z</time></trkpt><trkpt lat="42.301697301859974" lon="12.646636627564048"><ele>235.0</ele><time>2026-03-28T11:41:04Z</time></trkpt><trkpt lat="42.301754493583104" lon="12.64686391474381"><ele>236.0</ele><time>2026-03-28T11:41:06Z</time></trkpt><trkpt lat="42.3018233613552" lon="12.646937643271485"><ele>236.5</ele><time>2026-03-28T11:41:07Z</time></trkpt><trkpt lat="42.30183850360291" lon="12.647095473732021"><ele>237.0</ele><time>2026-03-28T11:41:08Z</time></trkpt><trkpt lat="42.301881909859084" lon="12.647250724091132"><ele>237.5</ele><time>2026-03-28T11:41:09Z</time></trkpt><trkpt lat="42.30193224352017" lon="12.647420215854908"><ele>238.0</ele><time>2026-03-28T11:41:10Z</time></trkpt><trkpt lat="42.30196903799695" lon="12.6475675635176"><ele>238.0</ele><time>2026-03-28T11:41:11Z</time></trkpt><trkpt lat="42.30198520950247" lon="12.647675522133223"><ele>238.0</ele><time>2026-03-28T11:41:12Z</time></trkpt><trkpt lat="42.30205019307123" lon="12.64775835679085"><ele>238.0</ele><time>2026-03-28T11:41:13Z</time></trkpt><trkpt lat="42.30215660895579" lon="12.64785892576643"><ele>238.0</ele><time>2026-03-28T11:41:14Z</time></trkpt><trkpt lat="42.30227276311136" lon="12.647910202535247"><ele>238.0</ele><time>2026-03-28T11:41:15Z</time></trkpt><trkpt lat="42.30238789539941" lon="12.647963204875822"><ele>240.5</ele><time>2026-03-28T11:41:16Z</time></trkpt><trkpt lat="42.30250822586585" lon="12.647980873778426"><ele>243.0</ele><time>2026-03-28T11:41:17Z</time></trkpt><trkpt lat="42.30262388680018" lon="12.648015158686059"><ele>245.5</ele><time>2026-03-28T11:41:18Z</time></trkpt><trkpt lat="42.30275256823706" lon="12.648055534973563"><ele>248.0</ele><time>2026-03-28T11:41:19Z</time></trkpt><trkpt lat="42.302918041061034" lon="12.648108538599624"><ele>248.0</ele><time>2026-03-28T11:41:20Z</time></trkpt><trkpt lat="42.303032448355964" lon="12.648161771788164"><ele>248.0</ele><time>2026-03-28T11:41:21Z</time></trkpt><trkpt lat="42.30314592267165" lon="12.648242636927874"><ele>248.0</ele><time>2026-03-28T11:41:22Z</time></trkpt><trkpt lat="42.303233348155985" lon="12.648359948882172"><ele>248.0</ele><time>2026-03-28T11:41:23Z</time></trkpt><trkpt lat="42.303349128736805" lon="12.648447870343535"><ele>250.25</ele><time>2026-03-28T11:41:24Z</time></trkpt><trkpt lat="42.30346888054552" lon="12.648573082693773"><ele>252.5</ele><time>2026-03-28T11:41:25Z</time></trkpt><trkpt lat="42.303585197905335" lon="12.648686609846813"><ele>254.75</ele><time>2026-03-28T11:41:26Z</time></trkpt><trkpt lat="42.30370514498786" lon="12.6487951872744"><ele>257.0</ele><time>2026-03-28T11:41:27Z</time></trkpt><trkpt lat="42.30379820612263" lon="12.648880615058266"><ele>257.2</ele><time>2026-03-28T11:41:28Z</time></trkpt><trkpt lat="42.303874863112476" lon="12.648958022353789"><ele>257.4</ele><time>2026-03-28T11:41:29Z</time></trkpt><trkpt lat="42.30392298279426" lon="12.649082759354258"><ele>257.6</ele><time>2026-03-28T11:41:31Z</time></trkpt><trkpt lat="42.303919060747994" lon="12.649184671182303"><ele>257.8</ele><time>2026-03-28T11:41:32Z</time></trkpt><trkpt lat="42.30391692551899" lon="12.649341139709774"><ele>258.0</ele><time>2026-03-28T11:41:33Z</time></trkpt><trkpt lat="42.30391519501219" lon="12.649475363005601"><ele>258.4</ele><time>2026-03-28T11:41:34Z</time></trkpt><trkpt lat="42.30390853702574" lon="12.649623665379407"><ele>258.8</ele><time>2026-03-28T11:41:35Z</time></trkpt><trkpt lat="42.30390130056867" lon="12.649781448979054"><ele>259.2</ele><time>2026-03-28T11:41:36Z</time></trkpt><trkpt lat="42.303892199093504" lon="12.64992668589976"><ele>259.6</ele><time>2026-03-28T11:41:37Z</time></trkpt><trkpt lat="42.303875502941246" lon="12.650041230106773"><ele>260.0</ele><time>2026-03-28T11:41:38Z</time></trkpt><trkpt lat="42.3038618476513" lon="12.650162807925646"><ele>258.8</ele><time>2026-03-28T11:41:39Z</time></trkpt><trkpt lat="42.303859965536965" lon="12.65029567676478"><ele>257.6</ele><time>2026-03-28T11:41:39.999Z</time></trkpt><trkpt lat="42.303872231409166" lon="12.650432851807295"><ele>256.4</ele><time>2026-03-28T11:41:40.999Z</time></trkpt><trkpt lat="42.303909393810464" lon="12.650574509338496"><ele>255.2</ele><time>2026-03-28T11:41:41.999Z</time></trkpt><trkpt lat="42.30396958545545" lon="12.650690062138336"><ele>254.0</ele><time>2026-03-28T11:41:42.999Z</time></trkpt><trkpt lat="42.304074762920116" lon="12.650794639792299"><ele>259.0</ele><time>2026-03-28T11:41:43.999Z</time></trkpt><trkpt lat="42.304176647006166" lon="12.650866764991745"><ele>264.0</ele><time>2026-03-28T11:41:44.999Z</time></trkpt><trkpt lat="42.30428363964122" lon="12.650920403009701"><ele>269.0</ele><time>2026-03-28T11:41:45.999Z</time></trkpt><trkpt lat="42.30437646974239" lon="12.650968273388939"><ele>274.0</ele><time>2026-03-28T11:41:46.999Z</time></trkpt><trkpt lat="42.304458953350505" lon="12.651014701065826"><ele>279.0</ele><time>2026-03-28T11:41:47.999Z</time></trkpt><trkpt lat="42.304530057345445" lon="12.651037926902017"><ele>279.0</ele><time>2026-03-28T11:41:48.999Z</time></trkpt><trkpt lat="42.30460974701614" lon="12.651022421938578"><ele>279.0</ele><time>2026-03-28T11:41:49.999Z</time></trkpt><trkpt lat="42.3046862596896" lon="12.650958643054095"><ele>279.0</ele><time>2026-03-28T11:41:50.999Z</time></trkpt><trkpt lat="42.30475718040574" lon="12.65088149066"><ele>279.0</ele><time>2026-03-28T11:41:51.999Z</time></trkpt><trkpt lat="42.304817289539706" lon="12.65081610353278"><ele>279.0</ele><time>2026-03-28T11:41:52.999Z</time></trkpt><trkpt lat="42.304906608005915" lon="12.650752122231333"><ele>279.0</ele><time>2026-03-28T11:41:54.999Z</time></trkpt><trkpt lat="42.304957720492546" lon="12.650700611507865"><ele>279.0</ele><time>2026-03-28T11:41:59.999Z</time></trkpt><trkpt lat="42.304915836025245" lon="12.65078199713787"><ele>279.0</ele><time>2026-03-28T11:42:11.999Z</time></trkpt><trkpt lat="42.30483776669003" lon="12.65080564244035"><ele>279.0</ele><time>2026-03-28T11:42:15.999Z</time></trkpt><trkpt lat="42.30474071882227" lon="12.650884112548452"><ele>279.0</ele><time>2026-03-28T11:42:33.999Z</time></trkpt><trkpt lat="42.304695758523856" lon="12.650952326240084"><ele>279.0</ele><time>2026-03-28T11:42:36.999Z</time></trkpt><trkpt lat="42.30461989616552" lon="12.65101126190382"><ele>279.0</ele><time>2026-03-28T11:42:39.999Z</time></trkpt><trkpt lat="42.30453344169257" lon="12.651062072458458"><ele>279.0</ele><time>2026-03-28T11:42:42.999Z</time></trkpt><trkpt lat="42.30445951133508" lon="12.65102803502433"><ele>279.0</ele><time>2026-03-28T11:42:43.999Z</time></trkpt><trkpt lat="42.30440138361166" lon="12.650991186126603"><ele>279.0</ele><time>2026-03-28T11:42:44.999Z</time></trkpt><trkpt lat="42.30431860456985" lon="12.65094830699688"><ele>279.0</ele><time>2026-03-28T11:42:45.999Z</time></trkpt><trkpt lat="42.304409873083806" lon="12.650602087401492"><ele>279.0</ele><time>2026-03-28T11:42:46.999Z</time></trkpt><trkpt lat="42.304367586150235" lon="12.650516533643092"><ele>279.0</ele><time>2026-03-28T11:42:49Z</time></trkpt><trkpt lat="42.30432535314311" lon="12.650441887292764"><ele>279.0</ele><time>2026-03-28T11:42:50Z</time></trkpt><trkpt lat="42.30427008343491" lon="12.650292269624458"><ele>279.0</ele><time>2026-03-28T11:42:52Z</time></trkpt><trkpt lat="42.30423680764934" lon="12.65020897332927"><ele>279.0</ele><time>2026-03-28T11:42:53Z</time></trkpt><trkpt lat="42.30417857168271" lon="12.650044501734374"><ele>278.6666666666667</ele><time>2026-03-28T11:42:55Z</time></trkpt><trkpt lat="42.304133330971666" lon="12.649926901401695"><ele>278.3333333333333</ele><time>2026-03-28T11:42:57Z</time></trkpt><trkpt lat="42.3041031685661" lon="12.649830256951308"><ele>278.0</ele><time>2026-03-28T11:42:59Z</time></trkpt><trkpt lat="42.304097298914115" lon="12.649712277944777"><ele>277.66666666666663</ele><time>2026-03-28T11:43:00Z</time></trkpt><trkpt lat="42.30411281028712" lon="12.649574902686174"><ele>277.3333333333333</ele><time>2026-03-28T11:43:02Z</time></trkpt><trkpt lat="42.304139899762674" lon="12.64947420162368"><ele>277.0</ele><time>2026-03-28T11:43:03Z</time></trkpt><trkpt lat="42.304173580681265" lon="12.649369039420609"><ele>258.0</ele><time>2026-03-28T11:43:04Z</time></trkpt><trkpt lat="42.303845426516105" lon="12.64888878289297"><ele>258.0</ele><time>2026-03-28T11:43:14Z</time></trkpt><trkpt lat="42.30375178721317" lon="12.648817021088805"><ele>258.0</ele><time>2026-03-28T11:43:16Z</time></trkpt><trkpt lat="42.303693367261694" lon="12.64876255067592"><ele>258.0</ele><time>2026-03-28T11:43:18Z</time></trkpt><trkpt lat="42.303636123343075" lon="12.64872582102631"><ele>258.0</ele><time>2026-03-28T11:43:23Z</time></trkpt><trkpt lat="42.30371915043584" lon="12.648803082998398"><ele>258.0</ele><time>2026-03-28T11:43:33Z</time></trkpt><trkpt lat="42.303812913070246" lon="12.648905508183722"><ele>258.0</ele><time>2026-03-28T11:43:35Z</time></trkpt><trkpt lat="42.30388487270452" lon="12.648991999638337"><ele>258.0</ele><time>2026-03-28T11:43:37Z</time></trkpt><trkpt lat="42.3039602192988" lon="12.649025995404724"><ele>258.0</ele><time>2026-03-28T11:43:39Z</time></trkpt><trkpt lat="42.304122006010644" lon="12.648933818745219"><ele>258.0</ele><time>2026-03-28T11:43:41Z</time></trkpt><trkpt lat="42.30420327589752" lon="12.648850722032897"><ele>260.1666666666667</ele><time>2026-03-28T11:43:42Z</time></trkpt><trkpt lat="42.30426103591083" lon="12.648764030689428"><ele>262.3333333333333</ele><time>2026-03-28T11:43:43Z</time></trkpt><trkpt lat="42.30431636370351" lon="12.648719123014827"><ele>264.5</ele><time>2026-03-28T11:43:44Z</time></trkpt><trkpt lat="42.30440309888911" lon="12.648643831065417"><ele>266.66666666666663</ele><time>2026-03-28T11:43:46Z</time></trkpt><trkpt lat="42.30446204098056" lon="12.648559338469502"><ele>268.8333333333333</ele><time>2026-03-28T11:43:51Z</time></trkpt><trkpt lat="42.30451473785951" lon="12.64847751348608"><ele>271.0</ele><time>2026-03-28T11:43:52.999Z</time></trkpt><trkpt lat="42.30446115174784" lon="12.648304761686111"><ele>271.0</ele><time>2026-03-28T11:43:53.999Z</time></trkpt><trkpt lat="42.30445434631705" lon="12.648189139102245"><ele>271.0</ele><time>2026-03-28T11:43:54.999Z</time></trkpt><trkpt lat="42.304479210123205" lon="12.648058483235209"><ele>271.0</ele><time>2026-03-28T11:43:55.999Z</time></trkpt><trkpt lat="42.30451705083062" lon="12.647966847444598"><ele>271.0</ele><time>2026-03-28T11:43:56.999Z</time></trkpt><trkpt lat="42.30456077147302" lon="12.647855919425911"><ele>271.0</ele><time>2026-03-28T11:43:57.999Z</time></trkpt><trkpt lat="42.304597359140374" lon="12.647735339483175"><ele>269.2</ele><time>2026-03-28T11:43:58.999Z</time></trkpt><trkpt lat="42.30460595794555" lon="12.647608079546886"><ele>267.40000000000003</ele><time>2026-03-28T11:43:59.999Z</time></trkpt><trkpt lat="42.30462246962114" lon="12.647483411905084"><ele>265.6</ele><time>2026-03-28T11:44:00.999Z</time></trkpt><trkpt lat="42.30465667843582" lon="12.647304682726016"><ele>263.8</ele><time>2026-03-28T11:44:02.999Z</time></trkpt><trkpt lat="42.30467392965472" lon="12.647199170677334"><ele>262.0</ele><time>2026-03-28T11:44:03.999Z</time></trkpt><trkpt lat="42.304690552300556" lon="12.647093763526414"><ele>262.0</ele><time>2026-03-28T11:44:04.999Z</time></trkpt><trkpt lat="42.30472854720829" lon="12.646995393983598"><ele>262.0</ele><time>2026-03-28T11:44:05.999Z</time></trkpt><trkpt lat="42.30475915120917" lon="12.646892854197244"><ele>262.0</ele><time>2026-03-28T11:44:06.999Z</time></trkpt><trkpt lat="42.3048018204317" lon="12.646808874424504"><ele>262.0</ele><time>2026-03-28T11:44:07.999Z</time></trkpt><trkpt lat="42.30483630460514" lon="12.646723866092648"><ele>262.0</ele><time>2026-03-28T11:44:08.999Z</time></trkpt><trkpt lat="42.30489442822605" lon="12.646642898839879"><ele>262.0</ele><time>2026-03-28T11:44:09.999Z</time></trkpt><trkpt lat="42.304952526522655" lon="12.646579912792063"><ele>262.16666666666663</ele><time>2026-03-28T11:44:10.999Z</time></trkpt><trkpt lat="42.305007770827714" lon="12.646489302658694"><ele>262.3333333333333</ele><time>2026-03-28T11:44:11.999Z</time></trkpt><trkpt lat="42.30506700321528" lon="12.646395478612018"><ele>262.5</ele><time>2026-03-28T11:44:12.999Z</time></trkpt><trkpt lat="42.30512257711248" lon="12.646312016149437"><ele>262.6666666666667</ele><time>2026-03-28T11:44:13.999Z</time></trkpt><trkpt lat="42.30517408491603" lon="12.646218175182936"><ele>262.83333333333337</ele><time>2026-03-28T11:44:14.999Z</time></trkpt><trkpt lat="42.305222643033765" lon="12.646131436695214"><ele>263.0</ele><time>2026-03-28T11:44:15.999Z</time></trkpt><trkpt lat="42.30526612745475" lon="12.646038235920981"><ele>260.8</ele><time>2026-03-28T11:44:16.999Z</time></trkpt><trkpt lat="42.305313534020655" lon="12.645931301182117"><ele>258.6</ele><time>2026-03-28T11:44:17.999Z</time></trkpt><trkpt lat="42.305378337840764" lon="12.645818667476384"><ele>256.4</ele><time>2026-03-28T11:44:18.999Z</time></trkpt><trkpt lat="42.305434629387065" lon="12.645729229558277"><ele>254.2</ele><time>2026-03-28T11:44:19.999Z</time></trkpt><trkpt lat="42.30549849200855" lon="12.645648470833533"><ele>252.0</ele><time>2026-03-28T11:44:20.999Z</time></trkpt><trkpt lat="42.30557216298636" lon="12.645598076017517"><ele>252.66666666666666</ele><time>2026-03-28T11:44:21.999Z</time></trkpt><trkpt lat="42.30564613841646" lon="12.645560294718713"><ele>253.33333333333331</ele><time>2026-03-28T11:44:22.999Z</time></trkpt><trkpt lat="42.30574203659083" lon="12.64543330096207"><ele>254.0</ele><time>2026-03-28T11:44:24.999Z</time></trkpt><trkpt lat="42.30578753420431" lon="12.645364746170822"><ele>254.66666666666666</ele><time>2026-03-28T11:44:25.999Z</time></trkpt><trkpt lat="42.30582499914705" lon="12.645296196417014"><ele>255.33333333333331</ele><time>2026-03-28T11:44:26.999Z</time></trkpt><trkpt lat="42.3058533579344" lon="12.645181162433337"><ele>256.0</ele><time>2026-03-28T11:44:28.999Z</time></trkpt><trkpt lat="42.305860833967394" lon="12.645087307976263"><ele>253.75</ele><time>2026-03-28T11:44:30.999Z</time></trkpt><trkpt lat="42.30594472961113" lon="12.64503991408453"><ele>251.5</ele><time>2026-03-28T11:44:32.999Z</time></trkpt><trkpt lat="42.30604239854508" lon="12.644979235071728"><ele>249.25</ele><time>2026-03-28T11:44:33.999Z</time></trkpt><trkpt lat="42.30615638811411" lon="12.644957153386123"><ele>247.0</ele><time>2026-03-28T11:44:34.999Z</time></trkpt><trkpt lat="42.306305263786285" lon="12.644902960839879"><ele>249.33333333333331</ele><time>2026-03-28T11:44:35.999Z</time></trkpt><trkpt lat="42.30647444474976" lon="12.644844662126632"><ele>251.66666666666669</ele><time>2026-03-28T11:44:36.999Z</time></trkpt><trkpt lat="42.306662222839336" lon="12.64478124067677"><ele>254.0</ele><time>2026-03-28T11:44:37.999Z</time></trkpt><trkpt lat="42.30684409941262" lon="12.644719902517105"><ele>254.0</ele><time>2026-03-28T11:44:38.999Z</time></trkpt><trkpt lat="42.30701330129768" lon="12.644666101203589"><ele>254.0</ele><time>2026-03-28T11:44:39.999Z</time></trkpt><trkpt lat="42.30716361655243" lon="12.644627917567187"><ele>254.0</ele><time>2026-03-28T11:44:40.999Z</time></trkpt><trkpt lat="42.30730646024705" lon="12.644585850678425"><ele>253.5</ele><time>2026-03-28T11:44:41.999Z</time></trkpt><trkpt lat="42.30743278983846" lon="12.644550068720102"><ele>253.0</ele><time>2026-03-28T11:44:42.999Z</time></trkpt><trkpt lat="42.307554790563664" lon="12.64450038047786"><ele>252.5</ele><time>2026-03-28T11:44:43.999Z</time></trkpt><trkpt lat="42.3076845751781" lon="12.64444274550713"><ele>252.0</ele><time>2026-03-28T11:44:44.999Z</time></trkpt><trkpt lat="42.307816593443775" lon="12.644373159608637"><ele>252.0</ele><time>2026-03-28T11:44:45.999Z</time></trkpt><trkpt lat="42.30795641086013" lon="12.644284685260171"><ele>252.0</ele><time>2026-03-28T11:44:46.999Z</time></trkpt><trkpt lat="42.30809825788598" lon="12.644177098521352"><ele>252.0</ele><time>2026-03-28T11:44:47.999Z</time></trkpt><trkpt lat="42.30824683026088" lon="12.644060459366914"><ele>255.0</ele><time>2026-03-28T11:44:48.999Z</time></trkpt><trkpt lat="42.30838992835521" lon="12.643939642876973"><ele>258.0</ele><time>2026-03-28T11:44:49.999Z</time></trkpt><trkpt lat="42.3085361075797" lon="12.643817110295771"><ele>261.0</ele><time>2026-03-28T11:44:50.999Z</time></trkpt><trkpt lat="42.30868306140133" lon="12.643698408618032"><ele>260.0</ele><time>2026-03-28T11:44:51.999Z</time></trkpt><trkpt lat="42.30882041826684" lon="12.643578719797203"><ele>259.0</ele><time>2026-03-28T11:44:52.999Z</time></trkpt><trkpt lat="42.30895611894937" lon="12.643486106040385"><ele>258.0</ele><time>2026-03-28T11:44:53.999Z</time></trkpt><trkpt lat="42.309077843400004" lon="12.643358274866406"><ele>257.0</ele><time>2026-03-28T11:44:55Z</time></trkpt><trkpt lat="42.30920282996471" lon="12.64325737834852"><ele>256.0</ele><time>2026-03-28T11:44:56Z</time></trkpt><trkpt lat="42.30932954347547" lon="12.643168092089752"><ele>255.0</ele><time>2026-03-28T11:44:57Z</time></trkpt><trkpt lat="42.30946197942693" lon="12.643077975701761"><ele>254.0</ele><time>2026-03-28T11:44:58Z</time></trkpt><trkpt lat="42.30960052220767" lon="12.642999310626037"><ele>251.0</ele><time>2026-03-28T11:44:59Z</time></trkpt><trkpt lat="42.30974238809058" lon="12.642932172767575"><ele>248.0</ele><time>2026-03-28T11:45:00Z</time></trkpt><trkpt lat="42.3098886642921" lon="12.642886231429875"><ele>245.0</ele><time>2026-03-28T11:45:01Z</time></trkpt><trkpt lat="42.31004117548664" lon="12.642853782216005"><ele>245.0</ele><time>2026-03-28T11:45:02Z</time></trkpt><trkpt lat="42.310195585019144" lon="12.642836053407903"><ele>245.0</ele><time>2026-03-28T11:45:03Z</time></trkpt><trkpt lat="42.31035381674317" lon="12.642837711775972"><ele>245.0</ele><time>2026-03-28T11:45:04Z</time></trkpt><trkpt lat="42.31050723963785" lon="12.64286513497929"><ele>243.66666666666669</ele><time>2026-03-28T11:45:05Z</time></trkpt><trkpt lat="42.31066271038091" lon="12.642910717856818"><ele>242.33333333333331</ele><time>2026-03-28T11:45:06Z</time></trkpt><trkpt lat="42.310819631650155" lon="12.642974641320643"><ele>241.0</ele><time>2026-03-28T11:45:07Z</time></trkpt><trkpt lat="42.3109753142411" lon="12.643043429253018"><ele>241.0</ele><time>2026-03-28T11:45:08Z</time></trkpt><trkpt lat="42.31113556301053" lon="12.643108784073652"><ele>241.0</ele><time>2026-03-28T11:45:09Z</time></trkpt><trkpt lat="42.311294682109" lon="12.643171523518593"><ele>241.0</ele><time>2026-03-28T11:45:10Z</time></trkpt><trkpt lat="42.31145477678761" lon="12.643228221382717"><ele>240.0</ele><time>2026-03-28T11:45:11Z</time></trkpt><trkpt lat="42.31161645221518" lon="12.64327900777249"><ele>239.0</ele><time>2026-03-28T11:45:12Z</time></trkpt><trkpt lat="42.3117812428151" lon="12.643317626129392"><ele>238.0</ele><time>2026-03-28T11:45:13Z</time></trkpt><trkpt lat="42.31194480654352" lon="12.643356319943049"><ele>238.0</ele><time>2026-03-28T11:45:14Z</time></trkpt><trkpt lat="42.312106561210115" lon="12.643394726835064"><ele>238.0</ele><time>2026-03-28T11:45:15Z</time></trkpt><trkpt lat="42.31226982453232" lon="12.643438519307646"><ele>238.0</ele><time>2026-03-28T11:45:16Z</time></trkpt><trkpt lat="42.31244070467177" lon="12.643482659850436"><ele>236.0</ele><time>2026-03-28T11:45:17Z</time></trkpt><trkpt lat="42.31260747442169" lon="12.643523528696875"><ele>234.0</ele><time>2026-03-28T11:45:18Z</time></trkpt><trkpt lat="42.31277920876246" lon="12.64356267329363"><ele>232.0</ele><time>2026-03-28T11:45:19Z</time></trkpt><trkpt lat="42.312946888710016" lon="12.643606095266566"><ele>227.33333333333331</ele><time>2026-03-28T11:45:20Z</time></trkpt><trkpt lat="42.313113204618986" lon="12.643655449754693"><ele>222.66666666666669</ele><time>2026-03-28T11:45:21Z</time></trkpt><trkpt lat="42.31327963790354" lon="12.643709089245606"><ele>218.0</ele><time>2026-03-28T11:45:22Z</time></trkpt><trkpt lat="42.31344230871316" lon="12.643769435295955"><ele>218.0</ele><time>2026-03-28T11:45:23Z</time></trkpt><trkpt lat="42.313603450828765" lon="12.643832360497958"><ele>218.0</ele><time>2026-03-28T11:45:24Z</time></trkpt><trkpt lat="42.313770021621906" lon="12.643890702643349"><ele>218.0</ele><time>2026-03-28T11:45:25Z</time></trkpt><trkpt lat="42.313960536274216" lon="12.643946100606438"><ele>218.0</ele><time>2026-03-28T11:45:26Z</time></trkpt><trkpt lat="42.31413637082686" lon="12.644003962224096"><ele>218.0</ele><time>2026-03-28T11:45:27Z</time></trkpt><trkpt lat="42.314307258051016" lon="12.644058617731412"><ele>218.0</ele><time>2026-03-28T11:45:28Z</time></trkpt><trkpt lat="42.31447770749774" lon="12.644113324570528"><ele>218.0</ele><time>2026-03-28T11:45:29Z</time></trkpt><trkpt lat="42.3146480757319" lon="12.644169632349618"><ele>218.0</ele><time>2026-03-28T11:45:30Z</time></trkpt><trkpt lat="42.31481931518229" lon="12.644223579608163"><ele>218.0</ele><time>2026-03-28T11:45:31Z</time></trkpt><trkpt lat="42.31498908197335" lon="12.644266921452372"><ele>217.0</ele><time>2026-03-28T11:45:32Z</time></trkpt><trkpt lat="42.3151676830367" lon="12.644307696419473"><ele>216.0</ele><time>2026-03-28T11:45:33Z</time></trkpt><trkpt lat="42.3153328919668" lon="12.644341918894929"><ele>215.0</ele><time>2026-03-28T11:45:34Z</time></trkpt><trkpt lat="42.31550162030526" lon="12.644379333663636"><ele>211.66666666666669</ele><time>2026-03-28T11:45:35Z</time></trkpt><trkpt lat="42.31567360531484" lon="12.644412199112368"><ele>208.33333333333331</ele><time>2026-03-28T11:45:36Z</time></trkpt><trkpt lat="42.315844856393134" lon="12.644444823308254"><ele>205.0</ele><time>2026-03-28T11:45:37Z</time></trkpt><trkpt lat="42.31603027988362" lon="12.644471199345691"><ele>204.66666666666666</ele><time>2026-03-28T11:45:38Z</time></trkpt><trkpt lat="42.31621209182646" lon="12.64451008040594"><ele>204.33333333333331</ele><time>2026-03-28T11:45:39Z</time></trkpt><trkpt lat="42.316368792045516" lon="12.644566205527438"><ele>204.0</ele><time>2026-03-28T11:45:40Z</time></trkpt><trkpt lat="42.31653747750157" lon="12.644602218415091"><ele>202.66666666666669</ele><time>2026-03-28T11:45:41Z</time></trkpt><trkpt lat="42.31671830401072" lon="12.644640521325098"><ele>201.33333333333334</ele><time>2026-03-28T11:45:42Z</time></trkpt><trkpt lat="42.316866129431794" lon="12.644657152081592"><ele>200.0</ele><time>2026-03-28T11:45:43Z</time></trkpt><trkpt lat="42.317024493439206" lon="12.644695931891242"><ele>200.0</ele><time>2026-03-28T11:45:44Z</time></trkpt><trkpt lat="42.31719238526513" lon="12.644732689664039"><ele>200.0</ele><time>2026-03-28T11:45:45Z</time></trkpt><trkpt lat="42.31735670485421" lon="12.644771709502193"><ele>200.0</ele><time>2026-03-28T11:45:46Z</time></trkpt><trkpt lat="42.31751663396812" lon="12.64481055154972"><ele>198.33333333333334</ele><time>2026-03-28T11:45:47Z</time></trkpt><trkpt lat="42.317675261248795" lon="12.644845290314773"><ele>196.66666666666669</ele><time>2026-03-28T11:45:48Z</time></trkpt><trkpt lat="42.31783775479794" lon="12.644877407079132"><ele>195.0</ele><time>2026-03-28T11:45:49Z</time></trkpt><trkpt lat="42.31799788599558" lon="12.644908519987247"><ele>194.25</ele><time>2026-03-28T11:45:50Z</time></trkpt><trkpt lat="42.31814847830653" lon="12.644938987962188"><ele>193.5</ele><time>2026-03-28T11:45:51Z</time></trkpt><trkpt lat="42.31829092654549" lon="12.644967907394097"><ele>192.75</ele><time>2026-03-28T11:45:52Z</time></trkpt><trkpt lat="42.31843395041724" lon="12.645002211775784"><ele>192.0</ele><time>2026-03-28T11:45:53Z</time></trkpt><trkpt lat="42.318574532836095" lon="12.645040627971621"><ele>192.0</ele><time>2026-03-28T11:45:54Z</time></trkpt><trkpt lat="42.31871955438202" lon="12.645072131487492"><ele>192.0</ele><time>2026-03-28T11:45:55Z</time></trkpt><trkpt lat="42.318870207779625" lon="12.645087901677025"><ele>192.0</ele><time>2026-03-28T11:45:56Z</time></trkpt><trkpt lat="42.319024629518644" lon="12.645086436150958"><ele>192.0</ele><time>2026-03-28T11:45:57Z</time></trkpt><trkpt lat="42.31918536582418" lon="12.645053120704718"><ele>192.0</ele><time>2026-03-28T11:45:58Z</time></trkpt><trkpt lat="42.31934380745625" lon="12.645009338826572"><ele>192.0</ele><time>2026-03-28T11:45:59Z</time></trkpt><trkpt lat="42.31949849377219" lon="12.644960296644056"><ele>192.0</ele><time>2026-03-28T11:46:00Z</time></trkpt><trkpt lat="42.31962308374068" lon="12.64490983579458"><ele>192.0</ele><time>2026-03-28T11:46:01Z</time></trkpt><trkpt lat="42.31971360768568" lon="12.644862997079263"><ele>192.0</ele><time>2026-03-28T11:46:02Z</time></trkpt><trkpt lat="42.31979625979752" lon="12.644848681013995"><ele>192.0</ele><time>2026-03-28T11:46:04Z</time></trkpt><trkpt lat="42.31979965787695" lon="12.644994328473347"><ele>192.0</ele><time>2026-03-28T11:46:07Z</time></trkpt><trkpt lat="42.31981268091589" lon="12.64513510252587"><ele>192.0</ele><time>2026-03-28T11:46:08Z</time></trkpt><trkpt lat="42.31981642028783" lon="12.645318843047749"><ele>192.0</ele><time>2026-03-28T11:46:09Z</time></trkpt><trkpt lat="42.319824550132594" lon="12.645528655347062"><ele>192.0</ele><time>2026-03-28T11:46:10Z</time></trkpt><trkpt lat="42.319832548203316" lon="12.645768971305493"><ele>192.0</ele><time>2026-03-28T11:46:11Z</time></trkpt><trkpt lat="42.319837273247025" lon="12.64602348200508"><ele>192.0</ele><time>2026-03-28T11:46:12Z</time></trkpt><trkpt lat="42.31984072593294" lon="12.646289805035561"><ele>192.0</ele><time>2026-03-28T11:46:13Z</time></trkpt><trkpt lat="42.319843973514196" lon="12.64657675174329"><ele>193.66666666666669</ele><time>2026-03-28T11:46:14Z</time></trkpt><trkpt lat="42.31985824158735" lon="12.646849455706661"><ele>195.33333333333334</ele><time>2026-03-28T11:46:14.999Z</time></trkpt><trkpt lat="42.3198639443519" lon="12.64710755658454"><ele>197.0</ele><time>2026-03-28T11:46:15.999Z</time></trkpt><trkpt lat="42.31986769538174" lon="12.647341224755767"><ele>198.5</ele><time>2026-03-28T11:46:16.999Z</time></trkpt><trkpt lat="42.31988113162249" lon="12.64754105552511"><ele>200.0</ele><time>2026-03-28T11:46:17.999Z</time></trkpt><trkpt lat="42.319907962445086" lon="12.647717507010878"><ele>201.5</ele><time>2026-03-28T11:46:18.999Z</time></trkpt><trkpt lat="42.319960132579766" lon="12.64785835802985"><ele>203.0</ele><time>2026-03-28T11:46:19.999Z</time></trkpt><trkpt lat="42.32003700560359" lon="12.647986783774483"><ele>203.25</ele><time>2026-03-28T11:46:20.999Z</time></trkpt><trkpt lat="42.32014816635779" lon="12.648126039053738"><ele>203.5</ele><time>2026-03-28T11:46:21.999Z</time></trkpt><trkpt lat="42.320264463248115" lon="12.648260432280074"><ele>203.75</ele><time>2026-03-28T11:46:22.999Z</time></trkpt><trkpt lat="42.32037677841949" lon="12.648375380692691"><ele>204.0</ele><time>2026-03-28T11:46:23.999Z</time></trkpt><trkpt lat="42.3204908077584" lon="12.64847291384438"><ele>207.0</ele><time>2026-03-28T11:46:24.999Z</time></trkpt><trkpt lat="42.32061206729771" lon="12.648562585747868"><ele>210.0</ele><time>2026-03-28T11:46:25.999Z</time></trkpt><trkpt lat="42.320723292175934" lon="12.648658905731661"><ele>213.0</ele><time>2026-03-28T11:46:26.999Z</time></trkpt><trkpt lat="42.32083050564447" lon="12.648788189312281"><ele>216.0</ele><time>2026-03-28T11:46:27.999Z</time></trkpt><trkpt lat="42.320918007638255" lon="12.648883782924438"><ele>216.0</ele><time>2026-03-28T11:46:28.999Z</time></trkpt><trkpt lat="42.32101674289788" lon="12.648992414926282"><ele>216.0</ele><time>2026-03-28T11:46:29.999Z</time></trkpt><trkpt lat="42.32111932007749" lon="12.649100476115825"><ele>216.0</ele><time>2026-03-28T11:46:30.999Z</time></trkpt><trkpt lat="42.32121229827932" lon="12.649225131006293"><ele>216.0</ele><time>2026-03-28T11:46:31.999Z</time></trkpt><trkpt lat="42.32130234342839" lon="12.649360599555276"><ele>216.0</ele><time>2026-03-28T11:46:32.999Z</time></trkpt><trkpt lat="42.3213904388336" lon="12.64952468545334"><ele>216.0</ele><time>2026-03-28T11:46:33.999Z</time></trkpt><trkpt lat="42.321452779593926" lon="12.649722608089759"><ele>216.0</ele><time>2026-03-28T11:46:34.999Z</time></trkpt><trkpt lat="42.32153420728241" lon="12.649902631551052"><ele>221.0</ele><time>2026-03-28T11:46:35.999Z</time></trkpt><trkpt lat="42.32160287281161" lon="12.650088675668487"><ele>226.0</ele><time>2026-03-28T11:46:36.999Z</time></trkpt><trkpt lat="42.321673531483576" lon="12.650267565571914"><ele>231.0</ele><time>2026-03-28T11:46:37.999Z</time></trkpt><trkpt lat="42.321769361419854" lon="12.650469088735498"><ele>231.25</ele><time>2026-03-28T11:46:38.999Z</time></trkpt><trkpt lat="42.321823639799945" lon="12.650670015255793"><ele>231.5</ele><time>2026-03-28T11:46:39.999Z</time></trkpt><trkpt lat="42.3218720610694" lon="12.650828087952254"><ele>231.75</ele><time>2026-03-28T11:46:40.999Z</time></trkpt><trkpt lat="42.32192943847232" lon="12.65100528971659"><ele>232.0</ele><time>2026-03-28T11:46:41.999Z</time></trkpt><trkpt lat="42.321989656162536" lon="12.651167551423598"><ele>232.0</ele><time>2026-03-28T11:46:42.999Z</time></trkpt><trkpt lat="42.3220645936128" lon="12.651291907782644"><ele>232.0</ele><time>2026-03-28T11:46:43.999Z</time></trkpt><trkpt lat="42.32215528346944" lon="12.651377750123515"><ele>232.0</ele><time>2026-03-28T11:46:44.999Z</time></trkpt><trkpt lat="42.32226108218838" lon="12.651428527033728"><ele>232.0</ele><time>2026-03-28T11:46:45.999Z</time></trkpt><trkpt lat="42.32238652507238" lon="12.651468547221388"><ele>235.25</ele><time>2026-03-28T11:46:46.999Z</time></trkpt><trkpt lat="42.32251616469622" lon="12.651511443422487"><ele>238.5</ele><time>2026-03-28T11:46:47.999Z</time></trkpt><trkpt lat="42.32264457414149" lon="12.65156810091012"><ele>241.75</ele><time>2026-03-28T11:46:48.999Z</time></trkpt><trkpt lat="42.322778798870495" lon="12.651628255269737"><ele>245.0</ele><time>2026-03-28T11:46:49.999Z</time></trkpt><trkpt lat="42.32289428968847" lon="12.651678051517688"><ele>245.0</ele><time>2026-03-28T11:46:50.999Z</time></trkpt><trkpt lat="42.32296157339009" lon="12.651732799120063"><ele>245.0</ele><time>2026-03-28T11:46:51.999Z</time></trkpt><trkpt lat="42.32300645757279" lon="12.65182817857524"><ele>245.0</ele><time>2026-03-28T11:46:52.999Z</time></trkpt><trkpt lat="42.32306845268432" lon="12.651964023422973"><ele>245.0</ele><time>2026-03-28T11:46:53.999Z</time></trkpt><trkpt lat="42.32311122158119" lon="12.652155295118316"><ele>245.0</ele><time>2026-03-28T11:46:54.999Z</time></trkpt><trkpt lat="42.323197512180656" lon="12.65234155946588"><ele>244.75</ele><time>2026-03-28T11:46:55.999Z</time></trkpt><trkpt lat="42.32328726228258" lon="12.65252587687597"><ele>244.5</ele><time>2026-03-28T11:46:56.999Z</time></trkpt><trkpt lat="42.3233767670838" lon="12.652686414503776"><ele>244.25</ele><time>2026-03-28T11:46:57.999Z</time></trkpt><trkpt lat="42.32345518948557" lon="12.652821303171647"><ele>244.0</ele><time>2026-03-28T11:46:58.999Z</time></trkpt><trkpt lat="42.32354676282142" lon="12.652946250857536"><ele>244.75</ele><time>2026-03-28T11:47:00Z</time></trkpt><trkpt lat="42.323633018068925" lon="12.653079986589274"><ele>245.5</ele><time>2026-03-28T11:47:01Z</time></trkpt><trkpt lat="42.32373643042917" lon="12.653187992715086"><ele>246.25</ele><time>2026-03-28T11:47:02Z</time></trkpt><trkpt lat="42.323842524741174" lon="12.65331519623678"><ele>247.0</ele><time>2026-03-28T11:47:03Z</time></trkpt><trkpt lat="42.32393556723206" lon="12.653435811840929"><ele>247.0</ele><time>2026-03-28T11:47:04Z</time></trkpt><trkpt lat="42.32402680740885" lon="12.653549071502518"><ele>247.0</ele><time>2026-03-28T11:47:05Z</time></trkpt><trkpt lat="42.32411185857255" lon="12.65365391235001"><ele>247.0</ele><time>2026-03-28T11:47:06Z</time></trkpt><trkpt lat="42.3241984734296" lon="12.653764051733475"><ele>247.0</ele><time>2026-03-28T11:47:07Z</time></trkpt><trkpt lat="42.32427438253393" lon="12.653861904822504"><ele>246.2</ele><time>2026-03-28T11:47:08Z</time></trkpt><trkpt lat="42.32435170127885" lon="12.653951192115255"><ele>245.39999999999998</ele><time>2026-03-28T11:47:09Z</time></trkpt><trkpt lat="42.32440487492181" lon="12.654044841759248"><ele>244.60000000000002</ele><time>2026-03-28T11:47:10Z</time></trkpt><trkpt lat="42.32444643620126" lon="12.654152996293163"><ele>243.8</ele><time>2026-03-28T11:47:11Z</time></trkpt><trkpt lat="42.324481640186626" lon="12.6543020917558"><ele>243.0</ele><time>2026-03-28T11:47:12Z</time></trkpt><trkpt lat="42.32451485580964" lon="12.654463406865045"><ele>242.0</ele><time>2026-03-28T11:47:13Z</time></trkpt><trkpt lat="42.32455844583334" lon="12.654632706438258"><ele>241.0</ele><time>2026-03-28T11:47:14Z</time></trkpt><trkpt lat="42.32461416381318" lon="12.654799792012298"><ele>240.0</ele><time>2026-03-28T11:47:15Z</time></trkpt><trkpt lat="42.32465872164871" lon="12.654952377342612"><ele>239.0</ele><time>2026-03-28T11:47:16Z</time></trkpt><trkpt lat="42.32471426967251" lon="12.655105700356122"><ele>238.66666666666669</ele><time>2026-03-28T11:47:17Z</time></trkpt><trkpt lat="42.32478072461494" lon="12.655281328312958"><ele>238.33333333333331</ele><time>2026-03-28T11:47:18Z</time></trkpt><trkpt lat="42.32485549533903" lon="12.65547227335305"><ele>238.0</ele><time>2026-03-28T11:47:19Z</time></trkpt><trkpt lat="42.32493729713272" lon="12.655647819138897"><ele>240.33333333333331</ele><time>2026-03-28T11:47:20Z</time></trkpt><trkpt lat="42.325007739322544" lon="12.655827241331831"><ele>242.66666666666669</ele><time>2026-03-28T11:47:21Z</time></trkpt><trkpt lat="42.325081559051476" lon="12.656009359617267"><ele>245.0</ele><time>2026-03-28T11:47:22Z</time></trkpt><trkpt lat="42.32516626547049" lon="12.656185946996649"><ele>245.33333333333334</ele><time>2026-03-28T11:47:23Z</time></trkpt><trkpt lat="42.325240571281185" lon="12.656366558829085"><ele>245.66666666666669</ele><time>2026-03-28T11:47:24Z</time></trkpt><trkpt lat="42.32531175827796" lon="12.656551168435596"><ele>246.0</ele><time>2026-03-28T11:47:25Z</time></trkpt><trkpt lat="42.325387791519354" lon="12.656720957532514"><ele>246.0</ele><time>2026-03-28T11:47:26Z</time></trkpt><trkpt lat="42.32547498317568" lon="12.656873703891776"><ele>246.0</ele><time>2026-03-28T11:47:27Z</time></trkpt><trkpt lat="42.32557099640909" lon="12.657013640531865"><ele>246.0</ele><time>2026-03-28T11:47:28Z</time></trkpt><trkpt lat="42.32567074723972" lon="12.657154952452624"><ele>246.0</ele><time>2026-03-28T11:47:29Z</time></trkpt><trkpt lat="42.32576415151403" lon="12.657286326910706"><ele>248.0</ele><time>2026-03-28T11:47:30Z</time></trkpt><trkpt lat="42.32585662985692" lon="12.65741567311688"><ele>250.0</ele><time>2026-03-28T11:47:31Z</time></trkpt><trkpt lat="42.32594422831976" lon="12.657543887121804"><ele>252.0</ele><time>2026-03-28T11:47:32Z</time></trkpt><trkpt lat="42.32602974546691" lon="12.657669087049149"><ele>254.0</ele><time>2026-03-28T11:47:33Z</time></trkpt><trkpt lat="42.32610874996203" lon="12.657782229404528"><ele>254.5</ele><time>2026-03-28T11:47:34Z</time></trkpt><trkpt lat="42.326180961946704" lon="12.657886361972801"><ele>255.0</ele><time>2026-03-28T11:47:35Z</time></trkpt><trkpt lat="42.3262497530009" lon="12.658011379953281"><ele>255.5</ele><time>2026-03-28T11:47:36Z</time></trkpt><trkpt lat="42.32630410849796" lon="12.65814912122212"><ele>256.0</ele><time>2026-03-28T11:47:37Z</time></trkpt><trkpt lat="42.32636603451523" lon="12.658285671297355"><ele>256.6</ele><time>2026-03-28T11:47:38Z</time></trkpt><trkpt lat="42.326415470505665" lon="12.658418564069557"><ele>257.20000000000005</ele><time>2026-03-28T11:47:39Z</time></trkpt><trkpt lat="42.326456039616914" lon="12.658552075822026"><ele>257.79999999999995</ele><time>2026-03-28T11:47:40Z</time></trkpt><trkpt lat="42.32649478462145" lon="12.658686735280968"><ele>258.4</ele><time>2026-03-28T11:47:41Z</time></trkpt><trkpt lat="42.32653076419922" lon="12.658822198025454"><ele>259.0</ele><time>2026-03-28T11:47:42Z</time></trkpt><trkpt lat="42.3265624953832" lon="12.658957518632572"><ele>260.5</ele><time>2026-03-28T11:47:43Z</time></trkpt><trkpt lat="42.32658901755579" lon="12.659092899551235"><ele>262.0</ele><time>2026-03-28T11:47:44Z</time></trkpt><trkpt lat="42.326613769579936" lon="12.659248012022854"><ele>263.5</ele><time>2026-03-28T11:47:45Z</time></trkpt><trkpt lat="42.32663755405901" lon="12.659413762183695"><ele>265.0</ele><time>2026-03-28T11:47:46Z</time></trkpt><trkpt lat="42.32665666950536" lon="12.659583217474527"><ele>266.6</ele><time>2026-03-28T11:47:47Z</time></trkpt><trkpt lat="42.326679839871005" lon="12.659742278183135"><ele>268.2</ele><time>2026-03-28T11:47:48Z</time></trkpt><trkpt lat="42.32670197587713" lon="12.659874272348478"><ele>269.8</ele><time>2026-03-28T11:47:49Z</time></trkpt><trkpt lat="42.32672526558663" lon="12.660029572520497"><ele>271.4</ele><time>2026-03-28T11:47:50Z</time></trkpt><trkpt lat="42.32675290385226" lon="12.660168339786619"><ele>273.0</ele><time>2026-03-28T11:47:51Z</time></trkpt><trkpt lat="42.326767563344475" lon="12.660319500322043"><ele>274.2</ele><time>2026-03-28T11:47:52Z</time></trkpt><trkpt lat="42.3267627366106" lon="12.66045819760256"><ele>275.4</ele><time>2026-03-28T11:47:53Z</time></trkpt><trkpt lat="42.326765000710324" lon="12.660598298573488"><ele>276.59999999999997</ele><time>2026-03-28T11:47:54Z</time></trkpt><trkpt lat="42.32676897318256" lon="12.660746002065746"><ele>277.8</ele><time>2026-03-28T11:47:55Z</time></trkpt><trkpt lat="42.32675986762954" lon="12.660891489786474"><ele>279.0</ele><time>2026-03-28T11:47:56Z</time></trkpt><trkpt lat="42.326745596162716" lon="12.661035712196798"><ele>280.75</ele><time>2026-03-28T11:47:57Z</time></trkpt><trkpt lat="42.326718963073354" lon="12.66118205564901"><ele>282.5</ele><time>2026-03-28T11:47:58Z</time></trkpt><trkpt lat="42.32668606686186" lon="12.661334272947306"><ele>284.25</ele><time>2026-03-28T11:47:59Z</time></trkpt><trkpt lat="42.32663117553113" lon="12.661510672013597"><ele>286.0</ele><time>2026-03-28T11:48:00Z</time></trkpt><trkpt lat="42.326559533180266" lon="12.661694625265461"><ele>286.0</ele><time>2026-03-28T11:48:01Z</time></trkpt><trkpt lat="42.326483321912804" lon="12.661861655285504"><ele>286.0</ele><time>2026-03-28T11:48:02Z</time></trkpt><trkpt lat="42.326393069856756" lon="12.662035881050905"><ele>286.0</ele><time>2026-03-28T11:48:03Z</time></trkpt><trkpt lat="42.32629551607098" lon="12.662172970036131"><ele>286.0</ele><time>2026-03-28T11:48:04Z</time></trkpt><trkpt lat="42.32619613581843" lon="12.662287953742313"><ele>286.75</ele><time>2026-03-28T11:48:05Z</time></trkpt><trkpt lat="42.32609094770197" lon="12.662405573833633"><ele>287.5</ele><time>2026-03-28T11:48:06Z</time></trkpt><trkpt lat="42.32597740224725" lon="12.66252157593254"><ele>288.25</ele><time>2026-03-28T11:48:07Z</time></trkpt><trkpt lat="42.32584689572148" lon="12.662646075689503"><ele>289.0</ele><time>2026-03-28T11:48:08Z</time></trkpt><trkpt lat="42.32570471930091" lon="12.66276654564304"><ele>290.5</ele><time>2026-03-28T11:48:09Z</time></trkpt><trkpt lat="42.32556794621302" lon="12.662882239922663"><ele>292.0</ele><time>2026-03-28T11:48:10Z</time></trkpt><trkpt lat="42.32545241245304" lon="12.662986544904511"><ele>293.5</ele><time>2026-03-28T11:48:11Z</time></trkpt><trkpt lat="42.32534000591619" lon="12.663096125099143"><ele>295.0</ele><time>2026-03-28T11:48:12Z</time></trkpt><trkpt lat="42.3252287741244" lon="12.663220109043692"><ele>295.0</ele><time>2026-03-28T11:48:13Z</time></trkpt><trkpt lat="42.3251290975659" lon="12.6633503861993"><ele>295.0</ele><time>2026-03-28T11:48:14Z</time></trkpt><trkpt lat="42.325053110828364" lon="12.6634968051114"><ele>295.0</ele><time>2026-03-28T11:48:15Z</time></trkpt><trkpt lat="42.32498313696424" lon="12.663617818358505"><ele>295.0</ele><time>2026-03-28T11:48:16Z</time></trkpt><trkpt lat="42.32492675995808" lon="12.663703433829847"><ele>295.8333333333333</ele><time>2026-03-28T11:48:17Z</time></trkpt><trkpt lat="42.32487343500888" lon="12.6637580966053"><ele>296.66666666666663</ele><time>2026-03-28T11:48:17.999Z</time></trkpt><trkpt lat="42.32478675664903" lon="12.663858076253788"><ele>297.5</ele><time>2026-03-28T11:48:19.999Z</time></trkpt><trkpt lat="42.324776279180284" lon="12.663949147534645"><ele>298.3333333333333</ele><time>2026-03-28T11:48:22.999Z</time></trkpt><trkpt lat="42.32482134100327" lon="12.664051486223759"><ele>299.1666666666667</ele><time>2026-03-28T11:48:24.999Z</time></trkpt><trkpt lat="42.324907587552026" lon="12.664124035121343"><ele>300.0</ele><time>2026-03-28T11:48:25.999Z</time></trkpt><trkpt lat="42.32499115409363" lon="12.664222828562181"><ele>300.0</ele><time>2026-03-28T11:48:26.999Z</time></trkpt><trkpt lat="42.32509308228053" lon="12.664334484071782"><ele>300.0</ele><time>2026-03-28T11:48:27.999Z</time></trkpt><trkpt lat="42.325200190718775" lon="12.664470878362607"><ele>300.0</ele><time>2026-03-28T11:48:28.999Z</time></trkpt><trkpt lat="42.32530653617198" lon="12.664616629283708"><ele>300.0</ele><time>2026-03-28T11:48:29.999Z</time></trkpt><trkpt lat="42.325418000761154" lon="12.66477033890274"><ele>300.0</ele><time>2026-03-28T11:48:30.999Z</time></trkpt><trkpt lat="42.32551099717898" lon="12.664937853443998"><ele>300.0</ele><time>2026-03-28T11:48:31.999Z</time></trkpt><trkpt lat="42.32557333602677" lon="12.665123982848964"><ele>300.0</ele><time>2026-03-28T11:48:32.999Z</time></trkpt><trkpt lat="42.32561100315439" lon="12.6653297331352"><ele>306.3333333333333</ele><time>2026-03-28T11:48:33.999Z</time></trkpt><trkpt lat="42.32562977788825" lon="12.66554382655596"><ele>312.66666666666663</ele><time>2026-03-28T11:48:34.999Z</time></trkpt><trkpt lat="42.325651521733334" lon="12.665806779700821"><ele>319.0</ele><time>2026-03-28T11:48:35.999Z</time></trkpt><trkpt lat="42.325661461842145" lon="12.666068979402787"><ele>318.66666666666663</ele><time>2026-03-28T11:48:36.999Z</time></trkpt><trkpt lat="42.32566931119651" lon="12.666301779868622"><ele>318.3333333333333</ele><time>2026-03-28T11:48:37.999Z</time></trkpt><trkpt lat="42.32567361547279" lon="12.66652297534987"><ele>318.0</ele><time>2026-03-28T11:48:38.999Z</time></trkpt><trkpt lat="42.32569888521339" lon="12.66671417972475"><ele>318.0</ele><time>2026-03-28T11:48:39.999Z</time></trkpt><trkpt lat="42.32572621792877" lon="12.666917196193591"><ele>318.0</ele><time>2026-03-28T11:48:40.999Z</time></trkpt><trkpt lat="42.32581001521199" lon="12.667093719240968"><ele>318.0</ele><time>2026-03-28T11:48:41.999Z</time></trkpt><trkpt lat="42.32589117665148" lon="12.66726371921809"><ele>313.6666666666667</ele><time>2026-03-28T11:48:42.999Z</time></trkpt><trkpt lat="42.32594378814094" lon="12.667440041156748"><ele>309.33333333333337</ele><time>2026-03-28T11:48:43.999Z</time></trkpt><trkpt lat="42.32606450421853" lon="12.66756294341598"><ele>305.0</ele><time>2026-03-28T11:48:44.999Z</time></trkpt><trkpt lat="42.32619767473895" lon="12.667687955777664"><ele>306.33333333333337</ele><time>2026-03-28T11:48:45.999Z</time></trkpt><trkpt lat="42.326374885513594" lon="12.667808894022322"><ele>307.6666666666667</ele><time>2026-03-28T11:48:46.999Z</time></trkpt><trkpt lat="42.32656618171549" lon="12.667929797956958"><ele>309.0</ele><time>2026-03-28T11:48:47.999Z</time></trkpt><trkpt lat="42.326765313562014" lon="12.66807103307017"><ele>309.0</ele><time>2026-03-28T11:48:48.999Z</time></trkpt><trkpt lat="42.32697789837532" lon="12.668200138224204"><ele>309.0</ele><time>2026-03-28T11:48:49.999Z</time></trkpt><trkpt lat="42.327195876883124" lon="12.66833910505062"><ele>321.0</ele><time>2026-03-28T11:48:50.999Z</time></trkpt><trkpt lat="42.32741610532282" lon="12.668473013957183"><ele>333.0</ele><time>2026-03-28T11:48:51.999Z</time></trkpt><trkpt lat="42.32764753212964" lon="12.668592842066127"><ele>322.0</ele><time>2026-03-28T11:48:52.999Z</time></trkpt><trkpt lat="42.327885441909885" lon="12.668697407991488"><ele>311.0</ele><time>2026-03-28T11:48:53.999Z</time></trkpt><trkpt lat="42.32809656064094" lon="12.668778526467484"><ele>311.0</ele><time>2026-03-28T11:48:54.999Z</time></trkpt><trkpt lat="42.32829229201959" lon="12.66881563026321"><ele>311.0</ele><time>2026-03-28T11:48:55.999Z</time></trkpt><trkpt lat="42.3284555782804" lon="12.668862414205563"><ele>311.0</ele><time>2026-03-28T11:48:56.999Z</time></trkpt><trkpt lat="42.328624686252596" lon="12.668908319453402"><ele>311.0</ele><time>2026-03-28T11:48:57.999Z</time></trkpt><trkpt lat="42.32877394959126" lon="12.668932871941138"><ele>311.0</ele><time>2026-03-28T11:48:58.999Z</time></trkpt><trkpt lat="42.32892212469573" lon="12.668936536994806"><ele>311.0</ele><time>2026-03-28T11:48:59.999Z</time></trkpt><trkpt lat="42.32907010576135" lon="12.66892523334361"><ele>311.0</ele><time>2026-03-28T11:49:00.999Z</time></trkpt><trkpt lat="42.32921528066203" lon="12.668899789758171"><ele>310.75</ele><time>2026-03-28T11:49:01.999Z</time></trkpt><trkpt lat="42.32935486467206" lon="12.66886550832411"><ele>310.5</ele><time>2026-03-28T11:49:02.999Z</time></trkpt><trkpt lat="42.32948660387253" lon="12.66882980544106"><ele>310.25</ele><time>2026-03-28T11:49:03.999Z</time></trkpt><trkpt lat="42.32961318013242" lon="12.668772261896844"><ele>310.0</ele><time>2026-03-28T11:49:04.999Z</time></trkpt><trkpt lat="42.32972719552001" lon="12.66867565993494"><ele>314.5</ele><time>2026-03-28T11:49:06Z</time></trkpt><trkpt lat="42.329833428207785" lon="12.668558093586723"><ele>319.0</ele><time>2026-03-28T11:49:07Z</time></trkpt><trkpt lat="42.32992392549396" lon="12.668423710957212"><ele>323.5</ele><time>2026-03-28T11:49:08Z</time></trkpt><trkpt lat="42.330006059902416" lon="12.66829031014392"><ele>328.0</ele><time>2026-03-28T11:49:09Z</time></trkpt><trkpt lat="42.33008936594468" lon="12.668175646623293"><ele>328.0</ele><time>2026-03-28T11:49:10Z</time></trkpt><trkpt lat="42.33018163005017" lon="12.668076643034539"><ele>328.0</ele><time>2026-03-28T11:49:11Z</time></trkpt><trkpt lat="42.33028854854994" lon="12.668029508305391"><ele>328.0</ele><time>2026-03-28T11:49:12Z</time></trkpt><trkpt lat="42.33040365441461" lon="12.668040605310466"><ele>328.0</ele><time>2026-03-28T11:49:13Z</time></trkpt><trkpt lat="42.33051610188868" lon="12.668051297654626"><ele>324.75</ele><time>2026-03-28T11:49:14Z</time></trkpt><trkpt lat="42.33063049767185" lon="12.668086595603912"><ele>321.5</ele><time>2026-03-28T11:49:15Z</time></trkpt><trkpt lat="42.33074842782866" lon="12.668118342449652"><ele>318.25</ele><time>2026-03-28T11:49:16Z</time></trkpt><trkpt lat="42.330871833071676" lon="12.668161575290327"><ele>315.0</ele><time>2026-03-28T11:49:17Z</time></trkpt><trkpt lat="42.330989580863864" lon="12.668201913350401"><ele>315.0</ele><time>2026-03-28T11:49:18Z</time></trkpt><trkpt lat="42.33110932553435" lon="12.668240264429393"><ele>315.0</ele><time>2026-03-28T11:49:19Z</time></trkpt><trkpt lat="42.33123048163746" lon="12.668291809476441"><ele>315.0</ele><time>2026-03-28T11:49:20Z</time></trkpt><trkpt lat="42.33134704374215" lon="12.668328912618415"><ele>315.0</ele><time>2026-03-28T11:49:21Z</time></trkpt><trkpt lat="42.331476205330326" lon="12.668372090170411"><ele>314.25</ele><time>2026-03-28T11:49:22Z</time></trkpt><trkpt lat="42.33160061971371" lon="12.66840619165759"><ele>313.5</ele><time>2026-03-28T11:49:23Z</time></trkpt><trkpt lat="42.33172754862943" lon="12.668440668981123"><ele>312.75</ele><time>2026-03-28T11:49:24Z</time></trkpt><trkpt lat="42.33185119356904" lon="12.66847112351072"><ele>312.0</ele><time>2026-03-28T11:49:25Z</time></trkpt><trkpt lat="42.33197507780618" lon="12.66849918332797"><ele>312.0</ele><time>2026-03-28T11:49:26Z</time></trkpt><trkpt lat="42.332096649826894" lon="12.668512676417837"><ele>312.0</ele><time>2026-03-28T11:49:27Z</time></trkpt><trkpt lat="42.33222444111318" lon="12.668486619285005"><ele>312.0</ele><time>2026-03-28T11:49:28Z</time></trkpt><trkpt lat="42.33235448036711" lon="12.668441787657864"><ele>312.0</ele><time>2026-03-28T11:49:29Z</time></trkpt><trkpt lat="42.332491555793794" lon="12.668397904512442"><ele>312.5</ele><time>2026-03-28T11:49:30Z</time></trkpt><trkpt lat="42.33263111645637" lon="12.668373338638476"><ele>313.0</ele><time>2026-03-28T11:49:31Z</time></trkpt><trkpt lat="42.332777279779854" lon="12.668364080398291"><ele>313.5</ele><time>2026-03-28T11:49:32Z</time></trkpt><trkpt lat="42.33292367389298" lon="12.668371777529973"><ele>314.0</ele><time>2026-03-28T11:49:33Z</time></trkpt><trkpt lat="42.3330719228935" lon="12.668386388113198"><ele>316.33333333333337</ele><time>2026-03-28T11:49:34Z</time></trkpt><trkpt lat="42.333219093942176" lon="12.668413584888661"><ele>318.6666666666667</ele><time>2026-03-28T11:49:35Z</time></trkpt><trkpt lat="42.33337251702381" lon="12.66844167736172"><ele>321.0</ele><time>2026-03-28T11:49:36Z</time></trkpt><trkpt lat="42.33352664223776" lon="12.66845927502109"><ele>321.0</ele><time>2026-03-28T11:49:37Z</time></trkpt><trkpt lat="42.33367319776781" lon="12.668468049297692"><ele>321.0</ele><time>2026-03-28T11:49:38Z</time></trkpt><trkpt lat="42.33379325791301" lon="12.668430436669444"><ele>321.0</ele><time>2026-03-28T11:49:39Z</time></trkpt><trkpt lat="42.33390159250157" lon="12.66835158082705"><ele>321.0</ele><time>2026-03-28T11:49:40Z</time></trkpt><trkpt lat="42.3340106720697" lon="12.668231339143116"><ele>326.3333333333333</ele><time>2026-03-28T11:49:41Z</time></trkpt><trkpt lat="42.33412955688552" lon="12.668092187353299"><ele>331.66666666666663</ele><time>2026-03-28T11:49:42Z</time></trkpt><trkpt lat="42.334272187461856" lon="12.6679991329097"><ele>337.0</ele><time>2026-03-28T11:49:43Z</time></trkpt><trkpt lat="42.33439954847417" lon="12.667922045844676"><ele>337.0</ele><time>2026-03-28T11:49:44Z</time></trkpt><trkpt lat="42.33451241186631" lon="12.667897582675678"><ele>337.0</ele><time>2026-03-28T11:49:45Z</time></trkpt><trkpt lat="42.334631059858644" lon="12.6678993256287"><ele>337.0</ele><time>2026-03-28T11:49:46Z</time></trkpt><trkpt lat="42.334753357480544" lon="12.667930751557595"><ele>337.0</ele><time>2026-03-28T11:49:47Z</time></trkpt><trkpt lat="42.33486592656677" lon="12.667988135060313"><ele>340.25</ele><time>2026-03-28T11:49:48Z</time></trkpt><trkpt lat="42.334998261125996" lon="12.668052659592757"><ele>343.5</ele><time>2026-03-28T11:49:49Z</time></trkpt><trkpt lat="42.33512665318677" lon="12.668113777635314"><ele>346.75</ele><time>2026-03-28T11:49:50Z</time></trkpt><trkpt lat="42.33524838347255" lon="12.668198825131244"><ele>350.0</ele><time>2026-03-28T11:49:51Z</time></trkpt><trkpt lat="42.335366739621755" lon="12.668284259750747"><ele>350.0</ele><time>2026-03-28T11:49:52Z</time></trkpt><trkpt lat="42.33547707639731" lon="12.668369487385409"><ele>350.0</ele><time>2026-03-28T11:49:53Z</time></trkpt><trkpt lat="42.33558350002263" lon="12.668459468420545"><ele>350.0</ele><time>2026-03-28T11:49:54Z</time></trkpt><trkpt lat="42.335698175946376" lon="12.668548596887485"><ele>350.0</ele><time>2026-03-28T11:49:55Z</time></trkpt><trkpt lat="42.33581874103654" lon="12.668650854211348"><ele>353.0</ele><time>2026-03-28T11:49:56Z</time></trkpt><trkpt lat="42.33593085335031" lon="12.668760595700432"><ele>356.0</ele><time>2026-03-28T11:49:57Z</time></trkpt><trkpt lat="42.33603307107067" lon="12.668856772958318"><ele>359.0</ele><time>2026-03-28T11:49:58Z</time></trkpt><trkpt lat="42.336124067038305" lon="12.668950078526308"><ele>362.0</ele><time>2026-03-28T11:49:59Z</time></trkpt><trkpt lat="42.336207953210334" lon="12.669054877913236"><ele>362.0</ele><time>2026-03-28T11:50:00Z</time></trkpt><trkpt lat="42.33631778002398" lon="12.66916037199777"><ele>362.0</ele><time>2026-03-28T11:50:01Z</time></trkpt><trkpt lat="42.33641696500049" lon="12.66926943742271"><ele>362.0</ele><time>2026-03-28T11:50:02Z</time></trkpt><trkpt lat="42.336514807951545" lon="12.669374217283456"><ele>362.0</ele><time>2026-03-28T11:50:03Z</time></trkpt><trkpt lat="42.33661229813881" lon="12.669481885461906"><ele>361.8</ele><time>2026-03-28T11:50:04Z</time></trkpt><trkpt lat="42.336698316020794" lon="12.669582197860622"><ele>361.6</ele><time>2026-03-28T11:50:05Z</time></trkpt><trkpt lat="42.336775823675914" lon="12.66967111127253"><ele>361.40000000000003</ele><time>2026-03-28T11:50:06Z</time></trkpt><trkpt lat="42.336841905539366" lon="12.669751065304867"><ele>361.20000000000005</ele><time>2026-03-28T11:50:07Z</time></trkpt><trkpt lat="42.33691275110725" lon="12.669844255646344"><ele>361.0</ele><time>2026-03-28T11:50:08Z</time></trkpt><trkpt lat="42.33699572716022" lon="12.66993768778854"><ele>361.0</ele><time>2026-03-28T11:50:09Z</time></trkpt><trkpt lat="42.33706590042559" lon="12.670016452875917"><ele>361.0</ele><time>2026-03-28T11:50:10Z</time></trkpt><trkpt lat="42.33711794160948" lon="12.670069914805834"><ele>361.0</ele><time>2026-03-28T11:50:11Z</time></trkpt><trkpt lat="42.3371786207755" lon="12.6701735511366"><ele>361.0</ele><time>2026-03-28T11:50:13Z</time></trkpt><trkpt lat="42.33721946970442" lon="12.670258238804985"><ele>361.0</ele><time>2026-03-28T11:50:14Z</time></trkpt><trkpt lat="42.33726591434057" lon="12.670367165531664"><ele>361.0</ele><time>2026-03-28T11:50:14.999Z</time></trkpt><trkpt lat="42.337312149540594" lon="12.670483850051871"><ele>360.0</ele><time>2026-03-28T11:50:15.999Z</time></trkpt><trkpt lat="42.337363495742686" lon="12.670612556039734"><ele>359.0</ele><time>2026-03-28T11:50:16.999Z</time></trkpt><trkpt lat="42.33742619747717" lon="12.670735021437983"><ele>358.0</ele><time>2026-03-28T11:50:17.999Z</time></trkpt><trkpt lat="42.337490084740224" lon="12.670822770244667"><ele>357.0</ele><time>2026-03-28T11:50:18.999Z</time></trkpt><trkpt lat="42.33758309569608" lon="12.670886365139264"><ele>356.0</ele><time>2026-03-28T11:50:19.999Z</time></trkpt><trkpt lat="42.337669366066365" lon="12.670900733562801"><ele>356.0</ele><time>2026-03-28T11:50:20.999Z</time></trkpt><trkpt lat="42.33778057874604" lon="12.670919689014031"><ele>356.0</ele><time>2026-03-28T11:50:21.999Z</time></trkpt><trkpt lat="42.33789095802112" lon="12.670935429017797"><ele>356.0</ele><time>2026-03-28T11:50:22.999Z</time></trkpt><trkpt lat="42.33798540045322" lon="12.670961419946543"><ele>356.0</ele><time>2026-03-28T11:50:23.999Z</time></trkpt><trkpt lat="42.33813437485001" lon="12.670975401776197"><ele>360.0</ele><time>2026-03-28T11:50:24.999Z</time></trkpt><trkpt lat="42.33828005473404" lon="12.670971924771534"><ele>364.0</ele><time>2026-03-28T11:50:25.999Z</time></trkpt><trkpt lat="42.33844607897736" lon="12.670991360266589"><ele>368.0</ele><time>2026-03-28T11:50:26.999Z</time></trkpt><trkpt lat="42.33861400578356" lon="12.67101500658421"><ele>368.0</ele><time>2026-03-28T11:50:27.999Z</time></trkpt><trkpt lat="42.33875650398199" lon="12.671035296704416"><ele>368.0</ele><time>2026-03-28T11:50:28.999Z</time></trkpt><trkpt lat="42.3389051494556" lon="12.671048861264053"><ele>368.0</ele><time>2026-03-28T11:50:29.999Z</time></trkpt><trkpt lat="42.339021205963704" lon="12.671061695599288"><ele>368.0</ele><time>2026-03-28T11:50:30.999Z</time></trkpt><trkpt lat="42.339138740551164" lon="12.671078131777431"><ele>368.4</ele><time>2026-03-28T11:50:31.999Z</time></trkpt><trkpt lat="42.33924843619329" lon="12.671104346538685"><ele>368.79999999999995</ele><time>2026-03-28T11:50:32.999Z</time></trkpt><trkpt lat="42.33936375947114" lon="12.671097524389948"><ele>369.2</ele><time>2026-03-28T11:50:33.999Z</time></trkpt><trkpt lat="42.33947415066965" lon="12.67109666023357"><ele>369.6</ele><time>2026-03-28T11:50:34.999Z</time></trkpt><trkpt lat="42.33958105779995" lon="12.671073278058094"><ele>370.0</ele><time>2026-03-28T11:50:35.999Z</time></trkpt><trkpt lat="42.33967871113025" lon="12.671038294879144"><ele>366.8333333333333</ele><time>2026-03-28T11:50:36.999Z</time></trkpt><trkpt lat="42.33976462602842" lon="12.670983035980077"><ele>363.66666666666663</ele><time>2026-03-28T11:50:37.999Z</time></trkpt><trkpt lat="42.33983126214881" lon="12.670961723287386"><ele>360.5</ele><time>2026-03-28T11:50:38.999Z</time></trkpt><trkpt lat="42.33990411732359" lon="12.670893977568817"><ele>357.3333333333333</ele><time>2026-03-28T11:50:43.999Z</time></trkpt><trkpt lat="42.33996781531634" lon="12.670878660318436"><ele>354.1666666666667</ele><time>2026-03-28T11:50:44.999Z</time></trkpt><trkpt lat="42.340040827106385" lon="12.670836801226791"><ele>351.0</ele><time>2026-03-28T11:50:45.999Z</time></trkpt><trkpt lat="42.34012231377653" lon="12.67077781242307"><ele>351.0</ele><time>2026-03-28T11:50:46.999Z</time></trkpt><trkpt lat="42.340190763226296" lon="12.67069741140068"><ele>351.0</ele><time>2026-03-28T11:50:47.999Z</time></trkpt><trkpt lat="42.34023538437107" lon="12.67058686263691"><ele>351.0</ele><time>2026-03-28T11:50:48.999Z</time></trkpt><trkpt lat="42.3402412575028" lon="12.670448650743195"><ele>351.0</ele><time>2026-03-28T11:50:49.999Z</time></trkpt><trkpt lat="42.34023731856558" lon="12.670334719373956"><ele>351.0</ele><time>2026-03-28T11:50:50.999Z</time></trkpt><trkpt lat="42.340215294135746" lon="12.6702417047819"><ele>351.0</ele><time>2026-03-28T11:50:51.999Z</time></trkpt><trkpt lat="42.34020860350794" lon="12.670142910461168"><ele>351.0</ele><time>2026-03-28T11:50:52.999Z</time></trkpt><trkpt lat="42.34024175543882" lon="12.670058593609761"><ele>351.0</ele><time>2026-03-28T11:50:54.999Z</time></trkpt><trkpt lat="42.34031403392568" lon="12.670073393620424"><ele>351.0</ele><time>2026-03-28T11:50:56.999Z</time></trkpt><trkpt lat="42.34037794071346" lon="12.670093998593911"><ele>351.0</ele><time>2026-03-28T11:50:57.999Z</time></trkpt><trkpt lat="42.34037178822616" lon="12.670243265785249"><ele>351.0</ele><time>2026-03-28T11:50:58.999Z</time></trkpt><trkpt lat="42.34039430180076" lon="12.670362746130595"><ele>351.0</ele><time>2026-03-28T11:50:59.999Z</time></trkpt><trkpt lat="42.3404113995643" lon="12.670502165795963"><ele>351.0</ele><time>2026-03-28T11:51:00.999Z</time></trkpt><trkpt lat="42.340435087173006" lon="12.670636031473483"><ele>351.0</ele><time>2026-03-28T11:51:01.999Z</time></trkpt><trkpt lat="42.340463660499594" lon="12.670757660963949"><ele>351.0</ele><time>2026-03-28T11:51:02.999Z</time></trkpt><trkpt lat="42.34050697347824" lon="12.670850091798696"><ele>351.0</ele><time>2026-03-28T11:51:03.999Z</time></trkpt><trkpt lat="42.34056953802157" lon="12.670943580830913"><ele>351.0</ele><time>2026-03-28T11:51:04.999Z</time></trkpt><trkpt lat="42.34065452635021" lon="12.671003944989904"><ele>346.75</ele><time>2026-03-28T11:51:05.999Z</time></trkpt><trkpt lat="42.34071911076786" lon="12.671056785033352"><ele>342.5</ele><time>2026-03-28T11:51:06.999Z</time></trkpt><trkpt lat="42.34083575873866" lon="12.671117100632769"><ele>338.25</ele><time>2026-03-28T11:51:07.999Z</time></trkpt><trkpt lat="42.340946054631225" lon="12.671173949409814"><ele>334.0</ele><time>2026-03-28T11:51:08.999Z</time></trkpt><trkpt lat="42.341072831494344" lon="12.671244248792629"><ele>334.0</ele><time>2026-03-28T11:51:09.999Z</time></trkpt><trkpt lat="42.34121221580805" lon="12.671323925485725"><ele>334.0</ele><time>2026-03-28T11:51:10.999Z</time></trkpt><trkpt lat="42.34133903553741" lon="12.671408477691136"><ele>334.0</ele><time>2026-03-28T11:51:12Z</time></trkpt><trkpt lat="42.341481749137735" lon="12.671499270466695"><ele>334.0</ele><time>2026-03-28T11:51:13Z</time></trkpt><trkpt lat="42.341616546101264" lon="12.671586252458443"><ele>334.0</ele><time>2026-03-28T11:51:14Z</time></trkpt><trkpt lat="42.3417306674962" lon="12.671668448500643"><ele>334.0</ele><time>2026-03-28T11:51:15Z</time></trkpt><trkpt lat="42.34183633172855" lon="12.671769038483323"><ele>334.0</ele><time>2026-03-28T11:51:16Z</time></trkpt><trkpt lat="42.34193321165585" lon="12.671877623566553"><ele>334.75</ele><time>2026-03-28T11:51:17Z</time></trkpt><trkpt lat="42.342011902884344" lon="12.672004878778258"><ele>335.5</ele><time>2026-03-28T11:51:18Z</time></trkpt><trkpt lat="42.34208656231269" lon="12.672135200516365"><ele>336.25</ele><time>2026-03-28T11:51:19Z</time></trkpt><trkpt lat="42.34214829590764" lon="12.672270945159653"><ele>337.0</ele><time>2026-03-28T11:51:20Z</time></trkpt><trkpt lat="42.34220448185851" lon="12.672407074579443"><ele>336.5</ele><time>2026-03-28T11:51:21Z</time></trkpt><trkpt lat="42.342258762639474" lon="12.672560174204998"><ele>336.0</ele><time>2026-03-28T11:51:22Z</time></trkpt><trkpt lat="42.34229621048585" lon="12.672736471996835"><ele>335.5</ele><time>2026-03-28T11:51:23Z</time></trkpt><trkpt lat="42.342328400209894" lon="12.672935613295829"><ele>335.0</ele><time>2026-03-28T11:51:24Z</time></trkpt><trkpt lat="42.342378769968114" lon="12.673150024558467"><ele>336.6666666666667</ele><time>2026-03-28T11:51:25Z</time></trkpt><trkpt lat="42.342439220764064" lon="12.673388137177888"><ele>338.3333333333333</ele><time>2026-03-28T11:51:26Z</time></trkpt><trkpt lat="42.34249448854697" lon="12.67362990790379"><ele>340.0</ele><time>2026-03-28T11:51:27Z</time></trkpt><trkpt lat="42.342555208366996" lon="12.673870979060467"><ele>341.3333333333333</ele><time>2026-03-28T11:51:28Z</time></trkpt><trkpt lat="42.342629326520466" lon="12.674124984777487"><ele>342.6666666666667</ele><time>2026-03-28T11:51:29Z</time></trkpt><trkpt lat="42.342713799263095" lon="12.674375030376222"><ele>344.0</ele><time>2026-03-28T11:51:30Z</time></trkpt><trkpt lat="42.342803492824466" lon="12.674613110605993"><ele>345.33333333333337</ele><time>2026-03-28T11:51:31Z</time></trkpt><trkpt lat="42.34289075818103" lon="12.674855350984934"><ele>346.6666666666667</ele><time>2026-03-28T11:51:32Z</time></trkpt><trkpt lat="42.34297689131376" lon="12.675093721587954"><ele>348.0</ele><time>2026-03-28T11:51:33Z</time></trkpt><trkpt lat="42.34306344268597" lon="12.675313717107944"><ele>350.6666666666667</ele><time>2026-03-28T11:51:34Z</time></trkpt><trkpt lat="42.343163121888004" lon="12.675526099569762"><ele>353.33333333333337</ele><time>2026-03-28T11:51:35Z</time></trkpt><trkpt lat="42.34322050023542" lon="12.67571729359181"><ele>356.0</ele><time>2026-03-28T11:51:36Z</time></trkpt><trkpt lat="42.34328449644373" lon="12.675900028636544"><ele>356.0</ele><time>2026-03-28T11:51:37Z</time></trkpt><trkpt lat="42.34333666185011" lon="12.676056950657262"><ele>356.0</ele><time>2026-03-28T11:51:38Z</time></trkpt><trkpt lat="42.343387170347704" lon="12.676222428686547"><ele>356.0</ele><time>2026-03-28T11:51:39Z</time></trkpt><trkpt lat="42.34342743394792" lon="12.6763981575504"><ele>356.0</ele><time>2026-03-28T11:51:40Z</time></trkpt><trkpt lat="42.34346572159084" lon="12.676555236616792"><ele>357.20000000000005</ele><time>2026-03-28T11:51:41Z</time></trkpt><trkpt lat="42.3434991108231" lon="12.676691406114847"><ele>358.40000000000003</ele><time>2026-03-28T11:51:42Z</time></trkpt><trkpt lat="42.34353689898049" lon="12.676818674128985"><ele>359.6</ele><time>2026-03-28T11:51:43Z</time></trkpt><trkpt lat="42.34357321255555" lon="12.676943020759685"><ele>360.8</ele><time>2026-03-28T11:51:44Z</time></trkpt><trkpt lat="42.34359647109274" lon="12.677062827672081"><ele>362.0</ele><time>2026-03-28T11:51:45Z</time></trkpt><trkpt lat="42.343603040413214" lon="12.677183930958392"><ele>363.40000000000003</ele><time>2026-03-28T11:51:46Z</time></trkpt><trkpt lat="42.343541720649114" lon="12.67727809456851"><ele>364.8</ele><time>2026-03-28T11:51:47Z</time></trkpt><trkpt lat="42.34347554124431" lon="12.67732267040827"><ele>366.2</ele><time>2026-03-28T11:51:48Z</time></trkpt><trkpt lat="42.3433873878243" lon="12.677360229291168"><ele>367.6</ele><time>2026-03-28T11:51:49Z</time></trkpt><trkpt lat="42.34328310960177" lon="12.677385372843009"><ele>369.0</ele><time>2026-03-28T11:51:50Z</time></trkpt><trkpt lat="42.343161540085944" lon="12.677417482657933"><ele>368.75</ele><time>2026-03-28T11:51:51Z</time></trkpt><trkpt lat="42.34302717700312" lon="12.677451972971976"><ele>368.5</ele><time>2026-03-28T11:51:52Z</time></trkpt><trkpt lat="42.34287976161669" lon="12.677483712248526"><ele>368.25</ele><time>2026-03-28T11:51:53Z</time></trkpt><trkpt lat="42.34272949975684" lon="12.677508966834687"><ele>368.0</ele><time>2026-03-28T11:51:54Z</time></trkpt><trkpt lat="42.342577076041216" lon="12.677531023122345"><ele>368.0</ele><time>2026-03-28T11:51:55Z</time></trkpt><trkpt lat="42.34243107268358" lon="12.677551907295934"><ele>368.0</ele><time>2026-03-28T11:51:56Z</time></trkpt><trkpt lat="42.3423017736658" lon="12.677570227797167"><ele>368.0</ele><time>2026-03-28T11:51:57Z</time></trkpt><trkpt lat="42.342185602724456" lon="12.677586608201924"><ele>368.0</ele><time>2026-03-28T11:51:58Z</time></trkpt><trkpt lat="42.34208367025355" lon="12.677623199775837"><ele>369.1666666666667</ele><time>2026-03-28T11:51:59Z</time></trkpt><trkpt lat="42.34199778570081" lon="12.677620371266135"><ele>370.33333333333337</ele><time>2026-03-28T11:52:00Z</time></trkpt><trkpt lat="42.341900252723924" lon="12.677609191366962"><ele>371.5</ele><time>2026-03-28T11:52:02Z</time></trkpt><trkpt lat="42.34183532884175" lon="12.677614458336375"><ele>372.6666666666667</ele><time>2026-03-28T11:52:22Z</time></trkpt><trkpt lat="42.34191505865661" lon="12.677639793894427"><ele>373.8333333333333</ele><time>2026-03-28T11:52:28Z</time></trkpt><trkpt lat="42.341977193523796" lon="12.677621904059187"><ele>375.0</ele><time>2026-03-28T11:52:32Z</time></trkpt><trkpt lat="42.342067643825644" lon="12.677603624417529"><ele>375.0</ele><time>2026-03-28T11:52:39Z</time></trkpt><trkpt lat="42.342138651168106" lon="12.677593229025996"><ele>375.0</ele><time>2026-03-28T11:52:41.999Z</time></trkpt><trkpt lat="42.34222351716444" lon="12.677581261756472"><ele>375.0</ele><time>2026-03-28T11:52:44.999Z</time></trkpt><trkpt lat="42.342324078757706" lon="12.677567081164112"><ele>375.0</ele><time>2026-03-28T11:52:46.999Z</time></trkpt><trkpt lat="42.34238967198527" lon="12.677557773307973"><ele>375.0</ele><time>2026-03-28T11:52:47.999Z</time></trkpt><trkpt lat="42.34265663571566" lon="12.678380054206517"><ele>375.4</ele><time>2026-03-28T11:52:49.999Z</time></trkpt><trkpt lat="42.34272386894018" lon="12.678364728025924"><ele>375.8</ele><time>2026-03-28T11:52:50.999Z</time></trkpt><trkpt lat="42.34282870970663" lon="12.67833126750449"><ele>376.20000000000005</ele><time>2026-03-28T11:52:52.999Z</time></trkpt><trkpt lat="42.34298243038154" lon="12.678312667134017"><ele>376.6</ele><time>2026-03-28T11:52:54.999Z</time></trkpt><trkpt lat="42.343058452086645" lon="12.678238053148272"><ele>377.0</ele><time>2026-03-28T11:52:56.999Z</time></trkpt><trkpt lat="42.343160922637786" lon="12.678205468593902"><ele>377.5</ele><time>2026-03-28T11:52:57.999Z</time></trkpt><trkpt lat="42.34333080096345" lon="12.678138504435546"><ele>378.0</ele><time>2026-03-28T11:52:58.999Z</time></trkpt><trkpt lat="42.34345559915364" lon="12.678094455596007"><ele>378.5</ele><time>2026-03-28T11:52:59.999Z</time></trkpt><trkpt lat="42.343527480411865" lon="12.678055237711359"><ele>379.0</ele><time>2026-03-28T11:53:00.999Z</time></trkpt><trkpt lat="42.34359341126671" lon="12.678038619240258"><ele>379.0</ele><time>2026-03-28T11:53:01.999Z</time></trkpt><trkpt lat="42.34363891571993" lon="12.677895400957915"><ele>379.0</ele><time>2026-03-28T11:53:10.999Z</time></trkpt><trkpt lat="42.34344864093136" lon="12.67805754629062"><ele>379.0</ele><time>2026-03-28T11:53:11.999Z</time></trkpt><trkpt lat="42.34331448610781" lon="12.678120557783329"><ele>379.0</ele><time>2026-03-28T11:53:13.999Z</time></trkpt><trkpt lat="42.34323241080647" lon="12.678154561363389"><ele>379.0</ele><time>2026-03-28T11:53:14.999Z</time></trkpt><trkpt lat="42.34315331273678" lon="12.678182281804771"><ele>379.0</ele><time>2026-03-28T11:53:15.999Z</time></trkpt><trkpt lat="42.343070584100204" lon="12.67820810722494"><ele>379.0</ele><time>2026-03-28T11:53:16.999Z</time></trkpt><trkpt lat="42.342989938139134" lon="12.67824113914619"><ele>379.0</ele><time>2026-03-28T11:53:18Z</time></trkpt><trkpt lat="42.34290331473006" lon="12.67827400064614"><ele>379.0</ele><time>2026-03-28T11:53:19Z</time></trkpt><trkpt lat="42.34281891372201" lon="12.678306403882038"><ele>378.6</ele><time>2026-03-28T11:53:20Z</time></trkpt><trkpt lat="42.342733147901896" lon="12.678336481520288"><ele>378.2</ele><time>2026-03-28T11:53:21Z</time></trkpt><trkpt lat="42.34264023139596" lon="12.678368410773869"><ele>377.8</ele><time>2026-03-28T11:53:22Z</time></trkpt><trkpt lat="42.342546448800476" lon="12.678373162184885"><ele>377.40000000000003</ele><time>2026-03-28T11:53:23Z</time></trkpt><trkpt lat="42.342452321071484" lon="12.678366136384353"><ele>377.0</ele><time>2026-03-28T11:53:24Z</time></trkpt><trkpt lat="42.34236137426398" lon="12.67833340492711"><ele>377.0</ele><time>2026-03-28T11:53:25Z</time></trkpt><trkpt lat="42.34227568130588" lon="12.678289575428769"><ele>377.0</ele><time>2026-03-28T11:53:26Z</time></trkpt><trkpt lat="42.34219806530993" lon="12.678206981174068"><ele>377.0</ele><time>2026-03-28T11:53:27Z</time></trkpt><trkpt lat="42.34213532476289" lon="12.678123058854858"><ele>377.0</ele><time>2026-03-28T11:53:28Z</time></trkpt><trkpt lat="42.34211103832785" lon="12.67800695416218"><ele>377.0</ele><time>2026-03-28T11:53:29Z</time></trkpt><trkpt lat="42.34205677575689" lon="12.677926866100192"><ele>377.0</ele><time>2026-03-28T11:53:30Z</time></trkpt><trkpt lat="42.34200858372189" lon="12.67785317380426"><ele>376.6666666666667</ele><time>2026-03-28T11:53:31Z</time></trkpt><trkpt lat="42.34196492720616" lon="12.677785901157332"><ele>376.33333333333337</ele><time>2026-03-28T11:53:32Z</time></trkpt><trkpt lat="42.34191915633928" lon="12.677715370415788"><ele>376.0</ele><time>2026-03-28T11:53:33Z</time></trkpt><trkpt lat="42.3418405601011" lon="12.677609271071018"><ele>375.6666666666667</ele><time>2026-03-28T11:53:35Z</time></trkpt><trkpt lat="42.34179602293893" lon="12.677543498905832"><ele>375.3333333333333</ele><time>2026-03-28T11:53:37Z</time></trkpt><trkpt lat="42.341787478899874" lon="12.677445723049258"><ele>375.0</ele><time>2026-03-28T11:53:41Z</time></trkpt><trkpt lat="42.3417209673999" lon="12.677419465401604"><ele>375.0</ele><time>2026-03-28T11:53:49Z</time></trkpt><trkpt lat="42.34166189246927" lon="12.677308994858404"><ele>375.0</ele><time>2026-03-28T11:53:52Z</time></trkpt><trkpt lat="42.34159603859467" lon="12.67720448428968"><ele>375.0</ele><time>2026-03-28T11:53:54Z</time></trkpt><trkpt lat="42.341501523846844" lon="12.677300629827384"><ele>375.0</ele><time>2026-03-28T11:53:59Z</time></trkpt><trkpt lat="42.34148722037694" lon="12.677405704773339"><ele>375.0</ele><time>2026-03-28T11:54:01Z</time></trkpt><trkpt lat="42.341465404026316" lon="12.67754454097985"><ele>375.0</ele><time>2026-03-28T11:54:03Z</time></trkpt><trkpt lat="42.34143325769186" lon="12.677620429354976"><ele>375.0</ele><time>2026-03-28T11:54:04Z</time></trkpt><trkpt lat="42.341385051391576" lon="12.677705575507535"><ele>375.0</ele><time>2026-03-28T11:54:05Z</time></trkpt><trkpt lat="42.34133096718637" lon="12.677785504966181"><ele>375.0</ele><time>2026-03-28T11:54:06Z</time></trkpt><trkpt lat="42.341265022613456" lon="12.677858444007121"><ele>375.0</ele><time>2026-03-28T11:54:07Z</time></trkpt><trkpt lat="42.34119619575539" lon="12.677923161057096"><ele>375.0</ele><time>2026-03-28T11:54:08Z</time></trkpt><trkpt lat="42.34113562521334" lon="12.677970738826668"><ele>379.2</ele><time>2026-03-28T11:54:09Z</time></trkpt><trkpt lat="42.34107498333861" lon="12.678027960189501"><ele>383.4</ele><time>2026-03-28T11:54:11Z</time></trkpt><trkpt lat="42.34101078514365" lon="12.678116145137018"><ele>387.6</ele><time>2026-03-28T11:54:27Z</time></trkpt><trkpt lat="42.3409173621065" lon="12.678173746997066"><ele>391.8</ele><time>2026-03-28T11:54:29Z</time></trkpt><trkpt lat="42.340829275560424" lon="12.678224703319858"><ele>396.0</ele><time>2026-03-28T11:54:31Z</time></trkpt><trkpt lat="42.340735549781684" lon="12.678272937970213"><ele>396.0</ele><time>2026-03-28T11:54:33Z</time></trkpt><trkpt lat="42.34064053153145" lon="12.678311222391175"><ele>396.0</ele><time>2026-03-28T11:54:35Z</time></trkpt><trkpt lat="42.3405356780527" lon="12.67835324441332"><ele>396.0</ele><time>2026-03-28T11:54:37Z</time></trkpt><trkpt lat="42.340477634840916" lon="12.678395442017047"><ele>396.0</ele><time>2026-03-28T11:54:38Z</time></trkpt><trkpt lat="42.3404095097402" lon="12.678493409459819"><ele>396.0</ele><time>2026-03-28T11:54:39.999Z</time></trkpt><trkpt lat="42.34034322567852" lon="12.67861967102114"><ele>398.8</ele><time>2026-03-28T11:54:41.999Z</time></trkpt><trkpt lat="42.34029755085949" lon="12.678740309884352"><ele>401.6</ele><time>2026-03-28T11:54:43.999Z</time></trkpt><trkpt lat="42.34022783667604" lon="12.678835961789735"><ele>404.4</ele><time>2026-03-28T11:54:45.999Z</time></trkpt><trkpt lat="42.340151457315635" lon="12.678920265848936"><ele>407.2</ele><time>2026-03-28T11:54:47.999Z</time></trkpt><trkpt lat="42.34005837181944" lon="12.678987099453792"><ele>410.0</ele><time>2026-03-28T11:54:49.999Z</time></trkpt><trkpt lat="42.339991437251975" lon="12.679025441776156"><ele>410.0</ele><time>2026-03-28T11:54:50.999Z</time></trkpt><trkpt lat="42.33990937124818" lon="12.67906688959601"><ele>410.0</ele><time>2026-03-28T11:54:51.999Z</time></trkpt><trkpt lat="42.33981392854792" lon="12.679124811993482"><ele>410.0</ele><time>2026-03-28T11:54:52.999Z</time></trkpt><trkpt lat="42.339740751864" lon="12.679138959495642"><ele>410.0</ele><time>2026-03-28T11:54:53.999Z</time></trkpt><trkpt lat="42.33965609630706" lon="12.679164770148363"><ele>410.0</ele><time>2026-03-28T11:54:54.999Z</time></trkpt><trkpt lat="42.33954246032147" lon="12.67922624926909"><ele>412.66666666666663</ele><time>2026-03-28T11:54:56.999Z</time></trkpt><trkpt lat="42.339460636337364" lon="12.679252451483562"><ele>415.3333333333333</ele><time>2026-03-28T11:54:57.999Z</time></trkpt><trkpt lat="42.339368929723776" lon="12.679259934918834"><ele>418.0</ele><time>2026-03-28T11:54:58.999Z</time></trkpt><trkpt lat="42.33928058917646" lon="12.679255986004364"><ele>420.66666666666663</ele><time>2026-03-28T11:54:59.999Z</time></trkpt><trkpt lat="42.3391925396592" lon="12.67927637985378"><ele>423.3333333333333</ele><time>2026-03-28T11:55:00.999Z</time></trkpt><trkpt lat="42.339132042591054" lon="12.67930139773041"><ele>426.0</ele><time>2026-03-28T11:55:01.999Z</time></trkpt><trkpt lat="42.33906447721171" lon="12.679295274131263"><ele>426.0</ele><time>2026-03-28T11:55:02.999Z</time></trkpt><trkpt lat="42.338986786764806" lon="12.679305679210792"><ele>426.0</ele><time>2026-03-28T11:55:03.999Z</time></trkpt><trkpt lat="42.3388982872496" lon="12.679330416161061"><ele>426.0</ele><time>2026-03-28T11:55:04.999Z</time></trkpt><trkpt lat="42.33881906994438" lon="12.679344862312732"><ele>426.0</ele><time>2026-03-28T11:55:05.999Z</time></trkpt><trkpt lat="42.338687436540425" lon="12.679399452820112"><ele>426.0</ele><time>2026-03-28T11:55:07.999Z</time></trkpt><trkpt lat="42.338612271430975" lon="12.679463099477926"><ele>425.8333333333333</ele><time>2026-03-28T11:55:08.999Z</time></trkpt><trkpt lat="42.3385477962003" lon="12.679503474473943"><ele>425.66666666666663</ele><time>2026-03-28T11:55:09.999Z</time></trkpt><trkpt lat="42.338457163651796" lon="12.6795428250117"><ele>425.5</ele><time>2026-03-28T11:55:10.999Z</time></trkpt><trkpt lat="42.33838555097887" lon="12.679605426807948"><ele>425.3333333333333</ele><time>2026-03-28T11:55:11.999Z</time></trkpt><trkpt lat="42.33830410730667" lon="12.679642597050787"><ele>425.16666666666663</ele><time>2026-03-28T11:55:12.999Z</time></trkpt><trkpt lat="42.33823623827596" lon="12.679703339737557"><ele>425.0</ele><time>2026-03-28T11:55:13.999Z</time></trkpt><trkpt lat="42.33815000107284" lon="12.679708139194751"><ele>425.0</ele><time>2026-03-28T11:55:14.999Z</time></trkpt><trkpt lat="42.33806011686562" lon="12.679732161285763"><ele>425.0</ele><time>2026-03-28T11:55:15.999Z</time></trkpt><trkpt lat="42.33796748657651" lon="12.679777395523637"><ele>425.0</ele><time>2026-03-28T11:55:16.999Z</time></trkpt><trkpt lat="42.33786884995622" lon="12.679803415546044"><ele>425.0</ele><time>2026-03-28T11:55:17.999Z</time></trkpt><trkpt lat="42.33776955047974" lon="12.679827701849819"><ele>425.0</ele><time>2026-03-28T11:55:18.999Z</time></trkpt><trkpt lat="42.33767742160889" lon="12.679874350107912"><ele>426.6</ele><time>2026-03-28T11:55:19.999Z</time></trkpt><trkpt lat="42.33759743594901" lon="12.679914126445425"><ele>428.2</ele><time>2026-03-28T11:55:20.999Z</time></trkpt><trkpt lat="42.33750172259007" lon="12.679965331702782"><ele>429.79999999999995</ele><time>2026-03-28T11:55:21.999Z</time></trkpt><trkpt lat="42.33741453913736" lon="12.680015585788125"><ele>431.4</ele><time>2026-03-28T11:55:22.999Z</time></trkpt><trkpt lat="42.33732989569305" lon="12.68006375408306"><ele>433.0</ele><time>2026-03-28T11:55:24Z</time></trkpt><trkpt lat="42.33724635458183" lon="12.68010534703105"><ele>435.79999999999995</ele><time>2026-03-28T11:55:25Z</time></trkpt><trkpt lat="42.3371622396358" lon="12.680117058879992"><ele>438.59999999999997</ele><time>2026-03-28T11:55:26Z</time></trkpt><trkpt lat="42.33700742796407" lon="12.68015582584029"><ele>441.40000000000003</ele><time>2026-03-28T11:55:28Z</time></trkpt><trkpt lat="42.33692266797327" lon="12.680182006043005"><ele>444.20000000000005</ele><time>2026-03-28T11:55:29Z</time></trkpt><trkpt lat="42.33684061168804" lon="12.680172013604242"><ele>447.0</ele><time>2026-03-28T11:55:30Z</time></trkpt><trkpt lat="42.33676322253105" lon="12.680156087691275"><ele>447.0</ele><time>2026-03-28T11:55:31Z</time></trkpt><trkpt lat="42.33668290688232" lon="12.680133990399856"><ele>447.0</ele><time>2026-03-28T11:55:32Z</time></trkpt><trkpt lat="42.33660134837122" lon="12.680122274720985"><ele>447.0</ele><time>2026-03-28T11:55:33Z</time></trkpt><trkpt lat="42.33653058660869" lon="12.68011202070112"><ele>447.0</ele><time>2026-03-28T11:55:34Z</time></trkpt><trkpt lat="42.3364571739886" lon="12.68008890544213"><ele>447.0</ele><time>2026-03-28T11:55:35Z</time></trkpt><trkpt lat="42.33638555262173" lon="12.68009449604028"><ele>447.0</ele><time>2026-03-28T11:55:36Z</time></trkpt><trkpt lat="42.33631061563497" lon="12.680084286394672"><ele>448.8333333333333</ele><time>2026-03-28T11:55:37Z</time></trkpt><trkpt lat="42.33624506392258" lon="12.68010818411952"><ele>450.66666666666663</ele><time>2026-03-28T11:55:38Z</time></trkpt><trkpt lat="42.33616717250426" lon="12.680098210872224"><ele>452.5</ele><time>2026-03-28T11:55:39Z</time></trkpt><trkpt lat="42.336081275308885" lon="12.68011011273129"><ele>454.3333333333333</ele><time>2026-03-28T11:55:40Z</time></trkpt><trkpt lat="42.336005757659606" lon="12.680109694217114"><ele>456.16666666666663</ele><time>2026-03-28T11:55:41Z</time></trkpt><trkpt lat="42.335926465913424" lon="12.680124975483256"><ele>458.0</ele><time>2026-03-28T11:55:42Z</time></trkpt><trkpt lat="42.33584958322961" lon="12.68015025224446"><ele>457.99999999999994</ele><time>2026-03-28T11:55:43Z</time></trkpt><trkpt lat="42.33576543092474" lon="12.680145950464672"><ele>458.0</ele><time>2026-03-28T11:55:44Z</time></trkpt><trkpt lat="42.33568647133985" lon="12.680150688004007"><ele>458.0</ele><time>2026-03-28T11:55:45Z</time></trkpt><trkpt lat="42.33561634605846" lon="12.68015646924191"><ele>458.0</ele><time>2026-03-28T11:55:46Z</time></trkpt><trkpt lat="42.335534532079" lon="12.68017904692758"><ele>457.99999999999994</ele><time>2026-03-28T11:55:47Z</time></trkpt><trkpt lat="42.335465013546646" lon="12.680221808605527"><ele>458.0</ele><time>2026-03-28T11:55:48Z</time></trkpt><trkpt lat="42.33537806604353" lon="12.680296819157293"><ele>459.16666666666663</ele><time>2026-03-28T11:55:50Z</time></trkpt><trkpt lat="42.3353336273739" lon="12.680358357638266"><ele>460.3333333333333</ele><time>2026-03-28T11:55:51Z</time></trkpt><trkpt lat="42.335268313987946" lon="12.680424092619855"><ele>461.5</ele><time>2026-03-28T11:55:52Z</time></trkpt><trkpt lat="42.33520330004808" lon="12.680475022546261"><ele>462.66666666666663</ele><time>2026-03-28T11:55:53Z</time></trkpt><trkpt lat="42.33513228589518" lon="12.680499944192448"><ele>463.8333333333333</ele><time>2026-03-28T11:55:54Z</time></trkpt><trkpt lat="42.335066132719426" lon="12.680532171594532"><ele>465.0</ele><time>2026-03-28T11:55:55Z</time></trkpt><trkpt lat="42.334954016634335" lon="12.680646217486144"><ele>465.0</ele><time>2026-03-28T11:55:57Z</time></trkpt><trkpt lat="42.3349144684801" lon="12.680732031301824"><ele>465.0</ele><time>2026-03-28T11:55:58Z</time></trkpt><trkpt lat="42.334868926619656" lon="12.680805963378575"><ele>465.0</ele><time>2026-03-28T11:55:59Z</time></trkpt><trkpt lat="42.334835386346434" lon="12.680885560666301"><ele>465.0</ele><time>2026-03-28T11:56:00Z</time></trkpt><trkpt lat="42.33480240609889" lon="12.680986577795569"><ele>465.0</ele><time>2026-03-28T11:56:01Z</time></trkpt><trkpt lat="42.3347641083282" lon="12.681114546094296"><ele>465.0</ele><time>2026-03-28T11:56:02Z</time></trkpt><trkpt lat="42.33474196439264" lon="12.681263555901252"><ele>464.0</ele><time>2026-03-28T11:56:03Z</time></trkpt><trkpt lat="42.33470900064709" lon="12.68138405975088"><ele>463.0</ele><time>2026-03-28T11:56:04Z</time></trkpt><trkpt lat="42.33470677012427" lon="12.6815026201797"><ele>462.0</ele><time>2026-03-28T11:56:05Z</time></trkpt><trkpt lat="42.33476172609658" lon="12.681581687086751"><ele>461.0</ele><time>2026-03-28T11:56:06Z</time></trkpt><trkpt lat="42.334770539580624" lon="12.681667067855342"><ele>460.0</ele><time>2026-03-28T11:56:07Z</time></trkpt><trkpt lat="42.334783298937054" lon="12.68177288315621"><ele>459.0</ele><time>2026-03-28T11:56:09Z</time></trkpt><trkpt lat="42.33479287871077" lon="12.68190328695377"><ele>462.2</ele><time>2026-03-28T11:56:11Z</time></trkpt><trkpt lat="42.33479769119294" lon="12.681998249797925"><ele>465.4</ele><time>2026-03-28T11:56:12Z</time></trkpt><trkpt lat="42.334800292175274" lon="12.68209305211099"><ele>468.6</ele><time>2026-03-28T11:56:13Z</time></trkpt><trkpt lat="42.33479274552642" lon="12.682266705944768"><ele>471.8</ele><time>2026-03-28T11:56:15Z</time></trkpt><trkpt lat="42.334766338748565" lon="12.68239485746868"><ele>475.0</ele><time>2026-03-28T11:56:17Z</time></trkpt><trkpt lat="42.33426651204315" lon="12.682501800876656"><ele>475.00000000000006</ele><time>2026-03-28T11:56:19Z</time></trkpt><trkpt lat="42.33422180616153" lon="12.682571024551292"><ele>475.0</ele><time>2026-03-28T11:56:20Z</time></trkpt><trkpt lat="42.33418528469054" lon="12.682640403770687"><ele>475.0</ele><time>2026-03-28T11:56:21Z</time></trkpt><trkpt lat="42.33409684557415" lon="12.682779618518886"><ele>475.0</ele><time>2026-03-28T11:56:23Z</time></trkpt><trkpt lat="42.33404708964213" lon="12.682837566369054"><ele>475.00000000000006</ele><time>2026-03-28T11:56:24Z</time></trkpt><trkpt lat="42.333993556808075" lon="12.682895870380388"><ele>475.0</ele><time>2026-03-28T11:56:25Z</time></trkpt><trkpt lat="42.33392970416532" lon="12.682992251944691"><ele>475.1666666666667</ele><time>2026-03-28T11:56:26Z</time></trkpt><trkpt lat="42.333874323585256" lon="12.683064291897066"><ele>475.33333333333337</ele><time>2026-03-28T11:56:27Z</time></trkpt><trkpt lat="42.333818487594314" lon="12.683146918429184"><ele>475.5</ele><time>2026-03-28T11:56:28Z</time></trkpt><trkpt lat="42.333768309631516" lon="12.683231770625424"><ele>475.66666666666663</ele><time>2026-03-28T11:56:29Z</time></trkpt><trkpt lat="42.33371872882915" lon="12.68330983088058"><ele>475.8333333333333</ele><time>2026-03-28T11:56:30Z</time></trkpt><trkpt lat="42.333659398965864" lon="12.68337299751708"><ele>476.0</ele><time>2026-03-28T11:56:31Z</time></trkpt><trkpt lat="42.33360794097977" lon="12.683434409288694"><ele>475.99999999999994</ele><time>2026-03-28T11:56:32Z</time></trkpt><trkpt lat="42.333562327614324" lon="12.683506797728255"><ele>476.0</ele><time>2026-03-28T11:56:33Z</time></trkpt><trkpt lat="42.33348139968621" lon="12.683576089493288"><ele>476.0</ele><time>2026-03-28T11:56:34Z</time></trkpt><trkpt lat="42.333433488602246" lon="12.683635244491864"><ele>476.0</ele><time>2026-03-28T11:56:35Z</time></trkpt><trkpt lat="42.33334502530361" lon="12.68377368697084"><ele>475.99999999999994</ele><time>2026-03-28T11:56:37Z</time></trkpt><trkpt lat="42.33329340913101" lon="12.683825830844269"><ele>476.0</ele><time>2026-03-28T11:56:38Z</time></trkpt><trkpt lat="42.333244121865064" lon="12.683896825683767"><ele>477.49999999999994</ele><time>2026-03-28T11:56:39Z</time></trkpt><trkpt lat="42.33318683999405" lon="12.683955578620864"><ele>479.0</ele><time>2026-03-28T11:56:40Z</time></trkpt><trkpt lat="42.33309583077132" lon="12.68409340792991"><ele>480.5</ele><time>2026-03-28T11:56:42Z</time></trkpt><trkpt lat="42.33303317590369" lon="12.684157820730698"><ele>482.0</ele><time>2026-03-28T11:56:43Z</time></trkpt><trkpt lat="42.33297909212389" lon="12.684204331876582"><ele>483.49999999999994</ele><time>2026-03-28T11:56:44Z</time></trkpt><trkpt lat="42.33293073007486" lon="12.684263560007224"><ele>485.0</ele><time>2026-03-28T11:56:44.999Z</time></trkpt><trkpt lat="42.33287600381402" lon="12.684319364461896"><ele>485.0</ele><time>2026-03-28T11:56:45.999Z</time></trkpt><trkpt lat="42.33277978070439" lon="12.684410592248756"><ele>485.0</ele><time>2026-03-28T11:56:47.999Z</time></trkpt><trkpt lat="42.33267868436527" lon="12.6844977293096"><ele>485.0</ele><time>2026-03-28T11:56:49.999Z</time></trkpt><trkpt lat="42.33262247340568" lon="12.684548457015245"><ele>485.0</ele><time>2026-03-28T11:56:50.999Z</time></trkpt><trkpt lat="42.33255396389041" lon="12.684620776769751"><ele>485.0</ele><time>2026-03-28T11:56:52.999Z</time></trkpt><trkpt lat="42.33246922723175" lon="12.684700101201296"><ele>491.2</ele><time>2026-03-28T11:56:54.999Z</time></trkpt><trkpt lat="42.33242033804402" lon="12.684801747424265"><ele>497.4</ele><time>2026-03-28T11:56:56.999Z</time></trkpt><trkpt lat="42.33236050620919" lon="12.684883583744396"><ele>503.6</ele><time>2026-03-28T11:56:57.999Z</time></trkpt><trkpt lat="42.33232803490994" lon="12.68495713113978"><ele>509.8</ele><time>2026-03-28T11:56:58.999Z</time></trkpt><trkpt lat="42.33228430906065" lon="12.685082289430856"><ele>516.0</ele><time>2026-03-28T11:57:00.999Z</time></trkpt><trkpt lat="42.33223177681778" lon="12.685219805356526"><ele>513.8571428571428</ele><time>2026-03-28T11:57:02.999Z</time></trkpt><trkpt lat="42.332194948389166" lon="12.685319688062071"><ele>511.71428571428567</ele><time>2026-03-28T11:57:03.999Z</time></trkpt><trkpt lat="42.332165703944874" lon="12.685417002669013"><ele>509.57142857142856</ele><time>2026-03-28T11:57:04.999Z</time></trkpt><trkpt lat="42.3321432142007" lon="12.685506403663412"><ele>507.4285714285714</ele><time>2026-03-28T11:57:05.999Z</time></trkpt><trkpt lat="42.33211821129957" lon="12.685602781287523"><ele>505.2857142857142</ele><time>2026-03-28T11:57:06.999Z</time></trkpt><trkpt lat="42.33210253840537" lon="12.685692551681077"><ele>503.14285714285717</ele><time>2026-03-28T11:57:07.999Z</time></trkpt><trkpt lat="42.33208232681068" lon="12.68578412180756"><ele>501.0</ele><time>2026-03-28T11:57:08.999Z</time></trkpt><trkpt lat="42.33207154876554" lon="12.685871888219053"><ele>501.0</ele><time>2026-03-28T11:57:09.999Z</time></trkpt><trkpt lat="42.33205193667939" lon="12.685958371838346"><ele>501.0</ele><time>2026-03-28T11:57:10.999Z</time></trkpt><trkpt lat="42.33200974718697" lon="12.686124853988657"><ele>501.0</ele><time>2026-03-28T11:57:12.999Z</time></trkpt><trkpt lat="42.331987215860565" lon="12.686217355129633"><ele>501.0</ele><time>2026-03-28T11:57:13.999Z</time></trkpt><trkpt lat="42.33196087694823" lon="12.686300268957934"><ele>501.0</ele><time>2026-03-28T11:57:14.999Z</time></trkpt><trkpt lat="42.33191659747969" lon="12.686404011906154"><ele>501.0</ele><time>2026-03-28T11:57:15.999Z</time></trkpt><trkpt lat="42.33188616511788" lon="12.686484347110062"><ele>505.8</ele><time>2026-03-28T11:57:16.999Z</time></trkpt><trkpt lat="42.33185565385008" lon="12.686630412330677"><ele>510.6</ele><time>2026-03-28T11:57:18.999Z</time></trkpt><trkpt lat="42.33179443275796" lon="12.68676884907929"><ele>515.4</ele><time>2026-03-28T11:57:20.999Z</time></trkpt><trkpt lat="42.33176090112014" lon="12.686842164146732"><ele>520.2</ele><time>2026-03-28T11:57:21.999Z</time></trkpt><trkpt lat="42.331726457934195" lon="12.686918001736782"><ele>525.0</ele><time>2026-03-28T11:57:22.999Z</time></trkpt><trkpt lat="42.33166873449525" lon="12.687064664638845"><ele>529.3333333333334</ele><time>2026-03-28T11:57:24.999Z</time></trkpt><trkpt lat="42.33163763315368" lon="12.687155244461186"><ele>533.6666666666666</ele><time>2026-03-28T11:57:25.999Z</time></trkpt><trkpt lat="42.331601741595705" lon="12.687231709161107"><ele>538.0</ele><time>2026-03-28T11:57:26.999Z</time></trkpt><trkpt lat="42.33152557075739" lon="12.687348482124753"><ele>542.3333333333333</ele><time>2026-03-28T11:57:28.999Z</time></trkpt><trkpt lat="42.33147823036553" lon="12.687408301678596"><ele>546.6666666666666</ele><time>2026-03-28T11:57:30Z</time></trkpt><trkpt lat="42.33142795727838" lon="12.68755212800442"><ele>551.0</ele><time>2026-03-28T11:57:32Z</time></trkpt><trkpt lat="42.33139663540313" lon="12.68765527154338"><ele>551.4</ele><time>2026-03-28T11:57:34Z</time></trkpt><trkpt lat="42.33136325984886" lon="12.687810349438202"><ele>551.8</ele><time>2026-03-28T11:57:36Z</time></trkpt><trkpt lat="42.331344422819875" lon="12.687910806889144"><ele>552.1999999999999</ele><time>2026-03-28T11:57:37Z</time></trkpt><trkpt lat="42.33132888613722" lon="12.688034895325385"><ele>552.6</ele><time>2026-03-28T11:57:39Z</time></trkpt><trkpt lat="42.331293411295356" lon="12.688164632732985"><ele>553.0</ele><time>2026-03-28T11:57:41Z</time></trkpt><trkpt lat="42.33126290628061" lon="12.688290176082424"><ele>553.0</ele><time>2026-03-28T11:57:43Z</time></trkpt><trkpt lat="42.3312489826893" lon="12.688383400703295"><ele>553.0</ele><time>2026-03-28T11:57:45Z</time></trkpt><trkpt lat="42.331247841941035" lon="12.68849038396799"><ele>553.0</ele><time>2026-03-28T11:57:47Z</time></trkpt><trkpt lat="42.33120897454709" lon="12.688595857484257"><ele>553.0</ele><time>2026-03-28T11:57:49Z</time></trkpt><trkpt lat="42.33115754697507" lon="12.68864639458266"><ele>553.0</ele><time>2026-03-28T11:57:50Z</time></trkpt><trkpt lat="42.33106939615967" lon="12.688753413297729"><ele>553.0</ele><time>2026-03-28T11:57:52Z</time></trkpt><trkpt lat="42.33099949196327" lon="12.688782850574821"><ele>558.0</ele><time>2026-03-28T11:57:53Z</time></trkpt><trkpt lat="42.33093091346888" lon="12.688798491177193"><ele>563.0</ele><time>2026-03-28T11:57:54Z</time></trkpt><trkpt lat="42.33081593300114" lon="12.688817044769047"><ele>568.0</ele><time>2026-03-28T11:57:56Z</time></trkpt><trkpt lat="42.33071607516766" lon="12.688830105053835"><ele>573.0</ele><time>2026-03-28T11:57:58Z</time></trkpt><trkpt lat="42.33065982368341" lon="12.688930677407885"><ele>578.0</ele><time>2026-03-28T11:58:01Z</time></trkpt><trkpt lat="42.33069005975416" lon="12.689012030203957"><ele>583.0</ele><time>2026-03-28T12:03:45.999Z</time></trkpt><trkpt lat="42.33074594344175" lon="12.689073930847115"><ele>583.0</ele><time>2026-03-28T12:03:48Z</time></trkpt><trkpt lat="42.33081003455446" lon="12.689121546688282"><ele>583.0</ele><time>2026-03-28T12:03:50Z</time></trkpt><trkpt lat="42.331037853391024" lon="12.689151711783254"><ele>583.0</ele><time>2026-03-28T12:03:56Z</time></trkpt><trkpt lat="42.3311406933885" lon="12.689177463187987"><ele>583.0</ele><time>2026-03-28T12:03:58Z</time></trkpt><trkpt lat="42.331226195271995" lon="12.689188467279212"><ele>583.0</ele><time>2026-03-28T12:04:00Z</time></trkpt><trkpt lat="42.3312818468145" lon="12.689235128328967"><ele>583.0</ele><time>2026-03-28T12:04:02Z</time></trkpt><trkpt lat="42.33135971395824" lon="12.68924604501656"><ele>583.0</ele><time>2026-03-28T12:04:03Z</time></trkpt><trkpt lat="42.3314150897648" lon="12.689362138137028"><ele>583.0</ele><time>2026-03-28T12:04:05Z</time></trkpt><trkpt lat="42.33145109796528" lon="12.689479293533003"><ele>583.0</ele><time>2026-03-28T12:04:07Z</time></trkpt><trkpt lat="42.33150014231874" lon="12.689585651644645"><ele>583.0</ele><time>2026-03-28T12:04:09Z</time></trkpt><trkpt lat="42.33156908259051" lon="12.689645077072509"><ele>584.6</ele><time>2026-03-28T12:04:11Z</time></trkpt><trkpt lat="42.33164261789202" lon="12.689659265991919"><ele>586.1999999999999</ele><time>2026-03-28T12:04:13Z</time></trkpt><trkpt lat="42.33172243681268" lon="12.68966927978637"><ele>587.8</ele><time>2026-03-28T12:04:16Z</time></trkpt><trkpt lat="42.33183452881117" lon="12.689658395425857"><ele>589.4</ele><time>2026-03-28T12:04:18Z</time></trkpt><trkpt lat="42.33194025733189" lon="12.689684285764466"><ele>591.0</ele><time>2026-03-28T12:04:20Z</time></trkpt><trkpt lat="42.33203945970024" lon="12.689748238105903"><ele>591.0</ele><time>2026-03-28T12:04:22Z</time></trkpt><trkpt lat="42.33211897088948" lon="12.689831111767246"><ele>591.0</ele><time>2026-03-28T12:04:24Z</time></trkpt><trkpt lat="42.33221601393989" lon="12.689946977644686"><ele>591.0</ele><time>2026-03-28T12:04:26Z</time></trkpt><trkpt lat="42.33229938122215" lon="12.69005271328203"><ele>591.0</ele><time>2026-03-28T12:04:28Z</time></trkpt><trkpt lat="42.33236299167549" lon="12.690153729081644"><ele>591.0</ele><time>2026-03-28T12:04:30Z</time></trkpt><trkpt lat="42.33244806076117" lon="12.690259984708437"><ele>590.25</ele><time>2026-03-28T12:04:32Z</time></trkpt><trkpt lat="42.332505337722125" lon="12.690406934205045"><ele>589.5</ele><time>2026-03-28T12:04:34Z</time></trkpt><trkpt lat="42.3325614878657" lon="12.69055007750348"><ele>588.75</ele><time>2026-03-28T12:04:36Z</time></trkpt><trkpt lat="42.33263047025661" lon="12.690667411779625"><ele>588.0</ele><time>2026-03-28T12:04:38Z</time></trkpt><trkpt lat="42.33264009743707" lon="12.690802374447431"><ele>588.0</ele><time>2026-03-28T12:04:40Z</time></trkpt><trkpt lat="42.33259039497227" lon="12.690941260479658"><ele>588.0</ele><time>2026-03-28T12:04:42Z</time></trkpt><trkpt lat="42.33259512228722" lon="12.691049879367819"><ele>588.0</ele><time>2026-03-28T12:04:43Z</time></trkpt><trkpt lat="42.33263890709156" lon="12.691207741831773"><ele>588.0</ele><time>2026-03-28T12:04:45Z</time></trkpt><trkpt lat="42.332663426763105" lon="12.691332334799709"><ele>588.0</ele><time>2026-03-28T12:04:47Z</time></trkpt><trkpt lat="42.33266088221011" lon="12.691440386545231"><ele>588.8333333333334</ele><time>2026-03-28T12:04:48Z</time></trkpt><trkpt lat="42.332637405877044" lon="12.691544800146906"><ele>589.6666666666666</ele><time>2026-03-28T12:04:50Z</time></trkpt><trkpt lat="42.33267185426435" lon="12.691664209413128"><ele>590.5</ele><time>2026-03-28T12:04:52Z</time></trkpt><trkpt lat="42.33268403171399" lon="12.691798158303074"><ele>591.3333333333333</ele><time>2026-03-28T12:04:53.999Z</time></trkpt><trkpt lat="42.33266477404631" lon="12.691940833264821"><ele>592.1666666666666</ele><time>2026-03-28T12:04:55.999Z</time></trkpt><trkpt lat="42.33264137375672" lon="12.69202124952264"><ele>593.0</ele><time>2026-03-28T12:04:56.999Z</time></trkpt><trkpt lat="42.3326506122401" lon="12.692165145048369"><ele>593.6</ele><time>2026-03-28T12:04:58.999Z</time></trkpt><trkpt lat="42.33261494886126" lon="12.692244360536113"><ele>594.1999999999999</ele><time>2026-03-28T12:04:59.999Z</time></trkpt><trkpt lat="42.332610245986714" lon="12.69238725734624"><ele>594.8</ele><time>2026-03-28T12:05:01.999Z</time></trkpt><trkpt lat="42.332659875175864" lon="12.692526418640933"><ele>595.4</ele><time>2026-03-28T12:05:03.999Z</time></trkpt><trkpt lat="42.332700773524934" lon="12.692663711993923"><ele>596.0</ele><time>2026-03-28T12:05:05.999Z</time></trkpt><trkpt lat="42.33275150685579" lon="12.69279970487217"><ele>596.0</ele><time>2026-03-28T12:05:07.999Z</time></trkpt><trkpt lat="42.33279438391495" lon="12.692923021120363"><ele>596.0</ele><time>2026-03-28T12:05:09.999Z</time></trkpt><trkpt lat="42.33286435565302" lon="12.693056005130392"><ele>596.0</ele><time>2026-03-28T12:05:11.999Z</time></trkpt><trkpt lat="42.33292445664351" lon="12.693232534524443"><ele>596.0</ele><time>2026-03-28T12:05:13.999Z</time></trkpt><trkpt lat="42.33296518205222" lon="12.693303472656494"><ele>596.0</ele><time>2026-03-28T12:05:14.999Z</time></trkpt><trkpt lat="42.33301388897307" lon="12.693442762060748"><ele>596.0</ele><time>2026-03-28T12:05:16.999Z</time></trkpt><trkpt lat="42.33304273182982" lon="12.69353867367103"><ele>596.0</ele><time>2026-03-28T12:05:17.999Z</time></trkpt><trkpt lat="42.33306098759683" lon="12.693636386996012"><ele>596.0</ele><time>2026-03-28T12:05:18.999Z</time></trkpt><trkpt lat="42.333087687642795" lon="12.693741565726734"><ele>596.0</ele><time>2026-03-28T12:05:19.999Z</time></trkpt><trkpt lat="42.33312951246148" lon="12.693854506223559"><ele>596.0</ele><time>2026-03-28T12:05:20.999Z</time></trkpt><trkpt lat="42.333155234411855" lon="12.693950839124831"><ele>596.0</ele><time>2026-03-28T12:05:21.999Z</time></trkpt><trkpt lat="42.33318506743722" lon="12.694043865737198"><ele>596.0</ele><time>2026-03-28T12:05:22.999Z</time></trkpt><trkpt lat="42.33322016795387" lon="12.69412955966518"><ele>596.0</ele><time>2026-03-28T12:05:23.999Z</time></trkpt><trkpt lat="42.33327534953898" lon="12.694185053264498"><ele>596.0</ele><time>2026-03-28T12:05:24.999Z</time></trkpt><trkpt lat="42.33334487229692" lon="12.694224005089106"><ele>596.0</ele><time>2026-03-28T12:05:25.999Z</time></trkpt><trkpt lat="42.33343049692593" lon="12.69434494087794"><ele>596.0</ele><time>2026-03-28T12:05:27.999Z</time></trkpt><trkpt lat="42.333479576065834" lon="12.694414885378318"><ele>596.0</ele><time>2026-03-28T12:05:28.999Z</time></trkpt><trkpt lat="42.33353769220606" lon="12.694477294435508"><ele>596.0</ele><time>2026-03-28T12:05:29.999Z</time></trkpt><trkpt lat="42.333616084077285" lon="12.694584704177766"><ele>596.0</ele><time>2026-03-28T12:05:31.999Z</time></trkpt><trkpt lat="42.333734694379935" lon="12.69464257727972"><ele>596.0</ele><time>2026-03-28T12:05:33.999Z</time></trkpt><trkpt lat="42.33379091003909" lon="12.69470700022593"><ele>596.0</ele><time>2026-03-28T12:05:34.999Z</time></trkpt><trkpt lat="42.33385255104106" lon="12.69476736565263"><ele>596.0</ele><time>2026-03-28T12:05:35.999Z</time></trkpt><trkpt lat="42.33391647788502" lon="12.69485035239387"><ele>596.8</ele><time>2026-03-28T12:05:36.999Z</time></trkpt><trkpt lat="42.33397959912425" lon="12.694941487023728"><ele>597.6</ele><time>2026-03-28T12:05:38.999Z</time></trkpt><trkpt lat="42.334035002255135" lon="12.695011797540193"><ele>598.4</ele><time>2026-03-28T12:05:41.999Z</time></trkpt><trkpt lat="42.3341089138369" lon="12.695098061632216"><ele>599.2</ele><time>2026-03-28T12:05:43.999Z</time></trkpt><trkpt lat="42.334166291230936" lon="12.695168520916631"><ele>600.0</ele><time>2026-03-28T12:05:45.999Z</time></trkpt><trkpt lat="42.33426863327291" lon="12.695275134229071"><ele>600.0</ele><time>2026-03-28T12:05:47.999Z</time></trkpt><trkpt lat="42.33435964310209" lon="12.695356983233697"><ele>600.0</ele><time>2026-03-28T12:05:49.999Z</time></trkpt><trkpt lat="42.33443801475304" lon="12.695417458155013"><ele>600.0</ele><time>2026-03-28T12:05:50.999Z</time></trkpt><trkpt lat="42.33449490484974" lon="12.695460852057904"><ele>600.0</ele><time>2026-03-28T12:05:51.999Z</time></trkpt><trkpt lat="42.334602975090064" lon="12.695504550531272"><ele>600.0</ele><time>2026-03-28T12:05:54Z</time></trkpt><trkpt lat="42.33470368983371" lon="12.695629483982675"><ele>604.1666666666666</ele><time>2026-03-28T12:05:56Z</time></trkpt><trkpt lat="42.33476515853831" lon="12.695693637627095"><ele>608.3333333333334</ele><time>2026-03-28T12:05:57Z</time></trkpt><trkpt lat="42.3348315453268" lon="12.69578091552253"><ele>612.5</ele><time>2026-03-28T12:05:58Z</time></trkpt><trkpt lat="42.33489516196175" lon="12.695836059139806"><ele>616.6666666666667</ele><time>2026-03-28T12:05:59Z</time></trkpt><trkpt lat="42.33494910727119" lon="12.695896371610868"><ele>620.8333333333334</ele><time>2026-03-28T12:06:00Z</time></trkpt><trkpt lat="42.33500058958951" lon="12.695951873673234"><ele>625.0</ele><time>2026-03-28T12:06:01Z</time></trkpt><trkpt lat="42.33505656722092" lon="12.69600835278461"><ele>625.0</ele><time>2026-03-28T12:06:02Z</time></trkpt><trkpt lat="42.335158382557445" lon="12.696090948010776"><ele>625.0</ele><time>2026-03-28T12:06:04Z</time></trkpt><trkpt lat="42.335204286132836" lon="12.696154031076105"><ele>625.0</ele><time>2026-03-28T12:06:05Z</time></trkpt><trkpt lat="42.335277757395104" lon="12.69626049095664"><ele>625.0</ele><time>2026-03-28T12:06:07Z</time></trkpt><trkpt lat="42.33531606881835" lon="12.69634190965286"><ele>625.0</ele><time>2026-03-28T12:06:09Z</time></trkpt><trkpt lat="42.335396266614666" lon="12.696413613282601"><ele>625.0</ele><time>2026-03-28T12:06:11Z</time></trkpt><trkpt lat="42.33546708173601" lon="12.696528700749015"><ele>625.0</ele><time>2026-03-28T12:06:13Z</time></trkpt><trkpt lat="42.335526533735994" lon="12.696581185364352"><ele>625.0</ele><time>2026-03-28T12:06:15Z</time></trkpt><trkpt lat="42.33558343409193" lon="12.696681326813819"><ele>625.0</ele><time>2026-03-28T12:06:17Z</time></trkpt><trkpt lat="42.33566759226746" lon="12.696755420020184"><ele>625.0</ele><time>2026-03-28T12:06:19Z</time></trkpt><trkpt lat="42.33572666304642" lon="12.696871857012992"><ele>629.8333333333334</ele><time>2026-03-28T12:06:21Z</time></trkpt><trkpt lat="42.33579602716455" lon="12.6969423629428"><ele>634.6666666666667</ele><time>2026-03-28T12:06:23Z</time></trkpt><trkpt lat="42.335876964445525" lon="12.696968476803155"><ele>639.5</ele><time>2026-03-28T12:06:25Z</time></trkpt><trkpt lat="42.335983845371636" lon="12.696983821802498"><ele>644.3333333333334</ele><time>2026-03-28T12:06:27Z</time></trkpt><trkpt lat="42.33606730838124" lon="12.697035972186159"><ele>649.1666666666666</ele><time>2026-03-28T12:06:30Z</time></trkpt><trkpt lat="42.33613151680515" lon="12.697018215729967"><ele>654.0</ele><time>2026-03-28T12:06:31Z</time></trkpt><trkpt lat="42.3362174062991" lon="12.697041733926161"><ele>654.0</ele><time>2026-03-28T12:06:33Z</time></trkpt><trkpt lat="42.3362795912633" lon="12.697064741821722"><ele>654.0</ele><time>2026-03-28T12:06:34Z</time></trkpt><trkpt lat="42.336350457143" lon="12.69708496054589"><ele>654.0</ele><time>2026-03-28T12:06:35Z</time></trkpt><trkpt lat="42.336417852898926" lon="12.697115188323579"><ele>654.0</ele><time>2026-03-28T12:06:36Z</time></trkpt><trkpt lat="42.336486465444494" lon="12.69709087879604"><ele>654.0</ele><time>2026-03-28T12:06:37Z</time></trkpt><trkpt lat="42.33656218117419" lon="12.697092227825395"><ele>654.0</ele><time>2026-03-28T12:06:39Z</time></trkpt><trkpt lat="42.33667044899901" lon="12.697049540978465"><ele>656.8000000000001</ele><time>2026-03-28T12:06:41Z</time></trkpt><trkpt lat="42.336753438635796" lon="12.696941918489697"><ele>659.6</ele><time>2026-03-28T12:06:43Z</time></trkpt><trkpt lat="42.336815928637535" lon="12.696874078707683"><ele>662.4</ele><time>2026-03-28T12:06:44Z</time></trkpt><trkpt lat="42.33687223461521" lon="12.696799224693097"><ele>665.2</ele><time>2026-03-28T12:06:45Z</time></trkpt><trkpt lat="42.336934588400496" lon="12.69674352062623"><ele>668.0</ele><time>2026-03-28T12:06:46Z</time></trkpt><trkpt lat="42.33703008197082" lon="12.696687723788651"><ele>668.2</ele><time>2026-03-28T12:06:47.999Z</time></trkpt><trkpt lat="42.33708603800957" lon="12.696631832726332"><ele>668.4</ele><time>2026-03-28T12:06:48.999Z</time></trkpt><trkpt lat="42.337153475330794" lon="12.696588730554684"><ele>668.6</ele><time>2026-03-28T12:06:49.999Z</time></trkpt><trkpt lat="42.33726925833446" lon="12.69649877391995"><ele>668.8000000000001</ele><time>2026-03-28T12:06:51.999Z</time></trkpt><trkpt lat="42.337328014788596" lon="12.696460166525748"><ele>669.0</ele><time>2026-03-28T12:06:52.999Z</time></trkpt><trkpt lat="42.337451398986424" lon="12.696450486690626"><ele>670.4000000000001</ele><time>2026-03-28T12:06:54.999Z</time></trkpt><trkpt lat="42.33754238421869" lon="12.696459389073123"><ele>671.8</ele><time>2026-03-28T12:06:55.999Z</time></trkpt><trkpt lat="42.33763749514835" lon="12.696504373707535"><ele>673.2</ele><time>2026-03-28T12:06:57.999Z</time></trkpt><trkpt lat="42.337727997394474" lon="12.696534048805514"><ele>674.5999999999999</ele><time>2026-03-28T12:06:59.999Z</time></trkpt><trkpt lat="42.337816638258005" lon="12.696568075600247"><ele>676.0</ele><time>2026-03-28T12:07:00.999Z</time></trkpt><trkpt lat="42.337884510045264" lon="12.696640359109706"><ele>676.0</ele><time>2026-03-28T12:07:01.999Z</time></trkpt><trkpt lat="42.33798732961127" lon="12.69671105248042"><ele>676.0</ele><time>2026-03-28T12:07:03.999Z</time></trkpt><trkpt lat="42.33808583312977" lon="12.69675768133819"><ele>676.0</ele><time>2026-03-28T12:07:05.999Z</time></trkpt><trkpt lat="42.33817600064829" lon="12.69675882684704"><ele>676.0</ele><time>2026-03-28T12:07:07.999Z</time></trkpt><trkpt lat="42.338272221370914" lon="12.696713441423148"><ele>676.0</ele><time>2026-03-28T12:07:09.999Z</time></trkpt><trkpt lat="42.33836242578356" lon="12.69664367083303"><ele>678.3333333333334</ele><time>2026-03-28T12:07:11.999Z</time></trkpt><trkpt lat="42.33842093236747" lon="12.696607660219641"><ele>680.6666666666667</ele><time>2026-03-28T12:07:12.999Z</time></trkpt><trkpt lat="42.33852794964372" lon="12.696551533535956"><ele>683.0</ele><time>2026-03-28T12:07:14.999Z</time></trkpt><trkpt lat="42.3385848924045" lon="12.69650947921207"><ele>685.3333333333334</ele><time>2026-03-28T12:07:15.999Z</time></trkpt><trkpt lat="42.33865046792324" lon="12.696470628765328"><ele>687.6666666666666</ele><time>2026-03-28T12:07:16.999Z</time></trkpt><trkpt lat="42.33870813930382" lon="12.696418663343794"><ele>690.0</ele><time>2026-03-28T12:07:17.999Z</time></trkpt><trkpt lat="42.338797385087055" lon="12.696338019722962"><ele>692.1666666666666</ele><time>2026-03-28T12:07:19.999Z</time></trkpt><trkpt lat="42.33890534382923" lon="12.69629327150816"><ele>694.3333333333334</ele><time>2026-03-28T12:07:21.999Z</time></trkpt><trkpt lat="42.33895703701184" lon="12.696242047516932"><ele>696.5</ele><time>2026-03-28T12:07:22.999Z</time></trkpt><trkpt lat="42.33899223571194" lon="12.696168842712524"><ele>698.6666666666667</ele><time>2026-03-28T12:07:23.999Z</time></trkpt><trkpt lat="42.33903217958794" lon="12.696085225094983"><ele>700.8333333333334</ele><time>2026-03-28T12:07:24.999Z</time></trkpt><trkpt lat="42.33906691205295" lon="12.695976718842918"><ele>703.0</ele><time>2026-03-28T12:07:25.999Z</time></trkpt><trkpt lat="42.33910389487491" lon="12.695884438211124"><ele>703.5</ele><time>2026-03-28T12:07:26.999Z</time></trkpt><trkpt lat="42.33914451455333" lon="12.695805495556547"><ele>704.0</ele><time>2026-03-28T12:07:27.999Z</time></trkpt><trkpt lat="42.339192223918886" lon="12.695746319928633"><ele>704.5</ele><time>2026-03-28T12:07:28.999Z</time></trkpt><trkpt lat="42.33924010812254" lon="12.695683400018718"><ele>705.0</ele><time>2026-03-28T12:07:29.999Z</time></trkpt><trkpt lat="42.33933947193333" lon="12.695567462996129"><ele>705.5</ele><time>2026-03-28T12:07:31.999Z</time></trkpt><trkpt lat="42.339388016556576" lon="12.695482011472626"><ele>706.0</ele><time>2026-03-28T12:07:32.999Z</time></trkpt><trkpt lat="42.33943520195145" lon="12.69541702022766"><ele>706.0</ele><time>2026-03-28T12:07:33.999Z</time></trkpt><trkpt lat="42.33949646339571" lon="12.695289445815567"><ele>706.0</ele><time>2026-03-28T12:07:35.999Z</time></trkpt><trkpt lat="42.33951099131199" lon="12.695202945178467"><ele>706.0</ele><time>2026-03-28T12:07:36.999Z</time></trkpt><trkpt lat="42.33953738554765" lon="12.695029163168842"><ele>706.0</ele><time>2026-03-28T12:07:38.999Z</time></trkpt><trkpt lat="42.3395410145497" lon="12.694931643423512"><ele>706.0</ele><time>2026-03-28T12:07:39.999Z</time></trkpt><trkpt lat="42.339535590012275" lon="12.694843568829366"><ele>706.0</ele><time>2026-03-28T12:07:40.999Z</time></trkpt><trkpt lat="42.33952939915008" lon="12.694758192781087"><ele>707.5714285714286</ele><time>2026-03-28T12:07:41.999Z</time></trkpt><trkpt lat="42.33952439740993" lon="12.694671029476297"><ele>709.1428571428572</ele><time>2026-03-28T12:07:42.999Z</time></trkpt><trkpt lat="42.339514947496305" lon="12.694579306243819"><ele>710.7142857142858</ele><time>2026-03-28T12:07:43.999Z</time></trkpt><trkpt lat="42.33950759095619" lon="12.694489261501085"><ele>712.2857142857142</ele><time>2026-03-28T12:07:44.999Z</time></trkpt><trkpt lat="42.3394996613785" lon="12.694387420477485"><ele>713.8571428571429</ele><time>2026-03-28T12:07:45.999Z</time></trkpt><trkpt lat="42.33948756911466" lon="12.694291152361597"><ele>715.4285714285714</ele><time>2026-03-28T12:07:46.999Z</time></trkpt><trkpt lat="42.339476386545485" lon="12.69418986729308"><ele>717.0</ele><time>2026-03-28T12:07:47.999Z</time></trkpt><trkpt lat="42.339457714456465" lon="12.69409496016299"><ele>718.0</ele><time>2026-03-28T12:07:48.999Z</time></trkpt><trkpt lat="42.33943752906021" lon="12.693966336615615"><ele>719.0</ele><time>2026-03-28T12:07:49.999Z</time></trkpt><trkpt lat="42.33942323211712" lon="12.693861136306813"><ele>720.0</ele><time>2026-03-28T12:07:50.999Z</time></trkpt><trkpt lat="42.339432342983" lon="12.693765427912673"><ele>721.0</ele><time>2026-03-28T12:07:52.999Z</time></trkpt><trkpt lat="42.339503113718166" lon="12.693729392675628"><ele>722.0</ele><time>2026-03-28T12:08:09Z</time></trkpt><trkpt lat="42.33962006718963" lon="12.693703874679555"><ele>723.0</ele><time>2026-03-28T12:08:11Z</time></trkpt><trkpt lat="42.3396949189658" lon="12.693722655416341"><ele>724.1666666666666</ele><time>2026-03-28T12:08:13Z</time></trkpt><trkpt lat="42.33977481788224" lon="12.693642062999784"><ele>725.3333333333334</ele><time>2026-03-28T12:08:16Z</time></trkpt><trkpt lat="42.33983822567641" lon="12.69355168095641"><ele>726.5</ele><time>2026-03-28T12:08:19Z</time></trkpt><trkpt lat="42.339904087239745" lon="12.693520069028738"><ele>727.6666666666667</ele><time>2026-03-28T12:08:21Z</time></trkpt><trkpt lat="42.33997117874334" lon="12.693506205893378"><ele>728.8333333333334</ele><time>2026-03-28T12:08:23Z</time></trkpt><trkpt lat="42.340061236234156" lon="12.693497725745864"><ele>730.0</ele><time>2026-03-28T12:08:25Z</time></trkpt><trkpt lat="42.340135907353776" lon="12.69348792328791"><ele>727.2</ele><time>2026-03-28T12:08:27Z</time></trkpt><trkpt lat="42.34024399061433" lon="12.693475754117282"><ele>724.4</ele><time>2026-03-28T12:08:29Z</time></trkpt><trkpt lat="42.340336424410445" lon="12.693436231346222"><ele>721.5999999999999</ele><time>2026-03-28T12:08:31Z</time></trkpt><trkpt lat="42.340406950737496" lon="12.693386336853886"><ele>718.8</ele><time>2026-03-28T12:08:33Z</time></trkpt><trkpt lat="42.3404668885761" lon="12.693322472344606"><ele>716.0</ele><time>2026-03-28T12:08:35Z</time></trkpt><trkpt lat="42.340549361131764" lon="12.693238971306442"><ele>717.5</ele><time>2026-03-28T12:08:37Z</time></trkpt><trkpt lat="42.34062849827803" lon="12.693178932419412"><ele>719.0</ele><time>2026-03-28T12:08:39Z</time></trkpt><trkpt lat="42.34071316091866" lon="12.693133131102982"><ele>720.5</ele><time>2026-03-28T12:08:41Z</time></trkpt><trkpt lat="42.34080717258227" lon="12.69311396300612"><ele>722.0</ele><time>2026-03-28T12:08:43Z</time></trkpt><trkpt lat="42.340874222097774" lon="12.693086417769955"><ele>723.5</ele><time>2026-03-28T12:08:44Z</time></trkpt><trkpt lat="42.34093770337176" lon="12.693073869552938"><ele>725.0</ele><time>2026-03-28T12:08:45Z</time></trkpt><trkpt lat="42.341010074262684" lon="12.693059106832612"><ele>725.0</ele><time>2026-03-28T12:08:46Z</time></trkpt><trkpt lat="42.34108127008327" lon="12.693083608492527"><ele>725.0</ele><time>2026-03-28T12:08:47Z</time></trkpt><trkpt lat="42.3411471617938" lon="12.693112098761587"><ele>725.0</ele><time>2026-03-28T12:08:48Z</time></trkpt><trkpt lat="42.34122353895396" lon="12.693134270484718"><ele>725.0</ele><time>2026-03-28T12:08:49Z</time></trkpt><trkpt lat="42.34130433015521" lon="12.693149393893512"><ele>725.0</ele><time>2026-03-28T12:08:50Z</time></trkpt><trkpt lat="42.34136953527404" lon="12.693147885672529"><ele>725.0</ele><time>2026-03-28T12:08:51Z</time></trkpt><trkpt lat="42.34143358403677" lon="12.693151256965907"><ele>725.0</ele><time>2026-03-28T12:08:52Z</time></trkpt><trkpt lat="42.34154275891107" lon="12.693099228100378"><ele>726.5</ele><time>2026-03-28T12:08:54Z</time></trkpt><trkpt lat="42.341635484672246" lon="12.693006131902985"><ele>728.0</ele><time>2026-03-28T12:08:56Z</time></trkpt><trkpt lat="42.34172265042282" lon="12.692933063670237"><ele>729.5</ele><time>2026-03-28T12:08:57.999Z</time></trkpt><trkpt lat="42.341785543862855" lon="12.692925488062993"><ele>731.0</ele><time>2026-03-28T12:09:14.999Z</time></trkpt><trkpt lat="42.3418595728827" lon="12.692882898448259"><ele>732.5</ele><time>2026-03-28T12:09:17.999Z</time></trkpt><trkpt lat="42.34193544404842" lon="12.692830760927087"><ele>734.0</ele><time>2026-03-28T12:09:19.999Z</time></trkpt><trkpt lat="42.34196140460767" lon="12.692738619136763"><ele>734.0</ele><time>2026-03-28T12:09:21.999Z</time></trkpt><trkpt lat="42.342004052299785" lon="12.692648520204523"><ele>734.0</ele><time>2026-03-28T12:09:23.999Z</time></trkpt><trkpt lat="42.342070795690475" lon="12.692560800396436"><ele>734.0</ele><time>2026-03-28T12:09:26.999Z</time></trkpt><trkpt lat="42.34213552589756" lon="12.692490521864835"><ele>734.0</ele><time>2026-03-28T12:09:28.999Z</time></trkpt><trkpt lat="42.34218252293694" lon="12.692377841051776"><ele>734.0</ele><time>2026-03-28T12:09:30.999Z</time></trkpt><trkpt lat="42.342225044964266" lon="12.692273335350615"><ele>734.0</ele><time>2026-03-28T12:09:32.999Z</time></trkpt><trkpt lat="42.34227972489359" lon="12.692198474628977"><ele>737.1666666666666</ele><time>2026-03-28T12:09:34.999Z</time></trkpt><trkpt lat="42.342365426598285" lon="12.692128348601274"><ele>740.3333333333333</ele><time>2026-03-28T12:09:37.999Z</time></trkpt><trkpt lat="42.342430538153465" lon="12.692080047692658"><ele>743.5</ele><time>2026-03-28T12:09:39.999Z</time></trkpt><trkpt lat="42.34249951004547" lon="12.692034572847149"><ele>746.6666666666666</ele><time>2026-03-28T12:09:41.999Z</time></trkpt><trkpt lat="42.34255233630464" lon="12.691969767902265"><ele>749.8333333333334</ele><time>2026-03-28T12:09:43.999Z</time></trkpt><trkpt lat="42.342617220339775" lon="12.691874893948839"><ele>753.0</ele><time>2026-03-28T12:09:45.999Z</time></trkpt><trkpt lat="42.34268675290586" lon="12.691794922242446"><ele>755.0</ele><time>2026-03-28T12:09:47.999Z</time></trkpt><trkpt lat="42.34274700274679" lon="12.691729163471239"><ele>755.0</ele><time>2026-03-28T12:09:49.999Z</time></trkpt><trkpt lat="42.342795659725326" lon="12.691637131539535"><ele>755.0</ele><time>2026-03-28T12:09:51.999Z</time></trkpt><trkpt lat="42.342842367619596" lon="12.691569458781634"><ele>755.0</ele><time>2026-03-28T12:09:54.999Z</time></trkpt></trkseg><trkseg><trkpt lat="42.342903649598846" lon="12.691660656938776"><ele>755.0</ele><time>2026-03-28T12:28:28.999Z</time></trkpt><trkpt lat="42.34298635033121" lon="12.691715604020686"><ele>755.0</ele><time>2026-03-28T12:28:30.999Z</time></trkpt><trkpt lat="42.34300465813164" lon="12.691808365903741"><ele>755.0</ele><time>2026-03-28T12:28:33.999Z</time></trkpt><trkpt lat="42.342999744488246" lon="12.691907116894109"><ele>755.0</ele><time>2026-03-28T12:28:35.999Z</time></trkpt><trkpt lat="42.34299262108673" lon="12.692022020489956"><ele>755.0</ele><time>2026-03-28T12:28:37.999Z</time></trkpt><trkpt lat="42.34298028185842" lon="12.692159231885343"><ele>755.0</ele><time>2026-03-28T12:28:39.999Z</time></trkpt><trkpt lat="42.34298728634261" lon="12.692283065680835"><ele>754.6</ele><time>2026-03-28T12:28:41.999Z</time></trkpt><trkpt lat="42.342988197682324" lon="12.692414801665711"><ele>754.2</ele><time>2026-03-28T12:28:43.999Z</time></trkpt><trkpt lat="42.34294604664686" lon="12.692561720360523"><ele>753.8</ele><time>2026-03-28T12:28:45.999Z</time></trkpt><trkpt lat="42.34292133352573" lon="12.692705243735247"><ele>753.4</ele><time>2026-03-28T12:28:47.999Z</time></trkpt><trkpt lat="42.34292051962188" lon="12.692862765811242"><ele>753.0</ele><time>2026-03-28T12:28:49.999Z</time></trkpt><trkpt lat="42.342918150003875" lon="12.693001228291589"><ele>754.1666666666666</ele><time>2026-03-28T12:28:51.999Z</time></trkpt><trkpt lat="42.34290513889194" lon="12.693143060653188"><ele>755.3333333333334</ele><time>2026-03-28T12:28:53.999Z</time></trkpt><trkpt lat="42.34288884087969" lon="12.69325771466438"><ele>756.5</ele><time>2026-03-28T12:28:55.999Z</time></trkpt><trkpt lat="42.342886370716805" lon="12.693392837565568"><ele>757.6666666666667</ele><time>2026-03-28T12:28:57.999Z</time></trkpt><trkpt lat="42.34289602978968" lon="12.693483132283388"><ele>758.8333333333334</ele><time>2026-03-28T12:28:59.999Z</time></trkpt><trkpt lat="42.34291253978136" lon="12.693587846175028"><ele>760.0</ele><time>2026-03-28T12:29:02.999Z</time></trkpt><trkpt lat="42.34294593871498" lon="12.693687185631243"><ele>763.3333333333334</ele><time>2026-03-28T12:29:04.999Z</time></trkpt><trkpt lat="42.34296737720877" lon="12.693779968056427"><ele>766.6666666666667</ele><time>2026-03-28T12:29:06.999Z</time></trkpt><trkpt lat="42.342967550339885" lon="12.69390127981746"><ele>770.0</ele><time>2026-03-28T12:29:08.999Z</time></trkpt><trkpt lat="42.34293956918647" lon="12.693999297037962"><ele>773.3333333333334</ele><time>2026-03-28T12:29:10.999Z</time></trkpt><trkpt lat="42.34292680374559" lon="12.694098998420841"><ele>776.6666666666666</ele><time>2026-03-28T12:29:12.999Z</time></trkpt><trkpt lat="42.34291023097767" lon="12.694226512601295"><ele>780.0</ele><time>2026-03-28T12:29:15.999Z</time></trkpt><trkpt lat="42.342964999576964" lon="12.694312751131019"><ele>780.0</ele><time>2026-03-28T12:29:18.999Z</time></trkpt><trkpt lat="42.34302102589098" lon="12.694375282756345"><ele>780.0</ele><time>2026-03-28T12:29:21.999Z</time></trkpt><trkpt lat="42.34306372256185" lon="12.69445508470549"><ele>780.0</ele><time>2026-03-28T12:33:49Z</time></trkpt><trkpt lat="42.34312160316811" lon="12.694528779084461"><ele>780.0</ele><time>2026-03-28T12:33:51Z</time></trkpt><trkpt lat="42.34318408029287" lon="12.694628570261056"><ele>780.0</ele><time>2026-03-28T12:33:54Z</time></trkpt><trkpt lat="42.34323272207605" lon="12.694709435353465"><ele>780.0</ele><time>2026-03-28T12:33:57Z</time></trkpt><trkpt lat="42.34331491895379" lon="12.694788705346173"><ele>785.6666666666666</ele><time>2026-03-28T12:34:00Z</time></trkpt><trkpt lat="42.343387666416845" lon="12.694870223714732"><ele>791.3333333333333</ele><time>2026-03-28T12:34:03Z</time></trkpt><trkpt lat="42.343439451251584" lon="12.694928922707438"><ele>797.0</ele><time>2026-03-28T12:34:05Z</time></trkpt><trkpt lat="42.34349813196998" lon="12.69497303714794"><ele>802.6666666666666</ele><time>2026-03-28T12:34:07Z</time></trkpt><trkpt lat="42.34355934173961" lon="12.695025371194607"><ele>808.3333333333333</ele><time>2026-03-28T12:34:09Z</time></trkpt><trkpt lat="42.34363041614329" lon="12.69510824101277"><ele>814.0</ele><time>2026-03-28T12:34:12Z</time></trkpt><trkpt lat="42.343701773882586" lon="12.695192101102952"><ele>815.4999999999999</ele><time>2026-03-28T12:34:15Z</time></trkpt><trkpt lat="42.343765215362765" lon="12.695267934695417"><ele>817.0</ele><time>2026-03-28T12:34:17Z</time></trkpt><trkpt lat="42.343811796466454" lon="12.695337117486442"><ele>818.5</ele><time>2026-03-28T12:34:20Z</time></trkpt><trkpt lat="42.34386342179953" lon="12.695269123178011"><ele>820.0</ele><time>2026-03-28T12:34:43Z</time></trkpt><trkpt lat="42.34392552020021" lon="12.695207233692594"><ele>821.4999999999999</ele><time>2026-03-28T12:34:45Z</time></trkpt><trkpt lat="42.343978195993216" lon="12.695109419015397"><ele>823.0</ele><time>2026-03-28T12:34:47Z</time></trkpt><trkpt lat="42.34403891486266" lon="12.695044289764033"><ele>823.0</ele><time>2026-03-28T12:34:49Z</time></trkpt><trkpt lat="42.34410075490261" lon="12.69498811064246"><ele>823.0</ele><time>2026-03-28T12:34:51Z</time></trkpt><trkpt lat="42.34415785775092" lon="12.694949482000876"><ele>823.0</ele><time>2026-03-28T12:34:53Z</time></trkpt><trkpt lat="42.3442242674176" lon="12.694898864253203"><ele>823.0</ele><time>2026-03-28T12:34:56Z</time></trkpt><trkpt lat="42.344302752155976" lon="12.694880592108529"><ele>823.0</ele><time>2026-03-28T12:34:59Z</time></trkpt><trkpt lat="42.34436827253776" lon="12.694872275331521"><ele>823.0</ele><time>2026-03-28T12:35:01Z</time></trkpt><trkpt lat="42.34443483784095" lon="12.694813099535367"><ele>823.0</ele><time>2026-03-28T12:35:04Z</time></trkpt><trkpt lat="42.34449611937835" lon="12.694775471531244"><ele>822.9999999999999</ele><time>2026-03-28T12:35:06Z</time></trkpt><trkpt lat="42.34456015635536" lon="12.694754899359348"><ele>823.0</ele><time>2026-03-28T12:35:08Z</time></trkpt><trkpt lat="42.344656807003275" lon="12.694749248434096"><ele>823.0</ele><time>2026-03-28T12:35:11Z</time></trkpt><trkpt lat="42.34474061137053" lon="12.694773504781365"><ele>823.0</ele><time>2026-03-28T12:35:14Z</time></trkpt><trkpt lat="42.34481958469447" lon="12.69476550906962"><ele>822.9999999999999</ele><time>2026-03-28T12:36:07Z</time></trkpt><trkpt lat="42.3449009538598" lon="12.694767751212613"><ele>823.0</ele><time>2026-03-28T12:36:29Z</time></trkpt><trkpt lat="42.344956735466255" lon="12.694809555689778"><ele>828.2</ele><time>2026-03-28T12:36:31Z</time></trkpt><trkpt lat="42.3450003953895" lon="12.694877839218185"><ele>833.4</ele><time>2026-03-28T12:36:33Z</time></trkpt><trkpt lat="42.34505847197725" lon="12.69492341166813"><ele>838.6</ele><time>2026-03-28T12:36:35Z</time></trkpt><trkpt lat="42.34515225332471" lon="12.69499543374804"><ele>843.8000000000001</ele><time>2026-03-28T12:36:37Z</time></trkpt><trkpt lat="42.34522990143445" lon="12.695051365732267"><ele>849.0</ele><time>2026-03-28T12:36:39Z</time></trkpt><trkpt lat="42.345301643263355" lon="12.69519327657694"><ele>852.5</ele><time>2026-03-28T12:36:42Z</time></trkpt><trkpt lat="42.34531177657281" lon="12.695281622926032"><ele>856.0</ele><time>2026-03-28T12:36:43Z</time></trkpt><trkpt lat="42.345311222336285" lon="12.695370240001562"><ele>859.5</ele><time>2026-03-28T12:36:44Z</time></trkpt><trkpt lat="42.34526859468035" lon="12.69549022086781"><ele>863.0</ele><time>2026-03-28T12:36:46Z</time></trkpt><trkpt lat="42.345209944903516" lon="12.695607468906442"><ele>866.5</ele><time>2026-03-28T12:36:49Z</time></trkpt><trkpt lat="42.34512377640998" lon="12.695670114000798"><ele>870.0</ele><time>2026-03-28T12:36:51Z</time></trkpt><trkpt lat="42.345061795812526" lon="12.695719611344595"><ele>870.0</ele><time>2026-03-28T12:36:53Z</time></trkpt><trkpt lat="42.34500948323477" lon="12.69578681725453"><ele>870.0</ele><time>2026-03-28T12:36:55Z</time></trkpt><trkpt lat="42.34497207972157" lon="12.695902865314988"><ele>870.0</ele><time>2026-03-28T12:36:58Z</time></trkpt><trkpt lat="42.345032433500045" lon="12.695989334611543"><ele>870.0</ele><time>2026-03-28T12:37:01Z</time></trkpt><trkpt lat="42.34509731928257" lon="12.69601207334487"><ele>870.0</ele><time>2026-03-28T12:37:03Z</time></trkpt><trkpt lat="42.345111656821736" lon="12.696120880156188"><ele>870.0</ele><time>2026-03-28T12:37:06Z</time></trkpt><trkpt lat="42.34511343935149" lon="12.69621302744384"><ele>872.1428571428572</ele><time>2026-03-28T12:37:08Z</time></trkpt><trkpt lat="42.345093117064074" lon="12.69631092619544"><ele>874.2857142857143</ele><time>2026-03-28T12:37:10Z</time></trkpt><trkpt lat="42.3450508148868" lon="12.696401936218455"><ele>876.4285714285714</ele><time>2026-03-28T12:37:12Z</time></trkpt><trkpt lat="42.34501644517556" lon="12.696489450874221"><ele>878.5714285714287</ele><time>2026-03-28T12:37:14Z</time></trkpt><trkpt lat="42.34500316428035" lon="12.696575142405244"><ele>880.7142857142857</ele><time>2026-03-28T12:37:16Z</time></trkpt><trkpt lat="42.345029960015395" lon="12.696688827832252"><ele>882.8571428571429</ele><time>2026-03-28T12:37:20Z</time></trkpt><trkpt lat="42.34507236492092" lon="12.696753830174423"><ele>885.0</ele><time>2026-03-28T12:37:23Z</time></trkpt><trkpt lat="42.345131695368124" lon="12.696810036654195"><ele>885.0</ele><time>2026-03-28T12:37:25Z</time></trkpt><trkpt lat="42.34518088641372" lon="12.696888705965089"><ele>885.0</ele><time>2026-03-28T12:37:27Z</time></trkpt><trkpt lat="42.345228747470784" lon="12.696945865005164"><ele>885.0</ele><time>2026-03-28T12:37:29Z</time></trkpt><trkpt lat="42.345227703034126" lon="12.697047506710481"><ele>885.0</ele><time>2026-03-28T12:37:31Z</time></trkpt><trkpt lat="42.34530347917463" lon="12.697066966868114"><ele>885.0</ele><time>2026-03-28T12:37:33Z</time></trkpt><trkpt lat="42.34537800640318" lon="12.69710380675929"><ele>885.0</ele><time>2026-03-28T12:37:35Z</time></trkpt><trkpt lat="42.34543533141847" lon="12.697163190125295"><ele>885.0</ele><time>2026-03-28T12:37:37Z</time></trkpt><trkpt lat="42.34546124117447" lon="12.69726478137697"><ele>887.0</ele><time>2026-03-28T12:37:39Z</time></trkpt><trkpt lat="42.34547606622264" lon="12.697373015842315"><ele>889.0</ele><time>2026-03-28T12:37:41Z</time></trkpt><trkpt lat="42.345463456313176" lon="12.69747298824325"><ele>891.0</ele><time>2026-03-28T12:37:43Z</time></trkpt><trkpt lat="42.3454415359265" lon="12.697563693657761"><ele>893.0</ele><time>2026-03-28T12:37:45Z</time></trkpt><trkpt lat="42.345428111442665" lon="12.697688744574524"><ele>895.0</ele><time>2026-03-28T12:37:47Z</time></trkpt><trkpt lat="42.345427927934594" lon="12.697814117072472"><ele>897.0</ele><time>2026-03-28T12:37:49Z</time></trkpt><trkpt lat="42.345445468455665" lon="12.69793485392524"><ele>898.6</ele><time>2026-03-28T12:37:51Z</time></trkpt><trkpt lat="42.34547115733254" lon="12.698052446572028"><ele>900.2</ele><time>2026-03-28T12:37:53Z</time></trkpt><trkpt lat="42.34548370410642" lon="12.698177420609758"><ele>901.8</ele><time>2026-03-28T12:37:55Z</time></trkpt><trkpt lat="42.34550756409308" lon="12.698282551031978"><ele>903.4</ele><time>2026-03-28T12:37:57Z</time></trkpt><trkpt lat="42.34554097748231" lon="12.698415053938835"><ele>905.0</ele><time>2026-03-28T12:37:59Z</time></trkpt><trkpt lat="42.345592817490896" lon="12.698565432397787"><ele>908.2</ele><time>2026-03-28T12:38:01Z</time></trkpt><trkpt lat="42.34564411937227" lon="12.698707311132413"><ele>911.4</ele><time>2026-03-28T12:38:03Z</time></trkpt><trkpt lat="42.34568872593687" lon="12.698843228902275"><ele>914.5999999999999</ele><time>2026-03-28T12:38:05Z</time></trkpt><trkpt lat="42.345721405479765" lon="12.698967505342718"><ele>917.8</ele><time>2026-03-28T12:38:07Z</time></trkpt><trkpt lat="42.345747904943686" lon="12.699072637032586"><ele>921.0</ele><time>2026-03-28T12:38:09Z</time></trkpt><trkpt lat="42.345778966268966" lon="12.699196976541062"><ele>921.0</ele><time>2026-03-28T12:38:11Z</time></trkpt><trkpt lat="42.34581098302195" lon="12.699296535146827"><ele>921.0</ele><time>2026-03-28T12:38:13Z</time></trkpt><trkpt lat="42.34580982660956" lon="12.6994298646396"><ele>921.0</ele><time>2026-03-28T12:38:16Z</time></trkpt><trkpt lat="42.345825033919986" lon="12.699516795775272"><ele>921.0</ele><time>2026-03-28T12:38:18Z</time></trkpt><trkpt lat="42.34587181643678" lon="12.699580804956705"><ele>921.0</ele><time>2026-03-28T12:38:20Z</time></trkpt><trkpt lat="42.34591084947742" lon="12.699671183372944"><ele>921.0</ele><time>2026-03-28T12:38:22Z</time></trkpt><trkpt lat="42.345980379542254" lon="12.69971886109457"><ele>922.6666666666666</ele><time>2026-03-28T12:38:24Z</time></trkpt><trkpt lat="42.346062969962645" lon="12.699738873248497"><ele>924.3333333333333</ele><time>2026-03-28T12:38:26Z</time></trkpt><trkpt lat="42.34614887619665" lon="12.699757732379533"><ele>926.0</ele><time>2026-03-28T12:38:28Z</time></trkpt><trkpt lat="42.346205775800854" lon="12.699800962674585"><ele>927.6666666666666</ele><time>2026-03-28T12:38:30Z</time></trkpt><trkpt lat="42.34625028922119" lon="12.699904874045284"><ele>929.3333333333333</ele><time>2026-03-28T12:38:36Z</time></trkpt><trkpt lat="42.34631631987607" lon="12.699986273071358"><ele>931.0</ele><time>2026-03-28T12:38:39Z</time></trkpt><trkpt lat="42.346385375136094" lon="12.700064525868049"><ele>930.9999999999999</ele><time>2026-03-28T12:38:42Z</time></trkpt><trkpt lat="42.34636620697473" lon="12.700155485779408"><ele>931.0</ele><time>2026-03-28T12:38:44Z</time></trkpt><trkpt lat="42.34629670653725" lon="12.70022942515582"><ele>931.0</ele><time>2026-03-28T12:38:46Z</time></trkpt><trkpt lat="42.346232390466575" lon="12.700310936293096"><ele>931.0</ele><time>2026-03-28T12:38:49Z</time></trkpt><trkpt lat="42.346211799064456" lon="12.700402453908541"><ele>930.9999999999999</ele><time>2026-03-28T12:38:51Z</time></trkpt><trkpt lat="42.34619450093942" lon="12.700493742251725"><ele>931.0</ele><time>2026-03-28T12:38:53Z</time></trkpt><trkpt lat="42.346197479225765" lon="12.700597693652941"><ele>932.1428571428571</ele><time>2026-03-28T12:38:55Z</time></trkpt><trkpt lat="42.346219877602174" lon="12.700691743929648"><ele>933.2857142857142</ele><time>2026-03-28T12:38:57Z</time></trkpt><trkpt lat="42.34622912315752" lon="12.700796951552412"><ele>934.4285714285714</ele><time>2026-03-28T12:38:59Z</time></trkpt><trkpt lat="42.34622698782333" lon="12.700886572780528"><ele>935.5714285714286</ele><time>2026-03-28T12:39:01Z</time></trkpt><trkpt lat="42.3462356393563" lon="12.700987249783243"><ele>936.7142857142857</ele><time>2026-03-28T12:39:03Z</time></trkpt><trkpt lat="42.34623995385145" lon="12.701085562256551"><ele>937.8571428571429</ele><time>2026-03-28T12:39:05Z</time></trkpt><trkpt lat="42.34625819475643" lon="12.701192734982076"><ele>939.0</ele><time>2026-03-28T12:39:08Z</time></trkpt><trkpt lat="42.346265200252596" lon="12.701312546516359"><ele>940.8333333333334</ele><time>2026-03-28T12:39:11Z</time></trkpt><trkpt lat="42.346274197308446" lon="12.701419367994308"><ele>942.6666666666667</ele><time>2026-03-28T12:39:13Z</time></trkpt><trkpt lat="42.34629080953577" lon="12.701607084658558"><ele>944.5</ele><time>2026-03-28T12:39:15Z</time></trkpt><trkpt lat="42.34630127012677" lon="12.701718231843508"><ele>946.3333333333334</ele><time>2026-03-28T12:39:16Z</time></trkpt><trkpt lat="42.34632471594375" lon="12.701819153208312"><ele>948.1666666666667</ele><time>2026-03-28T12:39:17Z</time></trkpt><trkpt lat="42.34635918469348" lon="12.701899700836497"><ele>950.0</ele><time>2026-03-28T12:39:18Z</time></trkpt><trkpt lat="42.34644327608688" lon="12.702004573884903"><ele>951.1666666666667</ele><time>2026-03-28T12:39:20Z</time></trkpt><trkpt lat="42.346495594616925" lon="12.702066093928837"><ele>952.3333333333334</ele><time>2026-03-28T12:39:22Z</time></trkpt><trkpt lat="42.34655496922466" lon="12.702145127657726"><ele>953.5</ele><time>2026-03-28T12:39:24Z</time></trkpt><trkpt lat="42.346621444792774" lon="12.702219115323516"><ele>954.6666666666667</ele><time>2026-03-28T12:39:26Z</time></trkpt><trkpt lat="42.346679259200634" lon="12.702323840368914"><ele>955.8333333333334</ele><time>2026-03-28T12:39:28Z</time></trkpt><trkpt lat="42.346745113217246" lon="12.702428691900344"><ele>957.0</ele><time>2026-03-28T12:39:30.001Z</time></trkpt><trkpt lat="42.346814986970145" lon="12.702547553653666"><ele>957.0</ele><time>2026-03-28T12:39:32.001Z</time></trkpt><trkpt lat="42.346873196867385" lon="12.702631658263746"><ele>957.0</ele><time>2026-03-28T12:39:34.001Z</time></trkpt><trkpt lat="42.34693034612421" lon="12.702679395263887"><ele>957.0</ele><time>2026-03-28T12:39:35.001Z</time></trkpt><trkpt lat="42.346997958128995" lon="12.702757737842298"><ele>957.0</ele><time>2026-03-28T12:39:37.001Z</time></trkpt><trkpt lat="42.34704868146725" lon="12.702842962053102"><ele>957.0</ele><time>2026-03-28T12:39:39.001Z</time></trkpt><trkpt lat="42.3471050872315" lon="12.70295797944549"><ele>957.0</ele><time>2026-03-28T12:39:41.001Z</time></trkpt><trkpt lat="42.347151274525146" lon="12.70303147254332"><ele>956.8333333333334</ele><time>2026-03-28T12:39:43.001Z</time></trkpt><trkpt lat="42.34723347259059" lon="12.703083649285006"><ele>956.6666666666667</ele><time>2026-03-28T12:39:45.001Z</time></trkpt><trkpt lat="42.347327456999224" lon="12.703083908224537"><ele>956.5</ele><time>2026-03-28T12:39:47.001Z</time></trkpt><trkpt lat="42.34738941777969" lon="12.703118070118265"><ele>956.3333333333334</ele><time>2026-03-28T12:39:50.001Z</time></trkpt><trkpt lat="42.347443150943306" lon="12.703176493987955"><ele>956.1666666666667</ele><time>2026-03-28T12:39:51Z</time></trkpt><trkpt lat="42.34751490125558" lon="12.703225199471401"><ele>956.0</ele><time>2026-03-28T12:39:53Z</time></trkpt><trkpt lat="42.34759076848948" lon="12.703314920884397"><ele>956.0000000000001</ele><time>2026-03-28T12:39:57Z</time></trkpt><trkpt lat="42.34765209824039" lon="12.703375991492312"><ele>956.0</ele><time>2026-03-28T12:39:59Z</time></trkpt><trkpt lat="42.34771124300102" lon="12.703494612012419"><ele>956.0</ele><time>2026-03-28T12:40:03Z</time></trkpt><trkpt lat="42.34776825594558" lon="12.703589670501966"><ele>956.0</ele><time>2026-03-28T12:40:05Z</time></trkpt><trkpt lat="42.34782691429565" lon="12.70364819648498"><ele>956.0000000000001</ele><time>2026-03-28T12:40:07Z</time></trkpt><trkpt lat="42.34790534595026" lon="12.703680714384472"><ele>956.0</ele><time>2026-03-28T12:40:09Z</time></trkpt><trkpt lat="42.34797227166035" lon="12.703748840116667"><ele>955.3333333333334</ele><time>2026-03-28T12:40:11Z</time></trkpt><trkpt lat="42.34802978520142" lon="12.703838575483857"><ele>954.6666666666667</ele><time>2026-03-28T12:40:14Z</time></trkpt><trkpt lat="42.34806261615161" lon="12.70393814299397"><ele>954.0</ele><time>2026-03-28T12:40:16Z</time></trkpt><trkpt lat="42.34811822121967" lon="12.703983612684203"><ele>953.3333333333333</ele><time>2026-03-28T12:40:18Z</time></trkpt><trkpt lat="42.348197493792505" lon="12.704034315156155"><ele>952.6666666666666</ele><time>2026-03-28T12:40:22Z</time></trkpt><trkpt lat="42.34823807906898" lon="12.704100649030838"><ele>952.0</ele><time>2026-03-28T12:40:25Z</time></trkpt><trkpt lat="42.34829355004463" lon="12.704181756822397"><ele>951.9999999999999</ele><time>2026-03-28T12:40:28Z</time></trkpt><trkpt lat="42.34828446704557" lon="12.704293496725201"><ele>952.0</ele><time>2026-03-28T12:40:31Z</time></trkpt><trkpt lat="42.348308947415916" lon="12.70440229111495"><ele>952.0</ele><time>2026-03-28T12:40:33Z</time></trkpt><trkpt lat="42.34832721936961" lon="12.704543726310895"><ele>952.0</ele><time>2026-03-28T12:40:35Z</time></trkpt><trkpt lat="42.348351908389745" lon="12.704671077003843"><ele>951.9999999999999</ele><time>2026-03-28T12:40:37Z</time></trkpt><trkpt lat="42.348357522636036" lon="12.704758347859933"><ele>952.0</ele><time>2026-03-28T12:40:40Z</time></trkpt><trkpt lat="42.34845507081816" lon="12.704739934958527"><ele>953.9999999999999</ele><time>2026-03-28T12:41:15Z</time></trkpt><trkpt lat="42.34852763361284" lon="12.704760880690824"><ele>956.0</ele><time>2026-03-28T12:41:53.001Z</time></trkpt><trkpt lat="42.348612885492265" lon="12.704785651188446"><ele>958.0</ele><time>2026-03-28T12:41:55.001Z</time></trkpt><trkpt lat="42.34868844281868" lon="12.704804608747146"><ele>960.0</ele><time>2026-03-28T12:41:57.001Z</time></trkpt><trkpt lat="42.34877435612148" lon="12.704816340980125"><ele>961.9999999999999</ele><time>2026-03-28T12:42:00.001Z</time></trkpt><trkpt lat="42.348864112068064" lon="12.704803795612222"><ele>964.0</ele><time>2026-03-28T12:42:02.001Z</time></trkpt><trkpt lat="42.34896749491125" lon="12.704860232101241"><ele>963.9999999999999</ele><time>2026-03-28T12:42:04.001Z</time></trkpt><trkpt lat="42.34905656967137" lon="12.704862260504186"><ele>964.0</ele><time>2026-03-28T12:42:06.001Z</time></trkpt><trkpt lat="42.34913541772877" lon="12.704869139723753"><ele>964.0</ele><time>2026-03-28T12:42:08Z</time></trkpt><trkpt lat="42.349208131081156" lon="12.704825393131195"><ele>964.0</ele><time>2026-03-28T12:42:10Z</time></trkpt><trkpt lat="42.349285536951015" lon="12.704805386516453"><ele>963.9999999999999</ele><time>2026-03-28T12:42:12Z</time></trkpt><trkpt lat="42.349317179756" lon="12.704730519342435"><ele>964.0</ele><time>2026-03-28T12:42:14Z</time></trkpt><trkpt lat="42.349413142205194" lon="12.704751768648194"><ele>963.9999999999999</ele><time>2026-03-28T12:42:16Z</time></trkpt><trkpt lat="42.349502150015475" lon="12.704739211763586"><ele>964.0</ele><time>2026-03-28T12:42:18Z</time></trkpt><trkpt lat="42.349585799286025" lon="12.704730429471415"><ele>964.0</ele><time>2026-03-28T12:42:20Z</time></trkpt><trkpt lat="42.34965947284286" lon="12.704723760205693"><ele>964.0</ele><time>2026-03-28T12:42:22Z</time></trkpt><trkpt lat="42.3497619273436" lon="12.704717983751184"><ele>963.9999999999999</ele><time>2026-03-28T12:42:25Z</time></trkpt><trkpt lat="42.3498508155799" lon="12.704708382425705"><ele>964.0</ele><time>2026-03-28T12:42:27Z</time></trkpt><trkpt lat="42.34991473099942" lon="12.70472524186116"><ele>964.4999999999999</ele><time>2026-03-28T12:42:30Z</time></trkpt><trkpt lat="42.34999047538325" lon="12.704705008672079"><ele>965.0</ele><time>2026-03-28T12:42:32Z</time></trkpt><trkpt lat="42.35008406501847" lon="12.704759475724373"><ele>965.5</ele><time>2026-03-28T12:42:34Z</time></trkpt><trkpt lat="42.350136685191515" lon="12.704822611127147"><ele>966.0</ele><time>2026-03-28T12:42:36Z</time></trkpt><trkpt lat="42.35020026143576" lon="12.704885708760875"><ele>966.4999999999999</ele><time>2026-03-28T12:42:38Z</time></trkpt><trkpt lat="42.350264923630704" lon="12.704974735462896"><ele>967.0</ele><time>2026-03-28T12:42:40Z</time></trkpt><trkpt lat="42.35033485520804" lon="12.705051096119073"><ele>967.0</ele><time>2026-03-28T12:42:42Z</time></trkpt><trkpt lat="42.350393228268395" lon="12.70513922216029"><ele>967.0</ele><time>2026-03-28T12:42:44Z</time></trkpt><trkpt lat="42.35045363032512" lon="12.705223492192067"><ele>967.0</ele><time>2026-03-28T12:42:46Z</time></trkpt><trkpt lat="42.35049157988485" lon="12.705348304471848"><ele>967.0</ele><time>2026-03-28T12:42:48Z</time></trkpt><trkpt lat="42.350558300871775" lon="12.70545665635052"><ele>967.0</ele><time>2026-03-28T12:42:50Z</time></trkpt><trkpt lat="42.3506488127939" lon="12.705549608443302"><ele>969.1666666666666</ele><time>2026-03-28T12:42:52Z</time></trkpt><trkpt lat="42.350712437332184" lon="12.705591571568963"><ele>971.3333333333333</ele><time>2026-03-28T12:42:53Z</time></trkpt><trkpt lat="42.35077723613317" lon="12.705615813715713"><ele>973.5</ele><time>2026-03-28T12:42:54Z</time></trkpt><trkpt lat="42.350856700387496" lon="12.705578551390012"><ele>975.6666666666667</ele><time>2026-03-28T12:42:55Z</time></trkpt><trkpt lat="42.350973039477694" lon="12.70561026915471"><ele>977.8333333333334</ele><time>2026-03-28T12:42:57Z</time></trkpt><trkpt lat="42.351046512211965" lon="12.705588750914053"><ele>980.0</ele><time>2026-03-28T12:42:59Z</time></trkpt><trkpt lat="42.35115208908357" lon="12.705650115094135"><ele>980.0</ele><time>2026-03-28T12:43:02Z</time></trkpt><trkpt lat="42.35124230605233" lon="12.705672081160714"><ele>980.0</ele><time>2026-03-28T12:43:04Z</time></trkpt><trkpt lat="42.35132128050827" lon="12.705721625851863"><ele>980.0</ele><time>2026-03-28T12:43:06Z</time></trkpt><trkpt lat="42.3514107556508" lon="12.705768439589178"><ele>980.0</ele><time>2026-03-28T12:43:08Z</time></trkpt><trkpt lat="42.35149899071057" lon="12.70583299987078"><ele>980.0</ele><time>2026-03-28T12:43:10Z</time></trkpt><trkpt lat="42.35155640228588" lon="12.705941728627131"><ele>976.6</ele><time>2026-03-28T12:43:12Z</time></trkpt><trkpt lat="42.35161450556461" lon="12.706017871116495"><ele>973.2</ele><time>2026-03-28T12:43:14Z</time></trkpt><trkpt lat="42.351653397466656" lon="12.706085691036613"><ele>969.8</ele><time>2026-03-28T12:43:15Z</time></trkpt><trkpt lat="42.35172956617612" lon="12.70620461811703"><ele>966.4</ele><time>2026-03-28T12:43:17Z</time></trkpt><trkpt lat="42.35182928364471" lon="12.706278205962716"><ele>963.0</ele><time>2026-03-28T12:43:19Z</time></trkpt><trkpt lat="42.3519570969305" lon="12.706332870135991"><ele>967.2</ele><time>2026-03-28T12:43:21Z</time></trkpt><trkpt lat="42.35202023929686" lon="12.706347534468609"><ele>971.4</ele><time>2026-03-28T12:43:22Z</time></trkpt><trkpt lat="42.35212503745204" lon="12.706339022248876"><ele>975.6000000000001</ele><time>2026-03-28T12:43:24Z</time></trkpt><trkpt lat="42.35222719020555" lon="12.706365283156325"><ele>979.8000000000001</ele><time>2026-03-28T12:43:26Z</time></trkpt><trkpt lat="42.35234185108259" lon="12.706386684504889"><ele>984.0</ele><time>2026-03-28T12:43:28Z</time></trkpt><trkpt lat="42.352424743607656" lon="12.70640497978976"><ele>984.0</ele><time>2026-03-28T12:43:30Z</time></trkpt><trkpt lat="42.352490131095976" lon="12.706438832614547"><ele>984.0</ele><time>2026-03-28T12:43:44.001Z</time></trkpt><trkpt lat="42.352591975455354" lon="12.7064565722148"><ele>984.0</ele><time>2026-03-28T12:43:54.001Z</time></trkpt><trkpt lat="42.35267657992022" lon="12.706487588841826"><ele>984.0</ele><time>2026-03-28T12:43:56.001Z</time></trkpt><trkpt lat="42.35273944674732" lon="12.706529864281457"><ele>984.0</ele><time>2026-03-28T12:43:58.001Z</time></trkpt><trkpt lat="42.352793485868055" lon="12.7065948890466"><ele>984.0</ele><time>2026-03-28T12:44:00.001Z</time></trkpt><trkpt lat="42.352832104687124" lon="12.706672475565702"><ele>984.0</ele><time>2026-03-28T12:44:02.001Z</time></trkpt><trkpt lat="42.3529117179133" lon="12.706730820934999"><ele>984.0</ele><time>2026-03-28T12:44:04.001Z</time></trkpt><trkpt lat="42.35296529710713" lon="12.706813123412202"><ele>984.0</ele><time>2026-03-28T12:44:06Z</time></trkpt><trkpt lat="42.3530214529446" lon="12.706917789401775"><ele>984.0</ele><time>2026-03-28T12:44:08Z</time></trkpt><trkpt lat="42.3530635210249" lon="12.707018610243166"><ele>984.0</ele><time>2026-03-28T12:44:10Z</time></trkpt><trkpt lat="42.353087750626905" lon="12.707098751697231"><ele>984.0</ele><time>2026-03-28T12:44:12Z</time></trkpt><trkpt lat="42.35313242631036" lon="12.707217877664846"><ele>982.4000000000001</ele><time>2026-03-28T12:44:14Z</time></trkpt><trkpt lat="42.35315662679245" lon="12.707335328020218"><ele>980.8000000000001</ele><time>2026-03-28T12:44:16Z</time></trkpt><trkpt lat="42.353160207474055" lon="12.707474368593793"><ele>979.1999999999999</ele><time>2026-03-28T12:44:18Z</time></trkpt><trkpt lat="42.353160642266296" lon="12.707613955441918"><ele>977.5999999999999</ele><time>2026-03-28T12:44:20Z</time></trkpt><trkpt lat="42.35315063092477" lon="12.707729358069367"><ele>976.0</ele><time>2026-03-28T12:44:23Z</time></trkpt><trkpt lat="42.35313781812491" lon="12.707856135828054"><ele>974.8333333333333</ele><time>2026-03-28T12:44:25Z</time></trkpt><trkpt lat="42.353112490240626" lon="12.707944246372612"><ele>973.6666666666666</ele><time>2026-03-28T12:44:27Z</time></trkpt><trkpt lat="42.35308280023253" lon="12.708054683120428"><ele>972.5</ele><time>2026-03-28T12:44:29Z</time></trkpt><trkpt lat="42.35304797665937" lon="12.708160255363792"><ele>971.3333333333333</ele><time>2026-03-28T12:44:31Z</time></trkpt><trkpt lat="42.35300644545898" lon="12.70829510360266"><ele>970.1666666666666</ele><time>2026-03-28T12:44:33Z</time></trkpt><trkpt lat="42.35297217534018" lon="12.708386908740987"><ele>969.0</ele><time>2026-03-28T12:44:35Z</time></trkpt><trkpt lat="42.352983784957395" lon="12.708491118679138"><ele>977.0</ele><time>2026-03-28T12:44:37Z</time></trkpt><trkpt lat="42.35294076108258" lon="12.708625227103617"><ele>985.0000000000001</ele><time>2026-03-28T12:44:39Z</time></trkpt><trkpt lat="42.35288639850499" lon="12.708745831960387"><ele>993.0000000000001</ele><time>2026-03-28T12:44:41Z</time></trkpt><trkpt lat="42.35287037543991" lon="12.708865403132414"><ele>1001.0</ele><time>2026-03-28T12:44:43Z</time></trkpt><trkpt lat="42.35287290361766" lon="12.708961412952334"><ele>1009.0</ele><time>2026-03-28T12:44:45Z</time></trkpt><trkpt lat="42.35285371952034" lon="12.709095287350946"><ele>1008.9999999999999</ele><time>2026-03-28T12:44:47Z</time></trkpt><trkpt lat="42.35285569861512" lon="12.709198414172084"><ele>1009.0</ele><time>2026-03-28T12:44:49Z</time></trkpt><trkpt lat="42.35284133808462" lon="12.709293115439733"><ele>1009.0</ele><time>2026-03-28T12:44:50Z</time></trkpt><trkpt lat="42.352785283731315" lon="12.709389082385835"><ele>1009.0</ele><time>2026-03-28T12:44:53Z</time></trkpt><trkpt lat="42.35269949229283" lon="12.709428109798706"><ele>1008.9999999999999</ele><time>2026-03-28T12:44:55Z</time></trkpt><trkpt lat="42.35261983007829" lon="12.709501301282913"><ele>1009.0</ele><time>2026-03-28T12:44:57Z</time></trkpt><trkpt lat="42.35253661724078" lon="12.709567334534398"><ele>1006.2</ele><time>2026-03-28T12:44:59Z</time></trkpt><trkpt lat="42.35245689570698" lon="12.709613929471319"><ele>1003.4000000000001</ele><time>2026-03-28T12:45:01Z</time></trkpt><trkpt lat="42.352362678780125" lon="12.709651051423139"><ele>1000.6</ele><time>2026-03-28T12:45:03Z</time></trkpt><trkpt lat="42.35230308854723" lon="12.709708880414537"><ele>997.8</ele><time>2026-03-28T12:45:04Z</time></trkpt><trkpt lat="42.35220299899605" lon="12.709771909646431"><ele>995.0</ele><time>2026-03-28T12:45:06Z</time></trkpt><trkpt lat="42.352124283267685" lon="12.709885725888226"><ele>999.4</ele><time>2026-03-28T12:45:08Z</time></trkpt><trkpt lat="42.352101529407435" lon="12.710023440125362"><ele>1003.8</ele><time>2026-03-28T12:45:10Z</time></trkpt><trkpt lat="42.352079132939366" lon="12.710154638915279"><ele>1008.2</ele><time>2026-03-28T12:45:12Z</time></trkpt><trkpt lat="42.35206759735916" lon="12.710303882582972"><ele>1012.6</ele><time>2026-03-28T12:45:14Z</time></trkpt><trkpt lat="42.35203902341755" lon="12.710438385197346"><ele>1017.0</ele><time>2026-03-28T12:45:16Z</time></trkpt><trkpt lat="42.3519828135431" lon="12.71058707330146"><ele>1017.0</ele><time>2026-03-28T12:45:18Z</time></trkpt><trkpt lat="42.35189614572822" lon="12.710716362924845"><ele>1017.0</ele><time>2026-03-28T12:45:20Z</time></trkpt><trkpt lat="42.35182987721472" lon="12.710850791870447"><ele>1017.0</ele><time>2026-03-28T12:45:22Z</time></trkpt><trkpt lat="42.3517908054518" lon="12.71092330217984"><ele>1017.0</ele><time>2026-03-28T12:45:23Z</time></trkpt><trkpt lat="42.35172168547419" lon="12.711045577583668"><ele>1017.0</ele><time>2026-03-28T12:45:25Z</time></trkpt><trkpt lat="42.35168559083815" lon="12.711115407575619"><ele>1016.1666666666666</ele><time>2026-03-28T12:45:26Z</time></trkpt><trkpt lat="42.35165272866828" lon="12.711195244400695"><ele>1015.3333333333333</ele><time>2026-03-28T12:45:27Z</time></trkpt><trkpt lat="42.3516221894566" lon="12.711294768916552"><ele>1014.5</ele><time>2026-03-28T12:45:29Z</time></trkpt><trkpt lat="42.35166030671938" lon="12.71142063305466"><ele>1013.6666666666666</ele><time>2026-03-28T12:45:31Z</time></trkpt><trkpt lat="42.35171210288889" lon="12.711502590397885"><ele>1012.8333333333333</ele><time>2026-03-28T12:45:33Z</time></trkpt><trkpt lat="42.35174720305547" lon="12.711651009475863"><ele>1012.0</ele><time>2026-03-28T12:45:35Z</time></trkpt><trkpt lat="42.35174120928929" lon="12.711765198333715"><ele>1011.9999999999999</ele><time>2026-03-28T12:45:37Z</time></trkpt><trkpt lat="42.35173803680884" lon="12.711879904745746"><ele>1012.0</ele><time>2026-03-28T12:45:39Z</time></trkpt><trkpt lat="42.35171430801636" lon="12.711969457588452"><ele>1012.0</ele><time>2026-03-28T12:45:41Z</time></trkpt><trkpt lat="42.35165818654049" lon="12.712073961870049"><ele>1012.0</ele><time>2026-03-28T12:45:43Z</time></trkpt><trkpt lat="42.35163386369519" lon="12.712152608344491"><ele>1011.9999999999999</ele><time>2026-03-28T12:45:45Z</time></trkpt><trkpt lat="42.35161349805527" lon="12.712256998804028"><ele>1012.0</ele><time>2026-03-28T12:45:47Z</time></trkpt><trkpt lat="42.35157757568339" lon="12.712388979999986"><ele>1010.2</ele><time>2026-03-28T12:45:49.001Z</time></trkpt><trkpt lat="42.35153443549448" lon="12.712493349413228"><ele>1008.4000000000001</ele><time>2026-03-28T12:45:51.001Z</time></trkpt><trkpt lat="42.35149706835252" lon="12.712605991065919"><ele>1006.5999999999999</ele><time>2026-03-28T12:45:53.001Z</time></trkpt><trkpt lat="42.35147629373156" lon="12.712728410907442"><ele>1004.8</ele><time>2026-03-28T12:45:55.001Z</time></trkpt><trkpt lat="42.35143666369328" lon="12.712837486786999"><ele>1003.0</ele><time>2026-03-28T12:45:57.001Z</time></trkpt><trkpt lat="42.35138878942165" lon="12.712944376207105"><ele>1001.6666666666666</ele><time>2026-03-28T12:45:59.001Z</time></trkpt><trkpt lat="42.351372671476" lon="12.71303129572291"><ele>1000.3333333333333</ele><time>2026-03-28T12:46:00.001Z</time></trkpt><trkpt lat="42.351354532762734" lon="12.713145414209409"><ele>999.0</ele><time>2026-03-28T12:46:02.001Z</time></trkpt><trkpt lat="42.351343382064066" lon="12.71323586078654"><ele>997.6666666666667</ele><time>2026-03-28T12:46:03.001Z</time></trkpt><trkpt lat="42.351375330607276" lon="12.713395271345837"><ele>996.3333333333334</ele><time>2026-03-28T12:46:05.001Z</time></trkpt><trkpt lat="42.35134126876526" lon="12.713502002477435"><ele>995.0</ele><time>2026-03-28T12:46:07Z</time></trkpt><trkpt lat="42.351328780747046" lon="12.71358689279289"><ele>1000.8571428571429</ele><time>2026-03-28T12:46:08Z</time></trkpt><trkpt lat="42.35130036059429" lon="12.71368288016276"><ele>1006.7142857142857</ele><time>2026-03-28T12:46:11Z</time></trkpt><trkpt lat="42.351285368826034" lon="12.713766663374848"><ele>1012.5714285714286</ele><time>2026-03-28T12:46:14Z</time></trkpt><trkpt lat="42.351222021828924" lon="12.71372107063457"><ele>1018.4285714285714</ele><time>2026-03-28T12:46:34Z</time></trkpt><trkpt lat="42.351191537928784" lon="12.713646089442932"><ele>1024.2857142857142</ele><time>2026-03-28T12:46:40Z</time></trkpt><trkpt lat="42.3511898635287" lon="12.713732592694821"><ele>1030.142857142857</ele><time>2026-03-28T12:47:05Z</time></trkpt><trkpt lat="42.351235663801035" lon="12.713808398008073"><ele>1036.0</ele><time>2026-03-28T12:47:23Z</time></trkpt><trkpt lat="42.35119628700078" lon="12.713901931280958"><ele>1036.0</ele><time>2026-03-28T12:49:09Z</time></trkpt><trkpt lat="42.35117395172284" lon="12.714018864965032"><ele>1036.0</ele><time>2026-03-28T12:49:15.999Z</time></trkpt><trkpt lat="42.351144554449384" lon="12.714148938430878"><ele>1036.0</ele><time>2026-03-28T12:49:17.999Z</time></trkpt><trkpt lat="42.35111360425092" lon="12.714276030929138"><ele>1036.0</ele><time>2026-03-28T12:49:19.999Z</time></trkpt><trkpt lat="42.35104133095627" lon="12.714298478806818"><ele>1036.0</ele><time>2026-03-28T12:49:21.999Z</time></trkpt><trkpt lat="42.35104361237343" lon="12.714439642568783"><ele>1036.0</ele><time>2026-03-28T12:49:23.999Z</time></trkpt><trkpt lat="42.35102979550161" lon="12.71457562040881"><ele>1036.0</ele><time>2026-03-28T12:49:25.999Z</time></trkpt><trkpt lat="42.3509963642465" lon="12.7146540253875"><ele>1036.0</ele><time>2026-03-28T12:49:26.999Z</time></trkpt><trkpt lat="42.35098108934923" lon="12.714748098506032"><ele>1036.0</ele><time>2026-03-28T12:49:28.999Z</time></trkpt><trkpt lat="42.35099063725557" lon="12.714856415513891"><ele>1036.0</ele><time>2026-03-28T12:49:30.999Z</time></trkpt><trkpt lat="42.35096256317979" lon="12.71495054992111"><ele>1036.0</ele><time>2026-03-28T12:49:34.999Z</time></trkpt><trkpt lat="42.350980877050226" lon="12.715035025773185"><ele>1036.0</ele><time>2026-03-28T12:49:36.999Z</time></trkpt><trkpt lat="42.35105567081129" lon="12.714990728626402"><ele>1036.0</ele><time>2026-03-28T12:49:41.999Z</time></trkpt><trkpt lat="42.35113673498668" lon="12.714949646106989"><ele>1036.0</ele><time>2026-03-28T12:49:45.999Z</time></trkpt><trkpt lat="42.351208004291735" lon="12.714980821324021"><ele>1036.0</ele><time>2026-03-28T12:49:48.999Z</time></trkpt><trkpt lat="42.35128038737899" lon="12.714996565930564"><ele>1036.0</ele><time>2026-03-28T12:49:50.999Z</time></trkpt><trkpt lat="42.351365049442066" lon="12.715022132956465"><ele>1036.0</ele><time>2026-03-28T12:49:52.999Z</time></trkpt><trkpt lat="42.35143724145979" lon="12.715042005927968"><ele>1033.8333333333333</ele><time>2026-03-28T12:49:54.999Z</time></trkpt><trkpt lat="42.35154341143107" lon="12.71502349445883"><ele>1031.6666666666665</ele><time>2026-03-28T12:49:57.999Z</time></trkpt><trkpt lat="42.351617340655594" lon="12.715045205692617"><ele>1029.5</ele><time>2026-03-28T12:50:00Z</time></trkpt><trkpt lat="42.351680381563654" lon="12.71504212552527"><ele>1027.3333333333333</ele><time>2026-03-28T12:50:02Z</time></trkpt><trkpt lat="42.3517663839502" lon="12.715076404983684"><ele>1025.1666666666667</ele><time>2026-03-28T12:50:05Z</time></trkpt><trkpt lat="42.351853565541255" lon="12.715061760070954"><ele>1023.0</ele><time>2026-03-28T12:50:08Z</time></trkpt><trkpt lat="42.35194724931147" lon="12.715045102070798"><ele>1023.0</ele><time>2026-03-28T12:50:11Z</time></trkpt><trkpt lat="42.35203097073045" lon="12.715061525659676"><ele>1023.0</ele><time>2026-03-28T12:50:13Z</time></trkpt><trkpt lat="42.35209361022435" lon="12.715051497885563"><ele>1023.0</ele><time>2026-03-28T12:50:15Z</time></trkpt><trkpt lat="42.352144110496766" lon="12.71511959579147"><ele>1023.0</ele><time>2026-03-28T12:50:18Z</time></trkpt><trkpt lat="42.35213982290585" lon="12.715216624393879"><ele>1023.0</ele><time>2026-03-28T12:50:23Z</time></trkpt><trkpt lat="42.35212740117258" lon="12.715301994487314"><ele>1023.0</ele><time>2026-03-28T12:50:43Z</time></trkpt><trkpt lat="42.3521021098926" lon="12.715413705140561"><ele>1023.0</ele><time>2026-03-28T12:50:47Z</time></trkpt><trkpt lat="42.35206593516552" lon="12.715489601331695"><ele>1027.2</ele><time>2026-03-28T12:50:50Z</time></trkpt><trkpt lat="42.35200541828987" lon="12.715575095984136"><ele>1031.4</ele><time>2026-03-28T12:50:52Z</time></trkpt><trkpt lat="42.35196058488808" lon="12.715671142663746"><ele>1035.6000000000001</ele><time>2026-03-28T12:50:54Z</time></trkpt><trkpt lat="42.351902969025744" lon="12.71578635514572"><ele>1039.8</ele><time>2026-03-28T12:50:56Z</time></trkpt><trkpt lat="42.351837812313356" lon="12.715887885132801"><ele>1044.0</ele><time>2026-03-28T12:50:58Z</time></trkpt><trkpt lat="42.35179808762209" lon="12.715996052011374"><ele>1046.8</ele><time>2026-03-28T12:50:59Z</time></trkpt><trkpt lat="42.35174804455532" lon="12.716099217341982"><ele>1049.6000000000001</ele><time>2026-03-28T12:51:00Z</time></trkpt><trkpt lat="42.35169018996664" lon="12.716185414193781"><ele>1052.4</ele><time>2026-03-28T12:51:01Z</time></trkpt><trkpt lat="42.35179229459134" lon="12.71611281369666"><ele>1055.2</ele><time>2026-03-28T12:51:02Z</time></trkpt><trkpt lat="42.351785687178676" lon="12.71623139744835"><ele>1058.0</ele><time>2026-03-28T12:51:18.999Z</time></trkpt><trkpt lat="42.3517444779875" lon="12.716324546945337"><ele>1058.0</ele><time>2026-03-28T12:51:20.999Z</time></trkpt><trkpt lat="42.35170386987322" lon="12.716408505130715"><ele>1058.0</ele><time>2026-03-28T12:51:22.999Z</time></trkpt><trkpt lat="42.351663023958935" lon="12.716490670239509"><ele>1058.0</ele><time>2026-03-28T12:51:24.999Z</time></trkpt><trkpt lat="42.35165023584134" lon="12.716600259131665"><ele>1058.0</ele><time>2026-03-28T12:51:26.999Z</time></trkpt><trkpt lat="42.351610046101555" lon="12.716680300523084"><ele>1058.0</ele><time>2026-03-28T12:51:27.999Z</time></trkpt><trkpt lat="42.35160980765055" lon="12.716769167200283"><ele>1058.0</ele><time>2026-03-28T12:51:29.999Z</time></trkpt><trkpt lat="42.351679477075216" lon="12.716784681880897"><ele>1058.0</ele><time>2026-03-28T12:51:30.999Z</time></trkpt><trkpt lat="42.35177995777295" lon="12.716855562209012"><ele>1058.0</ele><time>2026-03-28T12:51:35.999Z</time></trkpt><trkpt lat="42.35185476913435" lon="12.716852766435101"><ele>1058.0</ele><time>2026-03-28T12:51:36.999Z</time></trkpt><trkpt lat="42.35193237901668" lon="12.716861211019621"><ele>1058.0</ele><time>2026-03-28T12:51:38.999Z</time></trkpt><trkpt lat="42.35192271320438" lon="12.716949613107"><ele>1058.0</ele><time>2026-03-28T12:53:20.999Z</time></trkpt><trkpt lat="42.35198821408543" lon="12.716963629590708"><ele>1058.0</ele><time>2026-03-28T12:56:15.999Z</time></trkpt><trkpt lat="42.352077172796605" lon="12.716967831343746"><ele>1058.0</ele><time>2026-03-28T12:57:00Z</time></trkpt><trkpt lat="42.35215944073802" lon="12.716964299505104"><ele>1061.4</ele><time>2026-03-28T12:57:02Z</time></trkpt><trkpt lat="42.35226453890401" lon="12.716994440543132"><ele>1064.8</ele><time>2026-03-28T12:57:04Z</time></trkpt><trkpt lat="42.352378337744994" lon="12.71704851127422"><ele>1068.2</ele><time>2026-03-28T12:57:06Z</time></trkpt><trkpt lat="42.35249767157772" lon="12.71708258240105"><ele>1071.6</ele><time>2026-03-28T12:57:08Z</time></trkpt><trkpt lat="42.35256314863429" lon="12.717108136652351"><ele>1075.0</ele><time>2026-03-28T12:57:09Z</time></trkpt><trkpt lat="42.35267958329506" lon="12.717155737873805"><ele>1075.0</ele><time>2026-03-28T12:57:11Z</time></trkpt><trkpt lat="42.352817289962445" lon="12.717193862364637"><ele>1075.0</ele><time>2026-03-28T12:57:13Z</time></trkpt><trkpt lat="42.352911118554246" lon="12.717179884963151"><ele>1075.0</ele><time>2026-03-28T12:57:15Z</time></trkpt><trkpt lat="42.35302261429347" lon="12.71721766674462"><ele>1075.0</ele><time>2026-03-28T12:57:17Z</time></trkpt><trkpt lat="42.353119478641325" lon="12.717265443000064"><ele>1074.3333333333333</ele><time>2026-03-28T12:57:18.999Z</time></trkpt><trkpt lat="42.35320665608396" lon="12.717328920386825"><ele>1073.6666666666665</ele><time>2026-03-28T12:57:20.999Z</time></trkpt><trkpt lat="42.35329510389317" lon="12.717400851205122"><ele>1073.0</ele><time>2026-03-28T12:57:22.999Z</time></trkpt><trkpt lat="42.35337086134005" lon="12.717356266773356"><ele>1072.3333333333333</ele><time>2026-03-28T12:57:24.999Z</time></trkpt><trkpt lat="42.35339097054577" lon="12.717273303885191"><ele>1071.6666666666667</ele><time>2026-03-28T12:57:27.999Z</time></trkpt><trkpt lat="42.353449688482144" lon="12.717183801693718"><ele>1071.0</ele><time>2026-03-28T12:57:44.999Z</time></trkpt><trkpt lat="42.353511856706994" lon="12.717123991296829"><ele>1071.0</ele><time>2026-03-28T12:57:48.999Z</time></trkpt><trkpt lat="42.35356633266399" lon="12.717053812212255"><ele>1071.0</ele><time>2026-03-28T12:57:51.999Z</time></trkpt><trkpt lat="42.35362681241265" lon="12.716990808104207"><ele>1071.0</ele><time>2026-03-28T12:57:53.999Z</time></trkpt><trkpt lat="42.35369340315891" lon="12.7169193530233"><ele>1071.0</ele><time>2026-03-28T12:57:55.999Z</time></trkpt><trkpt lat="42.35377682700244" lon="12.716877784643206"><ele>1071.0</ele><time>2026-03-28T12:57:57.999Z</time></trkpt><trkpt lat="42.353850760614876" lon="12.716813347298695"><ele>1071.0</ele><time>2026-03-28T12:57:59.999Z</time></trkpt><trkpt lat="42.35391542250021" lon="12.71675240308782"><ele>1067.8</ele><time>2026-03-28T12:58:01.999Z</time></trkpt><trkpt lat="42.35399468156465" lon="12.716722172484605"><ele>1064.6</ele><time>2026-03-28T12:58:03.999Z</time></trkpt><trkpt lat="42.354093244268135" lon="12.716672783722624"><ele>1061.4</ele><time>2026-03-28T12:58:07.999Z</time></trkpt><trkpt lat="42.35417918886683" lon="12.716639550500199"><ele>1058.2</ele><time>2026-03-28T12:58:09.999Z</time></trkpt><trkpt lat="42.35429983374907" lon="12.716563430983298"><ele>1055.0</ele><time>2026-03-28T12:58:11.999Z</time></trkpt><trkpt lat="42.35438450637818" lon="12.716493131546528"><ele>1055.0</ele><time>2026-03-28T12:58:14.999Z</time></trkpt><trkpt lat="42.35445100298381" lon="12.716444859894775"><ele>1055.0</ele><time>2026-03-28T12:58:16.999Z</time></trkpt><trkpt lat="42.35452042030226" lon="12.716397351594852"><ele>1055.0</ele><time>2026-03-28T12:58:18.999Z</time></trkpt><trkpt lat="42.354595816209525" lon="12.716371246547505"><ele>1055.0</ele><time>2026-03-28T12:58:20.999Z</time></trkpt><trkpt lat="42.35468537662224" lon="12.716423681201123"><ele>1055.0</ele><time>2026-03-28T12:58:24Z</time></trkpt><trkpt lat="42.35473875793869" lon="12.716509422332877"><ele>1055.0</ele><time>2026-03-28T12:58:27Z</time></trkpt><trkpt lat="42.35478396496354" lon="12.716603393694886"><ele>1054.8333333333335</ele><time>2026-03-28T12:58:29Z</time></trkpt><trkpt lat="42.354841177091984" lon="12.716679595287573"><ele>1054.6666666666667</ele><time>2026-03-28T12:58:31Z</time></trkpt><trkpt lat="42.35494089150326" lon="12.716696894492166"><ele>1054.5</ele><time>2026-03-28T12:58:33Z</time></trkpt><trkpt lat="42.35501105162305" lon="12.71676462613914"><ele>1054.3333333333333</ele><time>2026-03-28T12:58:35Z</time></trkpt><trkpt lat="42.35508392610781" lon="12.716805222833596"><ele>1054.1666666666665</ele><time>2026-03-28T12:58:37Z</time></trkpt><trkpt lat="42.3551506454757" lon="12.716879493432884"><ele>1054.0</ele><time>2026-03-28T12:58:39Z</time></trkpt><trkpt lat="42.35515456966321" lon="12.716996266922468"><ele>1057.3333333333333</ele><time>2026-03-28T12:58:42Z</time></trkpt><trkpt lat="42.3551948643864" lon="12.71708838529568"><ele>1060.6666666666665</ele><time>2026-03-28T12:58:44Z</time></trkpt><trkpt lat="42.35521126852688" lon="12.717207108947623"><ele>1064.0</ele><time>2026-03-28T12:58:47Z</time></trkpt><trkpt lat="42.35518621807851" lon="12.71732889770124"><ele>1067.3333333333333</ele><time>2026-03-28T12:58:49Z</time></trkpt><trkpt lat="42.355210180659704" lon="12.717423907594497"><ele>1070.6666666666667</ele><time>2026-03-28T12:58:51Z</time></trkpt><trkpt lat="42.35527197846711" lon="12.717519826957627"><ele>1074.0</ele><time>2026-03-28T12:58:53Z</time></trkpt><trkpt lat="42.35534909359976" lon="12.717563202452004"><ele>1074.0</ele><time>2026-03-28T12:58:55Z</time></trkpt><trkpt lat="42.355431485079016" lon="12.717609528197396"><ele>1074.0</ele><time>2026-03-28T12:58:57Z</time></trkpt><trkpt lat="42.355484507086835" lon="12.71766709216628"><ele>1074.0</ele><time>2026-03-28T12:58:59Z</time></trkpt><trkpt lat="42.35553461286589" lon="12.717737430705945"><ele>1074.0</ele><time>2026-03-28T12:59:02Z</time></trkpt><trkpt lat="42.355550359743454" lon="12.717867477154975"><ele>1074.0</ele><time>2026-03-28T12:59:04Z</time></trkpt><trkpt lat="42.35558573784599" lon="12.717986354045523"><ele>1074.0</ele><time>2026-03-28T12:59:06Z</time></trkpt><trkpt lat="42.35561462760624" lon="12.718102887136112"><ele>1073.6666666666667</ele><time>2026-03-28T12:59:08Z</time></trkpt><trkpt lat="42.35562472427227" lon="12.718193704914887"><ele>1073.3333333333333</ele><time>2026-03-28T12:59:10Z</time></trkpt><trkpt lat="42.35571167454927" lon="12.718200711526285"><ele>1073.0</ele><time>2026-03-28T12:59:14Z</time></trkpt><trkpt lat="42.35577897020474" lon="12.718153184339211"><ele>1072.6666666666665</ele><time>2026-03-28T12:59:23Z</time></trkpt><trkpt lat="42.355901225786624" lon="12.71813598032661"><ele>1072.3333333333333</ele><time>2026-03-28T13:00:00.999Z</time></trkpt><trkpt lat="42.35598011704387" lon="12.718186821990138"><ele>1072.0</ele><time>2026-03-28T13:00:03.999Z</time></trkpt><trkpt lat="42.35603278160616" lon="12.718268310573137"><ele>1072.0</ele><time>2026-03-28T13:00:05.999Z</time></trkpt><trkpt lat="42.35607734825143" lon="12.7183409751005"><ele>1072.0</ele><time>2026-03-28T13:00:07.999Z</time></trkpt><trkpt lat="42.35612331682014" lon="12.718406304014833"><ele>1072.0</ele><time>2026-03-28T13:00:09.999Z</time></trkpt><trkpt lat="42.35614760659841" lon="12.71851739445975"><ele>1072.0</ele><time>2026-03-28T13:00:11.999Z</time></trkpt><trkpt lat="42.35622838575469" lon="12.718581115635335"><ele>1072.0</ele><time>2026-03-28T13:00:13.999Z</time></trkpt><trkpt lat="42.35629734553395" lon="12.71858677040816"><ele>1072.0</ele><time>2026-03-28T13:00:16.999Z</time></trkpt><trkpt lat="42.35633303142283" lon="12.718496539127333"><ele>1072.0</ele><time>2026-03-28T13:00:19.999Z</time></trkpt><trkpt lat="42.35632289392613" lon="12.718395373363348"><ele>1072.0</ele><time>2026-03-28T13:00:21.999Z</time></trkpt><trkpt lat="42.35632717386026" lon="12.718235533746583"><ele>1072.0</ele><time>2026-03-28T13:00:23.999Z</time></trkpt><trkpt lat="42.35634316846598" lon="12.718074029765607"><ele>1072.0</ele><time>2026-03-28T13:00:25.999Z</time></trkpt><trkpt lat="42.35635337827296" lon="12.717929678168161"><ele>1072.0</ele><time>2026-03-28T13:00:27.999Z</time></trkpt><trkpt lat="42.35636425358117" lon="12.717778082168966"><ele>1073.6</ele><time>2026-03-28T13:00:30Z</time></trkpt><trkpt lat="42.356383098260274" lon="12.717652281024288"><ele>1075.2</ele><time>2026-03-28T13:00:32Z</time></trkpt><trkpt lat="42.3564097031612" lon="12.717535551881644"><ele>1076.8</ele><time>2026-03-28T13:00:34Z</time></trkpt><trkpt lat="42.35643705020038" lon="12.7174024564236"><ele>1078.4</ele><time>2026-03-28T13:00:36Z</time></trkpt><trkpt lat="42.35645354349858" lon="12.717261997648265"><ele>1080.0</ele><time>2026-03-28T13:00:38Z</time></trkpt><trkpt lat="42.356467459101175" lon="12.71717802455221"><ele>1080.0</ele><time>2026-03-28T13:00:39Z</time></trkpt><trkpt lat="42.35649301422169" lon="12.717071873755703"><ele>1080.0</ele><time>2026-03-28T13:00:40Z</time></trkpt><trkpt lat="42.356519648570185" lon="12.71692861051702"><ele>1080.0</ele><time>2026-03-28T13:00:42Z</time></trkpt><trkpt lat="42.3565510522907" lon="12.71678480772194"><ele>1080.0</ele><time>2026-03-28T13:00:44Z</time></trkpt><trkpt lat="42.35660114300043" lon="12.716663869354006"><ele>1080.0</ele><time>2026-03-28T13:00:46Z</time></trkpt><trkpt lat="42.35662337996852" lon="12.716517831703559"><ele>1080.2</ele><time>2026-03-28T13:00:48Z</time></trkpt><trkpt lat="42.35667158704329" lon="12.716389821925636"><ele>1080.4</ele><time>2026-03-28T13:00:50Z</time></trkpt><trkpt lat="42.35673977831582" lon="12.71626874454597"><ele>1080.6</ele><time>2026-03-28T13:00:52Z</time></trkpt><trkpt lat="42.35681752374433" lon="12.716244880138897"><ele>1080.8</ele><time>2026-03-28T13:00:55Z</time></trkpt><trkpt lat="42.35687793468387" lon="12.716322188191823"><ele>1081.0</ele><time>2026-03-28T13:00:57Z</time></trkpt><trkpt lat="42.356918662466036" lon="12.716446407524872"><ele>1081.0</ele><time>2026-03-28T13:01:00Z</time></trkpt><trkpt lat="42.35693792668055" lon="12.716552342890603"><ele>1081.0</ele><time>2026-03-28T13:01:02Z</time></trkpt><trkpt lat="42.35696773641082" lon="12.716628647806473"><ele>1081.0</ele><time>2026-03-28T13:01:06Z</time></trkpt><trkpt lat="42.35697925829869" lon="12.71673542225893"><ele>1081.0</ele><time>2026-03-28T13:01:18Z</time></trkpt><trkpt lat="42.35698359306846" lon="12.7168557156049"><ele>1081.0</ele><time>2026-03-28T13:01:20Z</time></trkpt><trkpt lat="42.3569847092115" lon="12.716949970779972"><ele>1081.0</ele><time>2026-03-28T13:01:22Z</time></trkpt><trkpt lat="42.35701600963021" lon="12.717077735372873"><ele>1080.8333333333333</ele><time>2026-03-28T13:01:24Z</time></trkpt><trkpt lat="42.357037523406234" lon="12.717196872974053"><ele>1080.6666666666665</ele><time>2026-03-28T13:01:26Z</time></trkpt><trkpt lat="42.357059076860956" lon="12.71731580081171"><ele>1080.5</ele><time>2026-03-28T13:01:28Z</time></trkpt><trkpt lat="42.35709759025495" lon="12.717432788205846"><ele>1080.3333333333333</ele><time>2026-03-28T13:01:30Z</time></trkpt><trkpt lat="42.35714014675751" lon="12.717530865515764"><ele>1080.1666666666667</ele><time>2026-03-28T13:01:32Z</time></trkpt><trkpt lat="42.35717680822766" lon="12.717636020883688"><ele>1080.0</ele><time>2026-03-28T13:01:34Z</time></trkpt><trkpt lat="42.35721349432778" lon="12.717738015738576"><ele>1081.0</ele><time>2026-03-28T13:01:36Z</time></trkpt><trkpt lat="42.357261740061084" lon="12.717827716556451"><ele>1082.0</ele><time>2026-03-28T13:01:38Z</time></trkpt><trkpt lat="42.35729235873957" lon="12.717904611489175"><ele>1083.0</ele><time>2026-03-28T13:01:40Z</time></trkpt><trkpt lat="42.357326599265726" lon="12.71799569598362"><ele>1084.0</ele><time>2026-03-28T13:01:42Z</time></trkpt><trkpt lat="42.35734558497664" lon="12.718090329285594"><ele>1085.0</ele><time>2026-03-28T13:01:44Z</time></trkpt><trkpt lat="42.35736550285294" lon="12.718199315553923"><ele>1086.0</ele><time>2026-03-28T13:01:46Z</time></trkpt><trkpt lat="42.35737078213325" lon="12.718311447145016"><ele>1086.0</ele><time>2026-03-28T13:01:48Z</time></trkpt><trkpt lat="42.35737522783521" lon="12.718409449596285"><ele>1086.0</ele><time>2026-03-28T13:01:50Z</time></trkpt><trkpt lat="42.357365160740585" lon="12.718507155131245"><ele>1086.0</ele><time>2026-03-28T13:01:53Z</time></trkpt><trkpt lat="42.35730241910006" lon="12.718515402500694"><ele>1086.0</ele><time>2026-03-28T13:02:36Z</time></trkpt><trkpt lat="42.35726485023842" lon="12.718424153156018"><ele>1086.0</ele><time>2026-03-28T13:02:40Z</time></trkpt><trkpt lat="42.357324264469185" lon="12.718481324556238"><ele>1086.0</ele><time>2026-03-28T13:02:55Z</time></trkpt><trkpt lat="42.35736391890643" lon="12.718559424384276"><ele>1086.0</ele><time>2026-03-28T13:03:00Z</time></trkpt><trkpt lat="42.35734524010177" lon="12.718677979071009"><ele>1085.6666666666667</ele><time>2026-03-28T13:03:55.999Z</time></trkpt><trkpt lat="42.357338497824166" lon="12.718787836472178"><ele>1085.3333333333333</ele><time>2026-03-28T13:03:57.999Z</time></trkpt><trkpt lat="42.357305144472235" lon="12.71889971485979"><ele>1085.0</ele><time>2026-03-28T13:03:59.999Z</time></trkpt><trkpt lat="42.35726654621272" lon="12.71900298923487"><ele>1084.6666666666665</ele><time>2026-03-28T13:04:01.999Z</time></trkpt><trkpt lat="42.35722624405154" lon="12.71911748384494"><ele>1084.3333333333333</ele><time>2026-03-28T13:04:03.999Z</time></trkpt><trkpt lat="42.35719466195348" lon="12.719235239978849"><ele>1084.0</ele><time>2026-03-28T13:04:05.999Z</time></trkpt><trkpt lat="42.35715587006304" lon="12.719337546182459"><ele>1085.5</ele><time>2026-03-28T13:04:07.999Z</time></trkpt><trkpt lat="42.35711842423234" lon="12.71942764958427"><ele>1087.0</ele><time>2026-03-28T13:04:09.999Z</time></trkpt><trkpt lat="42.357066557547164" lon="12.719525428424083"><ele>1088.5</ele><time>2026-03-28T13:04:12.999Z</time></trkpt><trkpt lat="42.35703162970182" lon="12.719598830977931"><ele>1090.0</ele><time>2026-03-28T13:04:14.999Z</time></trkpt><trkpt lat="42.35697620393742" lon="12.719704811391583"><ele>1091.5</ele><time>2026-03-28T13:04:17.999Z</time></trkpt><trkpt lat="42.35693526377452" lon="12.719791613623398"><ele>1093.0</ele><time>2026-03-28T13:04:19.999Z</time></trkpt><trkpt lat="42.356888029755346" lon="12.719878642933757"><ele>1093.0</ele><time>2026-03-28T13:04:21.999Z</time></trkpt><trkpt lat="42.356835021271266" lon="12.719956836627379"><ele>1093.0</ele><time>2026-03-28T13:04:23.999Z</time></trkpt><trkpt lat="42.35679674737701" lon="12.720062209021235"><ele>1093.0</ele><time>2026-03-28T13:04:26.999Z</time></trkpt><trkpt lat="42.356745047055284" lon="12.720120738382043"><ele>1093.0</ele><time>2026-03-28T13:04:28.999Z</time></trkpt><trkpt lat="42.356696785655004" lon="12.720227239928807"><ele>1093.0</ele><time>2026-03-28T13:04:31.999Z</time></trkpt><trkpt lat="42.356686588710744" lon="12.720320311338833"><ele>1093.0</ele><time>2026-03-28T13:04:34.999Z</time></trkpt><trkpt lat="42.356691927170026" lon="12.72042463687642"><ele>1091.8333333333333</ele><time>2026-03-28T13:04:36.999Z</time></trkpt><trkpt lat="42.356687994468935" lon="12.720521012024676"><ele>1090.6666666666665</ele><time>2026-03-28T13:04:38.999Z</time></trkpt><trkpt lat="42.35665969272995" lon="12.720641345528968"><ele>1089.5</ele><time>2026-03-28T13:04:42Z</time></trkpt><trkpt lat="42.35666637458641" lon="12.720764648623787"><ele>1088.3333333333333</ele><time>2026-03-28T13:04:44Z</time></trkpt><trkpt lat="42.35665889578365" lon="12.720881330648567"><ele>1087.1666666666667</ele><time>2026-03-28T13:04:46Z</time></trkpt><trkpt lat="42.35664236970934" lon="12.72097406504565"><ele>1086.0</ele><time>2026-03-28T13:04:48Z</time></trkpt><trkpt lat="42.35662809220087" lon="12.721061934935351"><ele>1084.7142857142858</ele><time>2026-03-28T13:04:50Z</time></trkpt><trkpt lat="42.356590553978634" lon="12.721141512240381"><ele>1083.4285714285713</ele><time>2026-03-28T13:04:52Z</time></trkpt><trkpt lat="42.3565460919386" lon="12.721207276151288"><ele>1082.142857142857</ele><time>2026-03-28T13:04:54Z</time></trkpt><trkpt lat="42.356471786559574" lon="12.721285408473014"><ele>1080.857142857143</ele><time>2026-03-28T13:04:57Z</time></trkpt><trkpt lat="42.35641827359515" lon="12.721339177751917"><ele>1079.5714285714287</ele><time>2026-03-28T13:04:59Z</time></trkpt><trkpt lat="42.35636228264881" lon="12.721400690635495"><ele>1078.2857142857142</ele><time>2026-03-28T13:05:01Z</time></trkpt><trkpt lat="42.35630164274511" lon="12.721445444191279"><ele>1077.0</ele><time>2026-03-28T13:05:03Z</time></trkpt><trkpt lat="42.356235032230025" lon="12.721456629174178"><ele>1077.0</ele><time>2026-03-28T13:05:05Z</time></trkpt><trkpt lat="42.35616528697698" lon="12.721461741364683"><ele>1077.0</ele><time>2026-03-28T13:05:07Z</time></trkpt><trkpt lat="42.356092829714086" lon="12.721465593996038"><ele>1077.0</ele><time>2026-03-28T13:05:09Z</time></trkpt><trkpt lat="42.35602038887524" lon="12.721457390176912"><ele>1077.0</ele><time>2026-03-28T13:05:11Z</time></trkpt><trkpt lat="42.35594038487604" lon="12.721458420993246"><ele>1077.0</ele><time>2026-03-28T13:05:13Z</time></trkpt><trkpt lat="42.35587072588715" lon="12.721454065686105"><ele>1077.0</ele><time>2026-03-28T13:05:15Z</time></trkpt><trkpt lat="42.355804960827065" lon="12.721440107167647"><ele>1077.0</ele><time>2026-03-28T13:05:17Z</time></trkpt><trkpt lat="42.3557340662422" lon="12.721445749599804"><ele>1077.0</ele><time>2026-03-28T13:05:20Z</time></trkpt><trkpt lat="42.355660528178795" lon="12.721451240052236"><ele>1077.0</ele><time>2026-03-28T13:05:24Z</time></trkpt><trkpt lat="42.355578791492675" lon="12.721472788947453"><ele>1077.0</ele><time>2026-03-28T13:05:26Z</time></trkpt><trkpt lat="42.35550548676088" lon="12.72150997349026"><ele>1077.0</ele><time>2026-03-28T13:05:28Z</time></trkpt><trkpt lat="42.35542988696469" lon="12.721514022765284"><ele>1077.0</ele><time>2026-03-28T13:05:30Z</time></trkpt><trkpt lat="42.355364447327446" lon="12.721518948706462"><ele>1077.0</ele><time>2026-03-28T13:05:32Z</time></trkpt><trkpt lat="42.35537782835411" lon="12.721628197344524"><ele>1075.2857142857142</ele><time>2026-03-28T13:05:34Z</time></trkpt><trkpt lat="42.35538424108412" lon="12.721729478384109"><ele>1073.5714285714287</ele><time>2026-03-28T13:05:38Z</time></trkpt><trkpt lat="42.35542352872044" lon="12.721829871372242"><ele>1071.857142857143</ele><time>2026-03-28T13:05:56Z</time></trkpt><trkpt lat="42.35543024537194" lon="12.721932095702018"><ele>1070.142857142857</ele><time>2026-03-28T13:05:59Z</time></trkpt><trkpt lat="42.35543244872791" lon="12.72201810388604"><ele>1068.4285714285713</ele><time>2026-03-28T13:06:01.999Z</time></trkpt><trkpt lat="42.355449796581574" lon="12.722115480483183"><ele>1066.7142857142858</ele><time>2026-03-28T13:06:04.999Z</time></trkpt><trkpt lat="42.35548701789631" lon="12.72219372789556"><ele>1065.0</ele><time>2026-03-28T13:06:07.999Z</time></trkpt><trkpt lat="42.35553814601479" lon="12.722281921672451"><ele>1065.0</ele><time>2026-03-28T13:06:11.999Z</time></trkpt><trkpt lat="42.35559557747367" lon="12.722359530576409"><ele>1065.0</ele><time>2026-03-28T13:06:14.999Z</time></trkpt><trkpt lat="42.35564264083929" lon="12.722431846825296"><ele>1065.0</ele><time>2026-03-28T13:06:17.999Z</time></trkpt><trkpt lat="42.35569527177112" lon="12.722514495977768"><ele>1065.0</ele><time>2026-03-28T13:06:20.999Z</time></trkpt><trkpt lat="42.35574246432433" lon="12.722583445766526"><ele>1065.0</ele><time>2026-03-28T13:06:22.999Z</time></trkpt><trkpt lat="42.3557932200092" lon="12.722658437304093"><ele>1065.0</ele><time>2026-03-28T13:06:24.999Z</time></trkpt><trkpt lat="42.35584464002427" lon="12.722735897957177"><ele>1064.3333333333333</ele><time>2026-03-28T13:06:26.999Z</time></trkpt><trkpt lat="42.35588657319202" lon="12.722818036075251"><ele>1063.6666666666667</ele><time>2026-03-28T13:06:28.999Z</time></trkpt><trkpt lat="42.35593247980276" lon="12.72289831593997"><ele>1063.0</ele><time>2026-03-28T13:06:30.999Z</time></trkpt><trkpt lat="42.35597075039912" lon="12.723003801194315"><ele>1062.3333333333335</ele><time>2026-03-28T13:06:33.999Z</time></trkpt><trkpt lat="42.35598794588732" lon="12.723131188289443"><ele>1061.6666666666667</ele><time>2026-03-28T13:07:49Z</time></trkpt><trkpt lat="42.355998699766786" lon="12.723256810871861"><ele>1061.0</ele><time>2026-03-28T13:07:50.999Z</time></trkpt><trkpt lat="42.355955219734334" lon="12.723325376371792"><ele>1061.0</ele><time>2026-03-28T13:07:53.999Z</time></trkpt><trkpt lat="42.355881136658894" lon="12.723367250370437"><ele>1061.0</ele><time>2026-03-28T13:07:57.999Z</time></trkpt><trkpt lat="42.35580932897363" lon="12.723414040635777"><ele>1061.0</ele><time>2026-03-28T13:07:59.999Z</time></trkpt><trkpt lat="42.3557276620182" lon="12.723446048822694"><ele>1061.0</ele><time>2026-03-28T13:08:01.999Z</time></trkpt><trkpt lat="42.355639144665794" lon="12.723474597176086"><ele>1061.0</ele><time>2026-03-28T13:08:03.999Z</time></trkpt><trkpt lat="42.355544758138485" lon="12.723509802768517"><ele>1061.0</ele><time>2026-03-28T13:08:05.999Z</time></trkpt><trkpt lat="42.35545448833634" lon="12.72355647170968"><ele>1065.0</ele><time>2026-03-28T13:08:07.999Z</time></trkpt><trkpt lat="42.355377619816984" lon="12.723585168237456"><ele>1069.0</ele><time>2026-03-28T13:08:09.999Z</time></trkpt><trkpt lat="42.355287303307826" lon="12.723639508254593"><ele>1073.0</ele><time>2026-03-28T13:08:11.999Z</time></trkpt><trkpt lat="42.355221378720564" lon="12.723704099614649"><ele>1077.0</ele><time>2026-03-28T13:08:13.999Z</time></trkpt><trkpt lat="42.3552218115805" lon="12.723816975980467"><ele>1081.0</ele><time>2026-03-28T13:08:15.999Z</time></trkpt><trkpt lat="42.35520192383947" lon="12.723939372542036"><ele>1085.0</ele><time>2026-03-28T13:08:17.999Z</time></trkpt><trkpt lat="42.35524979619768" lon="12.724039201576074"><ele>1085.0</ele><time>2026-03-28T13:08:19.999Z</time></trkpt><trkpt lat="42.35528803507708" lon="12.724130934719742"><ele>1085.0</ele><time>2026-03-28T13:08:21.999Z</time></trkpt><trkpt lat="42.355321001352735" lon="12.724226209458749"><ele>1085.0</ele><time>2026-03-28T13:08:24.999Z</time></trkpt><trkpt lat="42.355307247439704" lon="12.724324780472685"><ele>1085.0</ele><time>2026-03-28T13:08:27.999Z</time></trkpt><trkpt lat="42.355255010821324" lon="12.724391773257427"><ele>1085.0</ele><time>2026-03-28T13:08:30.999Z</time></trkpt><trkpt lat="42.35521065120605" lon="12.724465523068599"><ele>1085.0</ele><time>2026-03-28T13:08:39.999Z</time></trkpt><trkpt lat="42.35513657237851" lon="12.724546438110208"><ele>1081.1666666666667</ele><time>2026-03-28T13:08:43.999Z</time></trkpt><trkpt lat="42.35506265589934" lon="12.724632504771787"><ele>1077.3333333333335</ele><time>2026-03-28T13:08:46.999Z</time></trkpt><trkpt lat="42.355042703534636" lon="12.724722144136399"><ele>1073.5</ele><time>2026-03-28T13:08:49.999Z</time></trkpt><trkpt lat="42.35504617743981" lon="12.724834246168644"><ele>1069.6666666666667</ele><time>2026-03-28T13:08:52.999Z</time></trkpt><trkpt lat="42.355040765147294" lon="12.724923626122289"><ele>1065.8333333333333</ele><time>2026-03-28T13:08:56Z</time></trkpt><trkpt lat="42.354994035206886" lon="12.72500763346558"><ele>1062.0</ele><time>2026-03-28T13:08:59Z</time></trkpt><trkpt lat="42.3549556406019" lon="12.725088829982017"><ele>1062.0</ele><time>2026-03-28T13:09:01Z</time></trkpt><trkpt lat="42.354908016988574" lon="12.725158536055448"><ele>1062.0</ele><time>2026-03-28T13:09:03Z</time></trkpt><trkpt lat="42.35488042042362" lon="12.725261087381586"><ele>1062.0</ele><time>2026-03-28T13:09:05Z</time></trkpt><trkpt lat="42.3548389917178" lon="12.725332941360062"><ele>1062.0</ele><time>2026-03-28T13:09:07Z</time></trkpt><trkpt lat="42.35484930437966" lon="12.725471367193105"><ele>1062.0</ele><time>2026-03-28T13:09:10Z</time></trkpt><trkpt lat="42.354813714663415" lon="12.72557168714417"><ele>1062.0</ele><time>2026-03-28T13:09:13Z</time></trkpt><trkpt lat="42.3547693924611" lon="12.725641690459055"><ele>1063.1666666666667</ele><time>2026-03-28T13:09:15Z</time></trkpt><trkpt lat="42.35471597542252" lon="12.72573117885557"><ele>1064.3333333333333</ele><time>2026-03-28T13:09:17Z</time></trkpt><trkpt lat="42.354662636037126" lon="12.725817376701816"><ele>1065.5</ele><time>2026-03-28T13:09:19Z</time></trkpt><trkpt lat="42.354593529769105" lon="12.725863595954355"><ele>1066.6666666666665</ele><time>2026-03-28T13:09:22Z</time></trkpt><trkpt lat="42.354511506951845" lon="12.725915509753996"><ele>1067.8333333333333</ele><time>2026-03-28T13:09:24Z</time></trkpt><trkpt lat="42.35452706483334" lon="12.72603384758716"><ele>1069.0</ele><time>2026-03-28T13:09:26Z</time></trkpt><trkpt lat="42.35444553222405" lon="12.726097141723733"><ele>1069.0</ele><time>2026-03-28T13:09:28Z</time></trkpt><trkpt lat="42.354402581317146" lon="12.726185728356871"><ele>1069.0</ele><time>2026-03-28T13:09:30Z</time></trkpt><trkpt lat="42.35445536205067" lon="12.726253938058248"><ele>1069.0</ele><time>2026-03-28T13:09:58Z</time></trkpt><trkpt lat="42.354483871932125" lon="12.72633844695487"><ele>1069.0</ele><time>2026-03-28T13:10:00Z</time></trkpt><trkpt lat="42.35448434360925" lon="12.726430729597958"><ele>1069.0</ele><time>2026-03-28T13:10:02Z</time></trkpt><trkpt lat="42.354472287893515" lon="12.726548308942803"><ele>1069.0</ele><time>2026-03-28T13:10:05Z</time></trkpt><trkpt lat="42.35445990733898" lon="12.726676064834898"><ele>1069.0</ele><time>2026-03-28T13:10:07.999Z</time></trkpt><trkpt lat="42.35439103442486" lon="12.726743377223261"><ele>1069.0</ele><time>2026-03-28T13:10:09.999Z</time></trkpt><trkpt lat="42.354424877030894" lon="12.726856011981683"><ele>1069.0</ele><time>2026-03-28T13:10:12.999Z</time></trkpt><trkpt lat="42.354440557644516" lon="12.726954376308209"><ele>1069.0</ele><time>2026-03-28T13:10:15.999Z</time></trkpt><trkpt lat="42.35446424365916" lon="12.727035936478122"><ele>1069.0</ele><time>2026-03-28T13:10:19.999Z</time></trkpt><trkpt lat="42.3545450548107" lon="12.72706705797052"><ele>1069.0</ele><time>2026-03-28T13:10:22.999Z</time></trkpt><trkpt lat="42.354610739569814" lon="12.727005622669035"><ele>1068.8333333333333</ele><time>2026-03-28T13:10:27.999Z</time></trkpt><trkpt lat="42.35466453153193" lon="12.727066962754204"><ele>1068.6666666666665</ele><time>2026-03-28T13:10:30.999Z</time></trkpt><trkpt lat="42.35474648628338" lon="12.727095613008048"><ele>1068.5</ele><time>2026-03-28T13:10:33.999Z</time></trkpt><trkpt lat="42.3548263107798" lon="12.727051811926357"><ele>1068.3333333333333</ele><time>2026-03-28T13:10:35.999Z</time></trkpt><trkpt lat="42.35491441769541" lon="12.726998855165377"><ele>1068.1666666666667</ele><time>2026-03-28T13:10:38.999Z</time></trkpt><trkpt lat="42.35498354357453" lon="12.726970258284375"><ele>1068.0</ele><time>2026-03-28T13:10:40.999Z</time></trkpt><trkpt lat="42.35508840603935" lon="12.726937151514145"><ele>1068.0</ele><time>2026-03-28T13:10:42.999Z</time></trkpt><trkpt lat="42.35521486896917" lon="12.726927728247192"><ele>1068.0</ele><time>2026-03-28T13:10:43.999Z</time></trkpt><trkpt lat="42.35532277520726" lon="12.726949599323621"><ele>1068.0</ele><time>2026-03-28T13:10:44.999Z</time></trkpt><trkpt lat="42.355386060920914" lon="12.726979748243268"><ele>1068.0</ele><time>2026-03-28T13:10:49.999Z</time></trkpt><trkpt lat="42.355458399912024" lon="12.72698269884473"><ele>1068.0</ele><time>2026-03-28T13:10:51.999Z</time></trkpt><trkpt lat="42.355565374686755" lon="12.726959308217277"><ele>1069.6666666666667</ele><time>2026-03-28T13:10:53.999Z</time></trkpt><trkpt lat="42.355652444918896" lon="12.726990559791517"><ele>1071.3333333333333</ele><time>2026-03-28T13:10:55.999Z</time></trkpt><trkpt lat="42.355724567785245" lon="12.726968942263467"><ele>1073.0</ele><time>2026-03-28T13:10:57.999Z</time></trkpt><trkpt lat="42.35580147391908" lon="12.726944852212483"><ele>1074.6666666666665</ele><time>2026-03-28T13:11:00Z</time></trkpt><trkpt lat="42.35587734969153" lon="12.726939226226504"><ele>1076.3333333333333</ele><time>2026-03-28T13:11:02Z</time></trkpt><trkpt lat="42.355962249272935" lon="12.726932957179613"><ele>1078.0</ele><time>2026-03-28T13:11:04Z</time></trkpt><trkpt lat="42.356044289447325" lon="12.726912681648104"><ele>1078.0</ele><time>2026-03-28T13:11:06Z</time></trkpt><trkpt lat="42.356110939050744" lon="12.726911899012245"><ele>1078.0</ele><time>2026-03-28T13:11:08Z</time></trkpt><trkpt lat="42.35621236462914" lon="12.72694592252627"><ele>1078.0</ele><time>2026-03-28T13:11:11Z</time></trkpt><trkpt lat="42.35630182099605" lon="12.726932278900806"><ele>1078.0</ele><time>2026-03-28T13:11:13Z</time></trkpt><trkpt lat="42.35639256295968" lon="12.726936519711288"><ele>1078.0</ele><time>2026-03-28T13:11:16Z</time></trkpt><trkpt lat="42.35646870292515" lon="12.726966526827715"><ele>1078.0</ele><time>2026-03-28T13:11:18Z</time></trkpt><trkpt lat="42.35655091322502" lon="12.726946565480926"><ele>1077.8333333333333</ele><time>2026-03-28T13:11:20Z</time></trkpt><trkpt lat="42.35662024879496" lon="12.726941250014505"><ele>1077.6666666666665</ele><time>2026-03-28T13:11:22Z</time></trkpt><trkpt lat="42.356713456608375" lon="12.726904770049229"><ele>1077.5</ele><time>2026-03-28T13:11:24Z</time></trkpt><trkpt lat="42.35679764036525" lon="12.726939270388478"><ele>1077.3333333333333</ele><time>2026-03-28T13:11:26Z</time></trkpt><trkpt lat="42.35688098754034" lon="12.726923745911826"><ele>1077.1666666666667</ele><time>2026-03-28T13:11:28Z</time></trkpt><trkpt lat="42.356946586790876" lon="12.726919846280675"><ele>1077.0</ele><time>2026-03-28T13:11:30Z</time></trkpt><trkpt lat="42.357014802111046" lon="12.726919291859653"><ele>1077.0</ele><time>2026-03-28T13:11:32Z</time></trkpt><trkpt lat="42.357105124033254" lon="12.726939721756008"><ele>1077.0</ele><time>2026-03-28T13:11:34Z</time></trkpt><trkpt lat="42.357198549895095" lon="12.726944063084552"><ele>1077.0</ele><time>2026-03-28T13:11:36Z</time></trkpt><trkpt lat="42.357292707443484" lon="12.726948142291015"><ele>1077.0</ele><time>2026-03-28T13:11:38Z</time></trkpt><trkpt lat="42.35737050975058" lon="12.726967061301398"><ele>1077.0</ele><time>2026-03-28T13:11:40Z</time></trkpt><trkpt lat="42.35745352391558" lon="12.726924093631546"><ele>1077.0</ele><time>2026-03-28T13:11:42Z</time></trkpt><trkpt lat="42.35751291944993" lon="12.726894394017402"><ele>1077.1666666666667</ele><time>2026-03-28T13:11:44Z</time></trkpt><trkpt lat="42.35760394970413" lon="12.726882085579895"><ele>1077.3333333333333</ele><time>2026-03-28T13:11:58Z</time></trkpt><trkpt lat="42.35768591198735" lon="12.726879494448"><ele>1077.5</ele><time>2026-03-28T13:12:00Z</time></trkpt><trkpt lat="42.357764076087115" lon="12.726851502185704"><ele>1077.6666666666665</ele><time>2026-03-28T13:12:04Z</time></trkpt><trkpt lat="42.35783417617497" lon="12.726870561441956"><ele>1077.8333333333333</ele><time>2026-03-28T13:12:21.999Z</time></trkpt><trkpt lat="42.357901686432626" lon="12.726896954888936"><ele>1078.0</ele><time>2026-03-28T13:12:25.999Z</time></trkpt><trkpt lat="42.357976001762786" lon="12.726923365323751"><ele>1075.5</ele><time>2026-03-28T13:12:30.999Z</time></trkpt><trkpt lat="42.35804336160024" lon="12.72695592812073"><ele>1073.0</ele><time>2026-03-28T13:12:36.999Z</time></trkpt><trkpt lat="42.358129477525864" lon="12.7270078730809"><ele>1070.5</ele><time>2026-03-28T13:12:39.999Z</time></trkpt><trkpt lat="42.35821394564112" lon="12.727018669371287"><ele>1068.0</ele><time>2026-03-28T13:12:42.999Z</time></trkpt><trkpt lat="42.35828738492785" lon="12.727102431050294"><ele>1065.5</ele><time>2026-03-28T13:12:45.999Z</time></trkpt><trkpt lat="42.35834877522197" lon="12.727133072707716"><ele>1063.0</ele><time>2026-03-28T13:12:47.999Z</time></trkpt><trkpt lat="42.35841985732368" lon="12.727156424881448"><ele>1063.0</ele><time>2026-03-28T13:12:50.999Z</time></trkpt><trkpt lat="42.35850512248094" lon="12.72719664116861"><ele>1063.0</ele><time>2026-03-28T13:12:53.999Z</time></trkpt><trkpt lat="42.358580097276224" lon="12.727258762794081"><ele>1063.0</ele><time>2026-03-28T13:12:56.999Z</time></trkpt><trkpt lat="42.358649431882974" lon="12.72726376077037"><ele>1063.0</ele><time>2026-03-28T13:12:59.999Z</time></trkpt><trkpt lat="42.35873308736091" lon="12.727286695430104"><ele>1063.0</ele><time>2026-03-28T13:13:02.999Z</time></trkpt><trkpt lat="42.358810404693635" lon="12.727343068192434"><ele>1063.0</ele><time>2026-03-28T13:13:06Z</time></trkpt><trkpt lat="42.35889307626009" lon="12.727384015912635"><ele>1058.6666666666665</ele><time>2026-03-28T13:13:09Z</time></trkpt><trkpt lat="42.35895842982725" lon="12.727411023860228"><ele>1054.3333333333333</ele><time>2026-03-28T13:13:11Z</time></trkpt><trkpt lat="42.35902735528606" lon="12.72743522685293"><ele>1050.0</ele><time>2026-03-28T13:13:13Z</time></trkpt><trkpt lat="42.35910062154738" lon="12.727448958808266"><ele>1045.6666666666667</ele><time>2026-03-28T13:13:15Z</time></trkpt><trkpt lat="42.35916801307188" lon="12.727493384866161"><ele>1041.3333333333335</ele><time>2026-03-28T13:13:17Z</time></trkpt><trkpt lat="42.359250188355574" lon="12.7275166467598"><ele>1037.0</ele><time>2026-03-28T13:13:20Z</time></trkpt><trkpt lat="42.359331288898744" lon="12.72747783455393"><ele>1037.0</ele><time>2026-03-28T13:13:22Z</time></trkpt><trkpt lat="42.359383155662364" lon="12.727538833024273"><ele>1037.0</ele><time>2026-03-28T13:13:25Z</time></trkpt><trkpt lat="42.35945355810269" lon="12.7275596257566"><ele>1037.0</ele><time>2026-03-28T13:13:27Z</time></trkpt><trkpt lat="42.35951373222815" lon="12.727607394613276"><ele>1037.0</ele><time>2026-03-28T13:13:29Z</time></trkpt><trkpt lat="42.35957914283035" lon="12.727586122776868"><ele>1037.0</ele><time>2026-03-28T13:14:01Z</time></trkpt><trkpt lat="42.359644232129185" lon="12.727639683439891"><ele>1037.0</ele><time>2026-03-28T13:14:03Z</time></trkpt><trkpt lat="42.35971189333828" lon="12.727662881817954"><ele>1037.0</ele><time>2026-03-28T13:14:06Z</time></trkpt><trkpt lat="42.359783432548056" lon="12.727705402734697"><ele>982.0</ele><time>2026-03-28T13:14:09Z</time></trkpt><trkpt lat="42.36515413619967" lon="12.727232510262034"><ele>981.9999999999999</ele><time>2026-03-28T13:24:13Z</time></trkpt><trkpt lat="42.36517292118669" lon="12.727137407263339"><ele>982.0</ele><time>2026-03-28T13:24:15Z</time></trkpt><trkpt lat="42.36518179248438" lon="12.72703317470218"><ele>982.0</ele><time>2026-03-28T13:24:17Z</time></trkpt><trkpt lat="42.36517886953751" lon="12.726929432651241"><ele>982.0</ele><time>2026-03-28T13:24:19Z</time></trkpt><trkpt lat="42.36519155914209" lon="12.726820765632336"><ele>981.9999999999999</ele><time>2026-03-28T13:24:21Z</time></trkpt><trkpt lat="42.36517761345826" lon="12.726730552999522"><ele>982.0</ele><time>2026-03-28T13:24:23Z</time></trkpt><trkpt lat="42.36520336790925" lon="12.726637800743438"><ele>980.25</ele><time>2026-03-28T13:24:25Z</time></trkpt><trkpt lat="42.36524333518592" lon="12.726329287981974"><ele>978.5</ele><time>2026-03-28T13:24:29Z</time></trkpt><trkpt lat="42.36528399411826" lon="12.726200156926403"><ele>976.75</ele><time>2026-03-28T13:24:31Z</time></trkpt><trkpt lat="42.36530801093497" lon="12.726071009105384"><ele>975.0</ele><time>2026-03-28T13:24:33Z</time></trkpt><trkpt lat="42.36535339468006" lon="12.725955715863998"><ele>973.6</ele><time>2026-03-28T13:24:35Z</time></trkpt><trkpt lat="42.36539617529266" lon="12.725853086721289"><ele>972.2</ele><time>2026-03-28T13:24:37Z</time></trkpt><trkpt lat="42.365447763287214" lon="12.725752901807592"><ele>970.8</ele><time>2026-03-28T13:24:38.999Z</time></trkpt><trkpt lat="42.36549966782733" lon="12.725632867263096"><ele>969.4</ele><time>2026-03-28T13:24:40.999Z</time></trkpt><trkpt lat="42.36554430050741" lon="12.725528284918077"><ele>968.0</ele><time>2026-03-28T13:24:42.999Z</time></trkpt><trkpt lat="42.36558121087557" lon="12.725421618747031"><ele>970.75</ele><time>2026-03-28T13:24:44.999Z</time></trkpt><trkpt lat="42.36562767209143" lon="12.72531604479167"><ele>973.5</ele><time>2026-03-28T13:24:46.999Z</time></trkpt><trkpt lat="42.36569252197838" lon="12.72501750578389"><ele>976.25</ele><time>2026-03-28T13:24:52.999Z</time></trkpt><trkpt lat="42.36574513107238" lon="12.724890829270297"><ele>979.0</ele><time>2026-03-28T13:24:54.999Z</time></trkpt><trkpt lat="42.36579780754524" lon="12.724749148369751"><ele>979.0</ele><time>2026-03-28T13:24:56.999Z</time></trkpt><trkpt lat="42.36581857793603" lon="12.724624236545175"><ele>979.0000000000001</ele><time>2026-03-28T13:24:58.999Z</time></trkpt><trkpt lat="42.36580549792591" lon="12.724498933274377"><ele>979.0000000000001</ele><time>2026-03-28T13:25:00.999Z</time></trkpt><trkpt lat="42.36580866672004" lon="12.724391494763054"><ele>979.0</ele><time>2026-03-28T13:25:02.999Z</time></trkpt><trkpt lat="42.36578686510748" lon="12.724247753563349"><ele>979.0</ele><time>2026-03-28T13:25:04.999Z</time></trkpt><trkpt lat="42.36573367533267" lon="12.724144257939283"><ele>978.4000000000001</ele><time>2026-03-28T13:25:06.999Z</time></trkpt><trkpt lat="42.36573618558013" lon="12.724057186224105"><ele>977.8000000000001</ele><time>2026-03-28T13:25:07.999Z</time></trkpt><trkpt lat="42.365715299874935" lon="12.723808544673394"><ele>977.1999999999999</ele><time>2026-03-28T13:25:10.999Z</time></trkpt><trkpt lat="42.365760930436956" lon="12.723742260303041"><ele>976.5999999999999</ele><time>2026-03-28T13:25:12.999Z</time></trkpt><trkpt lat="42.365827120158016" lon="12.723675669590616"><ele>976.0</ele><time>2026-03-28T13:25:15.999Z</time></trkpt><trkpt lat="42.36589236380526" lon="12.723591509652017"><ele>975.9999999999999</ele><time>2026-03-28T13:25:17.999Z</time></trkpt><trkpt lat="42.3659734296525" lon="12.723485138059223"><ele>976.0</ele><time>2026-03-28T13:25:19.999Z</time></trkpt><trkpt lat="42.3660402774535" lon="12.723419143998724"><ele>976.0</ele><time>2026-03-28T13:25:21.999Z</time></trkpt><trkpt lat="42.366091729391314" lon="12.723365493186972"><ele>976.0</ele><time>2026-03-28T13:25:23.999Z</time></trkpt><trkpt lat="42.366036833226325" lon="12.72331393387185"><ele>975.9999999999999</ele><time>2026-03-28T13:25:27.999Z</time></trkpt><trkpt lat="42.365988224570025" lon="12.723240677574251"><ele>976.0</ele><time>2026-03-28T13:25:58Z</time></trkpt><trkpt lat="42.365841164950005" lon="12.723154856328614"><ele>975.9999999999999</ele><time>2026-03-28T13:26:02Z</time></trkpt><trkpt lat="42.365799184786496" lon="12.723031886448362"><ele>976.0</ele><time>2026-03-28T13:26:05Z</time></trkpt><trkpt lat="42.365772456528475" lon="12.722952612868005"><ele>976.0</ele><time>2026-03-28T13:26:07Z</time></trkpt><trkpt lat="42.365707321873266" lon="12.722867484924706"><ele>976.0</ele><time>2026-03-28T13:26:10Z</time></trkpt><trkpt lat="42.36566061637899" lon="12.722804539629871"><ele>975.9999999999999</ele><time>2026-03-28T13:26:13Z</time></trkpt><trkpt lat="42.36558120137004" lon="12.722789102252825"><ele>976.0</ele><time>2026-03-28T13:26:15Z</time></trkpt><trkpt lat="42.36550090792054" lon="12.722767169104912"><ele>974.4</ele><time>2026-03-28T13:26:17Z</time></trkpt><trkpt lat="42.365431227752694" lon="12.72269926623263"><ele>972.8</ele><time>2026-03-28T13:26:19Z</time></trkpt><trkpt lat="42.36534925970107" lon="12.722499676897133"><ele>971.1999999999999</ele><time>2026-03-28T13:26:23Z</time></trkpt><trkpt lat="42.36533286801756" lon="12.722398630547548"><ele>969.5999999999999</ele><time>2026-03-28T13:26:25Z</time></trkpt><trkpt lat="42.3653709334896" lon="12.72228585198776"><ele>968.0</ele><time>2026-03-28T13:26:27Z</time></trkpt><trkpt lat="42.365395989821806" lon="12.72218371299157"><ele>968.0000000000001</ele><time>2026-03-28T13:26:29Z</time></trkpt><trkpt lat="42.36545613658474" lon="12.722100432716335"><ele>968.0</ele><time>2026-03-28T13:26:31Z</time></trkpt><trkpt lat="42.36549798403975" lon="12.722025161064924"><ele>968.0</ele><time>2026-03-28T13:26:33Z</time></trkpt><trkpt lat="42.365552283981124" lon="12.72192129091053"><ele>968.0</ele><time>2026-03-28T13:26:34.999Z</time></trkpt><trkpt lat="42.3656085080454" lon="12.721847952464664"><ele>968.0000000000001</ele><time>2026-03-28T13:26:36.999Z</time></trkpt><trkpt lat="42.36564978467613" lon="12.721750445477667"><ele>968.0</ele><time>2026-03-28T13:26:38.999Z</time></trkpt><trkpt lat="42.36568917124064" lon="12.721654789936869"><ele>973.0</ele><time>2026-03-28T13:26:40.999Z</time></trkpt><trkpt lat="42.365668137870195" lon="12.72144405448761"><ele>978.0</ele><time>2026-03-28T13:26:44.999Z</time></trkpt><trkpt lat="42.36563369798264" lon="12.72133547082193"><ele>983.0</ele><time>2026-03-28T13:26:46.999Z</time></trkpt><trkpt lat="42.36564902011339" lon="12.721223547967668"><ele>988.0</ele><time>2026-03-28T13:26:48.999Z</time></trkpt><trkpt lat="42.36566868407878" lon="12.721101252552026"><ele>993.0</ele><time>2026-03-28T13:26:51.999Z</time></trkpt><trkpt lat="42.36565843772906" lon="12.721014625498523"><ele>994.0</ele><time>2026-03-28T13:26:52.999Z</time></trkpt><trkpt lat="42.36569897912016" lon="12.720908990787965"><ele>995.0</ele><time>2026-03-28T13:26:55.999Z</time></trkpt><trkpt lat="42.365702990581184" lon="12.720822977481223"><ele>996.0</ele><time>2026-03-28T13:26:57.999Z</time></trkpt><trkpt lat="42.36570795314068" lon="12.720668748051304"><ele>997.0</ele><time>2026-03-28T13:26:59.999Z</time></trkpt><trkpt lat="42.36567184444042" lon="12.72057316100784"><ele>998.0</ele><time>2026-03-28T13:27:01.999Z</time></trkpt><trkpt lat="42.36554558730472" lon="12.720467777030365"><ele>994.0</ele><time>2026-03-28T13:27:05.999Z</time></trkpt><trkpt lat="42.365509339227685" lon="12.72038632993569"><ele>990.0</ele><time>2026-03-28T13:27:07.999Z</time></trkpt><trkpt lat="42.36543837079795" lon="12.720290086973632"><ele>986.0</ele><time>2026-03-28T13:27:10.999Z</time></trkpt><trkpt lat="42.365445666101095" lon="12.72019546110457"><ele>982.0</ele><time>2026-03-28T13:28:00Z</time></trkpt><trkpt lat="42.36543630639073" lon="12.719955734978905"><ele>978.0</ele><time>2026-03-28T13:28:04Z</time></trkpt><trkpt lat="42.36544054659903" lon="12.719855801955836"><ele>978.0</ele><time>2026-03-28T13:28:08Z</time></trkpt><trkpt lat="42.36541472867088" lon="12.719735107560862"><ele>978.0</ele><time>2026-03-28T13:28:15Z</time></trkpt><trkpt lat="42.36539937313731" lon="12.719651812145168"><ele>978.0</ele><time>2026-03-28T13:28:16Z</time></trkpt><trkpt lat="42.36533891861722" lon="12.71950559496473"><ele>978.0</ele><time>2026-03-28T13:28:18Z</time></trkpt><trkpt lat="42.36527799788749" lon="12.719365413917677"><ele>978.0</ele><time>2026-03-28T13:28:20Z</time></trkpt><trkpt lat="42.365245576694605" lon="12.719221355133284"><ele>980.75</ele><time>2026-03-28T13:28:22Z</time></trkpt><trkpt lat="42.36510156888408" lon="12.719003810270445"><ele>983.5</ele><time>2026-03-28T13:28:25Z</time></trkpt><trkpt lat="42.36507117452069" lon="12.718863893428209"><ele>986.25</ele><time>2026-03-28T13:28:27Z</time></trkpt><trkpt lat="42.365037661735194" lon="12.718728148722189"><ele>989.0</ele><time>2026-03-28T13:28:29Z</time></trkpt><trkpt lat="42.3650299326088" lon="12.718605375553297"><ele>990.6</ele><time>2026-03-28T13:28:31Z</time></trkpt><trkpt lat="42.36500523121291" lon="12.718495321697812"><ele>992.2</ele><time>2026-03-28T13:28:33Z</time></trkpt><trkpt lat="42.36501000483523" lon="12.71833849097868"><ele>993.8000000000001</ele><time>2026-03-28T13:28:35Z</time></trkpt><trkpt lat="42.36501898440984" lon="12.718191278967094"><ele>995.4000000000001</ele><time>2026-03-28T13:28:37Z</time></trkpt><trkpt lat="42.36494554439694" lon="12.718130142767663"><ele>997.0</ele><time>2026-03-28T13:28:38.999Z</time></trkpt><trkpt lat="42.36484792672595" lon="12.718084404528659"><ele>997.0</ele><time>2026-03-28T13:28:40.999Z</time></trkpt><trkpt lat="42.36481295193483" lon="12.717941419181122"><ele>997.0</ele><time>2026-03-28T13:28:42.999Z</time></trkpt><trkpt lat="42.36459570417723" lon="12.717861991299714"><ele>997.0</ele><time>2026-03-28T13:28:46.999Z</time></trkpt><trkpt lat="42.3645369023771" lon="12.717782071707862"><ele>997.0</ele><time>2026-03-28T13:28:48.999Z</time></trkpt><trkpt lat="42.36447644124399" lon="12.717708882837474"><ele>995.0</ele><time>2026-03-28T13:28:50.999Z</time></trkpt><trkpt lat="42.36442335360906" lon="12.717607861404874"><ele>993.0</ele><time>2026-03-28T13:28:52.999Z</time></trkpt><trkpt lat="42.364378731484386" lon="12.717534316481874"><ele>991.0</ele><time>2026-03-28T13:28:54.999Z</time></trkpt><trkpt lat="42.364350291627346" lon="12.717386738548678"><ele>989.0</ele><time>2026-03-28T13:28:56.999Z</time></trkpt><trkpt lat="42.36432847862733" lon="12.717248601207354"><ele>987.0</ele><time>2026-03-28T13:28:58.999Z</time></trkpt><trkpt lat="42.36429305314867" lon="12.71710409463279"><ele>987.0</ele><time>2026-03-28T13:29:00.999Z</time></trkpt><trkpt lat="42.36426476625665" lon="12.716979843876354"><ele>987.0</ele><time>2026-03-28T13:29:02.999Z</time></trkpt><trkpt lat="42.36423568271998" lon="12.716874735510057"><ele>987.0</ele><time>2026-03-28T13:29:04.999Z</time></trkpt><trkpt lat="42.36421063021854" lon="12.716654819612671"><ele>987.0</ele><time>2026-03-28T13:29:08.999Z</time></trkpt><trkpt lat="42.36422625986868" lon="12.716515648927656"><ele>987.0</ele><time>2026-03-28T13:29:10.999Z</time></trkpt><trkpt lat="42.36421045377486" lon="12.716394785017641"><ele>988.5</ele><time>2026-03-28T13:29:12.999Z</time></trkpt><trkpt lat="42.36418927766237" lon="12.716244073253701"><ele>990.0</ele><time>2026-03-28T13:29:14.999Z</time></trkpt><trkpt lat="42.364169661291186" lon="12.716150616350157"><ele>991.5</ele><time>2026-03-28T13:29:16.999Z</time></trkpt><trkpt lat="42.364174825244646" lon="12.71603743326948"><ele>993.0</ele><time>2026-03-28T13:29:19.999Z</time></trkpt><trkpt lat="42.36414573873938" lon="12.71593407807026"><ele>994.5</ele><time>2026-03-28T13:29:22.999Z</time></trkpt><trkpt lat="42.364119645508175" lon="12.715821029732782"><ele>996.0</ele><time>2026-03-28T13:29:24.999Z</time></trkpt><trkpt lat="42.36408401374921" lon="12.71568552710178"><ele>998.25</ele><time>2026-03-28T13:29:26.999Z</time></trkpt><trkpt lat="42.36408401726356" lon="12.715436018488404"><ele>1000.5</ele><time>2026-03-28T13:29:30.999Z</time></trkpt><trkpt lat="42.36406714715506" lon="12.715305056941217"><ele>1002.75</ele><time>2026-03-28T13:29:32.999Z</time></trkpt><trkpt lat="42.364062960977186" lon="12.715199081703794"><ele>1005.0</ele><time>2026-03-28T13:29:34.999Z</time></trkpt><trkpt lat="42.36408913414493" lon="12.715061807976209"><ele>1007.4</ele><time>2026-03-28T13:29:36.999Z</time></trkpt><trkpt lat="42.364065761427476" lon="12.714958859023985"><ele>1009.8</ele><time>2026-03-28T13:29:38.999Z</time></trkpt><trkpt lat="42.36404545822168" lon="12.714852723013236"><ele>1012.2</ele><time>2026-03-28T13:29:42.999Z</time></trkpt><trkpt lat="42.364044797899176" lon="12.714758551201898"><ele>1014.6</ele><time>2026-03-28T13:29:44.999Z</time></trkpt><trkpt lat="42.36403288520062" lon="12.71466964753497"><ele>1017.0</ele><time>2026-03-28T13:29:47.999Z</time></trkpt><trkpt lat="42.363941052447544" lon="12.714493126056697"><ele>1017.0</ele><time>2026-03-28T13:30:01Z</time></trkpt><trkpt lat="42.36388091625124" lon="12.714414378882282"><ele>1017.0</ele><time>2026-03-28T13:30:03Z</time></trkpt><trkpt lat="42.36388775518392" lon="12.714297480961596"><ele>1017.0</ele><time>2026-03-28T13:30:07Z</time></trkpt><trkpt lat="42.36384348723838" lon="12.714182817233173"><ele>1017.0</ele><time>2026-03-28T13:30:09Z</time></trkpt><trkpt lat="42.363749829992514" lon="12.71397060387553"><ele>1017.0</ele><time>2026-03-28T13:30:13Z</time></trkpt><trkpt lat="42.36374008026101" lon="12.713868003917169"><ele>1017.4000000000001</ele><time>2026-03-28T13:30:15Z</time></trkpt><trkpt lat="42.363741540210604" lon="12.713751486674246"><ele>1017.8000000000001</ele><time>2026-03-28T13:30:17Z</time></trkpt><trkpt lat="42.36377250182065" lon="12.713641212684182"><ele>1018.2</ele><time>2026-03-28T13:30:20Z</time></trkpt><trkpt lat="42.363835162644506" lon="12.713555518475564"><ele>1018.6</ele><time>2026-03-28T13:30:22Z</time></trkpt><trkpt lat="42.363888713735946" lon="12.713454922974822"><ele>1019.0</ele><time>2026-03-28T13:30:24Z</time></trkpt><trkpt lat="42.3639638122237" lon="12.713334340455082"><ele>1019.0</ele><time>2026-03-28T13:30:26Z</time></trkpt><trkpt lat="42.364030681376455" lon="12.713196712252458"><ele>1019.0</ele><time>2026-03-28T13:30:28Z</time></trkpt><trkpt lat="42.36409291758892" lon="12.713070115483186"><ele>1019.0</ele><time>2026-03-28T13:30:30Z</time></trkpt><trkpt lat="42.364223847147166" lon="12.712822975598288"><ele>1020.4000000000001</ele><time>2026-03-28T13:30:34Z</time></trkpt><trkpt lat="42.364285515767264" lon="12.712703187579226"><ele>1021.8000000000001</ele><time>2026-03-28T13:30:36Z</time></trkpt><trkpt lat="42.36435926940053" lon="12.712591362337296"><ele>1023.1999999999999</ele><time>2026-03-28T13:30:38Z</time></trkpt><trkpt lat="42.364437901155355" lon="12.71251615079632"><ele>1024.6</ele><time>2026-03-28T13:30:40Z</time></trkpt><trkpt lat="42.36453792402265" lon="12.712445001115874"><ele>1026.0</ele><time>2026-03-28T13:30:42Z</time></trkpt><trkpt lat="42.3646112381483" lon="12.71239275859914"><ele>1026.0</ele><time>2026-03-28T13:30:43.999Z</time></trkpt><trkpt lat="42.364666872317045" lon="12.712341312112201"><ele>1026.0</ele><time>2026-03-28T13:30:45.999Z</time></trkpt><trkpt lat="42.36473201809245" lon="12.71227716495604"><ele>1026.0</ele><time>2026-03-28T13:30:47.999Z</time></trkpt><trkpt lat="42.36478605977757" lon="12.712217799359147"><ele>1026.0</ele><time>2026-03-28T13:30:49.999Z</time></trkpt><trkpt lat="42.36483970194111" lon="12.71213396013321"><ele>1026.0</ele><time>2026-03-28T13:30:51.999Z</time></trkpt><trkpt lat="42.36493978652578" lon="12.711964894422376"><ele>1033.0</ele><time>2026-03-28T13:30:55.999Z</time></trkpt><trkpt lat="42.364989450149714" lon="12.711899683989657"><ele>1026.0</ele><time>2026-03-28T13:30:58.999Z</time></trkpt><trkpt lat="42.365067505931535" lon="12.711935946002978"><ele>1033.0</ele><time>2026-03-28T13:31:07.999Z</time></trkpt><trkpt lat="42.365087052629235" lon="12.71203200831674"><ele>1033.0</ele><time>2026-03-28T13:31:10.999Z</time></trkpt><trkpt lat="42.36503722188825" lon="12.712136130915345"><ele>1033.0</ele><time>2026-03-28T13:31:21.999Z</time></trkpt></trkseg><trkseg><trkpt lat="42.36495948877609" lon="12.7123336976341"><ele>1033.0000000000002</ele><time>2026-03-28T13:47:54.999Z</time></trkpt><trkpt lat="42.364943673422566" lon="12.712433915144151"><ele>1033.0</ele><time>2026-03-28T13:48:02.999Z</time></trkpt><trkpt lat="42.36492616805514" lon="12.712541642975188"><ele>1033.0</ele><time>2026-03-28T13:48:04.999Z</time></trkpt><trkpt lat="42.36491724268135" lon="12.712634090634173"><ele>1033.0</ele><time>2026-03-28T13:48:07.999Z</time></trkpt><trkpt lat="42.36487935209287" lon="12.71271334616568"><ele>1033.0</ele><time>2026-03-28T13:48:16.999Z</time></trkpt><trkpt lat="42.36488771005842" lon="12.712803838819774"><ele>1033.0000000000002</ele><time>2026-03-28T13:48:22.999Z</time></trkpt><trkpt lat="42.36487347394121" lon="12.712898654584336"><ele>1033.0</ele><time>2026-03-28T13:48:28.999Z</time></trkpt><trkpt lat="42.3648623031968" lon="12.713008851238586"><ele>1033.6666666666665</ele><time>2026-03-28T13:48:31.999Z</time></trkpt><trkpt lat="42.364851984229844" lon="12.713119644114117"><ele>1034.3333333333333</ele><time>2026-03-28T13:48:34.999Z</time></trkpt><trkpt lat="42.36484221323145" lon="12.713227424991144"><ele>1035.0</ele><time>2026-03-28T13:48:36.999Z</time></trkpt><trkpt lat="42.3648487487478" lon="12.713323691180028"><ele>1035.6666666666667</ele><time>2026-03-28T13:48:38.999Z</time></trkpt><trkpt lat="42.36483657761502" lon="12.713436216959007"><ele>1036.3333333333335</ele><time>2026-03-28T13:48:40.999Z</time></trkpt><trkpt lat="42.364821723101976" lon="12.713569414830417"><ele>1037.0</ele><time>2026-03-28T13:48:43.999Z</time></trkpt><trkpt lat="42.364805616687" lon="12.71368999173669"><ele>1038.3333333333335</ele><time>2026-03-28T13:48:45.999Z</time></trkpt><trkpt lat="42.36478988231654" lon="12.713832659506945"><ele>1039.6666666666667</ele><time>2026-03-28T13:48:47.999Z</time></trkpt><trkpt lat="42.36478527121283" lon="12.71393157201057"><ele>1041.0</ele><time>2026-03-28T13:48:49.999Z</time></trkpt><trkpt lat="42.36474569469953" lon="12.714015972675487"><ele>1042.3333333333333</ele><time>2026-03-28T13:48:51.999Z</time></trkpt><trkpt lat="42.3647733969755" lon="12.71409976435265"><ele>1043.6666666666665</ele><time>2026-03-28T13:48:53.999Z</time></trkpt><trkpt lat="42.364769584943716" lon="12.714191213195921"><ele>1045.0</ele><time>2026-03-28T13:48:56Z</time></trkpt><trkpt lat="42.36478080253066" lon="12.71429464933827"><ele>1045.0</ele><time>2026-03-28T13:48:58Z</time></trkpt><trkpt lat="42.36479871628139" lon="12.714381666054312"><ele>1045.0</ele><time>2026-03-28T13:49:00Z</time></trkpt><trkpt lat="42.36481128104819" lon="12.7144709381442"><ele>1045.0</ele><time>2026-03-28T13:49:02Z</time></trkpt><trkpt lat="42.36479851741098" lon="12.714578685101284"><ele>1045.0</ele><time>2026-03-28T13:49:04Z</time></trkpt><trkpt lat="42.36480041953059" lon="12.714666885117346"><ele>1045.0</ele><time>2026-03-28T13:49:06Z</time></trkpt><trkpt lat="42.36482233941866" lon="12.71475514464355"><ele>1045.0</ele><time>2026-03-28T13:49:08Z</time></trkpt><trkpt lat="42.36486793594558" lon="12.71488652102116"><ele>1045.1666666666665</ele><time>2026-03-28T13:49:12Z</time></trkpt><trkpt lat="42.36487991190228" lon="12.714998397891046"><ele>1045.3333333333333</ele><time>2026-03-28T13:49:14Z</time></trkpt><trkpt lat="42.364923496886895" lon="12.715100393701562"><ele>1045.5</ele><time>2026-03-28T13:49:17Z</time></trkpt><trkpt lat="42.364950714286636" lon="12.71519033905645"><ele>1045.6666666666667</ele><time>2026-03-28T13:49:19Z</time></trkpt><trkpt lat="42.364987520637506" lon="12.715280801326978"><ele>1045.8333333333335</ele><time>2026-03-28T13:49:22Z</time></trkpt><trkpt lat="42.36501090040457" lon="12.71536065425239"><ele>1046.0</ele><time>2026-03-28T13:49:25Z</time></trkpt><trkpt lat="42.36502381655523" lon="12.715452155379404"><ele>1046.0</ele><time>2026-03-28T13:49:35Z</time></trkpt><trkpt lat="42.365060185374816" lon="12.715548909901402"><ele>1046.0</ele><time>2026-03-28T13:49:38Z</time></trkpt><trkpt lat="42.365049495486794" lon="12.715645555625398"><ele>1046.0</ele><time>2026-03-28T13:51:33.001Z</time></trkpt><trkpt lat="42.36508142288152" lon="12.715740202479793"><ele>1046.0</ele><time>2026-03-28T13:51:42.001Z</time></trkpt><trkpt lat="42.36512303029738" lon="12.715849331960554"><ele>1046.0</ele><time>2026-03-28T13:51:44.001Z</time></trkpt><trkpt lat="42.36515375294084" lon="12.715962211161212"><ele>1046.0</ele><time>2026-03-28T13:51:46.001Z</time></trkpt><trkpt lat="42.365186392642585" lon="12.716070371718214"><ele>1044.0</ele><time>2026-03-28T13:51:48.001Z</time></trkpt><trkpt lat="42.36522390417469" lon="12.7161713133973"><ele>1042.0</ele><time>2026-03-28T13:51:50.001Z</time></trkpt><trkpt lat="42.36526992177099" lon="12.716293935248764"><ele>1040.0</ele><time>2026-03-28T13:51:53.001Z</time></trkpt><trkpt lat="42.3653068976461" lon="12.716375413080195"><ele>1038.0</ele><time>2026-03-28T13:51:55.001Z</time></trkpt><trkpt lat="42.36534728827745" lon="12.716441087176033"><ele>1036.0</ele><time>2026-03-28T13:51:57.001Z</time></trkpt><trkpt lat="42.36538038998189" lon="12.71653573281555"><ele>1034.0</ele><time>2026-03-28T13:51:59.001Z</time></trkpt><trkpt lat="42.36544394801504" lon="12.716637735504708"><ele>1034.0</ele><time>2026-03-28T13:52:02.001Z</time></trkpt><trkpt lat="42.36550374920878" lon="12.716723841589433"><ele>1034.0</ele><time>2026-03-28T13:52:05.001Z</time></trkpt><trkpt lat="42.365568220441645" lon="12.71681417907684"><ele>1034.0</ele><time>2026-03-28T13:52:08.001Z</time></trkpt><trkpt lat="42.3656194395867" lon="12.716868094252565"><ele>1034.0</ele><time>2026-03-28T13:52:10.001Z</time></trkpt><trkpt lat="42.365663693633145" lon="12.716934917337214"><ele>1034.0</ele><time>2026-03-28T13:52:12.001Z</time></trkpt><trkpt lat="42.36571830965526" lon="12.716986098433496"><ele>1034.0</ele><time>2026-03-28T13:52:14.001Z</time></trkpt><trkpt lat="42.365790829172504" lon="12.717057336587555"><ele>1036.8333333333335</ele><time>2026-03-28T13:52:17.001Z</time></trkpt><trkpt lat="42.36586619196115" lon="12.717088382733115"><ele>1039.6666666666667</ele><time>2026-03-28T13:52:21.001Z</time></trkpt><trkpt lat="42.365922201951406" lon="12.71713629555402"><ele>1042.5</ele><time>2026-03-28T13:52:24.001Z</time></trkpt><trkpt lat="42.36598713651995" lon="12.717224243470476"><ele>1045.3333333333333</ele><time>2026-03-28T13:52:27.001Z</time></trkpt><trkpt lat="42.36603273140086" lon="12.717289279317738"><ele>1048.1666666666665</ele><time>2026-03-28T13:52:29.001Z</time></trkpt><trkpt lat="42.36608198042296" lon="12.717362656089092"><ele>1051.0</ele><time>2026-03-28T13:52:31.001Z</time></trkpt><trkpt lat="42.36611019204792" lon="12.717465274497528"><ele>1051.0</ele><time>2026-03-28T13:52:33.001Z</time></trkpt><trkpt lat="42.366139054634814" lon="12.717546790885297"><ele>1051.0</ele><time>2026-03-28T13:52:35.001Z</time></trkpt><trkpt lat="42.366160716077914" lon="12.717638523922805"><ele>1051.0</ele><time>2026-03-28T13:52:37.001Z</time></trkpt><trkpt lat="42.36619195057053" lon="12.717727602978902"><ele>1051.0</ele><time>2026-03-28T13:52:39.001Z</time></trkpt><trkpt lat="42.36624300560878" lon="12.717811446240784"><ele>1051.0</ele><time>2026-03-28T13:52:42.001Z</time></trkpt><trkpt lat="42.36625750834865" lon="12.717934257280415"><ele>1051.0</ele><time>2026-03-28T13:52:44.001Z</time></trkpt><trkpt lat="42.36629076128753" lon="12.718023458061738"><ele>1048.857142857143</ele><time>2026-03-28T13:52:46.001Z</time></trkpt><trkpt lat="42.3663294705944" lon="12.718122957762109"><ele>1046.7142857142858</ele><time>2026-03-28T13:52:48.001Z</time></trkpt><trkpt lat="42.36634619475003" lon="12.718211699791901"><ele>1044.5714285714284</ele><time>2026-03-28T13:52:50.001Z</time></trkpt><trkpt lat="42.366378611056355" lon="12.71828881631843"><ele>1042.4285714285716</ele><time>2026-03-28T13:52:52.001Z</time></trkpt><trkpt lat="42.366396353511405" lon="12.71837360005907"><ele>1040.2857142857142</ele><time>2026-03-28T13:52:54.001Z</time></trkpt><trkpt lat="42.36642451018383" lon="12.71846687840568"><ele>1038.142857142857</ele><time>2026-03-28T13:52:56.001Z</time></trkpt><trkpt lat="42.36646084395022" lon="12.71857219053095"><ele>1036.0</ele><time>2026-03-28T13:52:58.001Z</time></trkpt><trkpt lat="42.366493533195246" lon="12.718702048765644"><ele>1042.3999999999999</ele><time>2026-03-28T13:53:01.002Z</time></trkpt><trkpt lat="42.36653753398785" lon="12.718828478151513"><ele>1048.8</ele><time>2026-03-28T13:53:04.002Z</time></trkpt><trkpt lat="42.36659486743364" lon="12.718920486264883"><ele>1055.1999999999998</ele><time>2026-03-28T13:53:06.002Z</time></trkpt><trkpt lat="42.36663005642782" lon="12.719012123395782"><ele>1061.6</ele><time>2026-03-28T13:53:08.002Z</time></trkpt><trkpt lat="42.36670975157778" lon="12.719109175371534"><ele>1068.0</ele><time>2026-03-28T13:53:10.002Z</time></trkpt><trkpt lat="42.36675765706979" lon="12.719211109484652"><ele>1068.0</ele><time>2026-03-28T13:53:12.002Z</time></trkpt><trkpt lat="42.36680497500265" lon="12.719297398887145"><ele>1068.0</ele><time>2026-03-28T13:53:15.001Z</time></trkpt><trkpt lat="42.36684830405517" lon="12.719427246963201"><ele>1068.0</ele><time>2026-03-28T13:53:17.001Z</time></trkpt><trkpt lat="42.36691105069036" lon="12.719531849659434"><ele>1068.0</ele><time>2026-03-28T13:53:19.001Z</time></trkpt><trkpt lat="42.366944310543296" lon="12.719626781018164"><ele>1068.0</ele><time>2026-03-28T13:53:21.001Z</time></trkpt><trkpt lat="42.366975325941404" lon="12.719715174193606"><ele>1068.0</ele><time>2026-03-28T13:53:23.001Z</time></trkpt><trkpt lat="42.36703086401825" lon="12.719806706001275"><ele>1069.8333333333333</ele><time>2026-03-28T13:53:26.001Z</time></trkpt><trkpt lat="42.36706998586181" lon="12.719879009694193"><ele>1071.6666666666667</ele><time>2026-03-28T13:53:28.001Z</time></trkpt><trkpt lat="42.367101887683205" lon="12.7199669642134"><ele>1073.5</ele><time>2026-03-28T13:53:31.001Z</time></trkpt><trkpt lat="42.367159789225354" lon="12.720066966441385"><ele>1075.3333333333335</ele><time>2026-03-28T13:53:33.001Z</time></trkpt><trkpt lat="42.36719663412116" lon="12.720167982180248"><ele>1077.1666666666667</ele><time>2026-03-28T13:53:36.001Z</time></trkpt><trkpt lat="42.367233541194764" lon="12.720270458759119"><ele>1079.0</ele><time>2026-03-28T13:53:39.001Z</time></trkpt><trkpt lat="42.3672841903275" lon="12.72036783969631"><ele>1079.0</ele><time>2026-03-28T13:53:42.001Z</time></trkpt><trkpt lat="42.367324530624145" lon="12.72044610952563"><ele>1079.0</ele><time>2026-03-28T13:53:44.001Z</time></trkpt><trkpt lat="42.36736416233978" lon="12.720518846876375"><ele>1079.0</ele><time>2026-03-28T13:53:46.001Z</time></trkpt><trkpt lat="42.36745320700363" lon="12.72059802757406"><ele>1079.0</ele><time>2026-03-28T13:53:50.001Z</time></trkpt><trkpt lat="42.36749209508515" lon="12.72070497649943"><ele>1079.0</ele><time>2026-03-28T13:53:52.001Z</time></trkpt><trkpt lat="42.36755707386326" lon="12.720784832898106"><ele>1079.0</ele><time>2026-03-28T13:53:54.001Z</time></trkpt><trkpt lat="42.36759996244869" lon="12.720867933852384"><ele>1079.0</ele><time>2026-03-28T13:53:56.001Z</time></trkpt><trkpt lat="42.36764054639875" lon="12.72093789312853"><ele>1079.0</ele><time>2026-03-28T13:53:58.001Z</time></trkpt><trkpt lat="42.367718269504756" lon="12.721020541271292"><ele>1079.0</ele><time>2026-03-28T13:54:01.001Z</time></trkpt><trkpt lat="42.36777145081871" lon="12.721081077935299"><ele>1079.0</ele><time>2026-03-28T13:54:03.001Z</time></trkpt><trkpt lat="42.36782267386972" lon="12.721140894351546"><ele>1079.0</ele><time>2026-03-28T13:54:05.001Z</time></trkpt><trkpt lat="42.36787911329751" lon="12.721214412813943"><ele>1079.0</ele><time>2026-03-28T13:54:08.001Z</time></trkpt><trkpt lat="42.36794522581448" lon="12.7212870256879"><ele>1080.5</ele><time>2026-03-28T13:54:22.001Z</time></trkpt><trkpt lat="42.36799080332892" lon="12.721356256039787"><ele>1082.0</ele><time>2026-03-28T13:54:24.001Z</time></trkpt><trkpt lat="42.36805342058954" lon="12.721434107923939"><ele>1083.5</ele><time>2026-03-28T13:54:26.001Z</time></trkpt><trkpt lat="42.36812530260109" lon="12.721543550083458"><ele>1085.0</ele><time>2026-03-28T13:54:28.001Z</time></trkpt><trkpt lat="42.36819450433025" lon="12.721625641993473"><ele>1086.5</ele><time>2026-03-28T13:54:30.001Z</time></trkpt><trkpt lat="42.36824515440789" lon="12.72169688569684"><ele>1088.0</ele><time>2026-03-28T13:54:32.001Z</time></trkpt><trkpt lat="42.368332438138374" lon="12.721745264186286"><ele>1088.0</ele><time>2026-03-28T13:54:34Z</time></trkpt><trkpt lat="42.368417065417354" lon="12.721805384055253"><ele>1088.0</ele><time>2026-03-28T13:54:37Z</time></trkpt><trkpt lat="42.36847990822871" lon="12.721832528727905"><ele>1088.0</ele><time>2026-03-28T13:54:39Z</time></trkpt><trkpt lat="42.36855634175608" lon="12.721829188816201"><ele>1088.0</ele><time>2026-03-28T13:54:41Z</time></trkpt><trkpt lat="42.36863309610432" lon="12.72183536360178"><ele>1088.0</ele><time>2026-03-28T13:54:43Z</time></trkpt><trkpt lat="42.368697592907104" lon="12.72187054629677"><ele>1088.0</ele><time>2026-03-28T13:54:45Z</time></trkpt><trkpt lat="42.36878664748191" lon="12.721882685860328"><ele>1087.6666666666667</ele><time>2026-03-28T13:54:47Z</time></trkpt><trkpt lat="42.36886432037335" lon="12.721920132107282"><ele>1087.3333333333335</ele><time>2026-03-28T13:54:49Z</time></trkpt><trkpt lat="42.36893983204261" lon="12.721995429821193"><ele>1087.0</ele><time>2026-03-28T13:54:51Z</time></trkpt><trkpt lat="42.36900393431798" lon="12.722030112031806"><ele>1086.6666666666667</ele><time>2026-03-28T13:54:53Z</time></trkpt><trkpt lat="42.3690820340487" lon="12.722055536438532"><ele>1086.3333333333333</ele><time>2026-03-28T13:54:55Z</time></trkpt><trkpt lat="42.36915026846599" lon="12.722048637691858"><ele>1086.0</ele><time>2026-03-28T13:54:57Z</time></trkpt><trkpt lat="42.36924972008585" lon="12.722067166163685"><ele>1086.0</ele><time>2026-03-28T13:55:00Z</time></trkpt><trkpt lat="42.369310881494606" lon="12.7221580831009"><ele>1086.0</ele><time>2026-03-28T13:55:04Z</time></trkpt><trkpt lat="42.36937642456943" lon="12.722218504655986"><ele>1086.0</ele><time>2026-03-28T13:55:08.001Z</time></trkpt><trkpt lat="42.36942802506323" lon="12.72228301345714"><ele>1086.0</ele><time>2026-03-28T13:55:11.001Z</time></trkpt><trkpt lat="42.369479737166586" lon="12.722345148541576"><ele>1086.0</ele><time>2026-03-28T13:55:14.001Z</time></trkpt><trkpt lat="42.3695489217166" lon="12.72235639467715"><ele>1086.0</ele><time>2026-03-28T13:55:19.001Z</time></trkpt><trkpt lat="42.36959629728823" lon="12.722295787237364"><ele>1086.0</ele><time>2026-03-28T13:55:23.001Z</time></trkpt><trkpt lat="42.36966815979568" lon="12.7222887811146"><ele>1086.5</ele><time>2026-03-28T13:55:26.001Z</time></trkpt><trkpt lat="42.369738182460345" lon="12.722258691694833"><ele>1087.0</ele><time>2026-03-28T13:55:29.001Z</time></trkpt><trkpt lat="42.36980436193726" lon="12.72224731715024"><ele>1087.5</ele><time>2026-03-28T13:55:31.001Z</time></trkpt><trkpt lat="42.36990070503226" lon="12.722198155154734"><ele>1088.0</ele><time>2026-03-28T13:55:35.001Z</time></trkpt><trkpt lat="42.369965764667185" lon="12.72219525050585"><ele>1088.5</ele><time>2026-03-28T13:55:36.001Z</time></trkpt><trkpt lat="42.370031069328334" lon="12.72222055538933"><ele>1089.0</ele><time>2026-03-28T13:55:37.001Z</time></trkpt><trkpt lat="42.370116432905654" lon="12.722214025127988"><ele>1089.0000000000002</ele><time>2026-03-28T13:55:41.001Z</time></trkpt><trkpt lat="42.37018513798812" lon="12.72218521770092"><ele>1089.0</ele><time>2026-03-28T13:55:43Z</time></trkpt><trkpt lat="42.37026002756156" lon="12.722180803529275"><ele>1089.0</ele><time>2026-03-28T13:55:46Z</time></trkpt><trkpt lat="42.37033573780908" lon="12.722188907127114"><ele>1089.0</ele><time>2026-03-28T13:55:48Z</time></trkpt><trkpt lat="42.37040914498614" lon="12.722180479772621"><ele>1089.0</ele><time>2026-03-28T13:55:55Z</time></trkpt><trkpt lat="42.37047965681132" lon="12.722195851159166"><ele>1089.0000000000002</ele><time>2026-03-28T13:55:58Z</time></trkpt><trkpt lat="42.37054936144229" lon="12.722211040144941"><ele>1089.0</ele><time>2026-03-28T13:56:01Z</time></trkpt><trkpt lat="42.370614093538876" lon="12.722234388542356"><ele>1087.3333333333333</ele><time>2026-03-28T13:56:18Z</time></trkpt><trkpt lat="42.37069180747116" lon="12.722241445910194"><ele>1085.6666666666667</ele><time>2026-03-28T13:56:21Z</time></trkpt><trkpt lat="42.37079580605243" lon="12.722230947857764"><ele>1084.0</ele><time>2026-03-28T13:56:24Z</time></trkpt><trkpt lat="42.37087467937719" lon="12.722248552332756"><ele>1082.3333333333335</ele><time>2026-03-28T13:56:26Z</time></trkpt><trkpt lat="42.37095932017988" lon="12.722269785813497"><ele>1080.6666666666667</ele><time>2026-03-28T13:56:28Z</time></trkpt><trkpt lat="42.37105576905557" lon="12.722283770720864"><ele>1079.0</ele><time>2026-03-28T13:56:30Z</time></trkpt><trkpt lat="42.37116892830714" lon="12.722277424817769"><ele>1079.0</ele><time>2026-03-28T13:56:32Z</time></trkpt><trkpt lat="42.371261853631886" lon="12.722302132386213"><ele>1079.0</ele><time>2026-03-28T13:56:34Z</time></trkpt><trkpt lat="42.371348006393966" lon="12.722297170718889"><ele>1079.0</ele><time>2026-03-28T13:56:36Z</time></trkpt><trkpt lat="42.371431837067746" lon="12.722330624044854"><ele>1079.0</ele><time>2026-03-28T13:56:38Z</time></trkpt><trkpt lat="42.371523342145736" lon="12.722351140241367"><ele>1079.0</ele><time>2026-03-28T13:56:40Z</time></trkpt><trkpt lat="42.37162141712106" lon="12.722342717804517"><ele>1078.0</ele><time>2026-03-28T13:56:42Z</time></trkpt><trkpt lat="42.371700517734155" lon="12.72231009695616"><ele>1077.0</ele><time>2026-03-28T13:56:44Z</time></trkpt><trkpt lat="42.371788254204056" lon="12.72229656260336"><ele>1076.0</ele><time>2026-03-28T13:56:46Z</time></trkpt><trkpt lat="42.37185626277569" lon="12.7222219673187"><ele>1075.0</ele><time>2026-03-28T13:56:49Z</time></trkpt><trkpt lat="42.37191462606154" lon="12.722176719084352"><ele>1074.0</ele><time>2026-03-28T13:56:52Z</time></trkpt><trkpt lat="42.37197325736128" lon="12.722136662695727"><ele>1073.0</ele><time>2026-03-28T13:56:54Z</time></trkpt><trkpt lat="42.372055327442894" lon="12.722111330240493"><ele>1073.0</ele><time>2026-03-28T13:56:57Z</time></trkpt><trkpt lat="42.372115565147254" lon="12.722063642428653"><ele>1073.0</ele><time>2026-03-28T13:56:59Z</time></trkpt><trkpt lat="42.372182401132065" lon="12.722049039614136"><ele>1073.0</ele><time>2026-03-28T13:57:02Z</time></trkpt><trkpt lat="42.372263773157485" lon="12.722018183090562"><ele>1073.0</ele><time>2026-03-28T13:57:04Z</time></trkpt><trkpt lat="42.372350993082" lon="12.721965390650364"><ele>1073.0</ele><time>2026-03-28T13:57:08Z</time></trkpt><trkpt lat="42.372415597128935" lon="12.721949083156836"><ele>1073.0</ele><time>2026-03-28T13:57:10Z</time></trkpt><trkpt lat="42.372492970463014" lon="12.721919132131145"><ele>1074.3333333333335</ele><time>2026-03-28T13:57:13.001Z</time></trkpt><trkpt lat="42.37259611206024" lon="12.721860278328094"><ele>1075.6666666666667</ele><time>2026-03-28T13:57:16.001Z</time></trkpt><trkpt lat="42.37265918041744" lon="12.72182629513397"><ele>1077.0</ele><time>2026-03-28T13:57:18.001Z</time></trkpt><trkpt lat="42.37272746312306" lon="12.721806508851808"><ele>1078.3333333333333</ele><time>2026-03-28T13:57:20.001Z</time></trkpt><trkpt lat="42.37278407798387" lon="12.721764735336105"><ele>1079.6666666666665</ele><time>2026-03-28T13:57:22.001Z</time></trkpt><trkpt lat="42.37288443162276" lon="12.72171231309151"><ele>1081.0</ele><time>2026-03-28T13:57:26.001Z</time></trkpt><trkpt lat="42.37296561492475" lon="12.721684666671456"><ele>1078.0</ele><time>2026-03-28T13:57:29.001Z</time></trkpt><trkpt lat="42.373031007434086" lon="12.72159204464322"><ele>1075.0</ele><time>2026-03-28T13:57:32.001Z</time></trkpt><trkpt lat="42.373106622984245" lon="12.721609382676343"><ele>1072.0</ele><time>2026-03-28T13:57:35.001Z</time></trkpt><trkpt lat="42.373190788729566" lon="12.721598491772534"><ele>1069.0</ele><time>2026-03-28T13:57:37.001Z</time></trkpt><trkpt lat="42.37327839112686" lon="12.721592860962067"><ele>1066.0</ele><time>2026-03-28T13:57:39.001Z</time></trkpt><trkpt lat="42.37336044241234" lon="12.721586199169838"><ele>1063.0</ele><time>2026-03-28T13:57:41.001Z</time></trkpt><trkpt lat="42.37344158134245" lon="12.721550477975114"><ele>1063.0</ele><time>2026-03-28T13:57:43Z</time></trkpt><trkpt lat="42.37354757843984" lon="12.721560442698827"><ele>1063.0</ele><time>2026-03-28T13:57:45Z</time></trkpt><trkpt lat="42.37361901372394" lon="12.72155096594668"><ele>1063.0</ele><time>2026-03-28T13:57:47Z</time></trkpt><trkpt lat="42.37369551562996" lon="12.721575617779179"><ele>1063.0</ele><time>2026-03-28T13:57:50Z</time></trkpt><trkpt lat="42.37377372812252" lon="12.72158900357121"><ele>1063.0</ele><time>2026-03-28T13:57:52Z</time></trkpt><trkpt lat="42.373850437130066" lon="12.72158248883323"><ele>1063.0</ele><time>2026-03-28T13:57:54Z</time></trkpt><trkpt lat="42.37395723003252" lon="12.72160380864444"><ele>1062.0</ele><time>2026-03-28T13:57:56Z</time></trkpt><trkpt lat="42.37402700885945" lon="12.72161079097986"><ele>1061.0</ele><time>2026-03-28T13:57:58Z</time></trkpt><trkpt lat="42.374113264702956" lon="12.721640890057483"><ele>1060.0</ele><time>2026-03-28T13:58:00Z</time></trkpt><trkpt lat="42.3741757693627" lon="12.721659693857966"><ele>1059.0</ele><time>2026-03-28T13:58:02Z</time></trkpt><trkpt lat="42.37423438325802" lon="12.721695975994031"><ele>1058.0</ele><time>2026-03-28T13:58:04Z</time></trkpt><trkpt lat="42.37430628300073" lon="12.721694128668112"><ele>1057.0</ele><time>2026-03-28T13:58:18Z</time></trkpt><trkpt lat="42.37438742372007" lon="12.72171819942494"><ele>1056.0</ele><time>2026-03-28T13:58:20Z</time></trkpt><trkpt lat="42.37447008259445" lon="12.721747456279122"><ele>1056.0</ele><time>2026-03-28T13:58:22Z</time></trkpt><trkpt lat="42.3745407698368" lon="12.721772909130078"><ele>1056.0</ele><time>2026-03-28T13:58:24Z</time></trkpt><trkpt lat="42.37461828082333" lon="12.721798262649928"><ele>1056.0</ele><time>2026-03-28T13:58:27Z</time></trkpt><trkpt lat="42.37468613861095" lon="12.721824871036377"><ele>1056.0</ele><time>2026-03-28T13:58:29Z</time></trkpt><trkpt lat="42.374758609575224" lon="12.721832537426662"><ele>1056.0</ele><time>2026-03-28T13:58:31Z</time></trkpt><trkpt lat="42.37482807054998" lon="12.72186122876161"><ele>1056.0</ele><time>2026-03-28T13:58:33Z</time></trkpt><trkpt lat="42.374915525153575" lon="12.721877118674438"><ele>1056.5</ele><time>2026-03-28T13:58:35Z</time></trkpt><trkpt lat="42.37500147408578" lon="12.721907626114794"><ele>1057.0</ele><time>2026-03-28T13:58:37Z</time></trkpt><trkpt lat="42.37508335502333" lon="12.721921479054238"><ele>1057.5</ele><time>2026-03-28T13:58:39Z</time></trkpt><trkpt lat="42.37516592138436" lon="12.72190911110082"><ele>1058.0</ele><time>2026-03-28T13:58:41Z</time></trkpt><trkpt lat="42.37524765820638" lon="12.721914462818694"><ele>1058.5</ele><time>2026-03-28T13:58:43Z</time></trkpt><trkpt lat="42.37535454351936" lon="12.721907405146629"><ele>1059.0</ele><time>2026-03-28T13:58:45Z</time></trkpt><trkpt lat="42.37543091346558" lon="12.721892691494826"><ele>1059.0</ele><time>2026-03-28T13:58:47Z</time></trkpt><trkpt lat="42.3755126457622" lon="12.72188644186623"><ele>1059.0</ele><time>2026-03-28T13:58:49Z</time></trkpt><trkpt lat="42.37559473896704" lon="12.721839340241267"><ele>1059.0</ele><time>2026-03-28T13:58:51Z</time></trkpt><trkpt lat="42.375663229849486" lon="12.721754567976005"><ele>1059.0</ele><time>2026-03-28T13:58:53Z</time></trkpt><trkpt lat="42.37573285097918" lon="12.721713007052525"><ele>1059.0</ele><time>2026-03-28T13:58:55Z</time></trkpt><trkpt lat="42.375804970506415" lon="12.721657645791668"><ele>1059.0</ele><time>2026-03-28T13:58:57Z</time></trkpt><trkpt lat="42.375870030031194" lon="12.721612849124668"><ele>1057.2</ele><time>2026-03-28T13:58:59Z</time></trkpt><trkpt lat="42.3759747896777" lon="12.721605207866785"><ele>1055.4</ele><time>2026-03-28T13:59:01Z</time></trkpt><trkpt lat="42.376069885750724" lon="12.721613595502"><ele>1053.6</ele><time>2026-03-28T13:59:03Z</time></trkpt><trkpt lat="42.37616659619154" lon="12.721628159154712"><ele>1051.8</ele><time>2026-03-28T13:59:06Z</time></trkpt><trkpt lat="42.37624846764115" lon="12.721665096262484"><ele>1050.0</ele><time>2026-03-28T13:59:08Z</time></trkpt><trkpt lat="42.37632774447978" lon="12.721684542886512"><ele>1049.5</ele><time>2026-03-28T13:59:10Z</time></trkpt><trkpt lat="42.376441096868334" lon="12.72171361326378"><ele>1049.0</ele><time>2026-03-28T13:59:12Z</time></trkpt><trkpt lat="42.37650541596473" lon="12.721735421856335"><ele>1048.5</ele><time>2026-03-28T13:59:13Z</time></trkpt><trkpt lat="42.376618223193084" lon="12.72176739018198"><ele>1048.0</ele><time>2026-03-28T13:59:15Z</time></trkpt><trkpt lat="42.37669280069474" lon="12.721813063375425"><ele>1047.5</ele><time>2026-03-28T13:59:15.999Z</time></trkpt><trkpt lat="42.37675313213941" lon="12.7218424414272"><ele>1047.0</ele><time>2026-03-28T13:59:17.001Z</time></trkpt><trkpt lat="42.376816710135174" lon="12.721886364121994"><ele>1043.3333333333333</ele><time>2026-03-28T13:59:18.001Z</time></trkpt><trkpt lat="42.376917893994815" lon="12.721933041919756"><ele>1039.6666666666667</ele><time>2026-03-28T13:59:20.001Z</time></trkpt><trkpt lat="42.37700268679991" lon="12.721972712432322"><ele>1036.0</ele><time>2026-03-28T13:59:23.001Z</time></trkpt><trkpt lat="42.377082031447046" lon="12.721978449612825"><ele>1032.3333333333335</ele><time>2026-03-28T13:59:26.001Z</time></trkpt><trkpt lat="42.37715557905914" lon="12.72200273938069"><ele>1028.6666666666667</ele><time>2026-03-28T13:59:28.001Z</time></trkpt><trkpt lat="42.377225824859096" lon="12.722085325114682"><ele>1025.0</ele><time>2026-03-28T13:59:30.001Z</time></trkpt><trkpt lat="42.377289454992095" lon="12.722155692801282"><ele>1025.0</ele><time>2026-03-28T13:59:32.001Z</time></trkpt><trkpt lat="42.37733713099539" lon="12.722212227820185"><ele>1025.0</ele><time>2026-03-28T13:59:34Z</time></trkpt><trkpt lat="42.37742268150396" lon="12.722246362977105"><ele>1025.0</ele><time>2026-03-28T13:59:50Z</time></trkpt><trkpt lat="42.37749974653185" lon="12.722245102249193"><ele>1025.0</ele><time>2026-03-28T13:59:52Z</time></trkpt><trkpt lat="42.37756657048717" lon="12.722253520623473"><ele>1025.0</ele><time>2026-03-28T13:59:54Z</time></trkpt><trkpt lat="42.37766438725619" lon="12.722285149076505"><ele>1025.0</ele><time>2026-03-28T13:59:56Z</time></trkpt><trkpt lat="42.37775404893323" lon="12.722301466471517"><ele>1025.0</ele><time>2026-03-28T13:59:58Z</time></trkpt><trkpt lat="42.377829143295855" lon="12.72230870377385"><ele>1025.0</ele><time>2026-03-28T14:00:00Z</time></trkpt><trkpt lat="42.377894883071725" lon="12.722301659867327"><ele>1025.0</ele><time>2026-03-28T14:00:02Z</time></trkpt><trkpt lat="42.3779901396279" lon="12.722288685658086"><ele>1025.0</ele><time>2026-03-28T14:00:04Z</time></trkpt><trkpt lat="42.37809066579142" lon="12.722304149784078"><ele>1025.0</ele><time>2026-03-28T14:00:06Z</time></trkpt><trkpt lat="42.378155603836355" lon="12.72229779963672"><ele>1025.0</ele><time>2026-03-28T14:00:08Z</time></trkpt><trkpt lat="42.37821353857684" lon="12.722259139177236"><ele>1023.0000000000001</ele><time>2026-03-28T14:00:10Z</time></trkpt><trkpt lat="42.37828654735214" lon="12.722173216626357"><ele>1021.0</ele><time>2026-03-28T14:00:13Z</time></trkpt><trkpt lat="42.3783459325689" lon="12.722101804220626"><ele>1019.0</ele><time>2026-03-28T14:00:15Z</time></trkpt><trkpt lat="42.37841765556606" lon="12.722018817574723"><ele>1017.0</ele><time>2026-03-28T14:00:18Z</time></trkpt><trkpt lat="42.378467827003234" lon="12.72192953385793"><ele>1015.0000000000001</ele><time>2026-03-28T14:00:20Z</time></trkpt><trkpt lat="42.378525009444665" lon="12.721827320138226"><ele>1013.0</ele><time>2026-03-28T14:00:22Z</time></trkpt><trkpt lat="42.37859095799126" lon="12.721739192079268"><ele>1014.5000000000001</ele><time>2026-03-28T14:00:24Z</time></trkpt><trkpt lat="42.37863212776909" lon="12.721630108500115"><ele>1016.0</ele><time>2026-03-28T14:00:27Z</time></trkpt><trkpt lat="42.37867426629825" lon="12.721531935772"><ele>1017.5</ele><time>2026-03-28T14:00:29Z</time></trkpt><trkpt lat="42.37870142484599" lon="12.721433054423743"><ele>1019.0</ele><time>2026-03-28T14:00:31Z</time></trkpt><trkpt lat="42.37876292868451" lon="12.721397340038173"><ele>1020.5000000000001</ele><time>2026-03-28T14:00:33Z</time></trkpt><trkpt lat="42.37885429936626" lon="12.72139032258654"><ele>1022.0</ele><time>2026-03-28T14:00:36Z</time></trkpt><trkpt lat="42.37898036823688" lon="12.721447980426081"><ele>1022.0000000000001</ele><time>2026-03-28T14:00:38Z</time></trkpt><trkpt lat="42.379056485334345" lon="12.721491331450743"><ele>1022.0</ele><time>2026-03-28T14:00:39Z</time></trkpt><trkpt lat="42.37912647979698" lon="12.721523246790744"><ele>1022.0</ele><time>2026-03-28T14:00:39.999Z</time></trkpt><trkpt lat="42.37919287721131" lon="12.721554604912523"><ele>1022.0</ele><time>2026-03-28T14:00:40.999Z</time></trkpt><trkpt lat="42.379288939849445" lon="12.721590080974718"><ele>1022.0000000000001</ele><time>2026-03-28T14:00:42.999Z</time></trkpt><trkpt lat="42.37935641061609" lon="12.721604812681072"><ele>1022.0</ele><time>2026-03-28T14:00:44.999Z</time></trkpt><trkpt lat="42.37943936598704" lon="12.721641819851927"><ele>1022.0000000000001</ele><time>2026-03-28T14:00:47.999Z</time></trkpt><trkpt lat="42.37952308353445" lon="12.721685157069727"><ele>1022.0</ele><time>2026-03-28T14:00:50.999Z</time></trkpt><trkpt lat="42.37960235750476" lon="12.721703966885975"><ele>1022.0</ele><time>2026-03-28T14:00:53.999Z</time></trkpt><trkpt lat="42.379662578057825" lon="12.721753024270473"><ele>1022.0</ele><time>2026-03-28T14:00:55.999Z</time></trkpt><trkpt lat="42.37974062087385" lon="12.721781582985022"><ele>1022.0000000000001</ele><time>2026-03-28T14:00:58.999Z</time></trkpt><trkpt lat="42.37980950046385" lon="12.721774116413743"><ele>1022.0</ele><time>2026-03-28T14:01:00.999Z</time></trkpt><trkpt lat="42.37989029622029" lon="12.721783704485537"><ele>1022.5000000000001</ele><time>2026-03-28T14:01:02.999Z</time></trkpt><trkpt lat="42.37995776199356" lon="12.721759558305214"><ele>1023.0</ele><time>2026-03-28T14:01:04.999Z</time></trkpt><trkpt lat="42.3800394541246" lon="12.72176673799133"><ele>1023.5</ele><time>2026-03-28T14:01:06.999Z</time></trkpt><trkpt lat="42.38010711341842" lon="12.721745678122845"><ele>1024.0</ele><time>2026-03-28T14:01:08.999Z</time></trkpt><trkpt lat="42.38017543697436" lon="12.721730423065518"><ele>1024.5</ele><time>2026-03-28T14:01:10.999Z</time></trkpt><trkpt lat="42.380257651207565" lon="12.721694856895443"><ele>1025.0</ele><time>2026-03-28T14:01:13.999Z</time></trkpt><trkpt lat="42.38035178745176" lon="12.721686982798804"><ele>1025.0</ele><time>2026-03-28T14:01:15.999Z</time></trkpt><trkpt lat="42.380425460432676" lon="12.721667265853482"><ele>1025.0</ele><time>2026-03-28T14:01:17.999Z</time></trkpt><trkpt lat="42.38051026550446" lon="12.72164088532655"><ele>1025.0</ele><time>2026-03-28T14:01:19.999Z</time></trkpt><trkpt lat="42.38061436546892" lon="12.721616520279989"><ele>1025.0</ele><time>2026-03-28T14:01:21.999Z</time></trkpt><trkpt lat="42.380713133425644" lon="12.721593387684395"><ele>1025.0</ele><time>2026-03-28T14:01:24Z</time></trkpt><trkpt lat="42.380794272081275" lon="12.72154782011832"><ele>1024.0</ele><time>2026-03-28T14:01:26Z</time></trkpt><trkpt lat="42.38089685452719" lon="12.72150069587317"><ele>1023.0</ele><time>2026-03-28T14:01:28Z</time></trkpt><trkpt lat="42.3809893283217" lon="12.72149890630522"><ele>1022.0</ele><time>2026-03-28T14:01:30Z</time></trkpt><trkpt lat="42.38107640524954" lon="12.721472366724658"><ele>1021.0</ele><time>2026-03-28T14:01:33Z</time></trkpt><trkpt lat="42.38115904847649" lon="12.72145778164702"><ele>1020.0000000000001</ele><time>2026-03-28T14:01:35Z</time></trkpt><trkpt lat="42.38123087940304" lon="12.72145636421514"><ele>1019.0</ele><time>2026-03-28T14:01:37Z</time></trkpt><trkpt lat="42.38131923925522" lon="12.72143863269135"><ele>1015.6666666666667</ele><time>2026-03-28T14:01:39Z</time></trkpt><trkpt lat="42.38141404121673" lon="12.721428092514424"><ele>1012.3333333333334</ele><time>2026-03-28T14:01:41Z</time></trkpt><trkpt lat="42.38150182899661" lon="12.721426778428672"><ele>1009.0</ele><time>2026-03-28T14:01:43Z</time></trkpt><trkpt lat="42.38157644633578" lon="12.721381232474876"><ele>1005.6666666666667</ele><time>2026-03-28T14:01:45Z</time></trkpt><trkpt lat="42.381642874713826" lon="12.721382742946425"><ele>1002.3333333333334</ele><time>2026-03-28T14:01:47Z</time></trkpt><trkpt lat="42.381744229789604" lon="12.721352151447723"><ele>999.0</ele><time>2026-03-28T14:01:49Z</time></trkpt><trkpt lat="42.38181307958904" lon="12.721338400693078"><ele>999.0</ele><time>2026-03-28T14:01:51Z</time></trkpt><trkpt lat="42.38190678445657" lon="12.721290385473662"><ele>999.0000000000001</ele><time>2026-03-28T14:01:55Z</time></trkpt><trkpt lat="42.38198165806877" lon="12.721215069152997"><ele>999.0000000000001</ele><time>2026-03-28T14:01:58Z</time></trkpt><trkpt lat="42.38202605574432" lon="12.72112352302462"><ele>999.0</ele><time>2026-03-28T14:02:00Z</time></trkpt><trkpt lat="42.38206144641191" lon="12.72100191070958"><ele>999.0</ele><time>2026-03-28T14:02:03Z</time></trkpt><trkpt lat="42.38208700938992" lon="12.720872334532372"><ele>1000.6</ele><time>2026-03-28T14:02:06Z</time></trkpt><trkpt lat="42.38215063487943" lon="12.720731926908224"><ele>1002.2</ele><time>2026-03-28T14:02:08Z</time></trkpt><trkpt lat="42.38223503468476" lon="12.720621629847917"><ele>1003.8000000000001</ele><time>2026-03-28T14:02:10Z</time></trkpt><trkpt lat="42.3823159535321" lon="12.720595832200921"><ele>1005.4000000000001</ele><time>2026-03-28T14:02:11Z</time></trkpt><trkpt lat="42.382383260851945" lon="12.720577616520812"><ele>1007.0</ele><time>2026-03-28T14:02:12Z</time></trkpt><trkpt lat="42.38245227412408" lon="12.720515653479225"><ele>1007.0</ele><time>2026-03-28T14:02:14Z</time></trkpt><trkpt lat="42.38254478736911" lon="12.720519379224065"><ele>1007.0</ele><time>2026-03-28T14:02:16Z</time></trkpt><trkpt lat="42.3826124201225" lon="12.72047373757391"><ele>1007.0</ele><time>2026-03-28T14:02:18Z</time></trkpt><trkpt lat="42.38270792533767" lon="12.720431629832246"><ele>1007.0</ele><time>2026-03-28T14:02:20Z</time></trkpt><trkpt lat="42.382800954214105" lon="12.720395180289321"><ele>1007.0</ele><time>2026-03-28T14:02:22Z</time></trkpt><trkpt lat="42.38286502393687" lon="12.720317331337458"><ele>1007.0</ele><time>2026-03-28T14:02:25Z</time></trkpt><trkpt lat="42.38292719032577" lon="12.72024412136327"><ele>1007.0</ele><time>2026-03-28T14:02:26.999Z</time></trkpt><trkpt lat="42.382993740945736" lon="12.720184205946403"><ele>1007.0</ele><time>2026-03-28T14:02:28.999Z</time></trkpt><trkpt lat="42.383054924504016" lon="12.720131971663566"><ele>1007.0</ele><time>2026-03-28T14:02:30.999Z</time></trkpt><trkpt lat="42.38311444268826" lon="12.720080315500265"><ele>1007.0</ele><time>2026-03-28T14:02:32.999Z</time></trkpt><trkpt lat="42.38317821458942" lon="12.7200290140052"><ele>1007.0</ele><time>2026-03-28T14:02:34.999Z</time></trkpt><trkpt lat="42.383241309431455" lon="12.719989050037713"><ele>1007.0</ele><time>2026-03-28T14:02:36.999Z</time></trkpt><trkpt lat="42.383303299967025" lon="12.719933219028759"><ele>1009.2</ele><time>2026-03-28T14:02:38.999Z</time></trkpt><trkpt lat="42.383409925794794" lon="12.719873490773297"><ele>1011.4000000000001</ele><time>2026-03-28T14:02:40.999Z</time></trkpt><trkpt lat="42.383452768081746" lon="12.719810579275597"><ele>1013.5999999999999</ele><time>2026-03-28T14:02:42.999Z</time></trkpt><trkpt lat="42.38354732577126" lon="12.71978303467084"><ele>1015.8</ele><time>2026-03-28T14:02:44.999Z</time></trkpt><trkpt lat="42.38361711591553" lon="12.719730868143547"><ele>1018.0</ele><time>2026-03-28T14:02:46.999Z</time></trkpt><trkpt lat="42.38371548818525" lon="12.719654945049633"><ele>1018.0</ele><time>2026-03-28T14:02:48.999Z</time></trkpt><trkpt lat="42.383810499144474" lon="12.719588479815483"><ele>1018.0</ele><time>2026-03-28T14:02:50.999Z</time></trkpt><trkpt lat="42.38390921005525" lon="12.719531450551308"><ele>1018.0</ele><time>2026-03-28T14:02:52.999Z</time></trkpt><trkpt lat="42.383998882569855" lon="12.71947623372039"><ele>1018.0</ele><time>2026-03-28T14:02:54.999Z</time></trkpt><trkpt lat="42.38409332249707" lon="12.719436426184451"><ele>1018.0</ele><time>2026-03-28T14:02:56.999Z</time></trkpt><trkpt lat="42.38417881219366" lon="12.719404913611864"><ele>1016.1666666666666</ele><time>2026-03-28T14:02:58.999Z</time></trkpt><trkpt lat="42.38424168097763" lon="12.719427101550771"><ele>1014.3333333333333</ele><time>2026-03-28T14:03:00.999Z</time></trkpt><trkpt lat="42.3843022935184" lon="12.71950609898423"><ele>1012.5</ele><time>2026-03-28T14:03:02.999Z</time></trkpt><trkpt lat="42.38437897180831" lon="12.719579021270295"><ele>1010.6666666666667</ele><time>2026-03-28T14:03:04.999Z</time></trkpt><trkpt lat="42.38445508431481" lon="12.719654753664068"><ele>1008.8333333333334</ele><time>2026-03-28T14:03:06.999Z</time></trkpt><trkpt lat="42.38451466840207" lon="12.719692943397918"><ele>1007.0</ele><time>2026-03-28T14:03:08.999Z</time></trkpt><trkpt lat="42.3845258049897" lon="12.719822622458905"><ele>1007.0000000000001</ele><time>2026-03-28T14:03:11.999Z</time></trkpt><trkpt lat="42.38451018515578" lon="12.71990772657797"><ele>1007.0</ele><time>2026-03-28T14:03:13.999Z</time></trkpt><trkpt lat="42.38452571919301" lon="12.720026073027785"><ele>1007.0</ele><time>2026-03-28T14:03:16.999Z</time></trkpt><trkpt lat="42.384538758482385" lon="12.72013796601675"><ele>1007.0</ele><time>2026-03-28T14:03:18.999Z</time></trkpt><trkpt lat="42.3845672807116" lon="12.72024026333923"><ele>1007.0000000000001</ele><time>2026-03-28T14:03:21.999Z</time></trkpt><trkpt lat="42.3845886879021" lon="12.720343170998467"><ele>1007.0</ele><time>2026-03-28T14:03:23.999Z</time></trkpt><trkpt lat="42.38459634404888" lon="12.720456467628134"><ele>1006.0000000000001</ele><time>2026-03-28T14:03:25.999Z</time></trkpt><trkpt lat="42.38463304960985" lon="12.720557020832528"><ele>1005.0</ele><time>2026-03-28T14:03:27.999Z</time></trkpt><trkpt lat="42.38465414595543" lon="12.720654741081809"><ele>1004.0</ele><time>2026-03-28T14:03:30Z</time></trkpt><trkpt lat="42.38467964254645" lon="12.720764145090659"><ele>1003.0</ele><time>2026-03-28T14:03:32Z</time></trkpt><trkpt lat="42.3846693046462" lon="12.720888807061874"><ele>1002.0000000000001</ele><time>2026-03-28T14:03:34Z</time></trkpt><trkpt lat="42.384643437417076" lon="12.720981339612473"><ele>1001.0</ele><time>2026-03-28T14:03:36Z</time></trkpt><trkpt lat="42.384647469817125" lon="12.721097608125344"><ele>1001.0</ele><time>2026-03-28T14:03:38Z</time></trkpt><trkpt lat="42.38464146632328" lon="12.72123381645181"><ele>1000.9999999999999</ele><time>2026-03-28T14:03:41Z</time></trkpt><trkpt lat="42.384630963183746" lon="12.721388913858393"><ele>1000.9999999999999</ele><time>2026-03-28T14:03:44Z</time></trkpt><trkpt lat="42.38461477790223" lon="12.721489196238187"><ele>1001.0</ele><time>2026-03-28T14:03:46Z</time></trkpt><trkpt lat="42.384612715201385" lon="12.72158729459508"><ele>1001.0</ele><time>2026-03-28T14:03:49Z</time></trkpt><trkpt lat="42.384589878062535" lon="12.72170640616068"><ele>1001.0000000000001</ele><time>2026-03-28T14:03:52Z</time></trkpt><trkpt lat="42.38457104291533" lon="12.721809536375522"><ele>1001.0</ele><time>2026-03-28T14:03:54Z</time></trkpt><trkpt lat="42.38456897290648" lon="12.721906404429427"><ele>1001.0</ele><time>2026-03-28T14:03:56Z</time></trkpt><trkpt lat="42.384564416546084" lon="12.722015512753234"><ele>1001.0</ele><time>2026-03-28T14:03:59Z</time></trkpt><trkpt lat="42.384570762418" lon="12.722152045668995"><ele>1001.0000000000001</ele><time>2026-03-28T14:04:01Z</time></trkpt><trkpt lat="42.38454740634085" lon="12.722256604761863"><ele>1001.0</ele><time>2026-03-28T14:04:03Z</time></trkpt><trkpt lat="42.38451666924387" lon="12.722363522259768"><ele>1001.6666666666667</ele><time>2026-03-28T14:04:05Z</time></trkpt><trkpt lat="42.38451312533002" lon="12.722497208964555"><ele>1002.3333333333334</ele><time>2026-03-28T14:04:07Z</time></trkpt><trkpt lat="42.384495326411624" lon="12.72261047553457"><ele>1003.0</ele><time>2026-03-28T14:04:09Z</time></trkpt><trkpt lat="42.3845230782617" lon="12.72274828650914"><ele>1003.6666666666667</ele><time>2026-03-28T14:04:13Z</time></trkpt><trkpt lat="42.384556220258744" lon="12.722858908874725"><ele>1004.3333333333334</ele><time>2026-03-28T14:04:15Z</time></trkpt><trkpt lat="42.38460127252617" lon="12.722923324043764"><ele>1005.0</ele><time>2026-03-28T14:04:18Z</time></trkpt><trkpt lat="42.38467639794088" lon="12.722969938093984"><ele>1010.8333333333334</ele><time>2026-03-28T14:04:21Z</time></trkpt><trkpt lat="42.384759408284616" lon="12.723000630871423"><ele>1016.6666666666667</ele><time>2026-03-28T14:04:23.999Z</time></trkpt><trkpt lat="42.38482319643936" lon="12.722971319156054"><ele>1022.5</ele><time>2026-03-28T14:04:25.999Z</time></trkpt><trkpt lat="42.38489242643886" lon="12.72304680984251"><ele>1028.3333333333335</ele><time>2026-03-28T14:04:28.999Z</time></trkpt><trkpt lat="42.38491619680655" lon="12.723150547062733"><ele>1034.1666666666667</ele><time>2026-03-28T14:04:30.999Z</time></trkpt><trkpt lat="42.38499633603097" lon="12.72321914540478"><ele>1040.0</ele><time>2026-03-28T14:04:32.999Z</time></trkpt><trkpt lat="42.38500284498584" lon="12.723305639738353"><ele>1040.0</ele><time>2026-03-28T14:04:33.999Z</time></trkpt><trkpt lat="42.38499816354772" lon="12.72341335080097"><ele>1040.0</ele><time>2026-03-28T14:04:36.999Z</time></trkpt><trkpt lat="42.38504056219724" lon="12.72351822229246"><ele>1040.0</ele><time>2026-03-28T14:04:38.999Z</time></trkpt><trkpt lat="42.38507601944398" lon="12.723614565372422"><ele>1040.0</ele><time>2026-03-28T14:04:40.999Z</time></trkpt><trkpt lat="42.38512217653659" lon="12.723680049422692"><ele>1040.0</ele><time>2026-03-28T14:04:42.999Z</time></trkpt><trkpt lat="42.385185642467356" lon="12.723768175002675"><ele>1040.0</ele><time>2026-03-28T14:04:46.999Z</time></trkpt><trkpt lat="42.38521901780246" lon="12.723859559352745"><ele>1039.3333333333335</ele><time>2026-03-28T14:04:48.999Z</time></trkpt><trkpt lat="42.385261161503486" lon="12.724004774341148"><ele>1038.6666666666667</ele><time>2026-03-28T14:04:50.999Z</time></trkpt><trkpt lat="42.38528823869178" lon="12.72411447261449"><ele>1038.0</ele><time>2026-03-28T14:04:52.999Z</time></trkpt><trkpt lat="42.38533509158772" lon="12.724203338082193"><ele>1037.3333333333333</ele><time>2026-03-28T14:04:54.999Z</time></trkpt><trkpt lat="42.38537846653418" lon="12.724310872622754"><ele>1036.6666666666665</ele><time>2026-03-28T14:04:57.999Z</time></trkpt><trkpt lat="42.38541459281672" lon="12.724382113070885"><ele>1036.0</ele><time>2026-03-28T14:04:59.999Z</time></trkpt><trkpt lat="42.38544490277056" lon="12.724471011362052"><ele>1032.5</ele><time>2026-03-28T14:05:01.999Z</time></trkpt><trkpt lat="42.385500402939904" lon="12.724534566978496"><ele>1029.0</ele><time>2026-03-28T14:05:04.999Z</time></trkpt><trkpt lat="42.38556266642969" lon="12.724516779101414"><ele>1025.5</ele><time>2026-03-28T14:05:08.999Z</time></trkpt><trkpt lat="42.38565198415596" lon="12.724534201592972"><ele>1022.0</ele><time>2026-03-28T14:05:11.999Z</time></trkpt><trkpt lat="42.38573526770692" lon="12.724538451837416"><ele>1018.4999999999999</ele><time>2026-03-28T14:05:14.999Z</time></trkpt><trkpt lat="42.385825475093135" lon="12.724562748319544"><ele>1015.0</ele><time>2026-03-28T14:05:17.999Z</time></trkpt><trkpt lat="42.3858968151575" lon="12.72460844616606"><ele>1014.9999999999999</ele><time>2026-03-28T14:05:19.999Z</time></trkpt><trkpt lat="42.385956315345844" lon="12.72468142315977"><ele>1015.0</ele><time>2026-03-28T14:05:21.999Z</time></trkpt><trkpt lat="42.38601887179011" lon="12.72476337962762"><ele>1015.0</ele><time>2026-03-28T14:05:23.999Z</time></trkpt><trkpt lat="42.38609305187164" lon="12.724801023652814"><ele>1015.0</ele><time>2026-03-28T14:05:26.999Z</time></trkpt><trkpt lat="42.38614051493333" lon="12.724870260952486"><ele>1014.9999999999999</ele><time>2026-03-28T14:05:28.999Z</time></trkpt><trkpt lat="42.38621589275564" lon="12.72492614182854"><ele>1015.0</ele><time>2026-03-28T14:05:30.999Z</time></trkpt><trkpt lat="42.38626936872018" lon="12.72497197330476"><ele>1014.9999999999999</ele><time>2026-03-28T14:05:32.999Z</time></trkpt><trkpt lat="42.38632160109574" lon="12.72505450446941"><ele>1015.0</ele><time>2026-03-28T14:05:35Z</time></trkpt><trkpt lat="42.38640136937894" lon="12.725079336905358"><ele>1015.0</ele><time>2026-03-28T14:05:38Z</time></trkpt><trkpt lat="42.38644095983517" lon="12.725180373124084"><ele>1015.0</ele><time>2026-03-28T14:05:40Z</time></trkpt><trkpt lat="42.386419931382356" lon="12.72528904167493"><ele>1014.9999999999999</ele><time>2026-03-28T14:05:42Z</time></trkpt><trkpt lat="42.38641383129323" lon="12.725374025020846"><ele>1015.0</ele><time>2026-03-28T14:05:44Z</time></trkpt><trkpt lat="42.38639282909776" lon="12.725490943266399"><ele>1012.0</ele><time>2026-03-28T14:05:46Z</time></trkpt><trkpt lat="42.386382035053664" lon="12.725640931693716"><ele>1009.0</ele><time>2026-03-28T14:05:48Z</time></trkpt><trkpt lat="42.38636486207527" lon="12.725815471100853"><ele>1006.0</ele><time>2026-03-28T14:05:50Z</time></trkpt><trkpt lat="42.38636404590765" lon="12.725959185345932"><ele>1003.0</ele><time>2026-03-28T14:05:52Z</time></trkpt><trkpt lat="42.38637579075148" lon="12.726060974599136"><ele>1000.0</ele><time>2026-03-28T14:05:54Z</time></trkpt><trkpt lat="42.386388214758554" lon="12.726191851472665"><ele>999.6666666666666</ele><time>2026-03-28T14:05:56Z</time></trkpt><trkpt lat="42.386421797125415" lon="12.726291456055964"><ele>999.3333333333333</ele><time>2026-03-28T14:05:58Z</time></trkpt><trkpt lat="42.386458566793344" lon="12.726397384809182"><ele>999.0</ele><time>2026-03-28T14:06:00Z</time></trkpt><trkpt lat="42.38647822742312" lon="12.72650832010129"><ele>998.6666666666667</ele><time>2026-03-28T14:06:02Z</time></trkpt><trkpt lat="42.38648112395689" lon="12.726620438462218"><ele>998.3333333333334</ele><time>2026-03-28T14:06:04Z</time></trkpt><trkpt lat="42.38651741087711" lon="12.726705336794033"><ele>998.0</ele><time>2026-03-28T14:06:07Z</time></trkpt><trkpt lat="42.38657275426838" lon="12.726627172022319"><ele>998.0</ele><time>2026-03-28T14:06:32.999Z</time></trkpt><trkpt lat="42.38662107082731" lon="12.726479054143034"><ele>998.0</ele><time>2026-03-28T14:06:34.999Z</time></trkpt><trkpt lat="42.386661967400755" lon="12.72632218100649"><ele>998.0</ele><time>2026-03-28T14:06:36.999Z</time></trkpt><trkpt lat="42.38669007585614" lon="12.726209991887973"><ele>998.0</ele><time>2026-03-28T14:06:37.999Z</time></trkpt><trkpt lat="42.38673437142955" lon="12.726103429195105"><ele>998.0</ele><time>2026-03-28T14:06:38.999Z</time></trkpt><trkpt lat="42.38677096019212" lon="12.72600533418827"><ele>998.5</ele><time>2026-03-28T14:06:39.999Z</time></trkpt><trkpt lat="42.38682944656546" lon="12.725857624128144"><ele>999.0</ele><time>2026-03-28T14:06:41.999Z</time></trkpt><trkpt lat="42.3868853288768" lon="12.725723525824367"><ele>999.5</ele><time>2026-03-28T14:06:43.999Z</time></trkpt><trkpt lat="42.38693903722464" lon="12.725605831601223"><ele>1000.0</ele><time>2026-03-28T14:06:45.999Z</time></trkpt><trkpt lat="42.38699746700276" lon="12.725479225175471"><ele>1000.0</ele><time>2026-03-28T14:06:47.999Z</time></trkpt><trkpt lat="42.38705686986912" lon="12.725355048611808"><ele>1000.0</ele><time>2026-03-28T14:06:49.999Z</time></trkpt><trkpt lat="42.3871305329558" lon="12.725204863619645"><ele>1000.0</ele><time>2026-03-28T14:06:51.999Z</time></trkpt><trkpt lat="42.38717435856644" lon="12.725115446824308"><ele>1000.0</ele><time>2026-03-28T14:06:52.999Z</time></trkpt><trkpt lat="42.3872310969991" lon="12.72500690656614"><ele>1000.0</ele><time>2026-03-28T14:06:54.999Z</time></trkpt><trkpt lat="42.38729693140606" lon="12.724880738854685"><ele>998.3333333333333</ele><time>2026-03-28T14:06:56.999Z</time></trkpt><trkpt lat="42.387376420139915" lon="12.724760057514386"><ele>996.6666666666666</ele><time>2026-03-28T14:06:58.999Z</time></trkpt><trkpt lat="42.387402329707385" lon="12.724654866460169"><ele>995.0</ele><time>2026-03-28T14:07:00.999Z</time></trkpt><trkpt lat="42.38744458961663" lon="12.72458699940192"><ele>993.3333333333333</ele><time>2026-03-28T14:07:02.999Z</time></trkpt><trkpt lat="42.38748133945025" lon="12.724490029799691"><ele>991.6666666666666</ele><time>2026-03-28T14:07:04.999Z</time></trkpt><trkpt lat="42.38753156514153" lon="12.724418989463766"><ele>990.0</ele><time>2026-03-28T14:07:06.999Z</time></trkpt><trkpt lat="42.38758392416576" lon="12.724334381273659"><ele>990.0</ele><time>2026-03-28T14:07:08.999Z</time></trkpt><trkpt lat="42.387651169239" lon="12.724268831080542"><ele>990.0</ele><time>2026-03-28T14:07:10.999Z</time></trkpt><trkpt lat="42.387701674665855" lon="12.72420537186045"><ele>990.0</ele><time>2026-03-28T14:07:12.999Z</time></trkpt><trkpt lat="42.38776828729126" lon="12.7241293966335"><ele>990.0</ele><time>2026-03-28T14:07:14.999Z</time></trkpt><trkpt lat="42.38781083802032" lon="12.7240466483121"><ele>990.0</ele><time>2026-03-28T14:07:16.999Z</time></trkpt><trkpt lat="42.38787078405793" lon="12.723980900973359"><ele>990.0</ele><time>2026-03-28T14:07:18.999Z</time></trkpt><trkpt lat="42.38793227942888" lon="12.723928923438272"><ele>990.0</ele><time>2026-03-28T14:07:20.999Z</time></trkpt><trkpt lat="42.38798951120855" lon="12.723858882073252"><ele>990.0</ele><time>2026-03-28T14:07:22.999Z</time></trkpt><trkpt lat="42.38804410266474" lon="12.723795032933642"><ele>990.0</ele><time>2026-03-28T14:07:24.999Z</time></trkpt><trkpt lat="42.38810594560006" lon="12.723711668858414"><ele>990.0</ele><time>2026-03-28T14:07:27.999Z</time></trkpt><trkpt lat="42.38804478716534" lon="12.723626283181883"><ele>990.0</ele><time>2026-03-28T14:07:32.999Z</time></trkpt><trkpt lat="42.38797016984436" lon="12.723601204084662"><ele>990.0</ele><time>2026-03-28T14:07:35.999Z</time></trkpt><trkpt lat="42.38790730551676" lon="12.723553718739007"><ele>989.8333333333334</ele><time>2026-03-28T14:07:37.999Z</time></trkpt><trkpt lat="42.38789111749136" lon="12.723453920878065"><ele>989.6666666666667</ele><time>2026-03-28T14:07:41Z</time></trkpt><trkpt lat="42.38787582415775" lon="12.723367754665686"><ele>989.5</ele><time>2026-03-28T14:07:43Z</time></trkpt><trkpt lat="42.387905087235545" lon="12.72322080272837"><ele>989.3333333333334</ele><time>2026-03-28T14:07:46Z</time></trkpt><trkpt lat="42.38787180741723" lon="12.723118102705596"><ele>989.1666666666667</ele><time>2026-03-28T14:07:48Z</time></trkpt><trkpt lat="42.387862785009126" lon="12.723005770565011"><ele>989.0</ele><time>2026-03-28T14:07:50Z</time></trkpt><trkpt lat="42.387853197515554" lon="12.722890163104037"><ele>989.0</ele><time>2026-03-28T14:07:52Z</time></trkpt><trkpt lat="42.387842339248316" lon="12.72276421177496"><ele>989.0000000000001</ele><time>2026-03-28T14:07:54Z</time></trkpt><trkpt lat="42.38786350136262" lon="12.722638192481384"><ele>989.0000000000001</ele><time>2026-03-28T14:07:56Z</time></trkpt><trkpt lat="42.38789978882263" lon="12.722518616384225"><ele>989.0</ele><time>2026-03-28T14:07:58Z</time></trkpt><trkpt lat="42.38797282691312" lon="12.722415947881647"><ele>989.0</ele><time>2026-03-28T14:08:00Z</time></trkpt><trkpt lat="42.38801906355387" lon="12.72229868629685"><ele>985.6666666666667</ele><time>2026-03-28T14:08:02Z</time></trkpt><trkpt lat="42.388079112618136" lon="12.722246919433415"><ele>982.3333333333334</ele><time>2026-03-28T14:08:03Z</time></trkpt><trkpt lat="42.388113119184524" lon="12.72216547485836"><ele>979.0</ele><time>2026-03-28T14:08:04Z</time></trkpt><trkpt lat="42.38817464152954" lon="12.722125407995025"><ele>975.6666666666667</ele><time>2026-03-28T14:08:05Z</time></trkpt><trkpt lat="42.38824812781566" lon="12.722002874408746"><ele>972.3333333333334</ele><time>2026-03-28T14:08:07Z</time></trkpt><trkpt lat="42.3883074689574" lon="12.721892949737697"><ele>969.0</ele><time>2026-03-28T14:08:09Z</time></trkpt><trkpt lat="42.38837131369046" lon="12.721832217483598"><ele>967.6666666666666</ele><time>2026-03-28T14:08:11Z</time></trkpt><trkpt lat="42.38844557985862" lon="12.721740208156081"><ele>966.3333333333333</ele><time>2026-03-28T14:08:13Z</time></trkpt><trkpt lat="42.38850158284538" lon="12.721671807958597"><ele>965.0</ele><time>2026-03-28T14:08:15Z</time></trkpt><trkpt lat="42.38856645951513" lon="12.721607392364675"><ele>963.6666666666666</ele><time>2026-03-28T14:08:17Z</time></trkpt><trkpt lat="42.38862845228813" lon="12.721536938948388"><ele>962.3333333333333</ele><time>2026-03-28T14:08:19Z</time></trkpt><trkpt lat="42.38867912859962" lon="12.721452150865066"><ele>961.0</ele><time>2026-03-28T14:08:21Z</time></trkpt><trkpt lat="42.38876596019351" lon="12.721363592496717"><ele>960.9999999999999</ele><time>2026-03-28T14:08:23Z</time></trkpt><trkpt lat="42.38881766949876" lon="12.721274211591963"><ele>961.0</ele><time>2026-03-28T14:08:25Z</time></trkpt><trkpt lat="42.38887909847877" lon="12.721221360944211"><ele>961.0</ele><time>2026-03-28T14:08:27Z</time></trkpt><trkpt lat="42.388929756511416" lon="12.72116829778531"><ele>961.0</ele><time>2026-03-28T14:08:28.999Z</time></trkpt><trkpt lat="42.38898916342668" lon="12.721106809027143"><ele>960.9999999999999</ele><time>2026-03-28T14:08:30.999Z</time></trkpt><trkpt lat="42.38905939098729" lon="12.721043626122174"><ele>961.0</ele><time>2026-03-28T14:08:32.999Z</time></trkpt><trkpt lat="42.38914143183905" lon="12.7209803807286"><ele>958.1666666666666</ele><time>2026-03-28T14:08:35.999Z</time></trkpt><trkpt lat="42.389214167244255" lon="12.720944452075125"><ele>955.3333333333333</ele><time>2026-03-28T14:08:36.999Z</time></trkpt><trkpt lat="42.38928597195095" lon="12.720908982831693"><ele>952.5</ele><time>2026-03-28T14:08:38.999Z</time></trkpt><trkpt lat="42.3893643415643" lon="12.72086426240726"><ele>949.6666666666667</ele><time>2026-03-28T14:08:42.999Z</time></trkpt><trkpt lat="42.389424756439624" lon="12.720834602840123"><ele>946.8333333333334</ele><time>2026-03-28T14:08:44.999Z</time></trkpt><trkpt lat="42.389495346448335" lon="12.720776817548122"><ele>944.0</ele><time>2026-03-28T14:08:46.999Z</time></trkpt><trkpt lat="42.389566835413326" lon="12.720758180130106"><ele>944.0</ele><time>2026-03-28T14:08:48.999Z</time></trkpt><trkpt lat="42.38963986418696" lon="12.720706406683309"><ele>944.0000000000001</ele><time>2026-03-28T14:08:50.999Z</time></trkpt><trkpt lat="42.389709247982715" lon="12.720668773457348"><ele>944.0000000000001</ele><time>2026-03-28T14:08:52.999Z</time></trkpt><trkpt lat="42.389858186015196" lon="12.720617298853472"><ele>944.0</ele><time>2026-03-28T14:08:59.999Z</time></trkpt><trkpt lat="42.389941286140065" lon="12.720594069944879"><ele>944.0</ele><time>2026-03-28T14:09:01.999Z</time></trkpt><trkpt lat="42.39003833691803" lon="12.720574030368876"><ele>941.6666666666667</ele><time>2026-03-28T14:09:03.999Z</time></trkpt><trkpt lat="42.39012388279616" lon="12.720564175496827"><ele>939.3333333333334</ele><time>2026-03-28T14:09:05.999Z</time></trkpt><trkpt lat="42.39019640509769" lon="12.720562822653143"><ele>937.0</ele><time>2026-03-28T14:09:07.999Z</time></trkpt><trkpt lat="42.39028177242807" lon="12.720575655359388"><ele>934.6666666666667</ele><time>2026-03-28T14:09:09.999Z</time></trkpt><trkpt lat="42.39036573456585" lon="12.720608272490574"><ele>932.3333333333334</ele><time>2026-03-28T14:09:11.999Z</time></trkpt><trkpt lat="42.390448232146184" lon="12.720655886671594"><ele>930.0</ele><time>2026-03-28T14:09:13.999Z</time></trkpt><trkpt lat="42.390548710354885" lon="12.720710777357668"><ele>927.8333333333334</ele><time>2026-03-28T14:09:15.999Z</time></trkpt><trkpt lat="42.39061483564889" lon="12.720740454235912"><ele>925.6666666666667</ele><time>2026-03-28T14:09:16.999Z</time></trkpt><trkpt lat="42.39067656067603" lon="12.72076766990156"><ele>923.5</ele><time>2026-03-28T14:09:19.999Z</time></trkpt><trkpt lat="42.39076481981571" lon="12.720806584917996"><ele>921.3333333333334</ele><time>2026-03-28T14:09:21.999Z</time></trkpt><trkpt lat="42.390850097214866" lon="12.720844051471277"><ele>919.1666666666667</ele><time>2026-03-28T14:09:23.999Z</time></trkpt><trkpt lat="42.3909233177444" lon="12.720876047915851"><ele>917.0</ele><time>2026-03-28T14:09:26.999Z</time></trkpt><trkpt lat="42.39101044984002" lon="12.72091412192454"><ele>917.0</ele><time>2026-03-28T14:09:28.999Z</time></trkpt><trkpt lat="42.39111040878615" lon="12.720959932960252"><ele>917.0</ele><time>2026-03-28T14:09:30.999Z</time></trkpt><trkpt lat="42.391215881554345" lon="12.720985368053901"><ele>917.0</ele><time>2026-03-28T14:09:32.999Z</time></trkpt><trkpt lat="42.39131843126417" lon="12.72103959424629"><ele>917.0</ele><time>2026-03-28T14:09:34.999Z</time></trkpt><trkpt lat="42.39137730370698" lon="12.721082303572622"><ele>917.0</ele><time>2026-03-28T14:09:35.999Z</time></trkpt><trkpt lat="42.39147095516843" lon="12.721129998157322"><ele>917.5000000000001</ele><time>2026-03-28T14:09:37.999Z</time></trkpt><trkpt lat="42.39154416233881" lon="12.72117569583534"><ele>918.0</ele><time>2026-03-28T14:09:39.999Z</time></trkpt><trkpt lat="42.39163106612774" lon="12.721223389177961"><ele>918.5</ele><time>2026-03-28T14:09:41.999Z</time></trkpt><trkpt lat="42.39167554628457" lon="12.721288341117887"><ele>919.0</ele><time>2026-03-28T14:09:43.999Z</time></trkpt><trkpt lat="42.39174624967483" lon="12.721359060673791"><ele>919.5000000000001</ele><time>2026-03-28T14:09:46Z</time></trkpt><trkpt lat="42.39183044186244" lon="12.721428123202356"><ele>920.0</ele><time>2026-03-28T14:09:48Z</time></trkpt><trkpt lat="42.39192023037842" lon="12.721494272348972"><ele>920.0000000000001</ele><time>2026-03-28T14:09:50Z</time></trkpt><trkpt lat="42.39199220142744" lon="12.721551682776271"><ele>920.0</ele><time>2026-03-28T14:09:52Z</time></trkpt><trkpt lat="42.3920786882244" lon="12.721584579837872"><ele>920.0</ele><time>2026-03-28T14:09:54Z</time></trkpt><trkpt lat="42.392143690540905" lon="12.721614379087239"><ele>920.0</ele><time>2026-03-28T14:09:56Z</time></trkpt><trkpt lat="42.39224726318294" lon="12.72165736822245"><ele>920.0000000000001</ele><time>2026-03-28T14:09:58Z</time></trkpt><trkpt lat="42.39231506778688" lon="12.72166639188926"><ele>920.0</ele><time>2026-03-28T14:09:59Z</time></trkpt><trkpt lat="42.392413841925226" lon="12.721698720064436"><ele>920.4</ele><time>2026-03-28T14:10:01Z</time></trkpt><trkpt lat="42.392495030801335" lon="12.721683785021222"><ele>920.8</ele><time>2026-03-28T14:10:03Z</time></trkpt><trkpt lat="42.39260619490374" lon="12.72165964262238"><ele>921.2</ele><time>2026-03-28T14:10:06Z</time></trkpt><trkpt lat="42.39269362074934" lon="12.721611468840251"><ele>921.6</ele><time>2026-03-28T14:10:08Z</time></trkpt><trkpt lat="42.39282987905549" lon="12.721571110878402"><ele>922.0</ele><time>2026-03-28T14:10:10Z</time></trkpt><trkpt lat="42.39289526269573" lon="12.721560645185845"><ele>921.9999999999999</ele><time>2026-03-28T14:10:12Z</time></trkpt><trkpt lat="42.39294899678628" lon="12.72149966220795"><ele>922.0</ele><time>2026-03-28T14:10:20Z</time></trkpt><trkpt lat="42.39302458048002" lon="12.72157673955622"><ele>922.0</ele><time>2026-03-28T14:10:24Z</time></trkpt><trkpt lat="42.39303779529025" lon="12.721686474074788"><ele>922.0</ele><time>2026-03-28T14:10:29Z</time></trkpt><trkpt lat="42.39311788226797" lon="12.721697765219181"><ele>921.9999999999999</ele><time>2026-03-28T14:10:33Z</time></trkpt><trkpt lat="42.39322493686181" lon="12.72169830686328"><ele>922.0</ele><time>2026-03-28T14:10:35Z</time></trkpt><trkpt lat="42.39331664919983" lon="12.721656163972533"><ele>922.8</ele><time>2026-03-28T14:10:36.999Z</time></trkpt><trkpt lat="42.3934364589233" lon="12.721658943475228"><ele>923.6</ele><time>2026-03-28T14:10:38.999Z</time></trkpt><trkpt lat="42.39350861234561" lon="12.721774396251364"><ele>924.3999999999999</ele><time>2026-03-28T14:10:40.999Z</time></trkpt><trkpt lat="42.39354313892123" lon="12.721868845700516"><ele>925.1999999999999</ele><time>2026-03-28T14:10:41.999Z</time></trkpt><trkpt lat="42.393575965964104" lon="12.722043218655589"><ele>926.0</ele><time>2026-03-28T14:10:42.999Z</time></trkpt><trkpt lat="42.393619162038085" lon="12.722201561373371"><ele>925.0</ele><time>2026-03-28T14:10:43.999Z</time></trkpt><trkpt lat="42.39367960222821" lon="12.722340743819391"><ele>923.9999999999999</ele><time>2026-03-28T14:10:45.999Z</time></trkpt><trkpt lat="42.39370957250762" lon="12.722438382313198"><ele>922.9999999999999</ele><time>2026-03-28T14:10:46.999Z</time></trkpt><trkpt lat="42.3937613431135" lon="12.722509335742869"><ele>922.0</ele><time>2026-03-28T14:10:47.999Z</time></trkpt><trkpt lat="42.39384640625815" lon="12.722613709135311"><ele>921.0</ele><time>2026-03-28T14:10:49.999Z</time></trkpt><trkpt lat="42.393923632171045" lon="12.72271916916751"><ele>921.0</ele><time>2026-03-28T14:10:51.999Z</time></trkpt><trkpt lat="42.39400182122681" lon="12.722760390116083"><ele>921.0</ele><time>2026-03-28T14:10:53.999Z</time></trkpt><trkpt lat="42.39412576989735" lon="12.722773221801223"><ele>921.0</ele><time>2026-03-28T14:10:55.999Z</time></trkpt><trkpt lat="42.394203715218815" lon="12.722760206929095"><ele>921.0</ele><time>2026-03-28T14:10:56.999Z</time></trkpt><trkpt lat="42.39427102669965" lon="12.72273484236065"><ele>921.0</ele><time>2026-03-28T14:10:57.999Z</time></trkpt><trkpt lat="42.39433848214933" lon="12.72272668712008"><ele>921.0</ele><time>2026-03-28T14:10:58.999Z</time></trkpt><trkpt lat="42.39441056102284" lon="12.72271382764291"><ele>921.0</ele><time>2026-03-28T14:10:59.999Z</time></trkpt><trkpt lat="42.39450784253857" lon="12.722707974044013"><ele>921.0</ele><time>2026-03-28T14:11:00.999Z</time></trkpt><trkpt lat="42.394579793869696" lon="12.722706864246609"><ele>921.0</ele><time>2026-03-28T14:11:01.999Z</time></trkpt><trkpt lat="42.39464740081202" lon="12.722717501666958"><ele>921.0</ele><time>2026-03-28T14:11:02.999Z</time></trkpt><trkpt lat="42.39474154374386" lon="12.722798915462485"><ele>921.0</ele><time>2026-03-28T14:11:04.999Z</time></trkpt><trkpt lat="42.39478674001114" lon="12.722864974628658"><ele>921.0</ele><time>2026-03-28T14:11:05.999Z</time></trkpt><trkpt lat="42.394841070602766" lon="12.722915541463797"><ele>916.8</ele><time>2026-03-28T14:11:06.999Z</time></trkpt><trkpt lat="42.39490490439888" lon="12.722984185009002"><ele>912.5999999999999</ele><time>2026-03-28T14:11:09.999Z</time></trkpt><trkpt lat="42.394988700090565" lon="12.723026273475318"><ele>908.4</ele><time>2026-03-28T14:11:11.999Z</time></trkpt><trkpt lat="42.395088151701415" lon="12.723034809493935"><ele>904.2</ele><time>2026-03-28T14:11:13.999Z</time></trkpt><trkpt lat="42.39520269495317" lon="12.722950150193576"><ele>900.0</ele><time>2026-03-28T14:11:15.999Z</time></trkpt><trkpt lat="42.39529545959783" lon="12.722894956705538"><ele>900.0</ele><time>2026-03-28T14:11:17.999Z</time></trkpt><trkpt lat="42.395359825981394" lon="12.722860477873597"><ele>900.0</ele><time>2026-03-28T14:11:18.999Z</time></trkpt><trkpt lat="42.395505598509544" lon="12.722840669145487"><ele>900.0</ele><time>2026-03-28T14:11:20.999Z</time></trkpt><trkpt lat="42.395594501553234" lon="12.722849286717098"><ele>900.0</ele><time>2026-03-28T14:11:21.999Z</time></trkpt><trkpt lat="42.39567943182118" lon="12.722860251703423"><ele>900.0</ele><time>2026-03-28T14:11:22.999Z</time></trkpt><trkpt lat="42.39574505134846" lon="12.722876322563238"><ele>900.0</ele><time>2026-03-28T14:11:23.999Z</time></trkpt><trkpt lat="42.39584139368453" lon="12.722931623199772"><ele>900.0</ele><time>2026-03-28T14:11:25.999Z</time></trkpt><trkpt lat="42.39590942316377" lon="12.723029341355348"><ele>900.0</ele><time>2026-03-28T14:11:27.999Z</time></trkpt><trkpt lat="42.39596135580124" lon="12.723103522481665"><ele>900.0</ele><time>2026-03-28T14:11:28.999Z</time></trkpt><trkpt lat="42.39602906473144" lon="12.723151788991963"><ele>900.0</ele><time>2026-03-28T14:11:30.999Z</time></trkpt><trkpt lat="42.396112192663246" lon="12.723227990661641"><ele>900.0</ele><time>2026-03-28T14:11:32.999Z</time></trkpt><trkpt lat="42.39618061513689" lon="12.723234072722622"><ele>900.0</ele><time>2026-03-28T14:11:33.999Z</time></trkpt><trkpt lat="42.39625351797263" lon="12.72321629470225"><ele>900.0</ele><time>2026-03-28T14:11:35.999Z</time></trkpt><trkpt lat="42.396347763550416" lon="12.723227249216093"><ele>900.0</ele><time>2026-03-28T14:11:38.999Z</time></trkpt><trkpt lat="42.39643940522376" lon="12.723208719758135"><ele>900.0</ele><time>2026-03-28T14:11:40.999Z</time></trkpt><trkpt lat="42.39654867349933" lon="12.723136297751518"><ele>900.0</ele><time>2026-03-28T14:11:42.999Z</time></trkpt><trkpt lat="42.3966648094936" lon="12.72307973477283"><ele>900.0</ele><time>2026-03-28T14:11:44.999Z</time></trkpt><trkpt lat="42.396742173646196" lon="12.723059924578957"><ele>900.0</ele><time>2026-03-28T14:11:45.999Z</time></trkpt><trkpt lat="42.39684508555815" lon="12.723032751431345"><ele>900.0</ele><time>2026-03-28T14:11:46.999Z</time></trkpt><trkpt lat="42.39695588748664" lon="12.723001980374717"><ele>900.0</ele><time>2026-03-28T14:11:47.999Z</time></trkpt><trkpt lat="42.39705764294123" lon="12.722965439895232"><ele>898.6</ele><time>2026-03-28T14:11:48.999Z</time></trkpt><trkpt lat="42.39716937401251" lon="12.722936852431358"><ele>897.2</ele><time>2026-03-28T14:11:49.999Z</time></trkpt><trkpt lat="42.39727160757699" lon="12.722963769999948"><ele>895.8</ele><time>2026-03-28T14:11:50.999Z</time></trkpt><trkpt lat="42.397367996585935" lon="12.722952878055763"><ele>894.4</ele><time>2026-03-28T14:11:52Z</time></trkpt><trkpt lat="42.39746234706636" lon="12.722925472760643"><ele>893.0</ele><time>2026-03-28T14:11:53Z</time></trkpt><trkpt lat="42.39755288426662" lon="12.722944266021367"><ele>893.0000000000001</ele><time>2026-03-28T14:11:54Z</time></trkpt><trkpt lat="42.39764037954377" lon="12.722945773590082"><ele>893.0</ele><time>2026-03-28T14:11:55Z</time></trkpt><trkpt lat="42.39771365986013" lon="12.722962643716267"><ele>893.0</ele><time>2026-03-28T14:11:56Z</time></trkpt><trkpt lat="42.39778418101058" lon="12.722989073229376"><ele>893.0</ele><time>2026-03-28T14:11:57Z</time></trkpt><trkpt lat="42.39785285373715" lon="12.723028449968417"><ele>893.0000000000001</ele><time>2026-03-28T14:11:58Z</time></trkpt><trkpt lat="42.3979366623985" lon="12.723073484773721"><ele>893.0</ele><time>2026-03-28T14:11:59Z</time></trkpt><trkpt lat="42.39800806848673" lon="12.72310817371533"><ele>893.8333333333334</ele><time>2026-03-28T14:12:00Z</time></trkpt><trkpt lat="42.39809198483945" lon="12.72312320184157"><ele>894.6666666666667</ele><time>2026-03-28T14:12:01Z</time></trkpt><trkpt lat="42.39817498954858" lon="12.723142066517012"><ele>895.5</ele><time>2026-03-28T14:12:02Z</time></trkpt><trkpt lat="42.39824335097896" lon="12.723170718799112"><ele>896.3333333333333</ele><time>2026-03-28T14:12:03Z</time></trkpt><trkpt lat="42.398302892709076" lon="12.723236108026866"><ele>897.1666666666666</ele><time>2026-03-28T14:12:04Z</time></trkpt><trkpt lat="42.39839162054969" lon="12.723311491569538"><ele>898.0</ele><time>2026-03-28T14:12:05Z</time></trkpt><trkpt lat="42.398485826236104" lon="12.72339022252047"><ele>898.0</ele><time>2026-03-28T14:12:06Z</time></trkpt><trkpt lat="42.398576763540696" lon="12.723464583772657"><ele>898.0</ele><time>2026-03-28T14:12:07Z</time></trkpt><trkpt lat="42.398664236690884" lon="12.723530179580923"><ele>898.0</ele><time>2026-03-28T14:12:08Z</time></trkpt><trkpt lat="42.3987376892998" lon="12.723578725007926"><ele>898.0</ele><time>2026-03-28T14:12:09Z</time></trkpt><trkpt lat="42.39882078705776" lon="12.723620139405575"><ele>898.0</ele><time>2026-03-28T14:12:10Z</time></trkpt><trkpt lat="42.39889828933418" lon="12.723633520099249"><ele>896.8</ele><time>2026-03-28T14:12:11Z</time></trkpt><trkpt lat="42.39897670792457" lon="12.723691205237879"><ele>895.5999999999999</ele><time>2026-03-28T14:12:12Z</time></trkpt><trkpt lat="42.3990613913088" lon="12.723732703527956"><ele>894.4000000000001</ele><time>2026-03-28T14:12:13Z</time></trkpt><trkpt lat="42.399144887716304" lon="12.72376401559124"><ele>893.2</ele><time>2026-03-28T14:12:14Z</time></trkpt><trkpt lat="42.39921642047896" lon="12.723835063599124"><ele>892.0</ele><time>2026-03-28T14:12:15Z</time></trkpt><trkpt lat="42.39927019185755" lon="12.724007268746048"><ele>892.0</ele><time>2026-03-28T14:12:17Z</time></trkpt><trkpt lat="42.39931442701095" lon="12.724107981416076"><ele>892.0</ele><time>2026-03-28T14:12:18Z</time></trkpt><trkpt lat="42.39935329512834" lon="12.724206388924454"><ele>892.0</ele><time>2026-03-28T14:12:19Z</time></trkpt><trkpt lat="42.39940003610389" lon="12.724364975956368"><ele>892.0</ele><time>2026-03-28T14:12:21Z</time></trkpt><trkpt lat="42.39947466142048" lon="12.724487852343813"><ele>892.0</ele><time>2026-03-28T14:12:23Z</time></trkpt><trkpt lat="42.39957366377533" lon="12.72455864045886"><ele>891.1666666666666</ele><time>2026-03-28T14:12:25Z</time></trkpt><trkpt lat="42.39966981544311" lon="12.724593198980697"><ele>890.3333333333333</ele><time>2026-03-28T14:12:27Z</time></trkpt><trkpt lat="42.399733261807434" lon="12.724600865660898"><ele>889.5</ele><time>2026-03-28T14:12:28Z</time></trkpt><trkpt lat="42.39979951281821" lon="12.724602233897233"><ele>888.6666666666667</ele><time>2026-03-28T14:12:29Z</time></trkpt><trkpt lat="42.39992987144903" lon="12.724579411181267"><ele>887.8333333333334</ele><time>2026-03-28T14:12:31Z</time></trkpt><trkpt lat="42.39997936171128" lon="12.724497787537707"><ele>887.0</ele><time>2026-03-28T14:12:32Z</time></trkpt><trkpt lat="42.4000502623868" lon="12.724465036259401"><ele>887.0000000000001</ele><time>2026-03-28T14:12:34Z</time></trkpt><trkpt lat="42.400104335984274" lon="12.724418540642942"><ele>887.0</ele><time>2026-03-28T14:12:36Z</time></trkpt><trkpt lat="42.40017935640965" lon="12.724363441281378"><ele>887.0</ele><time>2026-03-28T14:12:39Z</time></trkpt><trkpt lat="42.400269092960464" lon="12.724332225831667"><ele>887.0</ele><time>2026-03-28T14:12:42Z</time></trkpt><trkpt lat="42.400341908604226" lon="12.724291913687734"><ele>887.0000000000001</ele><time>2026-03-28T14:12:44Z</time></trkpt><trkpt lat="42.40042897977101" lon="12.724268313744368"><ele>887.0</ele><time>2026-03-28T14:12:45.999Z</time></trkpt><trkpt lat="42.40053077106869" lon="12.72421893310861"><ele>889.6</ele><time>2026-03-28T14:12:47.999Z</time></trkpt><trkpt lat="42.40062112855668" lon="12.72418317897793"><ele>892.2</ele><time>2026-03-28T14:12:49.999Z</time></trkpt><trkpt lat="42.40067439112281" lon="12.724115991185906"><ele>894.8</ele><time>2026-03-28T14:16:27Z</time></trkpt><trkpt lat="42.40077961640319" lon="12.724159424114182"><ele>897.4</ele><time>2026-03-28T14:16:29Z</time></trkpt><trkpt lat="42.400878231249955" lon="12.724216621725045"><ele>900.0</ele><time>2026-03-28T14:16:31Z</time></trkpt><trkpt lat="42.40096843030876" lon="12.724326205859061"><ele>900.0000000000001</ele><time>2026-03-28T14:16:33Z</time></trkpt><trkpt lat="42.401023962060286" lon="12.72436789968936"><ele>900.0</ele><time>2026-03-28T14:16:34Z</time></trkpt><trkpt lat="42.401095889007934" lon="12.724420462421588"><ele>900.0000000000001</ele><time>2026-03-28T14:16:35Z</time></trkpt><trkpt lat="42.401161567624854" lon="12.724460593117389"><ele>900.0000000000001</ele><time>2026-03-28T14:16:36Z</time></trkpt><trkpt lat="42.40122496953716" lon="12.724489359191429"><ele>900.0</ele><time>2026-03-28T14:16:37Z</time></trkpt><trkpt lat="42.40129135617323" lon="12.724513515760407"><ele>900.0000000000001</ele><time>2026-03-28T14:16:38Z</time></trkpt><trkpt lat="42.401368046266604" lon="12.724519752612132"><ele>900.0000000000001</ele><time>2026-03-28T14:16:39Z</time></trkpt><trkpt lat="42.401442430432816" lon="12.724483139640375"><ele>897.0</ele><time>2026-03-28T14:16:40Z</time></trkpt><trkpt lat="42.40151780669964" lon="12.724487455960626"><ele>894.0</ele><time>2026-03-28T14:16:41Z</time></trkpt><trkpt lat="42.40164896609299" lon="12.724448416004094"><ele>891.0</ele><time>2026-03-28T14:16:43Z</time></trkpt><trkpt lat="42.40173150570855" lon="12.724426176420065"><ele>888.0</ele><time>2026-03-28T14:16:44Z</time></trkpt><trkpt lat="42.4018147925529" lon="12.724409548572822"><ele>885.0</ele><time>2026-03-28T14:16:45Z</time></trkpt><trkpt lat="42.40192472883597" lon="12.724400971473543"><ele>885.0</ele><time>2026-03-28T14:16:46Z</time></trkpt><trkpt lat="42.402044947491106" lon="12.724407456154415"><ele>885.0</ele><time>2026-03-28T14:16:47Z</time></trkpt><trkpt lat="42.402149676327184" lon="12.724415074854544"><ele>885.0</ele><time>2026-03-28T14:16:48Z</time></trkpt><trkpt lat="42.40222849497981" lon="12.724397318198442"><ele>885.0</ele><time>2026-03-28T14:16:49Z</time></trkpt><trkpt lat="42.402291532916415" lon="12.724419296963699"><ele>885.0</ele><time>2026-03-28T14:16:52Z</time></trkpt><trkpt lat="42.4023640255532" lon="12.724404330604832"><ele>885.0</ele><time>2026-03-28T14:16:54Z</time></trkpt><trkpt lat="42.40242240035045" lon="12.724351632876"><ele>887.4</ele><time>2026-03-28T14:16:56Z</time></trkpt><trkpt lat="42.40248440081904" lon="12.72431017076501"><ele>889.8</ele><time>2026-03-28T14:16:57Z</time></trkpt><trkpt lat="42.4025861820494" lon="12.72425871199125"><ele>892.2</ele><time>2026-03-28T14:16:58.999Z</time></trkpt><trkpt lat="42.4026789873033" lon="12.724209205399456"><ele>894.6</ele><time>2026-03-28T14:17:00.999Z</time></trkpt><trkpt lat="42.4027759659955" lon="12.724182919691867"><ele>897.0</ele><time>2026-03-28T14:17:02.999Z</time></trkpt><trkpt lat="42.40285978353624" lon="12.724170293439839"><ele>897.0</ele><time>2026-03-28T14:17:04.999Z</time></trkpt><trkpt lat="42.40294302304274" lon="12.724163294127713"><ele>897.0</ele><time>2026-03-28T14:17:06.999Z</time></trkpt><trkpt lat="42.4030221179863" lon="12.724156643300969"><ele>897.0</ele><time>2026-03-28T14:17:10.999Z</time></trkpt><trkpt lat="42.4030911318282" lon="12.724150840180418"><ele>897.0</ele><time>2026-03-28T14:17:13.999Z</time></trkpt><trkpt lat="42.403155297037976" lon="12.72414363316048"><ele>897.0</ele><time>2026-03-28T14:17:17.999Z</time></trkpt><trkpt lat="42.403227341988355" lon="12.724135169730282"><ele>897.0</ele><time>2026-03-28T14:17:24.999Z</time></trkpt><trkpt lat="42.40332109883888" lon="12.724106353287134"><ele>895.6</ele><time>2026-03-28T14:17:26.999Z</time></trkpt><trkpt lat="42.40344260632497" lon="12.724102000522327"><ele>894.2</ele><time>2026-03-28T14:17:29.999Z</time></trkpt><trkpt lat="42.40353576908802" lon="12.724073721841055"><ele>892.8</ele><time>2026-03-28T14:17:31.999Z</time></trkpt><trkpt lat="42.40361660534647" lon="12.724014111244431"><ele>891.4</ele><time>2026-03-28T14:17:33.999Z</time></trkpt><trkpt lat="42.4037114591206" lon="12.723996827925207"><ele>890.0</ele><time>2026-03-28T14:17:35.999Z</time></trkpt><trkpt lat="42.403814673624645" lon="12.723969183967235"><ele>888.1666666666667</ele><time>2026-03-28T14:17:37.999Z</time></trkpt><trkpt lat="42.40395939181665" lon="12.723944011135899"><ele>886.3333333333334</ele><time>2026-03-28T14:17:39.999Z</time></trkpt><trkpt lat="42.40404533323319" lon="12.723935103551925"><ele>884.5</ele><time>2026-03-28T14:17:41.999Z</time></trkpt><trkpt lat="42.404114895350844" lon="12.723925845761858"><ele>882.6666666666667</ele><time>2026-03-28T14:17:43.999Z</time></trkpt><trkpt lat="42.40417716954375" lon="12.723912851408704"><ele>880.8333333333334</ele><time>2026-03-28T14:17:44.999Z</time></trkpt><trkpt lat="42.40424123899238" lon="12.72389056115612"><ele>879.0</ele><time>2026-03-28T14:17:45.999Z</time></trkpt><trkpt lat="42.40433493306739" lon="12.72386007392388"><ele>879.0</ele><time>2026-03-28T14:17:46.999Z</time></trkpt><trkpt lat="42.40443175168514" lon="12.723874740969238"><ele>879.0</ele><time>2026-03-28T14:17:47.999Z</time></trkpt><trkpt lat="42.404494957884005" lon="12.723840537920006"><ele>879.0</ele><time>2026-03-28T14:17:48.999Z</time></trkpt><trkpt lat="42.40457981330133" lon="12.723825898686526"><ele>879.0</ele><time>2026-03-28T14:17:49.999Z</time></trkpt><trkpt lat="42.40465591906972" lon="12.723804443957182"><ele>879.0</ele><time>2026-03-28T14:17:50.999Z</time></trkpt><trkpt lat="42.40473026169701" lon="12.72379364890982"><ele>879.0</ele><time>2026-03-28T14:17:51.999Z</time></trkpt><trkpt lat="42.40481072635484" lon="12.72377881759386"><ele>875.8333333333334</ele><time>2026-03-28T14:17:52.999Z</time></trkpt><trkpt lat="42.404896996010656" lon="12.723768669341489"><ele>872.6666666666667</ele><time>2026-03-28T14:17:53.999Z</time></trkpt><trkpt lat="42.40497881755631" lon="12.723747698834668"><ele>869.5</ele><time>2026-03-28T14:17:54.999Z</time></trkpt><trkpt lat="42.40505588619869" lon="12.723718088120265"><ele>866.3333333333334</ele><time>2026-03-28T14:17:55.999Z</time></trkpt><trkpt lat="42.40514314444613" lon="12.723724695756951"><ele>863.1666666666667</ele><time>2026-03-28T14:17:56.999Z</time></trkpt><trkpt lat="42.40522570409375" lon="12.723726993265256"><ele>860.0</ele><time>2026-03-28T14:17:57.999Z</time></trkpt><trkpt lat="42.40530021951948" lon="12.723710211401126"><ele>860.0</ele><time>2026-03-28T14:17:58.999Z</time></trkpt><trkpt lat="42.40538176352307" lon="12.723742388038996"><ele>860.0</ele><time>2026-03-28T14:17:59.999Z</time></trkpt><trkpt lat="42.40544732976312" lon="12.723759819112901"><ele>860.0</ele><time>2026-03-28T14:18:00.999Z</time></trkpt><trkpt lat="42.40551362805398" lon="12.723749316325096"><ele>860.0</ele><time>2026-03-28T14:18:01.999Z</time></trkpt><trkpt lat="42.405587127335714" lon="12.72373982838265"><ele>860.0</ele><time>2026-03-28T14:18:02.999Z</time></trkpt><trkpt lat="42.40565137169087" lon="12.72373583801989"><ele>860.0</ele><time>2026-03-28T14:18:03.999Z</time></trkpt><trkpt lat="42.40572534302213" lon="12.723728150002405"><ele>860.0</ele><time>2026-03-28T14:18:04.999Z</time></trkpt><trkpt lat="42.4057883753112" lon="12.723719385643292"><ele>857.1428571428571</ele><time>2026-03-28T14:18:05.999Z</time></trkpt><trkpt lat="42.405862016688566" lon="12.723703644880064"><ele>854.2857142857143</ele><time>2026-03-28T14:18:06.999Z</time></trkpt><trkpt lat="42.4059326843775" lon="12.723698096228027"><ele>851.4285714285714</ele><time>2026-03-28T14:18:07.999Z</time></trkpt><trkpt lat="42.40600043732618" lon="12.72370161990369"><ele>848.5714285714286</ele><time>2026-03-28T14:18:09Z</time></trkpt><trkpt lat="42.40607556190523" lon="12.723695566948276"><ele>845.7142857142858</ele><time>2026-03-28T14:18:10Z</time></trkpt><trkpt lat="42.40614957925159" lon="12.723689917974301"><ele>842.8571428571429</ele><time>2026-03-28T14:18:11Z</time></trkpt><trkpt lat="42.406223619748104" lon="12.723688092668649"><ele>840.0</ele><time>2026-03-28T14:18:12Z</time></trkpt><trkpt lat="42.40628993916582" lon="12.723692264166829"><ele>838.3333333333334</ele><time>2026-03-28T14:18:13Z</time></trkpt><trkpt lat="42.40635513575361" lon="12.723700418966452"><ele>836.6666666666667</ele><time>2026-03-28T14:18:16Z</time></trkpt><trkpt lat="42.40644544348691" lon="12.72370649886291"><ele>835.0</ele><time>2026-03-28T14:18:18Z</time></trkpt><trkpt lat="42.4065054298635" lon="12.723677843663562"><ele>833.3333333333334</ele><time>2026-03-28T14:18:19Z</time></trkpt><trkpt lat="42.40656923571137" lon="12.723679458665059"><ele>831.6666666666667</ele><time>2026-03-28T14:18:20Z</time></trkpt><trkpt lat="42.40666709721792" lon="12.72363419652221"><ele>830.0</ele><time>2026-03-28T14:18:22Z</time></trkpt><trkpt lat="42.40674157700673" lon="12.723517135661377"><ele>835.0</ele><time>2026-03-28T14:18:24Z</time></trkpt><trkpt lat="42.406784636945034" lon="12.723438628815542"><ele>840.0</ele><time>2026-03-28T14:18:25Z</time></trkpt><trkpt lat="42.40684886248427" lon="12.723352446175648"><ele>845.0</ele><time>2026-03-28T14:18:26Z</time></trkpt><trkpt lat="42.406991688951194" lon="12.723207812187658"><ele>850.0</ele><time>2026-03-28T14:18:29Z</time></trkpt><trkpt lat="42.40708550541009" lon="12.723097794522145"><ele>849.0</ele><time>2026-03-28T14:18:31Z</time></trkpt><trkpt lat="42.40718418306847" lon="12.723002870773932"><ele>848.0</ele><time>2026-03-28T14:18:33Z</time></trkpt><trkpt lat="42.40725033378466" lon="12.722889583342818"><ele>847.0</ele><time>2026-03-28T14:18:35Z</time></trkpt><trkpt lat="42.40727090096075" lon="12.722807425999276"><ele>846.0</ele><time>2026-03-28T14:18:36Z</time></trkpt><trkpt lat="42.40726832758547" lon="12.722638030880928"><ele>845.0</ele><time>2026-03-28T14:18:38Z</time></trkpt><trkpt lat="42.40724141138959" lon="12.722558749583632"><ele>845.0000000000001</ele><time>2026-03-28T14:18:39Z</time></trkpt><trkpt lat="42.407192281365845" lon="12.722436187281634"><ele>845.0</ele><time>2026-03-28T14:18:41Z</time></trkpt><trkpt lat="42.40719157766941" lon="12.722312176571446"><ele>845.0</ele><time>2026-03-28T14:18:43Z</time></trkpt><trkpt lat="42.407242205784144" lon="12.722248207395578"><ele>845.0</ele><time>2026-03-28T14:18:45Z</time></trkpt><trkpt lat="42.407318121597285" lon="12.722195573012717"><ele>845.0000000000001</ele><time>2026-03-28T14:18:47Z</time></trkpt><trkpt lat="42.40738029129618" lon="12.722165547352049"><ele>845.0</ele><time>2026-03-28T14:18:48Z</time></trkpt><trkpt lat="42.40744874873982" lon="12.722123479699027"><ele>845.0000000000001</ele><time>2026-03-28T14:18:49Z</time></trkpt><trkpt lat="42.40752850980254" lon="12.722097448904913"><ele>845.0</ele><time>2026-03-28T14:18:50Z</time></trkpt><trkpt lat="42.40761105791477" lon="12.722058709878723"><ele>845.0</ele><time>2026-03-28T14:18:52Z</time></trkpt><trkpt lat="42.40767421138564" lon="12.72204203933528"><ele>845.0</ele><time>2026-03-28T14:18:53Z</time></trkpt><trkpt lat="42.407713819370656" lon="12.721931089489459"><ele>845.0000000000001</ele><time>2026-03-28T14:18:54Z</time></trkpt><trkpt lat="42.40777251909979" lon="12.721840144504794"><ele>845.0</ele><time>2026-03-28T14:18:55Z</time></trkpt><trkpt lat="42.40784300361384" lon="12.721768863786128"><ele>846.6</ele><time>2026-03-28T14:18:56Z</time></trkpt><trkpt lat="42.40793386283576" lon="12.721760512401836"><ele>848.2</ele><time>2026-03-28T14:18:57Z</time></trkpt><trkpt lat="42.408019885055126" lon="12.721694975753822"><ele>849.8</ele><time>2026-03-28T14:18:58Z</time></trkpt><trkpt lat="42.408050894133986" lon="12.72158715771163"><ele>851.4</ele><time>2026-03-28T14:18:58.999Z</time></trkpt><trkpt lat="42.408094372399965" lon="12.721481385380889"><ele>853.0</ele><time>2026-03-28T14:18:59.999Z</time></trkpt><trkpt lat="42.408185764144775" lon="12.721609297407204"><ele>853.0</ele><time>2026-03-28T14:19:00.999Z</time></trkpt><trkpt lat="42.40827736993698" lon="12.721667348344461"><ele>853.0</ele><time>2026-03-28T14:19:01.999Z</time></trkpt><trkpt lat="42.408397389257374" lon="12.721617214057847"><ele>853.0</ele><time>2026-03-28T14:19:02.999Z</time></trkpt><trkpt lat="42.408485270761304" lon="12.721582105677442"><ele>853.0</ele><time>2026-03-28T14:19:03.999Z</time></trkpt><trkpt lat="42.40859772172886" lon="12.72158543560514"><ele>853.0</ele><time>2026-03-28T14:19:05.999Z</time></trkpt><trkpt lat="42.40869790480725" lon="12.721602210444244"><ele>852.9999999999999</ele><time>2026-03-28T14:19:07.999Z</time></trkpt><trkpt lat="42.40875614197986" lon="12.72154594997025"><ele>853.0</ele><time>2026-03-28T14:19:09.999Z</time></trkpt><trkpt lat="42.4088349420352" lon="12.721484433562011"><ele>853.0</ele><time>2026-03-28T14:19:11.999Z</time></trkpt><trkpt lat="42.408922299324345" lon="12.721417356341274"><ele>853.0</ele><time>2026-03-28T14:19:12.999Z</time></trkpt><trkpt lat="42.40901088963298" lon="12.721417322181868"><ele>852.9999999999999</ele><time>2026-03-28T14:19:13.999Z</time></trkpt><trkpt lat="42.40905950389282" lon="12.721336741397387"><ele>853.0</ele><time>2026-03-28T14:19:14.999Z</time></trkpt><trkpt lat="42.40913893701104" lon="12.721256421397142"><ele>851.8333333333333</ele><time>2026-03-28T14:19:15.999Z</time></trkpt><trkpt lat="42.40919501920738" lon="12.721195315634933"><ele>850.6666666666666</ele><time>2026-03-28T14:19:16.999Z</time></trkpt><trkpt lat="42.409252402524324" lon="12.72113594726335"><ele>849.5</ele><time>2026-03-28T14:19:17.999Z</time></trkpt><trkpt lat="42.40934263701584" lon="12.7211895608254"><ele>848.3333333333333</ele><time>2026-03-28T14:19:18.999Z</time></trkpt><trkpt lat="42.40941402636686" lon="12.721205109634786"><ele>847.1666666666666</ele><time>2026-03-28T14:19:22.999Z</time></trkpt><trkpt lat="42.40949223144182" lon="12.721233189548956"><ele>846.0</ele><time>2026-03-28T14:19:43.999Z</time></trkpt><trkpt lat="42.40955653413908" lon="12.721269995072225"><ele>846.0</ele><time>2026-03-28T14:19:44.999Z</time></trkpt><trkpt lat="42.40961422741123" lon="12.721316602591212"><ele>846.0</ele><time>2026-03-28T14:19:46.999Z</time></trkpt><trkpt lat="42.409666810720374" lon="12.721382140304625"><ele>846.0</ele><time>2026-03-28T14:19:47.999Z</time></trkpt><trkpt lat="42.40971782008028" lon="12.72145712204421"><ele>846.0</ele><time>2026-03-28T14:19:48.999Z</time></trkpt><trkpt lat="42.4097119955561" lon="12.72155526914115"><ele>846.0</ele><time>2026-03-28T14:19:49.999Z</time></trkpt><trkpt lat="42.40969434380933" lon="12.721650699261593"><ele>846.0</ele><time>2026-03-28T14:19:50.999Z</time></trkpt><trkpt lat="42.409643908425025" lon="12.721781096584818"><ele>845.5999999999999</ele><time>2026-03-28T14:19:52.999Z</time></trkpt><trkpt lat="42.40962529806298" lon="12.721937705505239"><ele>845.2</ele><time>2026-03-28T14:19:54.999Z</time></trkpt><trkpt lat="42.409675534144355" lon="12.722060023283456"><ele>844.8</ele><time>2026-03-28T14:19:56.999Z</time></trkpt><trkpt lat="42.40973700464054" lon="12.72216404342903"><ele>844.4000000000001</ele><time>2026-03-28T14:19:58.999Z</time></trkpt><trkpt lat="42.409792255989885" lon="12.722213581899664"><ele>844.0</ele><time>2026-03-28T14:20:40Z</time></trkpt><trkpt lat="42.40974856614402" lon="12.722409285492159"><ele>844.0</ele><time>2026-03-28T14:20:44Z</time></trkpt><trkpt lat="42.40966597271286" lon="12.722525393028905"><ele>844.0</ele><time>2026-03-28T14:20:45Z</time></trkpt><trkpt lat="42.40958125295923" lon="12.72266547436108"><ele>844.0</ele><time>2026-03-28T14:20:46Z</time></trkpt><trkpt lat="42.40948589209617" lon="12.722858522886245"><ele>844.0</ele><time>2026-03-28T14:20:47Z</time></trkpt><trkpt lat="42.40938609939706" lon="12.723061295241173"><ele>844.6666666666666</ele><time>2026-03-28T14:20:48Z</time></trkpt><trkpt lat="42.40927877064044" lon="12.723255298020497"><ele>845.3333333333333</ele><time>2026-03-28T14:20:49Z</time></trkpt><trkpt lat="42.409179562227976" lon="12.723423991836672"><ele>846.0</ele><time>2026-03-28T14:20:50Z</time></trkpt><trkpt lat="42.40907715860318" lon="12.723580750123924"><ele>846.0</ele><time>2026-03-28T14:20:51Z</time></trkpt><trkpt lat="42.40898722513381" lon="12.72371423336702"><ele>846.0</ele><time>2026-03-28T14:20:52Z</time></trkpt><trkpt lat="42.40889859740698" lon="12.723846245933204"><ele>846.0</ele><time>2026-03-28T14:20:53Z</time></trkpt><trkpt lat="42.40881122262888" lon="12.723972691106104"><ele>846.0</ele><time>2026-03-28T14:20:54Z</time></trkpt><trkpt lat="42.40871821211161" lon="12.724085918527955"><ele>843.5</ele><time>2026-03-28T14:20:55Z</time></trkpt><trkpt lat="42.408648334947536" lon="12.724188421003879"><ele>841.0</ele><time>2026-03-28T14:20:56Z</time></trkpt><trkpt lat="42.408588793316056" lon="12.724264750201497"><ele>838.5</ele><time>2026-03-28T14:20:57Z</time></trkpt><trkpt lat="42.40854961609128" lon="12.72433887532976"><ele>836.0</ele><time>2026-03-28T14:20:58Z</time></trkpt><trkpt lat="42.4085135891197" lon="12.724413386296838"><ele>833.5</ele><time>2026-03-28T14:21:00Z</time></trkpt><trkpt lat="42.408488677411356" lon="12.724500996554399"><ele>831.0</ele><time>2026-03-28T14:21:09.999Z</time></trkpt><trkpt lat="42.408449687726" lon="12.724586417401275"><ele>831.0</ele><time>2026-03-28T14:21:11.999Z</time></trkpt><trkpt lat="42.40837021969812" lon="12.724690442289287"><ele>831.0</ele><time>2026-03-28T14:21:12.999Z</time></trkpt><trkpt lat="42.408285583273404" lon="12.724833175334034"><ele>831.0</ele><time>2026-03-28T14:21:13.999Z</time></trkpt><trkpt lat="42.40818311599534" lon="12.724997925904171"><ele>831.0</ele><time>2026-03-28T14:21:14.999Z</time></trkpt><trkpt lat="42.40807635930535" lon="12.725176258116734"><ele>826.75</ele><time>2026-03-28T14:21:15.999Z</time></trkpt><trkpt lat="42.40795137063448" lon="12.725305851169486"><ele>822.5</ele><time>2026-03-28T14:21:16.999Z</time></trkpt><trkpt lat="42.40783766213754" lon="12.725423744674439"><ele>818.25</ele><time>2026-03-28T14:21:17.999Z</time></trkpt><trkpt lat="42.407722892159995" lon="12.725542848181087"><ele>814.0</ele><time>2026-03-28T14:21:18.999Z</time></trkpt><trkpt lat="42.407619950976496" lon="12.725661019101583"><ele>814.0</ele><time>2026-03-28T14:21:19.999Z</time></trkpt><trkpt lat="42.40752043524801" lon="12.72578517197891"><ele>814.0</ele><time>2026-03-28T14:21:20.999Z</time></trkpt><trkpt lat="42.4074294004892" lon="12.725913222565504"><ele>814.0</ele><time>2026-03-28T14:21:21.999Z</time></trkpt><trkpt lat="42.40734514892203" lon="12.72605535188864"><ele>814.0</ele><time>2026-03-28T14:21:22.999Z</time></trkpt><trkpt lat="42.40729231119193" lon="12.726235096714657"><ele>817.0</ele><time>2026-03-28T14:21:23.999Z</time></trkpt><trkpt lat="42.40726459806273" lon="12.72642091731201"><ele>820.0</ele><time>2026-03-28T14:21:24.999Z</time></trkpt><trkpt lat="42.40724923517479" lon="12.72661521679837"><ele>823.0</ele><time>2026-03-28T14:21:25.999Z</time></trkpt><trkpt lat="42.40722318763626" lon="12.726841809523128"><ele>824.0</ele><time>2026-03-28T14:21:26.999Z</time></trkpt><trkpt lat="42.40721445943357" lon="12.727086594307782"><ele>825.0</ele><time>2026-03-28T14:21:27.999Z</time></trkpt><trkpt lat="42.407224993280074" lon="12.727356307205644"><ele>826.0</ele><time>2026-03-28T14:21:28.999Z</time></trkpt><trkpt lat="42.40720934091307" lon="12.727629882880164"><ele>824.0</ele><time>2026-03-28T14:21:29.999Z</time></trkpt><trkpt lat="42.40721308725364" lon="12.727912038064721"><ele>822.0</ele><time>2026-03-28T14:21:30.999Z</time></trkpt><trkpt lat="42.407208025785884" lon="12.728168084937908"><ele>820.0</ele><time>2026-03-28T14:21:31.999Z</time></trkpt><trkpt lat="42.407200830186625" lon="12.728402329651495"><ele>819.0</ele><time>2026-03-28T14:21:32.999Z</time></trkpt><trkpt lat="42.40717476404715" lon="12.7286016152924"><ele>818.0</ele><time>2026-03-28T14:21:33.999Z</time></trkpt><trkpt lat="42.40716558440275" lon="12.728775011295017"><ele>817.0</ele><time>2026-03-28T14:21:34.999Z</time></trkpt><trkpt lat="42.40716556543697" lon="12.728930417968883"><ele>816.0</ele><time>2026-03-28T14:21:35.999Z</time></trkpt><trkpt lat="42.4071889603328" lon="12.729074917354271"><ele>816.0</ele><time>2026-03-28T14:21:36.999Z</time></trkpt><trkpt lat="42.4072278738654" lon="12.729226255145086"><ele>816.0</ele><time>2026-03-28T14:21:37.999Z</time></trkpt><trkpt lat="42.40729153220826" lon="12.729366093970151"><ele>816.0</ele><time>2026-03-28T14:21:38.999Z</time></trkpt><trkpt lat="42.40734163491268" lon="12.729479604481277"><ele>816.0</ele><time>2026-03-28T14:21:39.999Z</time></trkpt><trkpt lat="42.40738390893758" lon="12.729632193320905"><ele>815.75</ele><time>2026-03-28T14:21:40.999Z</time></trkpt><trkpt lat="42.40742101126458" lon="12.729774555793108"><ele>815.5</ele><time>2026-03-28T14:21:41.999Z</time></trkpt><trkpt lat="42.40744699384304" lon="12.729946354848732"><ele>815.25</ele><time>2026-03-28T14:21:42.999Z</time></trkpt><trkpt lat="42.407437244153925" lon="12.73012952683164"><ele>815.0</ele><time>2026-03-28T14:21:43.999Z</time></trkpt><trkpt lat="42.40741633177222" lon="12.730341942525941"><ele>814.0</ele><time>2026-03-28T14:21:44.999Z</time></trkpt><trkpt lat="42.407382860976654" lon="12.730570280644816"><ele>813.0</ele><time>2026-03-28T14:21:45.999Z</time></trkpt><trkpt lat="42.40732812903528" lon="12.730775464792007"><ele>812.0</ele><time>2026-03-28T14:21:46.999Z</time></trkpt><trkpt lat="42.40727277493729" lon="12.730952698005753"><ele>812.0</ele><time>2026-03-28T14:21:47.999Z</time></trkpt><trkpt lat="42.407214994473335" lon="12.73111052180011"><ele>812.0</ele><time>2026-03-28T14:21:48.999Z</time></trkpt><trkpt lat="42.407166206709896" lon="12.731256709168187"><ele>812.0</ele><time>2026-03-28T14:21:49.999Z</time></trkpt><trkpt lat="42.407125969696196" lon="12.731383257679406"><ele>812.0</ele><time>2026-03-28T14:21:50.999Z</time></trkpt><trkpt lat="42.40710360696536" lon="12.731496193305743"><ele>812.0</ele><time>2026-03-28T14:21:51.999Z</time></trkpt><trkpt lat="42.40710904757847" lon="12.731609081538855"><ele>812.0</ele><time>2026-03-28T14:21:52.999Z</time></trkpt><trkpt lat="42.40718129927348" lon="12.731725866077252"><ele>812.0</ele><time>2026-03-28T14:21:53.999Z</time></trkpt><trkpt lat="42.40723419575889" lon="12.731851885853024"><ele>812.0</ele><time>2026-03-28T14:21:54.999Z</time></trkpt><trkpt lat="42.407298052954495" lon="12.731967863993061"><ele>812.0</ele><time>2026-03-28T14:21:55.999Z</time></trkpt><trkpt lat="42.40736054412759" lon="12.732095650270832"><ele>812.0</ele><time>2026-03-28T14:21:56.999Z</time></trkpt><trkpt lat="42.4074188341591" lon="12.732228024697841"><ele>808.5</ele><time>2026-03-28T14:21:57.999Z</time></trkpt><trkpt lat="42.40746806590087" lon="12.732373798080573"><ele>805.0</ele><time>2026-03-28T14:21:58.999Z</time></trkpt><trkpt lat="42.407495783231084" lon="12.732534392166839"><ele>801.5</ele><time>2026-03-28T14:21:59.999Z</time></trkpt><trkpt lat="42.40750343501549" lon="12.732681088676356"><ele>798.0</ele><time>2026-03-28T14:22:00.999Z</time></trkpt><trkpt lat="42.40746486270545" lon="12.732838212444124"><ele>794.5</ele><time>2026-03-28T14:22:01.999Z</time></trkpt><trkpt lat="42.40746095833377" lon="12.732982085172559"><ele>791.0</ele><time>2026-03-28T14:22:02.999Z</time></trkpt><trkpt lat="42.4074719924363" lon="12.73313545401385"><ele>787.5</ele><time>2026-03-28T14:22:03.999Z</time></trkpt><trkpt lat="42.40750778538481" lon="12.73327892942173"><ele>784.0</ele><time>2026-03-28T14:22:04.999Z</time></trkpt><trkpt lat="42.40752374431546" lon="12.73344611216111"><ele>780.2</ele><time>2026-03-28T14:22:05.999Z</time></trkpt><trkpt lat="42.407550204976395" lon="12.73361336853155"><ele>776.4000000000001</ele><time>2026-03-28T14:22:06.999Z</time></trkpt><trkpt lat="42.40756237948015" lon="12.73376998043865"><ele>772.6</ele><time>2026-03-28T14:22:07.999Z</time></trkpt><trkpt lat="42.407532947545434" lon="12.733899245088828"><ele>768.8</ele><time>2026-03-28T14:22:08.999Z</time></trkpt><trkpt lat="42.40753423480714" lon="12.734013019906538"><ele>765.0</ele><time>2026-03-28T14:22:09.999Z</time></trkpt><trkpt lat="42.40755472376505" lon="12.73410995176264"><ele>765.0</ele><time>2026-03-28T14:22:10.999Z</time></trkpt><trkpt lat="42.407581796611716" lon="12.734207651820277"><ele>765.0</ele><time>2026-03-28T14:22:11.999Z</time></trkpt><trkpt lat="42.40764152104038" lon="12.734292791283554"><ele>765.0</ele><time>2026-03-28T14:22:12.999Z</time></trkpt><trkpt lat="42.40772040969108" lon="12.734349987676671"><ele>765.0</ele><time>2026-03-28T14:22:13.999Z</time></trkpt><trkpt lat="42.40779925805762" lon="12.734389132273254"><ele>765.0</ele><time>2026-03-28T14:22:14.999Z</time></trkpt><trkpt lat="42.407882669736736" lon="12.734416079603617"><ele>765.0</ele><time>2026-03-28T14:22:15.999Z</time></trkpt><trkpt lat="42.40796624404398" lon="12.734421199279579"><ele>765.5</ele><time>2026-03-28T14:22:16.999Z</time></trkpt><trkpt lat="42.40805440875724" lon="12.734444586353113"><ele>766.0</ele><time>2026-03-28T14:22:17.999Z</time></trkpt><trkpt lat="42.40813604420696" lon="12.734454722053421"><ele>766.5</ele><time>2026-03-28T14:22:18.999Z</time></trkpt><trkpt lat="42.40821752568472" lon="12.734478782826827"><ele>767.0</ele><time>2026-03-28T14:22:19.999Z</time></trkpt><trkpt lat="42.408300533879554" lon="12.73450163637478"><ele>767.5</ele><time>2026-03-28T14:22:21Z</time></trkpt><trkpt lat="42.408382410464846" lon="12.734526106262894"><ele>768.0</ele><time>2026-03-28T14:22:22Z</time></trkpt><trkpt lat="42.408454947156095" lon="12.734563386759607"><ele>768.0</ele><time>2026-03-28T14:22:23Z</time></trkpt><trkpt lat="42.40852143131053" lon="12.734629085563256"><ele>768.0</ele><time>2026-03-28T14:22:24Z</time></trkpt><trkpt lat="42.40856195150819" lon="12.734726115237342"><ele>768.0</ele><time>2026-03-28T14:22:25Z</time></trkpt><trkpt lat="42.40856361935574" lon="12.734823912825187"><ele>768.0</ele><time>2026-03-28T14:22:26Z</time></trkpt><trkpt lat="42.40856173496801" lon="12.734932602658413"><ele>768.0</ele><time>2026-03-28T14:22:27Z</time></trkpt><trkpt lat="42.40849642464425" lon="12.735026380261443"><ele>768.0</ele><time>2026-03-28T14:22:28Z</time></trkpt><trkpt lat="42.40844812076425" lon="12.735159904509059"><ele>768.75</ele><time>2026-03-28T14:22:29Z</time></trkpt><trkpt lat="42.40836587769831" lon="12.735290688153516"><ele>769.5</ele><time>2026-03-28T14:22:30Z</time></trkpt><trkpt lat="42.40829055729291" lon="12.73544049294933"><ele>770.25</ele><time>2026-03-28T14:22:31Z</time></trkpt><trkpt lat="42.408238250516234" lon="12.735614898065839"><ele>771.0</ele><time>2026-03-28T14:22:32Z</time></trkpt><trkpt lat="42.40819912393875" lon="12.735800837367643"><ele>771.0</ele><time>2026-03-28T14:22:33Z</time></trkpt><trkpt lat="42.40817366738659" lon="12.735996330096706"><ele>771.0</ele><time>2026-03-28T14:22:34Z</time></trkpt><trkpt lat="42.40815248795278" lon="12.736175280420127"><ele>771.0</ele><time>2026-03-28T14:22:35Z</time></trkpt><trkpt lat="42.40813705350814" lon="12.736349177751453"><ele>771.0</ele><time>2026-03-28T14:22:36Z</time></trkpt><trkpt lat="42.40811844044406" lon="12.736516690472984"><ele>770.8</ele><time>2026-03-28T14:22:37Z</time></trkpt><trkpt lat="42.40809898628462" lon="12.73667622327689"><ele>770.5999999999999</ele><time>2026-03-28T14:22:38Z</time></trkpt><trkpt lat="42.408081128716226" lon="12.736816389476743"><ele>770.4</ele><time>2026-03-28T14:22:39Z</time></trkpt><trkpt lat="42.40807640522969" lon="12.736958740955316"><ele>770.2</ele><time>2026-03-28T14:22:40Z</time></trkpt><trkpt lat="42.4080472783621" lon="12.737081797206852"><ele>770.0</ele><time>2026-03-28T14:22:41Z</time></trkpt><trkpt lat="42.408024610310726" lon="12.737207451630491"><ele>770.0</ele><time>2026-03-28T14:22:42Z</time></trkpt><trkpt lat="42.408003440641956" lon="12.737329476949276"><ele>770.0</ele><time>2026-03-28T14:22:43Z</time></trkpt><trkpt lat="42.40797423832509" lon="12.73742765629994"><ele>730.0</ele><time>2026-03-28T14:22:44Z</time></trkpt><trkpt lat="42.407927095461204" lon="12.737553925690806"><ele>730.0</ele><time>2026-03-28T14:22:46Z</time></trkpt><trkpt lat="42.40788723326244" lon="12.73762975665869"><ele>730.0</ele><time>2026-03-28T14:22:50Z</time></trkpt></trkseg></trk></gpx>